<?xml version="1.0" encoding="UTF-8"?>
<gpx version="1.1" creator="https://www.youtrack.es" xsi:schemaLocation="http://www.topografix.com/GPX/1/1 http://www.topografix.com/GPX/1/1/gpx.xsd http://www.garmin.com/xmlschemas/GpxExtensions/v3 http://www.garmin.com/xmlschemas/GpxExtensionsv3.xsd http://www.garmin.com/xmlschemas/TrackPointExtension/v1 http://www.garmin.com/xmlschemas/TrackPointExtensionv1.xsd" xmlns:gpxtpx="http://www.garmin.com/xmlschemas/TrackPointExtension/v1" xmlns:gpxx="http://www.garmin.com/xmlschemas/GpxExtensions/v3" xmlns:xsi="http://www.w3.org/2001/XMLSchema-instance">
  <metadata>
    <link href="https://www.youtrack.es">
      <text>YouTrack.es</text>
    </link>
    <time>2026-05-10T11:56:13Z</time>
  </metadata>
  <trk>
    <src>https://www.youtrack.es</src>
    <link href="https://www.youtrack.es/ruta/14174-4--encamp-puigcerda">
      <text>YouTrack.es</text>
    </link>
    <trkseg>
      <trkpt lat="42.535593" lon="1.582151">
        <ele>1260.9</ele>
        <time>2013-08-08T06:37:55Z</time>
      </trkpt>
      <trkpt lat="42.535508" lon="1.582181">
        <ele>1261.4</ele>
        <time>2013-08-08T06:38:14Z</time>
      </trkpt>
      <trkpt lat="42.535405" lon="1.582154">
        <ele>1261.6</ele>
        <time>2013-08-08T06:38:28Z</time>
      </trkpt>
      <trkpt lat="42.535405" lon="1.582154">
        <ele>1261.6</ele>
        <time>2013-08-08T06:38:47Z</time>
      </trkpt>
      <trkpt lat="42.535374" lon="1.582141">
        <ele>1261.6</ele>
        <time>2013-08-08T06:38:56Z</time>
      </trkpt>
      <trkpt lat="42.535251" lon="1.582127">
        <ele>1261.6</ele>
        <time>2013-08-08T06:39:13Z</time>
      </trkpt>
      <trkpt lat="42.535250" lon="1.582131">
        <ele>1261.6</ele>
        <time>2013-08-08T06:39:23Z</time>
      </trkpt>
      <trkpt lat="42.535216" lon="1.582115">
        <ele>1261.5</ele>
        <time>2013-08-08T06:39:35Z</time>
      </trkpt>
      <trkpt lat="42.535181" lon="1.582152">
        <ele>1261.8</ele>
        <time>2013-08-08T06:39:51Z</time>
      </trkpt>
      <trkpt lat="42.535077" lon="1.582257">
        <ele>1262.9</ele>
        <time>2013-08-08T06:40:04Z</time>
      </trkpt>
      <trkpt lat="42.535062" lon="1.582299">
        <ele>1263.4</ele>
        <time>2013-08-08T06:40:08Z</time>
      </trkpt>
      <trkpt lat="42.535006" lon="1.582363">
        <ele>1264.2</ele>
        <time>2013-08-08T06:40:14Z</time>
      </trkpt>
      <trkpt lat="42.534941" lon="1.582382">
        <ele>1264.9</ele>
        <time>2013-08-08T06:40:19Z</time>
      </trkpt>
      <trkpt lat="42.534712" lon="1.582333">
        <ele>1264.4</ele>
        <time>2013-08-08T06:40:32Z</time>
      </trkpt>
      <trkpt lat="42.534500" lon="1.582295">
        <ele>1264.0</ele>
        <time>2013-08-08T06:40:47Z</time>
      </trkpt>
      <trkpt lat="42.534459" lon="1.582261">
        <ele>1263.8</ele>
        <time>2013-08-08T06:40:51Z</time>
      </trkpt>
      <trkpt lat="42.534312" lon="1.582216">
        <ele>1263.5</ele>
        <time>2013-08-08T06:41:01Z</time>
      </trkpt>
      <trkpt lat="42.534344" lon="1.582236">
        <ele>1263.8</ele>
        <time>2013-08-08T06:41:04Z</time>
      </trkpt>
      <trkpt lat="42.534336" lon="1.582232">
        <ele>1263.7</ele>
        <time>2013-08-08T06:41:06Z</time>
      </trkpt>
      <trkpt lat="42.534290" lon="1.582227">
        <ele>1263.7</ele>
        <time>2013-08-08T06:41:12Z</time>
      </trkpt>
      <trkpt lat="42.534263" lon="1.582184">
        <ele>1263.1</ele>
        <time>2013-08-08T06:41:15Z</time>
      </trkpt>
      <trkpt lat="42.534130" lon="1.582098">
        <ele>1262.1</ele>
        <time>2013-08-08T06:41:27Z</time>
      </trkpt>
      <trkpt lat="42.534026" lon="1.582079">
        <ele>1262.3</ele>
        <time>2013-08-08T06:41:36Z</time>
      </trkpt>
      <trkpt lat="42.533908" lon="1.582025">
        <ele>1262.4</ele>
        <time>2013-08-08T06:41:48Z</time>
      </trkpt>
      <trkpt lat="42.533792" lon="1.581888">
        <ele>1261.7</ele>
        <time>2013-08-08T06:42:00Z</time>
      </trkpt>
      <trkpt lat="42.533782" lon="1.581880">
        <ele>1261.7</ele>
        <time>2013-08-08T06:42:01Z</time>
      </trkpt>
      <trkpt lat="42.533683" lon="1.581832">
        <ele>1262.0</ele>
        <time>2013-08-08T06:42:13Z</time>
      </trkpt>
      <trkpt lat="42.533629" lon="1.581784">
        <ele>1261.9</ele>
        <time>2013-08-08T06:42:24Z</time>
      </trkpt>
      <trkpt lat="42.533568" lon="1.581670">
        <ele>1261.2</ele>
        <time>2013-08-08T06:43:11Z</time>
      </trkpt>
      <trkpt lat="42.533569" lon="1.581627">
        <ele>1260.9</ele>
        <time>2013-08-08T06:43:26Z</time>
      </trkpt>
      <trkpt lat="42.533568" lon="1.581626">
        <ele>1260.9</ele>
        <time>2013-08-08T06:43:38Z</time>
      </trkpt>
      <trkpt lat="42.533491" lon="1.581471">
        <ele>1260.4</ele>
        <time>2013-08-08T06:43:45Z</time>
      </trkpt>
      <trkpt lat="42.533455" lon="1.581412">
        <ele>1260.5</ele>
        <time>2013-08-08T06:43:52Z</time>
      </trkpt>
      <trkpt lat="42.533395" lon="1.581333">
        <ele>1261.0</ele>
        <time>2013-08-08T06:44:03Z</time>
      </trkpt>
      <trkpt lat="42.533372" lon="1.581281">
        <ele>1261.3</ele>
        <time>2013-08-08T06:44:07Z</time>
      </trkpt>
      <trkpt lat="42.533343" lon="1.581187">
        <ele>1261.1</ele>
        <time>2013-08-08T06:44:14Z</time>
      </trkpt>
      <trkpt lat="42.533332" lon="1.581117">
        <ele>1260.7</ele>
        <time>2013-08-08T06:44:25Z</time>
      </trkpt>
      <trkpt lat="42.533298" lon="1.581034">
        <ele>1260.4</ele>
        <time>2013-08-08T06:44:33Z</time>
      </trkpt>
      <trkpt lat="42.533269" lon="1.580950">
        <ele>1260.3</ele>
        <time>2013-08-08T06:44:45Z</time>
      </trkpt>
      <trkpt lat="42.533209" lon="1.580856">
        <ele>1260.8</ele>
        <time>2013-08-08T06:44:52Z</time>
      </trkpt>
      <trkpt lat="42.533154" lon="1.580682">
        <ele>1261.0</ele>
        <time>2013-08-08T06:45:04Z</time>
      </trkpt>
      <trkpt lat="42.533077" lon="1.580408">
        <ele>1260.8</ele>
        <time>2013-08-08T06:45:18Z</time>
      </trkpt>
      <trkpt lat="42.533013" lon="1.580200">
        <ele>1261.7</ele>
        <time>2013-08-08T06:45:30Z</time>
      </trkpt>
      <trkpt lat="42.532989" lon="1.580067">
        <ele>1261.5</ele>
        <time>2013-08-08T06:45:38Z</time>
      </trkpt>
      <trkpt lat="42.532973" lon="1.580010">
        <ele>1261.6</ele>
        <time>2013-08-08T06:45:54Z</time>
      </trkpt>
      <trkpt lat="42.532973" lon="1.580010">
        <ele>1261.6</ele>
        <time>2013-08-08T06:46:22Z</time>
      </trkpt>
      <trkpt lat="42.532968" lon="1.580003">
        <ele>1261.7</ele>
        <time>2013-08-08T06:46:54Z</time>
      </trkpt>
      <trkpt lat="42.532975" lon="1.579977">
        <ele>1261.5</ele>
        <time>2013-08-08T06:47:29Z</time>
      </trkpt>
      <trkpt lat="42.532978" lon="1.579961">
        <ele>1261.5</ele>
        <time>2013-08-08T06:47:57Z</time>
      </trkpt>
      <trkpt lat="42.532972" lon="1.579912">
        <ele>1261.4</ele>
        <time>2013-08-08T06:48:13Z</time>
      </trkpt>
      <trkpt lat="42.532867" lon="1.579881">
        <ele>1263.1</ele>
        <time>2013-08-08T06:48:22Z</time>
      </trkpt>
      <trkpt lat="42.532833" lon="1.579862">
        <ele>1263.7</ele>
        <time>2013-08-08T06:48:26Z</time>
      </trkpt>
      <trkpt lat="42.532802" lon="1.579840">
        <ele>1264.3</ele>
        <time>2013-08-08T06:48:29Z</time>
      </trkpt>
      <trkpt lat="42.532763" lon="1.579818">
        <ele>1265.1</ele>
        <time>2013-08-08T06:48:33Z</time>
      </trkpt>
      <trkpt lat="42.532683" lon="1.579789">
        <ele>1266.6</ele>
        <time>2013-08-08T06:48:41Z</time>
      </trkpt>
      <trkpt lat="42.532635" lon="1.579777">
        <ele>1267.4</ele>
        <time>2013-08-08T06:48:46Z</time>
      </trkpt>
      <trkpt lat="42.532534" lon="1.579812">
        <ele>1269.6</ele>
        <time>2013-08-08T06:48:58Z</time>
      </trkpt>
      <trkpt lat="42.532504" lon="1.579821">
        <ele>1270.2</ele>
        <time>2013-08-08T06:49:01Z</time>
      </trkpt>
      <trkpt lat="42.532375" lon="1.579802">
        <ele>1272.3</ele>
        <time>2013-08-08T06:49:15Z</time>
      </trkpt>
      <trkpt lat="42.532351" lon="1.579796">
        <ele>1272.7</ele>
        <time>2013-08-08T06:49:18Z</time>
      </trkpt>
      <trkpt lat="42.532236" lon="1.579765">
        <ele>1275.1</ele>
        <time>2013-08-08T06:49:30Z</time>
      </trkpt>
      <trkpt lat="42.532141" lon="1.579751">
        <ele>1276.7</ele>
        <time>2013-08-08T06:49:42Z</time>
      </trkpt>
      <trkpt lat="42.532050" lon="1.579743">
        <ele>1278.3</ele>
        <time>2013-08-08T06:49:53Z</time>
      </trkpt>
      <trkpt lat="42.531994" lon="1.579759">
        <ele>1279.6</ele>
        <time>2013-08-08T06:50:06Z</time>
      </trkpt>
      <trkpt lat="42.531994" lon="1.579759">
        <ele>1279.6</ele>
        <time>2013-08-08T06:50:21Z</time>
      </trkpt>
      <trkpt lat="42.531994" lon="1.579759">
        <ele>1279.6</ele>
        <time>2013-08-08T06:50:34Z</time>
      </trkpt>
      <trkpt lat="42.531994" lon="1.579759">
        <ele>1279.6</ele>
        <time>2013-08-08T06:50:42Z</time>
      </trkpt>
      <trkpt lat="42.531942" lon="1.579711">
        <ele>1281.0</ele>
        <time>2013-08-08T06:50:57Z</time>
      </trkpt>
      <trkpt lat="42.531893" lon="1.579609">
        <ele>1282.9</ele>
        <time>2013-08-08T06:51:20Z</time>
      </trkpt>
      <trkpt lat="42.531876" lon="1.579589">
        <ele>1283.6</ele>
        <time>2013-08-08T06:51:22Z</time>
      </trkpt>
      <trkpt lat="42.531777" lon="1.579608">
        <ele>1287.3</ele>
        <time>2013-08-08T06:51:36Z</time>
      </trkpt>
      <trkpt lat="42.531769" lon="1.579605">
        <ele>1287.6</ele>
        <time>2013-08-08T06:51:37Z</time>
      </trkpt>
      <trkpt lat="42.531724" lon="1.579610">
        <ele>1288.9</ele>
        <time>2013-08-08T06:51:42Z</time>
      </trkpt>
      <trkpt lat="42.531680" lon="1.579634">
        <ele>1290.3</ele>
        <time>2013-08-08T06:51:56Z</time>
      </trkpt>
      <trkpt lat="42.531674" lon="1.579619">
        <ele>1290.4</ele>
        <time>2013-08-08T06:56:06Z</time>
      </trkpt>
      <trkpt lat="42.531561" lon="1.579492">
        <ele>1293.8</ele>
        <time>2013-08-08T06:56:18Z</time>
      </trkpt>
      <trkpt lat="42.531494" lon="1.579354">
        <ele>1296.1</ele>
        <time>2013-08-08T06:56:29Z</time>
      </trkpt>
      <trkpt lat="42.531425" lon="1.579209">
        <ele>1297.8</ele>
        <time>2013-08-08T06:56:42Z</time>
      </trkpt>
      <trkpt lat="42.531380" lon="1.579054">
        <ele>1298.4</ele>
        <time>2013-08-08T06:56:54Z</time>
      </trkpt>
      <trkpt lat="42.531383" lon="1.578955">
        <ele>1297.3</ele>
        <time>2013-08-08T06:56:59Z</time>
      </trkpt>
      <trkpt lat="42.531353" lon="1.578768">
        <ele>1296.3</ele>
        <time>2013-08-08T06:57:11Z</time>
      </trkpt>
      <trkpt lat="42.531343" lon="1.578737">
        <ele>1296.4</ele>
        <time>2013-08-08T06:57:16Z</time>
      </trkpt>
      <trkpt lat="42.531318" lon="1.578711">
        <ele>1297.1</ele>
        <time>2013-08-08T06:57:20Z</time>
      </trkpt>
      <trkpt lat="42.531297" lon="1.578638">
        <ele>1297.4</ele>
        <time>2013-08-08T06:57:26Z</time>
      </trkpt>
      <trkpt lat="42.531232" lon="1.578472">
        <ele>1297.7</ele>
        <time>2013-08-08T06:57:39Z</time>
      </trkpt>
      <trkpt lat="42.531130" lon="1.578376">
        <ele>1299.2</ele>
        <time>2013-08-08T06:57:51Z</time>
      </trkpt>
      <trkpt lat="42.531126" lon="1.578373">
        <ele>1299.3</ele>
        <time>2013-08-08T06:58:03Z</time>
      </trkpt>
      <trkpt lat="42.531029" lon="1.578270">
        <ele>1300.3</ele>
        <time>2013-08-08T06:58:15Z</time>
      </trkpt>
      <trkpt lat="42.531005" lon="1.578246">
        <ele>1300.4</ele>
        <time>2013-08-08T06:58:18Z</time>
      </trkpt>
      <trkpt lat="42.530954" lon="1.578156">
        <ele>1300.0</ele>
        <time>2013-08-08T06:58:25Z</time>
      </trkpt>
      <trkpt lat="42.530863" lon="1.577979">
        <ele>1300.3</ele>
        <time>2013-08-08T06:58:38Z</time>
      </trkpt>
      <trkpt lat="42.530847" lon="1.577947">
        <ele>1300.6</ele>
        <time>2013-08-08T06:58:41Z</time>
      </trkpt>
      <trkpt lat="42.530803" lon="1.577764">
        <ele>1302.2</ele>
        <time>2013-08-08T06:58:51Z</time>
      </trkpt>
      <trkpt lat="42.530794" lon="1.577733">
        <ele>1302.4</ele>
        <time>2013-08-08T06:58:55Z</time>
      </trkpt>
      <trkpt lat="42.530766" lon="1.577638">
        <ele>1302.7</ele>
        <time>2013-08-08T06:59:08Z</time>
      </trkpt>
      <trkpt lat="42.530680" lon="1.577512">
        <ele>1305.2</ele>
        <time>2013-08-08T06:59:23Z</time>
      </trkpt>
      <trkpt lat="42.530672" lon="1.577479">
        <ele>1305.0</ele>
        <time>2013-08-08T06:59:27Z</time>
      </trkpt>
      <trkpt lat="42.530640" lon="1.577439">
        <ele>1305.6</ele>
        <time>2013-08-08T06:59:40Z</time>
      </trkpt>
      <trkpt lat="42.530643" lon="1.577431">
        <ele>1305.4</ele>
        <time>2013-08-08T06:59:59Z</time>
      </trkpt>
      <trkpt lat="42.530643" lon="1.577422">
        <ele>1305.3</ele>
        <time>2013-08-08T07:00:16Z</time>
      </trkpt>
      <trkpt lat="42.530643" lon="1.577422">
        <ele>1305.3</ele>
        <time>2013-08-08T07:00:34Z</time>
      </trkpt>
      <trkpt lat="42.530643" lon="1.577422">
        <ele>1305.3</ele>
        <time>2013-08-08T07:00:38Z</time>
      </trkpt>
      <trkpt lat="42.530561" lon="1.577310">
        <ele>1306.9</ele>
        <time>2013-08-08T07:00:50Z</time>
      </trkpt>
      <trkpt lat="42.530478" lon="1.577214">
        <ele>1309.5</ele>
        <time>2013-08-08T07:01:01Z</time>
      </trkpt>
      <trkpt lat="42.530472" lon="1.577204">
        <ele>1309.6</ele>
        <time>2013-08-08T07:01:02Z</time>
      </trkpt>
      <trkpt lat="42.530440" lon="1.577143">
        <ele>1310.6</ele>
        <time>2013-08-08T07:01:07Z</time>
      </trkpt>
      <trkpt lat="42.530406" lon="1.577057">
        <ele>1311.5</ele>
        <time>2013-08-08T07:01:15Z</time>
      </trkpt>
      <trkpt lat="42.530326" lon="1.576969">
        <ele>1314.7</ele>
        <time>2013-08-08T07:01:28Z</time>
      </trkpt>
      <trkpt lat="42.530285" lon="1.576954">
        <ele>1316.5</ele>
        <time>2013-08-08T07:01:34Z</time>
      </trkpt>
      <trkpt lat="42.530255" lon="1.576927">
        <ele>1317.9</ele>
        <time>2013-08-08T07:01:38Z</time>
      </trkpt>
      <trkpt lat="42.530184" lon="1.576813">
        <ele>1320.7</ele>
        <time>2013-08-08T07:01:52Z</time>
      </trkpt>
      <trkpt lat="42.530182" lon="1.576804">
        <ele>1320.8</ele>
        <time>2013-08-08T07:01:53Z</time>
      </trkpt>
      <trkpt lat="42.530181" lon="1.576762">
        <ele>1320.8</ele>
        <time>2013-08-08T07:01:56Z</time>
      </trkpt>
      <trkpt lat="42.530168" lon="1.576598">
        <ele>1321.1</ele>
        <time>2013-08-08T07:02:09Z</time>
      </trkpt>
      <trkpt lat="42.530141" lon="1.576433">
        <ele>1321.6</ele>
        <time>2013-08-08T07:02:21Z</time>
      </trkpt>
      <trkpt lat="42.530136" lon="1.576423">
        <ele>1321.7</ele>
        <time>2013-08-08T07:02:22Z</time>
      </trkpt>
      <trkpt lat="42.530057" lon="1.576219">
        <ele>1322.3</ele>
        <time>2013-08-08T07:02:37Z</time>
      </trkpt>
      <trkpt lat="42.530014" lon="1.576044">
        <ele>1320.6</ele>
        <time>2013-08-08T07:02:51Z</time>
      </trkpt>
      <trkpt lat="42.529977" lon="1.575984">
        <ele>1320.5</ele>
        <time>2013-08-08T07:03:04Z</time>
      </trkpt>
      <trkpt lat="42.529960" lon="1.575983">
        <ele>1321.0</ele>
        <time>2013-08-08T07:03:10Z</time>
      </trkpt>
      <trkpt lat="42.529909" lon="1.576032">
        <ele>1323.6</ele>
        <time>2013-08-08T07:03:23Z</time>
      </trkpt>
      <trkpt lat="42.529909" lon="1.576032">
        <ele>1323.6</ele>
        <time>2013-08-08T07:03:44Z</time>
      </trkpt>
      <trkpt lat="42.529883" lon="1.576045">
        <ele>1324.7</ele>
        <time>2013-08-08T07:04:01Z</time>
      </trkpt>
      <trkpt lat="42.529838" lon="1.576086">
        <ele>1327.0</ele>
        <time>2013-08-08T07:04:20Z</time>
      </trkpt>
      <trkpt lat="42.529836" lon="1.576097">
        <ele>1327.3</ele>
        <time>2013-08-08T07:04:41Z</time>
      </trkpt>
      <trkpt lat="42.529793" lon="1.576272">
        <ele>1332.3</ele>
        <time>2013-08-08T07:04:55Z</time>
      </trkpt>
      <trkpt lat="42.529763" lon="1.576337">
        <ele>1334.3</ele>
        <time>2013-08-08T07:05:01Z</time>
      </trkpt>
      <trkpt lat="42.529711" lon="1.576383">
        <ele>1336.7</ele>
        <time>2013-08-08T07:05:19Z</time>
      </trkpt>
      <trkpt lat="42.529645" lon="1.576400">
        <ele>1339.0</ele>
        <time>2013-08-08T07:05:32Z</time>
      </trkpt>
      <trkpt lat="42.529637" lon="1.576400">
        <ele>1339.3</ele>
        <time>2013-08-08T07:05:33Z</time>
      </trkpt>
      <trkpt lat="42.529563" lon="1.576402">
        <ele>1341.5</ele>
        <time>2013-08-08T07:05:48Z</time>
      </trkpt>
      <trkpt lat="42.529473" lon="1.576434">
        <ele>1345.2</ele>
        <time>2013-08-08T07:06:01Z</time>
      </trkpt>
      <trkpt lat="42.529406" lon="1.576445">
        <ele>1347.6</ele>
        <time>2013-08-08T07:06:16Z</time>
      </trkpt>
      <trkpt lat="42.529334" lon="1.576420">
        <ele>1349.5</ele>
        <time>2013-08-08T07:06:31Z</time>
      </trkpt>
      <trkpt lat="42.529327" lon="1.576414">
        <ele>1349.6</ele>
        <time>2013-08-08T07:06:34Z</time>
      </trkpt>
      <trkpt lat="42.529235" lon="1.576376">
        <ele>1351.7</ele>
        <time>2013-08-08T07:06:47Z</time>
      </trkpt>
      <trkpt lat="42.529176" lon="1.576396">
        <ele>1354.2</ele>
        <time>2013-08-08T07:07:00Z</time>
      </trkpt>
      <trkpt lat="42.529131" lon="1.576426">
        <ele>1356.7</ele>
        <time>2013-08-08T07:07:13Z</time>
      </trkpt>
      <trkpt lat="42.529076" lon="1.576428">
        <ele>1358.9</ele>
        <time>2013-08-08T07:07:29Z</time>
      </trkpt>
      <trkpt lat="42.528984" lon="1.576408">
        <ele>1361.4</ele>
        <time>2013-08-08T07:07:48Z</time>
      </trkpt>
      <trkpt lat="42.528934" lon="1.576396">
        <ele>1362.9</ele>
        <time>2013-08-08T07:08:04Z</time>
      </trkpt>
      <trkpt lat="42.528896" lon="1.576397">
        <ele>1364.5</ele>
        <time>2013-08-08T07:08:18Z</time>
      </trkpt>
      <trkpt lat="42.528852" lon="1.576401">
        <ele>1367.2</ele>
        <time>2013-08-08T07:08:33Z</time>
      </trkpt>
      <trkpt lat="42.528811" lon="1.576312">
        <ele>1367.3</ele>
        <time>2013-08-08T07:08:46Z</time>
      </trkpt>
      <trkpt lat="42.528756" lon="1.576181">
        <ele>1370.3</ele>
        <time>2013-08-08T07:09:01Z</time>
      </trkpt>
      <trkpt lat="42.528707" lon="1.576164">
        <ele>1374.2</ele>
        <time>2013-08-08T07:09:12Z</time>
      </trkpt>
      <trkpt lat="42.528692" lon="1.576139">
        <ele>1375.5</ele>
        <time>2013-08-08T07:09:24Z</time>
      </trkpt>
      <trkpt lat="42.528644" lon="1.576093">
        <ele>1379.4</ele>
        <time>2013-08-08T07:09:37Z</time>
      </trkpt>
      <trkpt lat="42.528596" lon="1.576084">
        <ele>1383.4</ele>
        <time>2013-08-08T07:09:51Z</time>
      </trkpt>
      <trkpt lat="42.528564" lon="1.576123">
        <ele>1386.1</ele>
        <time>2013-08-08T07:10:02Z</time>
      </trkpt>
      <trkpt lat="42.528522" lon="1.576194">
        <ele>1390.1</ele>
        <time>2013-08-08T07:10:20Z</time>
      </trkpt>
      <trkpt lat="42.528491" lon="1.576250">
        <ele>1393.5</ele>
        <time>2013-08-08T07:10:35Z</time>
      </trkpt>
      <trkpt lat="42.528483" lon="1.576210">
        <ele>1393.9</ele>
        <time>2013-08-08T07:10:45Z</time>
      </trkpt>
      <trkpt lat="42.528447" lon="1.576161">
        <ele>1396.7</ele>
        <time>2013-08-08T07:10:57Z</time>
      </trkpt>
      <trkpt lat="42.528393" lon="1.576078">
        <ele>1401.5</ele>
        <time>2013-08-08T07:11:11Z</time>
      </trkpt>
      <trkpt lat="42.528354" lon="1.576004">
        <ele>1404.6</ele>
        <time>2013-08-08T07:11:23Z</time>
      </trkpt>
      <trkpt lat="42.528351" lon="1.575954">
        <ele>1404.5</ele>
        <time>2013-08-08T07:11:33Z</time>
      </trkpt>
      <trkpt lat="42.528314" lon="1.575933">
        <ele>1408.1</ele>
        <time>2013-08-08T07:11:52Z</time>
      </trkpt>
      <trkpt lat="42.528304" lon="1.575943">
        <ele>1409.1</ele>
        <time>2013-08-08T07:12:08Z</time>
      </trkpt>
      <trkpt lat="42.528271" lon="1.576004">
        <ele>1412.4</ele>
        <time>2013-08-08T07:12:28Z</time>
      </trkpt>
      <trkpt lat="42.528226" lon="1.576113">
        <ele>1416.0</ele>
        <time>2013-08-08T07:12:42Z</time>
      </trkpt>
      <trkpt lat="42.528206" lon="1.576221">
        <ele>1417.3</ele>
        <time>2013-08-08T07:12:57Z</time>
      </trkpt>
      <trkpt lat="42.528168" lon="1.576325">
        <ele>1418.6</ele>
        <time>2013-08-08T07:13:09Z</time>
      </trkpt>
      <trkpt lat="42.528129" lon="1.576422">
        <ele>1418.7</ele>
        <time>2013-08-08T07:13:24Z</time>
      </trkpt>
      <trkpt lat="42.528080" lon="1.576501">
        <ele>1419.3</ele>
        <time>2013-08-08T07:13:41Z</time>
      </trkpt>
      <trkpt lat="42.528016" lon="1.576594">
        <ele>1420.5</ele>
        <time>2013-08-08T07:13:53Z</time>
      </trkpt>
      <trkpt lat="42.527942" lon="1.576777">
        <ele>1421.1</ele>
        <time>2013-08-08T07:14:10Z</time>
      </trkpt>
      <trkpt lat="42.527873" lon="1.576911">
        <ele>1424.0</ele>
        <time>2013-08-08T07:14:25Z</time>
      </trkpt>
      <trkpt lat="42.527849" lon="1.576919">
        <ele>1425.4</ele>
        <time>2013-08-08T07:14:38Z</time>
      </trkpt>
      <trkpt lat="42.527833" lon="1.576850">
        <ele>1426.7</ele>
        <time>2013-08-08T07:14:49Z</time>
      </trkpt>
      <trkpt lat="42.527853" lon="1.576770">
        <ele>1426.8</ele>
        <time>2013-08-08T07:15:00Z</time>
      </trkpt>
      <trkpt lat="42.527855" lon="1.576734">
        <ele>1427.5</ele>
        <time>2013-08-08T07:15:12Z</time>
      </trkpt>
      <trkpt lat="42.527849" lon="1.576719">
        <ele>1428.1</ele>
        <time>2013-08-08T07:15:25Z</time>
      </trkpt>
      <trkpt lat="42.527840" lon="1.576689">
        <ele>1429.1</ele>
        <time>2013-08-08T07:15:38Z</time>
      </trkpt>
      <trkpt lat="42.527821" lon="1.576643">
        <ele>1430.8</ele>
        <time>2013-08-08T07:15:51Z</time>
      </trkpt>
      <trkpt lat="42.527782" lon="1.576589">
        <ele>1434.1</ele>
        <time>2013-08-08T07:16:02Z</time>
      </trkpt>
      <trkpt lat="42.527762" lon="1.576525">
        <ele>1436.8</ele>
        <time>2013-08-08T07:16:13Z</time>
      </trkpt>
      <trkpt lat="42.527752" lon="1.576428">
        <ele>1439.6</ele>
        <time>2013-08-08T07:16:25Z</time>
      </trkpt>
      <trkpt lat="42.527752" lon="1.576363">
        <ele>1440.9</ele>
        <time>2013-08-08T07:16:39Z</time>
      </trkpt>
      <trkpt lat="42.527752" lon="1.576355">
        <ele>1441.1</ele>
        <time>2013-08-08T07:16:59Z</time>
      </trkpt>
      <trkpt lat="42.527731" lon="1.576306">
        <ele>1443.6</ele>
        <time>2013-08-08T07:17:16Z</time>
      </trkpt>
      <trkpt lat="42.527727" lon="1.576313">
        <ele>1443.8</ele>
        <time>2013-08-08T07:17:37Z</time>
      </trkpt>
      <trkpt lat="42.527642" lon="1.576319">
        <ele>1449.8</ele>
        <time>2013-08-08T07:17:56Z</time>
      </trkpt>
      <trkpt lat="42.527626" lon="1.576324">
        <ele>1450.8</ele>
        <time>2013-08-08T07:18:13Z</time>
      </trkpt>
      <trkpt lat="42.527533" lon="1.576342">
        <ele>1457.1</ele>
        <time>2013-08-08T07:18:26Z</time>
      </trkpt>
      <trkpt lat="42.527528" lon="1.576331">
        <ele>1457.8</ele>
        <time>2013-08-08T07:18:41Z</time>
      </trkpt>
      <trkpt lat="42.527492" lon="1.576299">
        <ele>1461.4</ele>
        <time>2013-08-08T07:18:56Z</time>
      </trkpt>
      <trkpt lat="42.527487" lon="1.576261">
        <ele>1462.8</ele>
        <time>2013-08-08T07:19:10Z</time>
      </trkpt>
      <trkpt lat="42.527530" lon="1.576218">
        <ele>1461.2</ele>
        <time>2013-08-08T07:19:26Z</time>
      </trkpt>
      <trkpt lat="42.527524" lon="1.576213">
        <ele>1461.9</ele>
        <time>2013-08-08T07:19:44Z</time>
      </trkpt>
      <trkpt lat="42.527421" lon="1.576110">
        <ele>1471.3</ele>
        <time>2013-08-08T07:20:01Z</time>
      </trkpt>
      <trkpt lat="42.527350" lon="1.576145">
        <ele>1475.0</ele>
        <time>2013-08-08T07:20:18Z</time>
      </trkpt>
      <trkpt lat="42.527322" lon="1.576193">
        <ele>1475.7</ele>
        <time>2013-08-08T07:20:32Z</time>
      </trkpt>
      <trkpt lat="42.527323" lon="1.576187">
        <ele>1475.8</ele>
        <time>2013-08-08T07:20:45Z</time>
      </trkpt>
      <trkpt lat="42.527295" lon="1.576222">
        <ele>1476.7</ele>
        <time>2013-08-08T07:21:01Z</time>
      </trkpt>
      <trkpt lat="42.527241" lon="1.576308">
        <ele>1478.3</ele>
        <time>2013-08-08T07:21:18Z</time>
      </trkpt>
      <trkpt lat="42.527221" lon="1.576355">
        <ele>1478.6</ele>
        <time>2013-08-08T07:21:40Z</time>
      </trkpt>
      <trkpt lat="42.527192" lon="1.576488">
        <ele>1476.9</ele>
        <time>2013-08-08T07:22:01Z</time>
      </trkpt>
      <trkpt lat="42.527156" lon="1.576501">
        <ele>1478.7</ele>
        <time>2013-08-08T07:22:15Z</time>
      </trkpt>
      <trkpt lat="42.527130" lon="1.576496">
        <ele>1480.3</ele>
        <time>2013-08-08T07:22:30Z</time>
      </trkpt>
      <trkpt lat="42.527102" lon="1.576497">
        <ele>1481.9</ele>
        <time>2013-08-08T07:22:45Z</time>
      </trkpt>
      <trkpt lat="42.527051" lon="1.576494">
        <ele>1484.8</ele>
        <time>2013-08-08T07:22:59Z</time>
      </trkpt>
      <trkpt lat="42.527008" lon="1.576513">
        <ele>1486.9</ele>
        <time>2013-08-08T07:23:11Z</time>
      </trkpt>
      <trkpt lat="42.526988" lon="1.576521">
        <ele>1487.9</ele>
        <time>2013-08-08T07:23:27Z</time>
      </trkpt>
      <trkpt lat="42.526986" lon="1.576518">
        <ele>1488.1</ele>
        <time>2013-08-08T07:23:44Z</time>
      </trkpt>
      <trkpt lat="42.526985" lon="1.576512">
        <ele>1488.3</ele>
        <time>2013-08-08T07:24:01Z</time>
      </trkpt>
      <trkpt lat="42.526981" lon="1.576508">
        <ele>1488.6</ele>
        <time>2013-08-08T07:24:17Z</time>
      </trkpt>
      <trkpt lat="42.526965" lon="1.576481">
        <ele>1490.0</ele>
        <time>2013-08-08T07:24:30Z</time>
      </trkpt>
      <trkpt lat="42.526958" lon="1.576413">
        <ele>1491.9</ele>
        <time>2013-08-08T07:24:40Z</time>
      </trkpt>
      <trkpt lat="42.526922" lon="1.576317">
        <ele>1496.1</ele>
        <time>2013-08-08T07:24:52Z</time>
      </trkpt>
      <trkpt lat="42.526895" lon="1.576292">
        <ele>1498.1</ele>
        <time>2013-08-08T07:24:54Z</time>
      </trkpt>
      <trkpt lat="42.526764" lon="1.576150">
        <ele>1507.1</ele>
        <time>2013-08-08T07:25:08Z</time>
      </trkpt>
      <trkpt lat="42.526748" lon="1.576071">
        <ele>1507.9</ele>
        <time>2013-08-08T07:25:21Z</time>
      </trkpt>
      <trkpt lat="42.526726" lon="1.575943">
        <ele>1509.6</ele>
        <time>2013-08-08T07:25:33Z</time>
      </trkpt>
      <trkpt lat="42.526720" lon="1.575647">
        <ele>1511.4</ele>
        <time>2013-08-08T07:25:46Z</time>
      </trkpt>
      <trkpt lat="42.526719" lon="1.575629">
        <ele>1511.6</ele>
        <time>2013-08-08T07:25:47Z</time>
      </trkpt>
      <trkpt lat="42.526744" lon="1.575610">
        <ele>1510.8</ele>
        <time>2013-08-08T07:26:02Z</time>
      </trkpt>
      <trkpt lat="42.526753" lon="1.575563">
        <ele>1510.9</ele>
        <time>2013-08-08T07:26:17Z</time>
      </trkpt>
      <trkpt lat="42.526756" lon="1.575464">
        <ele>1511.5</ele>
        <time>2013-08-08T07:26:31Z</time>
      </trkpt>
      <trkpt lat="42.526764" lon="1.575450">
        <ele>1511.4</ele>
        <time>2013-08-08T07:26:46Z</time>
      </trkpt>
      <trkpt lat="42.526773" lon="1.575427">
        <ele>1511.2</ele>
        <time>2013-08-08T07:26:48Z</time>
      </trkpt>
      <trkpt lat="42.526851" lon="1.575352">
        <ele>1509.6</ele>
        <time>2013-08-08T07:26:59Z</time>
      </trkpt>
      <trkpt lat="42.526851" lon="1.575328">
        <ele>1509.9</ele>
        <time>2013-08-08T07:27:20Z</time>
      </trkpt>
      <trkpt lat="42.526823" lon="1.575240">
        <ele>1511.8</ele>
        <time>2013-08-08T07:27:35Z</time>
      </trkpt>
      <trkpt lat="42.526785" lon="1.575206">
        <ele>1512.5</ele>
        <time>2013-08-08T07:27:50Z</time>
      </trkpt>
      <trkpt lat="42.526620" lon="1.575151">
        <ele>1516.1</ele>
        <time>2013-08-08T07:28:05Z</time>
      </trkpt>
      <trkpt lat="42.526565" lon="1.575162">
        <ele>1517.8</ele>
        <time>2013-08-08T07:28:21Z</time>
      </trkpt>
      <trkpt lat="42.526440" lon="1.575170">
        <ele>1522.4</ele>
        <time>2013-08-08T07:28:36Z</time>
      </trkpt>
      <trkpt lat="42.526338" lon="1.575147">
        <ele>1526.6</ele>
        <time>2013-08-08T07:28:51Z</time>
      </trkpt>
      <trkpt lat="42.526220" lon="1.575059">
        <ele>1529.7</ele>
        <time>2013-08-08T07:29:05Z</time>
      </trkpt>
      <trkpt lat="42.526096" lon="1.575047">
        <ele>1535.1</ele>
        <time>2013-08-08T07:29:19Z</time>
      </trkpt>
      <trkpt lat="42.526000" lon="1.575006">
        <ele>1538.0</ele>
        <time>2013-08-08T07:29:34Z</time>
      </trkpt>
      <trkpt lat="42.525923" lon="1.574959">
        <ele>1540.1</ele>
        <time>2013-08-08T07:29:47Z</time>
      </trkpt>
      <trkpt lat="42.525858" lon="1.574908">
        <ele>1541.5</ele>
        <time>2013-08-08T07:29:57Z</time>
      </trkpt>
      <trkpt lat="42.525795" lon="1.574831">
        <ele>1542.1</ele>
        <time>2013-08-08T07:30:08Z</time>
      </trkpt>
      <trkpt lat="42.525742" lon="1.574767">
        <ele>1542.8</ele>
        <time>2013-08-08T07:30:19Z</time>
      </trkpt>
      <trkpt lat="42.525677" lon="1.574700">
        <ele>1543.6</ele>
        <time>2013-08-08T07:30:31Z</time>
      </trkpt>
      <trkpt lat="42.525635" lon="1.574649">
        <ele>1543.8</ele>
        <time>2013-08-08T07:30:42Z</time>
      </trkpt>
      <trkpt lat="42.525589" lon="1.574629">
        <ele>1545.3</ele>
        <time>2013-08-08T07:30:54Z</time>
      </trkpt>
      <trkpt lat="42.525480" lon="1.574603">
        <ele>1549.1</ele>
        <time>2013-08-08T07:31:06Z</time>
      </trkpt>
      <trkpt lat="42.525435" lon="1.574605">
        <ele>1550.9</ele>
        <time>2013-08-08T07:31:17Z</time>
      </trkpt>
      <trkpt lat="42.525345" lon="1.574588">
        <ele>1553.7</ele>
        <time>2013-08-08T07:31:30Z</time>
      </trkpt>
      <trkpt lat="42.525304" lon="1.574626">
        <ele>1556.6</ele>
        <time>2013-08-08T07:31:38Z</time>
      </trkpt>
      <trkpt lat="42.525266" lon="1.574639">
        <ele>1558.6</ele>
        <time>2013-08-08T07:31:49Z</time>
      </trkpt>
      <trkpt lat="42.525247" lon="1.574632">
        <ele>1559.0</ele>
        <time>2013-08-08T07:32:03Z</time>
      </trkpt>
      <trkpt lat="42.525247" lon="1.574632">
        <ele>1559.0</ele>
        <time>2013-08-08T07:32:25Z</time>
      </trkpt>
      <trkpt lat="42.525246" lon="1.574626">
        <ele>1558.8</ele>
        <time>2013-08-08T07:32:54Z</time>
      </trkpt>
      <trkpt lat="42.525215" lon="1.574634">
        <ele>1560.3</ele>
        <time>2013-08-08T07:33:10Z</time>
      </trkpt>
      <trkpt lat="42.525204" lon="1.574631">
        <ele>1560.6</ele>
        <time>2013-08-08T07:33:28Z</time>
      </trkpt>
      <trkpt lat="42.525202" lon="1.574631">
        <ele>1560.7</ele>
        <time>2013-08-08T07:33:57Z</time>
      </trkpt>
      <trkpt lat="42.525159" lon="1.574654">
        <ele>1563.0</ele>
        <time>2013-08-08T07:34:19Z</time>
      </trkpt>
      <trkpt lat="42.525081" lon="1.574688">
        <ele>1566.8</ele>
        <time>2013-08-08T07:34:34Z</time>
      </trkpt>
      <trkpt lat="42.525001" lon="1.574668">
        <ele>1568.4</ele>
        <time>2013-08-08T07:34:44Z</time>
      </trkpt>
      <trkpt lat="42.524941" lon="1.574623">
        <ele>1568.2</ele>
        <time>2013-08-08T07:34:53Z</time>
      </trkpt>
      <trkpt lat="42.524871" lon="1.574585">
        <ele>1568.4</ele>
        <time>2013-08-08T07:35:04Z</time>
      </trkpt>
      <trkpt lat="42.524773" lon="1.574502">
        <ele>1567.8</ele>
        <time>2013-08-08T07:35:17Z</time>
      </trkpt>
      <trkpt lat="42.524686" lon="1.574461">
        <ele>1569.1</ele>
        <time>2013-08-08T07:35:28Z</time>
      </trkpt>
      <trkpt lat="42.524610" lon="1.574406">
        <ele>1569.7</ele>
        <time>2013-08-08T07:35:41Z</time>
      </trkpt>
      <trkpt lat="42.524605" lon="1.574410">
        <ele>1569.9</ele>
        <time>2013-08-08T07:35:50Z</time>
      </trkpt>
      <trkpt lat="42.524522" lon="1.574432">
        <ele>1573.1</ele>
        <time>2013-08-08T07:36:03Z</time>
      </trkpt>
      <trkpt lat="42.524460" lon="1.574382">
        <ele>1573.4</ele>
        <time>2013-08-08T07:36:15Z</time>
      </trkpt>
      <trkpt lat="42.524453" lon="1.574379">
        <ele>1573.6</ele>
        <time>2013-08-08T07:36:16Z</time>
      </trkpt>
      <trkpt lat="42.524356" lon="1.574364">
        <ele>1576.5</ele>
        <time>2013-08-08T07:36:25Z</time>
      </trkpt>
      <trkpt lat="42.524220" lon="1.574305">
        <ele>1579.3</ele>
        <time>2013-08-08T07:36:39Z</time>
      </trkpt>
      <trkpt lat="42.524200" lon="1.574284">
        <ele>1579.3</ele>
        <time>2013-08-08T07:36:42Z</time>
      </trkpt>
      <trkpt lat="42.524145" lon="1.574219">
        <ele>1578.6</ele>
        <time>2013-08-08T07:36:52Z</time>
      </trkpt>
      <trkpt lat="42.524094" lon="1.574166">
        <ele>1578.0</ele>
        <time>2013-08-08T07:37:05Z</time>
      </trkpt>
      <trkpt lat="42.524038" lon="1.574120">
        <ele>1577.9</ele>
        <time>2013-08-08T07:37:17Z</time>
      </trkpt>
      <trkpt lat="42.523937" lon="1.574050">
        <ele>1578.6</ele>
        <time>2013-08-08T07:37:30Z</time>
      </trkpt>
      <trkpt lat="42.523855" lon="1.574013">
        <ele>1580.7</ele>
        <time>2013-08-08T07:37:41Z</time>
      </trkpt>
      <trkpt lat="42.523796" lon="1.573971">
        <ele>1582.3</ele>
        <time>2013-08-08T07:37:51Z</time>
      </trkpt>
      <trkpt lat="42.523776" lon="1.573934">
        <ele>1582.4</ele>
        <time>2013-08-08T07:38:00Z</time>
      </trkpt>
      <trkpt lat="42.523707" lon="1.573936">
        <ele>1586.5</ele>
        <time>2013-08-08T07:38:11Z</time>
      </trkpt>
      <trkpt lat="42.523694" lon="1.573928">
        <ele>1587.1</ele>
        <time>2013-08-08T07:38:16Z</time>
      </trkpt>
      <trkpt lat="42.523644" lon="1.573893">
        <ele>1589.0</ele>
        <time>2013-08-08T07:38:29Z</time>
      </trkpt>
      <trkpt lat="42.523636" lon="1.573882">
        <ele>1589.2</ele>
        <time>2013-08-08T07:38:39Z</time>
      </trkpt>
      <trkpt lat="42.523627" lon="1.573885">
        <ele>1589.8</ele>
        <time>2013-08-08T07:38:49Z</time>
      </trkpt>
      <trkpt lat="42.523627" lon="1.573885">
        <ele>1589.8</ele>
        <time>2013-08-08T07:39:10Z</time>
      </trkpt>
      <trkpt lat="42.523628" lon="1.573882">
        <ele>1589.7</ele>
        <time>2013-08-08T07:39:34Z</time>
      </trkpt>
      <trkpt lat="42.523628" lon="1.573882">
        <ele>1589.7</ele>
        <time>2013-08-08T07:40:01Z</time>
      </trkpt>
      <trkpt lat="42.523598" lon="1.573854">
        <ele>1590.6</ele>
        <time>2013-08-08T07:40:10Z</time>
      </trkpt>
      <trkpt lat="42.523575" lon="1.573830">
        <ele>1591.2</ele>
        <time>2013-08-08T07:40:13Z</time>
      </trkpt>
      <trkpt lat="42.523505" lon="1.573716">
        <ele>1592.0</ele>
        <time>2013-08-08T07:40:25Z</time>
      </trkpt>
      <trkpt lat="42.523504" lon="1.573713">
        <ele>1592.0</ele>
        <time>2013-08-08T07:40:27Z</time>
      </trkpt>
      <trkpt lat="42.523381" lon="1.573632">
        <ele>1596.9</ele>
        <time>2013-08-08T07:40:40Z</time>
      </trkpt>
      <trkpt lat="42.523298" lon="1.573547">
        <ele>1599.3</ele>
        <time>2013-08-08T07:40:51Z</time>
      </trkpt>
      <trkpt lat="42.523230" lon="1.573474">
        <ele>1601.5</ele>
        <time>2013-08-08T07:41:02Z</time>
      </trkpt>
      <trkpt lat="42.523189" lon="1.573415">
        <ele>1602.6</ele>
        <time>2013-08-08T07:41:11Z</time>
      </trkpt>
      <trkpt lat="42.523134" lon="1.573394">
        <ele>1605.6</ele>
        <time>2013-08-08T07:41:23Z</time>
      </trkpt>
      <trkpt lat="42.523106" lon="1.573349">
        <ele>1606.4</ele>
        <time>2013-08-08T07:41:33Z</time>
      </trkpt>
      <trkpt lat="42.523106" lon="1.573349">
        <ele>1606.4</ele>
        <time>2013-08-08T07:41:53Z</time>
      </trkpt>
      <trkpt lat="42.523073" lon="1.573321">
        <ele>1607.9</ele>
        <time>2013-08-08T07:42:14Z</time>
      </trkpt>
      <trkpt lat="42.523052" lon="1.573307">
        <ele>1609.0</ele>
        <time>2013-08-08T07:42:21Z</time>
      </trkpt>
      <trkpt lat="42.523034" lon="1.573283">
        <ele>1609.6</ele>
        <time>2013-08-08T07:42:33Z</time>
      </trkpt>
      <trkpt lat="42.523034" lon="1.573283">
        <ele>1609.6</ele>
        <time>2013-08-08T07:42:54Z</time>
      </trkpt>
      <trkpt lat="42.522998" lon="1.573222">
        <ele>1610.6</ele>
        <time>2013-08-08T07:43:14Z</time>
      </trkpt>
      <trkpt lat="42.522931" lon="1.573134">
        <ele>1613.6</ele>
        <time>2013-08-08T07:43:21Z</time>
      </trkpt>
      <trkpt lat="42.522909" lon="1.573090">
        <ele>1614.4</ele>
        <time>2013-08-08T07:43:24Z</time>
      </trkpt>
      <trkpt lat="42.522894" lon="1.573040">
        <ele>1614.4</ele>
        <time>2013-08-08T07:43:28Z</time>
      </trkpt>
      <trkpt lat="42.522876" lon="1.572985">
        <ele>1614.5</ele>
        <time>2013-08-08T07:43:31Z</time>
      </trkpt>
      <trkpt lat="42.522810" lon="1.572901">
        <ele>1617.6</ele>
        <time>2013-08-08T07:43:42Z</time>
      </trkpt>
      <trkpt lat="42.522789" lon="1.572816">
        <ele>1617.9</ele>
        <time>2013-08-08T07:43:47Z</time>
      </trkpt>
      <trkpt lat="42.522769" lon="1.572723">
        <ele>1618.1</ele>
        <time>2013-08-08T07:43:59Z</time>
      </trkpt>
      <trkpt lat="42.522727" lon="1.572602">
        <ele>1619.4</ele>
        <time>2013-08-08T07:44:13Z</time>
      </trkpt>
      <trkpt lat="42.522706" lon="1.572521">
        <ele>1620.1</ele>
        <time>2013-08-08T07:44:28Z</time>
      </trkpt>
      <trkpt lat="42.522686" lon="1.572314">
        <ele>1619.9</ele>
        <time>2013-08-08T07:44:39Z</time>
      </trkpt>
      <trkpt lat="42.522649" lon="1.572214">
        <ele>1621.6</ele>
        <time>2013-08-08T07:44:52Z</time>
      </trkpt>
      <trkpt lat="42.522607" lon="1.572174">
        <ele>1623.7</ele>
        <time>2013-08-08T07:45:03Z</time>
      </trkpt>
      <trkpt lat="42.522605" lon="1.572167">
        <ele>1623.8</ele>
        <time>2013-08-08T07:45:25Z</time>
      </trkpt>
      <trkpt lat="42.522588" lon="1.572164">
        <ele>1624.5</ele>
        <time>2013-08-08T07:45:43Z</time>
      </trkpt>
      <trkpt lat="42.522526" lon="1.572136">
        <ele>1627.2</ele>
        <time>2013-08-08T07:45:53Z</time>
      </trkpt>
      <trkpt lat="42.522494" lon="1.572155">
        <ele>1628.4</ele>
        <time>2013-08-08T07:46:04Z</time>
      </trkpt>
      <trkpt lat="42.522491" lon="1.572162">
        <ele>1628.5</ele>
        <time>2013-08-08T07:46:19Z</time>
      </trkpt>
      <trkpt lat="42.522491" lon="1.572162">
        <ele>1628.5</ele>
        <time>2013-08-08T07:46:42Z</time>
      </trkpt>
      <trkpt lat="42.522448" lon="1.572188">
        <ele>1629.9</ele>
        <time>2013-08-08T07:47:02Z</time>
      </trkpt>
      <trkpt lat="42.522389" lon="1.572174">
        <ele>1631.1</ele>
        <time>2013-08-08T07:47:13Z</time>
      </trkpt>
      <trkpt lat="42.522367" lon="1.572160">
        <ele>1631.4</ele>
        <time>2013-08-08T07:47:17Z</time>
      </trkpt>
      <trkpt lat="42.522351" lon="1.572144">
        <ele>1631.6</ele>
        <time>2013-08-08T07:47:19Z</time>
      </trkpt>
      <trkpt lat="42.522335" lon="1.572133">
        <ele>1631.8</ele>
        <time>2013-08-08T07:47:21Z</time>
      </trkpt>
      <trkpt lat="42.522251" lon="1.572080">
        <ele>1632.5</ele>
        <time>2013-08-08T07:47:33Z</time>
      </trkpt>
      <trkpt lat="42.522162" lon="1.572035">
        <ele>1633.2</ele>
        <time>2013-08-08T07:47:42Z</time>
      </trkpt>
      <trkpt lat="42.522018" lon="1.572043">
        <ele>1634.9</ele>
        <time>2013-08-08T07:47:55Z</time>
      </trkpt>
      <trkpt lat="42.521912" lon="1.572077">
        <ele>1637.0</ele>
        <time>2013-08-08T07:48:07Z</time>
      </trkpt>
      <trkpt lat="42.521872" lon="1.572090">
        <ele>1637.8</ele>
        <time>2013-08-08T07:48:19Z</time>
      </trkpt>
      <trkpt lat="42.521756" lon="1.572089">
        <ele>1639.4</ele>
        <time>2013-08-08T07:59:57Z</time>
      </trkpt>
      <trkpt lat="42.521683" lon="1.572042">
        <ele>1639.8</ele>
        <time>2013-08-08T08:00:14Z</time>
      </trkpt>
      <trkpt lat="42.521633" lon="1.571924">
        <ele>1637.9</ele>
        <time>2013-08-08T08:00:25Z</time>
      </trkpt>
      <trkpt lat="42.521475" lon="1.571761">
        <ele>1637.0</ele>
        <time>2013-08-08T08:00:41Z</time>
      </trkpt>
      <trkpt lat="42.521449" lon="1.571752">
        <ele>1637.4</ele>
        <time>2013-08-08T08:00:43Z</time>
      </trkpt>
      <trkpt lat="42.521232" lon="1.571649">
        <ele>1639.3</ele>
        <time>2013-08-08T08:00:57Z</time>
      </trkpt>
      <trkpt lat="42.521087" lon="1.571545">
        <ele>1640.4</ele>
        <time>2013-08-08T08:01:10Z</time>
      </trkpt>
      <trkpt lat="42.521033" lon="1.571509">
        <ele>1640.5</ele>
        <time>2013-08-08T08:01:24Z</time>
      </trkpt>
      <trkpt lat="42.521033" lon="1.571509">
        <ele>1640.5</ele>
        <time>2013-08-08T08:01:26Z</time>
      </trkpt>
      <trkpt lat="42.520970" lon="1.571436">
        <ele>1639.8</ele>
        <time>2013-08-08T08:01:35Z</time>
      </trkpt>
      <trkpt lat="42.520793" lon="1.571274">
        <ele>1639.4</ele>
        <time>2013-08-08T08:01:47Z</time>
      </trkpt>
      <trkpt lat="42.520688" lon="1.571189">
        <ele>1639.8</ele>
        <time>2013-08-08T08:01:53Z</time>
      </trkpt>
      <trkpt lat="42.520567" lon="1.571025">
        <ele>1636.9</ele>
        <time>2013-08-08T08:02:05Z</time>
      </trkpt>
      <trkpt lat="42.520441" lon="1.570924">
        <ele>1636.7</ele>
        <time>2013-08-08T08:02:18Z</time>
      </trkpt>
      <trkpt lat="42.520291" lon="1.570793">
        <ele>1635.6</ele>
        <time>2013-08-08T08:02:30Z</time>
      </trkpt>
      <trkpt lat="42.520115" lon="1.570702">
        <ele>1638.2</ele>
        <time>2013-08-08T08:02:43Z</time>
      </trkpt>
      <trkpt lat="42.520080" lon="1.570676">
        <ele>1638.5</ele>
        <time>2013-08-08T08:02:46Z</time>
      </trkpt>
      <trkpt lat="42.519926" lon="1.570539">
        <ele>1639.1</ele>
        <time>2013-08-08T08:03:03Z</time>
      </trkpt>
      <trkpt lat="42.519785" lon="1.570417">
        <ele>1638.9</ele>
        <time>2013-08-08T08:03:13Z</time>
      </trkpt>
      <trkpt lat="42.519680" lon="1.570315">
        <ele>1638.9</ele>
        <time>2013-08-08T08:03:24Z</time>
      </trkpt>
      <trkpt lat="42.519616" lon="1.570249">
        <ele>1639.1</ele>
        <time>2013-08-08T08:03:30Z</time>
      </trkpt>
      <trkpt lat="42.519523" lon="1.570080">
        <ele>1637.2</ele>
        <time>2013-08-08T08:03:43Z</time>
      </trkpt>
      <trkpt lat="42.519455" lon="1.570004">
        <ele>1637.8</ele>
        <time>2013-08-08T08:03:50Z</time>
      </trkpt>
      <trkpt lat="42.519298" lon="1.569876">
        <ele>1641.0</ele>
        <time>2013-08-08T08:04:03Z</time>
      </trkpt>
      <trkpt lat="42.519276" lon="1.569866">
        <ele>1641.9</ele>
        <time>2013-08-08T08:04:05Z</time>
      </trkpt>
      <trkpt lat="42.519191" lon="1.569749">
        <ele>1642.6</ele>
        <time>2013-08-08T08:04:12Z</time>
      </trkpt>
      <trkpt lat="42.519110" lon="1.569547">
        <ele>1640.9</ele>
        <time>2013-08-08T08:04:25Z</time>
      </trkpt>
      <trkpt lat="42.519035" lon="1.569358">
        <ele>1637.9</ele>
        <time>2013-08-08T08:04:35Z</time>
      </trkpt>
      <trkpt lat="42.518862" lon="1.569127">
        <ele>1638.9</ele>
        <time>2013-08-08T08:04:50Z</time>
      </trkpt>
      <trkpt lat="42.518748" lon="1.569009">
        <ele>1642.0</ele>
        <time>2013-08-08T08:04:59Z</time>
      </trkpt>
      <trkpt lat="42.518711" lon="1.568880">
        <ele>1640.6</ele>
        <time>2013-08-08T08:05:08Z</time>
      </trkpt>
      <trkpt lat="42.518678" lon="1.568814">
        <ele>1640.3</ele>
        <time>2013-08-08T08:05:14Z</time>
      </trkpt>
      <trkpt lat="42.518558" lon="1.568648">
        <ele>1639.7</ele>
        <time>2013-08-08T08:05:27Z</time>
      </trkpt>
      <trkpt lat="42.518474" lon="1.568462">
        <ele>1637.2</ele>
        <time>2013-08-08T08:05:40Z</time>
      </trkpt>
      <trkpt lat="42.518455" lon="1.568434">
        <ele>1637.1</ele>
        <time>2013-08-08T08:05:42Z</time>
      </trkpt>
      <trkpt lat="42.518317" lon="1.568243">
        <ele>1639.2</ele>
        <time>2013-08-08T08:05:57Z</time>
      </trkpt>
      <trkpt lat="42.518211" lon="1.568073">
        <ele>1638.5</ele>
        <time>2013-08-08T08:06:08Z</time>
      </trkpt>
      <trkpt lat="42.518127" lon="1.567815">
        <ele>1636.1</ele>
        <time>2013-08-08T08:06:24Z</time>
      </trkpt>
      <trkpt lat="42.518108" lon="1.567763">
        <ele>1636.1</ele>
        <time>2013-08-08T08:06:27Z</time>
      </trkpt>
      <trkpt lat="42.518073" lon="1.567671">
        <ele>1635.3</ele>
        <time>2013-08-08T08:06:31Z</time>
      </trkpt>
      <trkpt lat="42.518033" lon="1.567405">
        <ele>1630.6</ele>
        <time>2013-08-08T08:06:44Z</time>
      </trkpt>
      <trkpt lat="42.517991" lon="1.567176">
        <ele>1627.9</ele>
        <time>2013-08-08T08:06:58Z</time>
      </trkpt>
      <trkpt lat="42.517908" lon="1.567054">
        <ele>1628.8</ele>
        <time>2013-08-08T08:07:08Z</time>
      </trkpt>
      <trkpt lat="42.517828" lon="1.567011">
        <ele>1630.8</ele>
        <time>2013-08-08T08:07:13Z</time>
      </trkpt>
      <trkpt lat="42.517728" lon="1.566810">
        <ele>1630.7</ele>
        <time>2013-08-08T08:07:27Z</time>
      </trkpt>
      <trkpt lat="42.517655" lon="1.566644">
        <ele>1630.5</ele>
        <time>2013-08-08T08:07:39Z</time>
      </trkpt>
      <trkpt lat="42.517522" lon="1.566397">
        <ele>1630.9</ele>
        <time>2013-08-08T08:07:54Z</time>
      </trkpt>
      <trkpt lat="42.517432" lon="1.566251">
        <ele>1631.8</ele>
        <time>2013-08-08T08:08:05Z</time>
      </trkpt>
      <trkpt lat="42.517343" lon="1.566122">
        <ele>1633.0</ele>
        <time>2013-08-08T08:08:17Z</time>
      </trkpt>
      <trkpt lat="42.517259" lon="1.565971">
        <ele>1634.0</ele>
        <time>2013-08-08T08:08:29Z</time>
      </trkpt>
      <trkpt lat="42.517170" lon="1.565832">
        <ele>1634.4</ele>
        <time>2013-08-08T08:08:41Z</time>
      </trkpt>
      <trkpt lat="42.517123" lon="1.565761">
        <ele>1633.4</ele>
        <time>2013-08-08T08:08:55Z</time>
      </trkpt>
      <trkpt lat="42.517026" lon="1.565691">
        <ele>1630.7</ele>
        <time>2013-08-08T08:09:06Z</time>
      </trkpt>
      <trkpt lat="42.516967" lon="1.565694">
        <ele>1629.3</ele>
        <time>2013-08-08T08:09:15Z</time>
      </trkpt>
      <trkpt lat="42.516919" lon="1.565827">
        <ele>1631.0</ele>
        <time>2013-08-08T08:09:29Z</time>
      </trkpt>
      <trkpt lat="42.516890" lon="1.565995">
        <ele>1634.0</ele>
        <time>2013-08-08T08:09:43Z</time>
      </trkpt>
      <trkpt lat="42.516874" lon="1.566163">
        <ele>1635.2</ele>
        <time>2013-08-08T08:09:57Z</time>
      </trkpt>
      <trkpt lat="42.516877" lon="1.566353">
        <ele>1635.9</ele>
        <time>2013-08-08T08:10:12Z</time>
      </trkpt>
      <trkpt lat="42.516870" lon="1.566367">
        <ele>1635.8</ele>
        <time>2013-08-08T08:10:31Z</time>
      </trkpt>
      <trkpt lat="42.516870" lon="1.566368">
        <ele>1635.8</ele>
        <time>2013-08-08T08:11:02Z</time>
      </trkpt>
      <trkpt lat="42.516868" lon="1.566413">
        <ele>1635.8</ele>
        <time>2013-08-08T08:11:29Z</time>
      </trkpt>
      <trkpt lat="42.516859" lon="1.566640">
        <ele>1635.6</ele>
        <time>2013-08-08T08:11:42Z</time>
      </trkpt>
      <trkpt lat="42.516860" lon="1.566648">
        <ele>1635.7</ele>
        <time>2013-08-08T08:11:53Z</time>
      </trkpt>
      <trkpt lat="42.516786" lon="1.566875">
        <ele>1632.8</ele>
        <time>2013-08-08T08:12:08Z</time>
      </trkpt>
      <trkpt lat="42.516732" lon="1.567127">
        <ele>1629.7</ele>
        <time>2013-08-08T08:12:21Z</time>
      </trkpt>
      <trkpt lat="42.516725" lon="1.567421">
        <ele>1627.3</ele>
        <time>2013-08-08T08:12:36Z</time>
      </trkpt>
      <trkpt lat="42.516731" lon="1.567484">
        <ele>1627.0</ele>
        <time>2013-08-08T08:12:39Z</time>
      </trkpt>
      <trkpt lat="42.516747" lon="1.567660">
        <ele>1626.0</ele>
        <time>2013-08-08T08:12:51Z</time>
      </trkpt>
      <trkpt lat="42.516747" lon="1.567726">
        <ele>1625.4</ele>
        <time>2013-08-08T08:13:02Z</time>
      </trkpt>
      <trkpt lat="42.516747" lon="1.567726">
        <ele>1625.4</ele>
        <time>2013-08-08T08:13:27Z</time>
      </trkpt>
      <trkpt lat="42.516751" lon="1.567729">
        <ele>1625.6</ele>
        <time>2013-08-08T08:13:54Z</time>
      </trkpt>
      <trkpt lat="42.516753" lon="1.567733">
        <ele>1625.6</ele>
        <time>2013-08-08T08:14:16Z</time>
      </trkpt>
      <trkpt lat="42.516768" lon="1.567763">
        <ele>1626.1</ele>
        <time>2013-08-08T08:14:21Z</time>
      </trkpt>
      <trkpt lat="42.516825" lon="1.567880">
        <ele>1627.5</ele>
        <time>2013-08-08T08:14:33Z</time>
      </trkpt>
      <trkpt lat="42.516935" lon="1.568146">
        <ele>1628.1</ele>
        <time>2013-08-08T08:14:45Z</time>
      </trkpt>
      <trkpt lat="42.517020" lon="1.568285">
        <ele>1629.8</ele>
        <time>2013-08-08T08:14:57Z</time>
      </trkpt>
      <trkpt lat="42.517062" lon="1.568401">
        <ele>1629.9</ele>
        <time>2013-08-08T08:15:04Z</time>
      </trkpt>
      <trkpt lat="42.517094" lon="1.568471">
        <ele>1630.2</ele>
        <time>2013-08-08T08:15:16Z</time>
      </trkpt>
      <trkpt lat="42.517177" lon="1.568578">
        <ele>1632.1</ele>
        <time>2013-08-08T08:15:28Z</time>
      </trkpt>
      <trkpt lat="42.517198" lon="1.568682">
        <ele>1631.5</ele>
        <time>2013-08-08T08:15:35Z</time>
      </trkpt>
      <trkpt lat="42.517225" lon="1.568809">
        <ele>1630.9</ele>
        <time>2013-08-08T08:15:47Z</time>
      </trkpt>
      <trkpt lat="42.517253" lon="1.568877">
        <ele>1631.5</ele>
        <time>2013-08-08T08:15:50Z</time>
      </trkpt>
      <trkpt lat="42.517332" lon="1.569107">
        <ele>1632.2</ele>
        <time>2013-08-08T08:16:03Z</time>
      </trkpt>
      <trkpt lat="42.517391" lon="1.569309">
        <ele>1632.0</ele>
        <time>2013-08-08T08:16:15Z</time>
      </trkpt>
      <trkpt lat="42.517424" lon="1.569442">
        <ele>1631.9</ele>
        <time>2013-08-08T08:16:23Z</time>
      </trkpt>
      <trkpt lat="42.517442" lon="1.569554">
        <ele>1631.3</ele>
        <time>2013-08-08T08:16:29Z</time>
      </trkpt>
      <trkpt lat="42.517494" lon="1.569845">
        <ele>1630.6</ele>
        <time>2013-08-08T08:16:42Z</time>
      </trkpt>
      <trkpt lat="42.517531" lon="1.570149">
        <ele>1630.3</ele>
        <time>2013-08-08T08:16:57Z</time>
      </trkpt>
      <trkpt lat="42.517545" lon="1.570216">
        <ele>1630.5</ele>
        <time>2013-08-08T08:17:11Z</time>
      </trkpt>
      <trkpt lat="42.517558" lon="1.570286">
        <ele>1630.6</ele>
        <time>2013-08-08T08:17:27Z</time>
      </trkpt>
      <trkpt lat="42.517603" lon="1.570430">
        <ele>1631.2</ele>
        <time>2013-08-08T08:17:38Z</time>
      </trkpt>
      <trkpt lat="42.517603" lon="1.570430">
        <ele>1631.2</ele>
        <time>2013-08-08T08:17:44Z</time>
      </trkpt>
      <trkpt lat="42.517645" lon="1.570554">
        <ele>1632.4</ele>
        <time>2013-08-08T08:17:53Z</time>
      </trkpt>
      <trkpt lat="42.517691" lon="1.570656">
        <ele>1634.3</ele>
        <time>2013-08-08T08:18:06Z</time>
      </trkpt>
      <trkpt lat="42.517691" lon="1.570656">
        <ele>1634.3</ele>
        <time>2013-08-08T08:18:10Z</time>
      </trkpt>
      <trkpt lat="42.517776" lon="1.570810">
        <ele>1638.2</ele>
        <time>2013-08-08T08:18:22Z</time>
      </trkpt>
      <trkpt lat="42.517780" lon="1.570930">
        <ele>1638.5</ele>
        <time>2013-08-08T08:18:29Z</time>
      </trkpt>
      <trkpt lat="42.517733" lon="1.571061">
        <ele>1638.1</ele>
        <time>2013-08-08T08:18:39Z</time>
      </trkpt>
      <trkpt lat="42.517670" lon="1.571124">
        <ele>1638.3</ele>
        <time>2013-08-08T08:18:45Z</time>
      </trkpt>
      <trkpt lat="42.517646" lon="1.571126">
        <ele>1638.2</ele>
        <time>2013-08-08T08:18:47Z</time>
      </trkpt>
      <trkpt lat="42.517627" lon="1.571114">
        <ele>1637.8</ele>
        <time>2013-08-08T08:18:49Z</time>
      </trkpt>
      <trkpt lat="42.517538" lon="1.571079">
        <ele>1636.5</ele>
        <time>2013-08-08T08:18:55Z</time>
      </trkpt>
      <trkpt lat="42.517493" lon="1.571077">
        <ele>1636.4</ele>
        <time>2013-08-08T08:19:00Z</time>
      </trkpt>
      <trkpt lat="42.517477" lon="1.571060">
        <ele>1636.0</ele>
        <time>2013-08-08T08:19:02Z</time>
      </trkpt>
      <trkpt lat="42.517327" lon="1.570907">
        <ele>1632.5</ele>
        <time>2013-08-08T08:29:38Z</time>
      </trkpt>
      <trkpt lat="42.517230" lon="1.570832">
        <ele>1631.6</ele>
        <time>2013-08-08T08:29:52Z</time>
      </trkpt>
      <trkpt lat="42.517219" lon="1.570817">
        <ele>1631.5</ele>
        <time>2013-08-08T08:29:53Z</time>
      </trkpt>
      <trkpt lat="42.517112" lon="1.570667">
        <ele>1631.0</ele>
        <time>2013-08-08T08:30:06Z</time>
      </trkpt>
      <trkpt lat="42.516987" lon="1.570472">
        <ele>1630.2</ele>
        <time>2013-08-08T08:30:21Z</time>
      </trkpt>
      <trkpt lat="42.516853" lon="1.570330">
        <ele>1628.9</ele>
        <time>2013-08-08T08:30:34Z</time>
      </trkpt>
      <trkpt lat="42.516716" lon="1.570253">
        <ele>1628.4</ele>
        <time>2013-08-08T08:30:47Z</time>
      </trkpt>
      <trkpt lat="42.516499" lon="1.570287">
        <ele>1631.0</ele>
        <time>2013-08-08T08:31:00Z</time>
      </trkpt>
      <trkpt lat="42.516367" lon="1.570273">
        <ele>1629.9</ele>
        <time>2013-08-08T08:31:10Z</time>
      </trkpt>
      <trkpt lat="42.516251" lon="1.570315">
        <ele>1630.9</ele>
        <time>2013-08-08T08:31:23Z</time>
      </trkpt>
      <trkpt lat="42.516133" lon="1.570378">
        <ele>1632.6</ele>
        <time>2013-08-08T08:31:31Z</time>
      </trkpt>
      <trkpt lat="42.516098" lon="1.570424">
        <ele>1634.1</ele>
        <time>2013-08-08T08:31:34Z</time>
      </trkpt>
      <trkpt lat="42.515913" lon="1.570423">
        <ele>1634.1</ele>
        <time>2013-08-08T08:31:49Z</time>
      </trkpt>
      <trkpt lat="42.515895" lon="1.570416">
        <ele>1634.1</ele>
        <time>2013-08-08T08:32:02Z</time>
      </trkpt>
      <trkpt lat="42.515766" lon="1.570242">
        <ele>1632.6</ele>
        <time>2013-08-08T08:32:15Z</time>
      </trkpt>
      <trkpt lat="42.515698" lon="1.570113">
        <ele>1632.3</ele>
        <time>2013-08-08T08:32:19Z</time>
      </trkpt>
      <trkpt lat="42.515541" lon="1.569822">
        <ele>1634.3</ele>
        <time>2013-08-08T08:32:34Z</time>
      </trkpt>
      <trkpt lat="42.515464" lon="1.569677">
        <ele>1636.1</ele>
        <time>2013-08-08T08:32:47Z</time>
      </trkpt>
      <trkpt lat="42.515356" lon="1.569452">
        <ele>1638.9</ele>
        <time>2013-08-08T08:33:02Z</time>
      </trkpt>
      <trkpt lat="42.515257" lon="1.569188">
        <ele>1639.3</ele>
        <time>2013-08-08T08:33:17Z</time>
      </trkpt>
      <trkpt lat="42.515221" lon="1.568956">
        <ele>1636.5</ele>
        <time>2013-08-08T08:33:30Z</time>
      </trkpt>
      <trkpt lat="42.515060" lon="1.568717">
        <ele>1637.5</ele>
        <time>2013-08-08T08:33:45Z</time>
      </trkpt>
      <trkpt lat="42.514966" lon="1.568482">
        <ele>1634.9</ele>
        <time>2013-08-08T08:34:02Z</time>
      </trkpt>
      <trkpt lat="42.514955" lon="1.568471">
        <ele>1635.1</ele>
        <time>2013-08-08T08:34:03Z</time>
      </trkpt>
      <trkpt lat="42.514910" lon="1.568417">
        <ele>1636.0</ele>
        <time>2013-08-08T08:34:07Z</time>
      </trkpt>
      <trkpt lat="42.514800" lon="1.568246">
        <ele>1636.9</ele>
        <time>2013-08-08T08:34:21Z</time>
      </trkpt>
      <trkpt lat="42.514646" lon="1.568033">
        <ele>1637.8</ele>
        <time>2013-08-08T08:34:34Z</time>
      </trkpt>
      <trkpt lat="42.514536" lon="1.567817">
        <ele>1635.7</ele>
        <time>2013-08-08T08:34:49Z</time>
      </trkpt>
      <trkpt lat="42.514442" lon="1.567575">
        <ele>1633.6</ele>
        <time>2013-08-08T08:35:03Z</time>
      </trkpt>
      <trkpt lat="42.514381" lon="1.567573">
        <ele>1635.2</ele>
        <time>2013-08-08T08:35:23Z</time>
      </trkpt>
      <trkpt lat="42.514179" lon="1.567562">
        <ele>1637.9</ele>
        <time>2013-08-08T08:35:38Z</time>
      </trkpt>
      <trkpt lat="42.514022" lon="1.567477">
        <ele>1636.1</ele>
        <time>2013-08-08T08:35:52Z</time>
      </trkpt>
      <trkpt lat="42.513842" lon="1.567575">
        <ele>1636.7</ele>
        <time>2013-08-08T08:39:46Z</time>
      </trkpt>
      <trkpt lat="42.513800" lon="1.567609">
        <ele>1637.4</ele>
        <time>2013-08-08T08:39:50Z</time>
      </trkpt>
      <trkpt lat="42.513718" lon="1.567650">
        <ele>1638.7</ele>
        <time>2013-08-08T08:39:56Z</time>
      </trkpt>
      <trkpt lat="42.513569" lon="1.567716">
        <ele>1641.1</ele>
        <time>2013-08-08T08:40:09Z</time>
      </trkpt>
      <trkpt lat="42.513474" lon="1.567758">
        <ele>1642.6</ele>
        <time>2013-08-08T08:40:15Z</time>
      </trkpt>
      <trkpt lat="42.513418" lon="1.567781">
        <ele>1643.6</ele>
        <time>2013-08-08T08:40:20Z</time>
      </trkpt>
      <trkpt lat="42.513218" lon="1.567828">
        <ele>1645.8</ele>
        <time>2013-08-08T08:40:34Z</time>
      </trkpt>
      <trkpt lat="42.513138" lon="1.567832">
        <ele>1646.2</ele>
        <time>2013-08-08T08:40:40Z</time>
      </trkpt>
      <trkpt lat="42.512952" lon="1.567781">
        <ele>1644.5</ele>
        <time>2013-08-08T08:40:54Z</time>
      </trkpt>
      <trkpt lat="42.512841" lon="1.567723">
        <ele>1642.7</ele>
        <time>2013-08-08T08:41:04Z</time>
      </trkpt>
      <trkpt lat="42.512739" lon="1.567671">
        <ele>1641.9</ele>
        <time>2013-08-08T08:41:12Z</time>
      </trkpt>
      <trkpt lat="42.512564" lon="1.567627">
        <ele>1639.8</ele>
        <time>2013-08-08T08:41:26Z</time>
      </trkpt>
      <trkpt lat="42.512406" lon="1.567619">
        <ele>1636.2</ele>
        <time>2013-08-08T08:41:38Z</time>
      </trkpt>
      <trkpt lat="42.512295" lon="1.567671">
        <ele>1634.3</ele>
        <time>2013-08-08T08:41:47Z</time>
      </trkpt>
      <trkpt lat="42.512189" lon="1.567790">
        <ele>1633.6</ele>
        <time>2013-08-08T08:42:01Z</time>
      </trkpt>
      <trkpt lat="42.512162" lon="1.567839">
        <ele>1634.0</ele>
        <time>2013-08-08T08:42:05Z</time>
      </trkpt>
      <trkpt lat="42.512124" lon="1.567886">
        <ele>1633.7</ele>
        <time>2013-08-08T08:42:08Z</time>
      </trkpt>
      <trkpt lat="42.512051" lon="1.567991">
        <ele>1633.1</ele>
        <time>2013-08-08T08:42:16Z</time>
      </trkpt>
      <trkpt lat="42.512033" lon="1.568012">
        <ele>1632.7</ele>
        <time>2013-08-08T08:42:18Z</time>
      </trkpt>
      <trkpt lat="42.512017" lon="1.568050">
        <ele>1633.0</ele>
        <time>2013-08-08T08:42:20Z</time>
      </trkpt>
      <trkpt lat="42.512006" lon="1.568124">
        <ele>1634.4</ele>
        <time>2013-08-08T08:42:23Z</time>
      </trkpt>
      <trkpt lat="42.511898" lon="1.568358">
        <ele>1634.4</ele>
        <time>2013-08-08T08:42:36Z</time>
      </trkpt>
      <trkpt lat="42.511885" lon="1.568401">
        <ele>1634.7</ele>
        <time>2013-08-08T08:42:38Z</time>
      </trkpt>
      <trkpt lat="42.511818" lon="1.568574">
        <ele>1636.8</ele>
        <time>2013-08-08T08:42:51Z</time>
      </trkpt>
      <trkpt lat="42.511773" lon="1.568609">
        <ele>1635.9</ele>
        <time>2013-08-08T08:42:55Z</time>
      </trkpt>
      <trkpt lat="42.511759" lon="1.568629">
        <ele>1636.3</ele>
        <time>2013-08-08T08:43:11Z</time>
      </trkpt>
      <trkpt lat="42.511762" lon="1.568628">
        <ele>1636.4</ele>
        <time>2013-08-08T08:43:29Z</time>
      </trkpt>
      <trkpt lat="42.511759" lon="1.568627">
        <ele>1636.2</ele>
        <time>2013-08-08T08:43:45Z</time>
      </trkpt>
      <trkpt lat="42.511760" lon="1.568629">
        <ele>1636.3</ele>
        <time>2013-08-08T08:43:58Z</time>
      </trkpt>
      <trkpt lat="42.511571" lon="1.568589">
        <ele>1632.7</ele>
        <time>2013-08-08T08:44:13Z</time>
      </trkpt>
      <trkpt lat="42.511468" lon="1.568559">
        <ele>1632.0</ele>
        <time>2013-08-08T08:44:20Z</time>
      </trkpt>
      <trkpt lat="42.511276" lon="1.568493">
        <ele>1629.9</ele>
        <time>2013-08-08T08:44:35Z</time>
      </trkpt>
      <trkpt lat="42.511201" lon="1.568469">
        <ele>1628.8</ele>
        <time>2013-08-08T08:44:43Z</time>
      </trkpt>
      <trkpt lat="42.511015" lon="1.568591">
        <ele>1633.3</ele>
        <time>2013-08-08T08:44:58Z</time>
      </trkpt>
      <trkpt lat="42.510976" lon="1.568691">
        <ele>1637.2</ele>
        <time>2013-08-08T08:45:03Z</time>
      </trkpt>
      <trkpt lat="42.510924" lon="1.568790">
        <ele>1640.2</ele>
        <time>2013-08-08T08:45:13Z</time>
      </trkpt>
      <trkpt lat="42.510766" lon="1.568908">
        <ele>1639.9</ele>
        <time>2013-08-08T08:45:26Z</time>
      </trkpt>
      <trkpt lat="42.510706" lon="1.568946">
        <ele>1639.2</ele>
        <time>2013-08-08T08:45:30Z</time>
      </trkpt>
      <trkpt lat="42.510622" lon="1.569003">
        <ele>1638.8</ele>
        <time>2013-08-08T08:45:39Z</time>
      </trkpt>
      <trkpt lat="42.510479" lon="1.569142">
        <ele>1639.7</ele>
        <time>2013-08-08T08:45:50Z</time>
      </trkpt>
      <trkpt lat="42.510432" lon="1.569188">
        <ele>1640.1</ele>
        <time>2013-08-08T08:45:54Z</time>
      </trkpt>
      <trkpt lat="42.510296" lon="1.569218">
        <ele>1635.6</ele>
        <time>2013-08-08T08:46:06Z</time>
      </trkpt>
      <trkpt lat="42.510234" lon="1.569217">
        <ele>1632.9</ele>
        <time>2013-08-08T08:46:10Z</time>
      </trkpt>
      <trkpt lat="42.510176" lon="1.569249">
        <ele>1631.6</ele>
        <time>2013-08-08T08:46:15Z</time>
      </trkpt>
      <trkpt lat="42.510188" lon="1.569381">
        <ele>1638.2</ele>
        <time>2013-08-08T08:46:22Z</time>
      </trkpt>
      <trkpt lat="42.510094" lon="1.569562">
        <ele>1642.5</ele>
        <time>2013-08-08T08:46:34Z</time>
      </trkpt>
      <trkpt lat="42.510071" lon="1.569603">
        <ele>1643.0</ele>
        <time>2013-08-08T08:46:47Z</time>
      </trkpt>
      <trkpt lat="42.510021" lon="1.569662">
        <ele>1642.4</ele>
        <time>2013-08-08T08:47:03Z</time>
      </trkpt>
      <trkpt lat="42.509911" lon="1.569832">
        <ele>1639.8</ele>
        <time>2013-08-08T08:47:13Z</time>
      </trkpt>
      <trkpt lat="42.509852" lon="1.569978">
        <ele>1639.6</ele>
        <time>2013-08-08T08:47:26Z</time>
      </trkpt>
      <trkpt lat="42.509855" lon="1.570000">
        <ele>1640.4</ele>
        <time>2013-08-08T08:47:42Z</time>
      </trkpt>
      <trkpt lat="42.509836" lon="1.570021">
        <ele>1639.7</ele>
        <time>2013-08-08T08:48:10Z</time>
      </trkpt>
      <trkpt lat="42.509795" lon="1.570070">
        <ele>1638.9</ele>
        <time>2013-08-08T08:48:17Z</time>
      </trkpt>
      <trkpt lat="42.509655" lon="1.570165">
        <ele>1636.9</ele>
        <time>2013-08-08T08:48:30Z</time>
      </trkpt>
      <trkpt lat="42.509589" lon="1.570210">
        <ele>1639.1</ele>
        <time>2013-08-08T08:48:35Z</time>
      </trkpt>
      <trkpt lat="42.509553" lon="1.570256">
        <ele>1641.2</ele>
        <time>2013-08-08T08:48:50Z</time>
      </trkpt>
      <trkpt lat="42.509552" lon="1.570258">
        <ele>1641.2</ele>
        <time>2013-08-08T08:49:03Z</time>
      </trkpt>
      <trkpt lat="42.509516" lon="1.570250">
        <ele>1641.3</ele>
        <time>2013-08-08T08:49:07Z</time>
      </trkpt>
      <trkpt lat="42.509436" lon="1.570219">
        <ele>1640.9</ele>
        <time>2013-08-08T08:49:19Z</time>
      </trkpt>
      <trkpt lat="42.509340" lon="1.570086">
        <ele>1636.8</ele>
        <time>2013-08-08T08:52:32Z</time>
      </trkpt>
      <trkpt lat="42.509246" lon="1.570041">
        <ele>1636.7</ele>
        <time>2013-08-08T08:52:43Z</time>
      </trkpt>
      <trkpt lat="42.509185" lon="1.570037">
        <ele>1637.7</ele>
        <time>2013-08-08T08:52:48Z</time>
      </trkpt>
      <trkpt lat="42.508987" lon="1.570033">
        <ele>1639.7</ele>
        <time>2013-08-08T08:53:00Z</time>
      </trkpt>
      <trkpt lat="42.508854" lon="1.570026">
        <ele>1638.9</ele>
        <time>2013-08-08T08:53:11Z</time>
      </trkpt>
      <trkpt lat="42.508793" lon="1.569980">
        <ele>1637.2</ele>
        <time>2013-08-08T08:53:17Z</time>
      </trkpt>
      <trkpt lat="42.508745" lon="1.570006">
        <ele>1638.2</ele>
        <time>2013-08-08T08:53:28Z</time>
      </trkpt>
      <trkpt lat="42.508657" lon="1.570061">
        <ele>1640.1</ele>
        <time>2013-08-08T08:56:01Z</time>
      </trkpt>
      <trkpt lat="42.508587" lon="1.570096">
        <ele>1641.8</ele>
        <time>2013-08-08T08:56:14Z</time>
      </trkpt>
      <trkpt lat="42.508543" lon="1.570054">
        <ele>1640.9</ele>
        <time>2013-08-08T08:56:22Z</time>
      </trkpt>
      <trkpt lat="42.508475" lon="1.570053">
        <ele>1642.4</ele>
        <time>2013-08-08T08:56:28Z</time>
      </trkpt>
      <trkpt lat="42.508363" lon="1.570010">
        <ele>1645.3</ele>
        <time>2013-08-08T08:56:40Z</time>
      </trkpt>
      <trkpt lat="42.508305" lon="1.569987">
        <ele>1647.3</ele>
        <time>2013-08-08T08:56:48Z</time>
      </trkpt>
      <trkpt lat="42.508209" lon="1.569807">
        <ele>1648.0</ele>
        <time>2013-08-08T08:57:02Z</time>
      </trkpt>
      <trkpt lat="42.508172" lon="1.569734">
        <ele>1648.5</ele>
        <time>2013-08-08T08:57:15Z</time>
      </trkpt>
      <trkpt lat="42.508156" lon="1.569691">
        <ele>1648.5</ele>
        <time>2013-08-08T08:57:17Z</time>
      </trkpt>
      <trkpt lat="42.508099" lon="1.569586">
        <ele>1649.4</ele>
        <time>2013-08-08T08:57:28Z</time>
      </trkpt>
      <trkpt lat="42.508099" lon="1.569586">
        <ele>1649.4</ele>
        <time>2013-08-08T08:57:29Z</time>
      </trkpt>
      <trkpt lat="42.507984" lon="1.569413">
        <ele>1653.8</ele>
        <time>2013-08-08T08:57:43Z</time>
      </trkpt>
      <trkpt lat="42.507957" lon="1.569239">
        <ele>1654.2</ele>
        <time>2013-08-08T08:57:56Z</time>
      </trkpt>
      <trkpt lat="42.507891" lon="1.569102">
        <ele>1657.3</ele>
        <time>2013-08-08T08:58:09Z</time>
      </trkpt>
      <trkpt lat="42.507886" lon="1.569022">
        <ele>1657.0</ele>
        <time>2013-08-08T08:58:21Z</time>
      </trkpt>
      <trkpt lat="42.507818" lon="1.568885">
        <ele>1659.2</ele>
        <time>2013-08-08T08:58:33Z</time>
      </trkpt>
      <trkpt lat="42.507748" lon="1.568775">
        <ele>1662.5</ele>
        <time>2013-08-08T08:58:43Z</time>
      </trkpt>
      <trkpt lat="42.507652" lon="1.568612">
        <ele>1666.2</ele>
        <time>2013-08-08T08:58:56Z</time>
      </trkpt>
      <trkpt lat="42.507637" lon="1.568589">
        <ele>1666.8</ele>
        <time>2013-08-08T08:58:58Z</time>
      </trkpt>
      <trkpt lat="42.507580" lon="1.568460">
        <ele>1668.2</ele>
        <time>2013-08-08T08:59:10Z</time>
      </trkpt>
      <trkpt lat="42.507578" lon="1.568442">
        <ele>1668.0</ele>
        <time>2013-08-08T08:59:11Z</time>
      </trkpt>
      <trkpt lat="42.507485" lon="1.568315">
        <ele>1672.1</ele>
        <time>2013-08-08T08:59:23Z</time>
      </trkpt>
      <trkpt lat="42.507436" lon="1.568249">
        <ele>1674.0</ele>
        <time>2013-08-08T08:59:34Z</time>
      </trkpt>
      <trkpt lat="42.507391" lon="1.568159">
        <ele>1675.4</ele>
        <time>2013-08-08T08:59:44Z</time>
      </trkpt>
      <trkpt lat="42.507343" lon="1.567990">
        <ele>1674.0</ele>
        <time>2013-08-08T08:59:56Z</time>
      </trkpt>
      <trkpt lat="42.507331" lon="1.567966">
        <ele>1674.1</ele>
        <time>2013-08-08T08:59:58Z</time>
      </trkpt>
      <trkpt lat="42.507297" lon="1.567876">
        <ele>1673.7</ele>
        <time>2013-08-08T09:00:03Z</time>
      </trkpt>
      <trkpt lat="42.507255" lon="1.567809">
        <ele>1674.0</ele>
        <time>2013-08-08T09:00:12Z</time>
      </trkpt>
      <trkpt lat="42.507208" lon="1.567712">
        <ele>1674.3</ele>
        <time>2013-08-08T09:00:23Z</time>
      </trkpt>
      <trkpt lat="42.507208" lon="1.567712">
        <ele>1674.3</ele>
        <time>2013-08-08T09:00:43Z</time>
      </trkpt>
      <trkpt lat="42.507208" lon="1.567710">
        <ele>1674.2</ele>
        <time>2013-08-08T09:01:05Z</time>
      </trkpt>
      <trkpt lat="42.507201" lon="1.567696">
        <ele>1674.5</ele>
        <time>2013-08-08T09:01:17Z</time>
      </trkpt>
      <trkpt lat="42.507201" lon="1.567696">
        <ele>1674.5</ele>
        <time>2013-08-08T09:01:27Z</time>
      </trkpt>
      <trkpt lat="42.507133" lon="1.567582">
        <ele>1676.9</ele>
        <time>2013-08-08T09:01:38Z</time>
      </trkpt>
      <trkpt lat="42.507132" lon="1.567565">
        <ele>1676.7</ele>
        <time>2013-08-08T09:01:45Z</time>
      </trkpt>
      <trkpt lat="42.507108" lon="1.567477">
        <ele>1676.9</ele>
        <time>2013-08-08T09:01:51Z</time>
      </trkpt>
      <trkpt lat="42.507059" lon="1.567323">
        <ele>1677.5</ele>
        <time>2013-08-08T09:02:02Z</time>
      </trkpt>
      <trkpt lat="42.507052" lon="1.567286">
        <ele>1677.4</ele>
        <time>2013-08-08T09:02:07Z</time>
      </trkpt>
      <trkpt lat="42.506998" lon="1.567203">
        <ele>1679.7</ele>
        <time>2013-08-08T09:02:17Z</time>
      </trkpt>
      <trkpt lat="42.506942" lon="1.567057">
        <ele>1682.8</ele>
        <time>2013-08-08T09:02:28Z</time>
      </trkpt>
      <trkpt lat="42.506877" lon="1.566910">
        <ele>1686.8</ele>
        <time>2013-08-08T09:02:42Z</time>
      </trkpt>
      <trkpt lat="42.506855" lon="1.566775">
        <ele>1687.9</ele>
        <time>2013-08-08T09:02:54Z</time>
      </trkpt>
      <trkpt lat="42.506790" lon="1.566646">
        <ele>1691.7</ele>
        <time>2013-08-08T09:03:07Z</time>
      </trkpt>
      <trkpt lat="42.506786" lon="1.566555">
        <ele>1690.8</ele>
        <time>2013-08-08T09:03:18Z</time>
      </trkpt>
      <trkpt lat="42.506738" lon="1.566392">
        <ele>1692.5</ele>
        <time>2013-08-08T09:03:31Z</time>
      </trkpt>
      <trkpt lat="42.506681" lon="1.566262">
        <ele>1694.8</ele>
        <time>2013-08-08T09:03:43Z</time>
      </trkpt>
      <trkpt lat="42.506625" lon="1.566091">
        <ele>1695.7</ele>
        <time>2013-08-08T09:03:56Z</time>
      </trkpt>
      <trkpt lat="42.506558" lon="1.565904">
        <ele>1696.7</ele>
        <time>2013-08-08T09:04:09Z</time>
      </trkpt>
      <trkpt lat="42.506517" lon="1.565831">
        <ele>1697.5</ele>
        <time>2013-08-08T09:04:16Z</time>
      </trkpt>
      <trkpt lat="42.506444" lon="1.565698">
        <ele>1699.9</ele>
        <time>2013-08-08T09:04:28Z</time>
      </trkpt>
      <trkpt lat="42.506382" lon="1.565582">
        <ele>1702.1</ele>
        <time>2013-08-08T09:04:38Z</time>
      </trkpt>
      <trkpt lat="42.506283" lon="1.565444">
        <ele>1703.4</ele>
        <time>2013-08-08T09:04:51Z</time>
      </trkpt>
      <trkpt lat="42.506192" lon="1.565328">
        <ele>1701.7</ele>
        <time>2013-08-08T09:05:04Z</time>
      </trkpt>
      <trkpt lat="42.506041" lon="1.565291">
        <ele>1704.8</ele>
        <time>2013-08-08T09:05:16Z</time>
      </trkpt>
      <trkpt lat="42.506002" lon="1.565303">
        <ele>1705.8</ele>
        <time>2013-08-08T09:05:20Z</time>
      </trkpt>
      <trkpt lat="42.505963" lon="1.565305">
        <ele>1706.1</ele>
        <time>2013-08-08T09:05:23Z</time>
      </trkpt>
      <trkpt lat="42.505901" lon="1.565310">
        <ele>1706.8</ele>
        <time>2013-08-08T09:05:27Z</time>
      </trkpt>
      <trkpt lat="42.505720" lon="1.565311">
        <ele>1708.0</ele>
        <time>2013-08-08T09:05:41Z</time>
      </trkpt>
      <trkpt lat="42.505647" lon="1.565291">
        <ele>1707.3</ele>
        <time>2013-08-08T09:05:47Z</time>
      </trkpt>
      <trkpt lat="42.505622" lon="1.565285">
        <ele>1707.0</ele>
        <time>2013-08-08T09:05:49Z</time>
      </trkpt>
      <trkpt lat="42.505596" lon="1.565276">
        <ele>1706.6</ele>
        <time>2013-08-08T09:05:51Z</time>
      </trkpt>
      <trkpt lat="42.505514" lon="1.565277">
        <ele>1707.2</ele>
        <time>2013-08-08T09:05:57Z</time>
      </trkpt>
      <trkpt lat="42.505366" lon="1.565283">
        <ele>1708.9</ele>
        <time>2013-08-08T09:06:12Z</time>
      </trkpt>
      <trkpt lat="42.505280" lon="1.565318">
        <ele>1711.3</ele>
        <time>2013-08-08T09:06:21Z</time>
      </trkpt>
      <trkpt lat="42.505152" lon="1.565367">
        <ele>1713.5</ele>
        <time>2013-08-08T09:06:33Z</time>
      </trkpt>
      <trkpt lat="42.505038" lon="1.565390">
        <ele>1715.1</ele>
        <time>2013-08-08T09:06:45Z</time>
      </trkpt>
      <trkpt lat="42.505008" lon="1.565377">
        <ele>1714.7</ele>
        <time>2013-08-08T09:06:48Z</time>
      </trkpt>
      <trkpt lat="42.504978" lon="1.565353">
        <ele>1713.8</ele>
        <time>2013-08-08T09:06:51Z</time>
      </trkpt>
      <trkpt lat="42.504856" lon="1.565306">
        <ele>1713.5</ele>
        <time>2013-08-08T09:07:04Z</time>
      </trkpt>
      <trkpt lat="42.504848" lon="1.565305">
        <ele>1713.7</ele>
        <time>2013-08-08T09:07:05Z</time>
      </trkpt>
      <trkpt lat="42.504729" lon="1.565274">
        <ele>1715.0</ele>
        <time>2013-08-08T09:07:18Z</time>
      </trkpt>
      <trkpt lat="42.504620" lon="1.565241">
        <ele>1715.8</ele>
        <time>2013-08-08T09:07:29Z</time>
      </trkpt>
      <trkpt lat="42.504610" lon="1.565239">
        <ele>1716.0</ele>
        <time>2013-08-08T09:07:30Z</time>
      </trkpt>
      <trkpt lat="42.504517" lon="1.565223">
        <ele>1717.7</ele>
        <time>2013-08-08T09:07:40Z</time>
      </trkpt>
      <trkpt lat="42.504481" lon="1.565219">
        <ele>1718.6</ele>
        <time>2013-08-08T09:07:45Z</time>
      </trkpt>
      <trkpt lat="42.504363" lon="1.565211">
        <ele>1721.6</ele>
        <time>2013-08-08T09:07:58Z</time>
      </trkpt>
      <trkpt lat="42.504349" lon="1.565211">
        <ele>1722.1</ele>
        <time>2013-08-08T09:08:00Z</time>
      </trkpt>
      <trkpt lat="42.504293" lon="1.565236">
        <ele>1725.2</ele>
        <time>2013-08-08T09:08:10Z</time>
      </trkpt>
      <trkpt lat="42.504256" lon="1.565225">
        <ele>1726.1</ele>
        <time>2013-08-08T09:08:15Z</time>
      </trkpt>
      <trkpt lat="42.504192" lon="1.565196">
        <ele>1727.4</ele>
        <time>2013-08-08T09:08:26Z</time>
      </trkpt>
      <trkpt lat="42.504131" lon="1.565140">
        <ele>1727.5</ele>
        <time>2013-08-08T09:08:37Z</time>
      </trkpt>
      <trkpt lat="42.504093" lon="1.565092">
        <ele>1726.8</ele>
        <time>2013-08-08T09:08:48Z</time>
      </trkpt>
      <trkpt lat="42.504074" lon="1.565082">
        <ele>1727.0</ele>
        <time>2013-08-08T09:08:58Z</time>
      </trkpt>
      <trkpt lat="42.504020" lon="1.565059">
        <ele>1727.8</ele>
        <time>2013-08-08T09:09:05Z</time>
      </trkpt>
      <trkpt lat="42.503922" lon="1.565054">
        <ele>1730.5</ele>
        <time>2013-08-08T09:09:18Z</time>
      </trkpt>
      <trkpt lat="42.503832" lon="1.565032">
        <ele>1732.3</ele>
        <time>2013-08-08T09:09:33Z</time>
      </trkpt>
      <trkpt lat="42.503784" lon="1.565028">
        <ele>1733.7</ele>
        <time>2013-08-08T09:09:43Z</time>
      </trkpt>
      <trkpt lat="42.503686" lon="1.564968">
        <ele>1734.1</ele>
        <time>2013-08-08T09:09:55Z</time>
      </trkpt>
      <trkpt lat="42.503589" lon="1.564966">
        <ele>1737.7</ele>
        <time>2013-08-08T09:10:04Z</time>
      </trkpt>
      <trkpt lat="42.503510" lon="1.564933">
        <ele>1739.5</ele>
        <time>2013-08-08T09:10:16Z</time>
      </trkpt>
      <trkpt lat="42.503451" lon="1.564926">
        <ele>1741.8</ele>
        <time>2013-08-08T09:10:28Z</time>
      </trkpt>
      <trkpt lat="42.503441" lon="1.564920">
        <ele>1742.0</ele>
        <time>2013-08-08T09:10:30Z</time>
      </trkpt>
      <trkpt lat="42.503372" lon="1.564868">
        <ele>1743.1</ele>
        <time>2013-08-08T09:10:40Z</time>
      </trkpt>
      <trkpt lat="42.503319" lon="1.564867">
        <ele>1745.5</ele>
        <time>2013-08-08T09:10:46Z</time>
      </trkpt>
      <trkpt lat="42.503215" lon="1.564829">
        <ele>1748.6</ele>
        <time>2013-08-08T09:10:58Z</time>
      </trkpt>
      <trkpt lat="42.503150" lon="1.564797">
        <ele>1750.3</ele>
        <time>2013-08-08T09:11:10Z</time>
      </trkpt>
      <trkpt lat="42.503136" lon="1.564787">
        <ele>1750.5</ele>
        <time>2013-08-08T09:11:13Z</time>
      </trkpt>
      <trkpt lat="42.503056" lon="1.564745">
        <ele>1752.5</ele>
        <time>2013-08-08T09:11:23Z</time>
      </trkpt>
      <trkpt lat="42.502978" lon="1.564719">
        <ele>1755.3</ele>
        <time>2013-08-08T09:11:35Z</time>
      </trkpt>
      <trkpt lat="42.502962" lon="1.564713">
        <ele>1755.8</ele>
        <time>2013-08-08T09:11:38Z</time>
      </trkpt>
      <trkpt lat="42.502935" lon="1.564709">
        <ele>1756.9</ele>
        <time>2013-08-08T09:11:42Z</time>
      </trkpt>
      <trkpt lat="42.502849" lon="1.564655">
        <ele>1759.3</ele>
        <time>2013-08-08T09:11:55Z</time>
      </trkpt>
      <trkpt lat="42.502787" lon="1.564602">
        <ele>1760.9</ele>
        <time>2013-08-08T09:12:09Z</time>
      </trkpt>
      <trkpt lat="42.502724" lon="1.564575">
        <ele>1763.2</ele>
        <time>2013-08-08T09:12:22Z</time>
      </trkpt>
      <trkpt lat="42.502693" lon="1.564552">
        <ele>1764.0</ele>
        <time>2013-08-08T09:12:25Z</time>
      </trkpt>
      <trkpt lat="42.502641" lon="1.564523">
        <ele>1765.7</ele>
        <time>2013-08-08T09:12:29Z</time>
      </trkpt>
      <trkpt lat="42.502599" lon="1.564479">
        <ele>1766.6</ele>
        <time>2013-08-08T09:12:35Z</time>
      </trkpt>
      <trkpt lat="42.502522" lon="1.564426">
        <ele>1768.9</ele>
        <time>2013-08-08T09:12:47Z</time>
      </trkpt>
      <trkpt lat="42.502481" lon="1.564393">
        <ele>1769.9</ele>
        <time>2013-08-08T09:12:51Z</time>
      </trkpt>
      <trkpt lat="42.502392" lon="1.564283">
        <ele>1771.2</ele>
        <time>2013-08-08T09:13:03Z</time>
      </trkpt>
      <trkpt lat="42.502367" lon="1.564253">
        <ele>1771.6</ele>
        <time>2013-08-08T09:13:06Z</time>
      </trkpt>
      <trkpt lat="42.502294" lon="1.564157">
        <ele>1773.0</ele>
        <time>2013-08-08T09:13:17Z</time>
      </trkpt>
      <trkpt lat="42.502270" lon="1.564126">
        <ele>1773.4</ele>
        <time>2013-08-08T09:13:20Z</time>
      </trkpt>
      <trkpt lat="42.502183" lon="1.564040">
        <ele>1775.1</ele>
        <time>2013-08-08T09:13:32Z</time>
      </trkpt>
      <trkpt lat="42.502088" lon="1.563979">
        <ele>1776.5</ele>
        <time>2013-08-08T09:13:42Z</time>
      </trkpt>
      <trkpt lat="42.501984" lon="1.563896">
        <ele>1778.2</ele>
        <time>2013-08-08T09:13:56Z</time>
      </trkpt>
      <trkpt lat="42.501959" lon="1.563873">
        <ele>1778.5</ele>
        <time>2013-08-08T09:14:01Z</time>
      </trkpt>
      <trkpt lat="42.501901" lon="1.563831">
        <ele>1779.2</ele>
        <time>2013-08-08T09:14:11Z</time>
      </trkpt>
      <trkpt lat="42.501800" lon="1.563807">
        <ele>1779.9</ele>
        <time>2013-08-08T09:14:23Z</time>
      </trkpt>
      <trkpt lat="42.501672" lon="1.563887">
        <ele>1780.0</ele>
        <time>2013-08-08T09:17:13Z</time>
      </trkpt>
      <trkpt lat="42.501648" lon="1.563953">
        <ele>1780.0</ele>
        <time>2013-08-08T09:17:25Z</time>
      </trkpt>
      <trkpt lat="42.501601" lon="1.564004">
        <ele>1780.0</ele>
        <time>2013-08-08T09:17:37Z</time>
      </trkpt>
      <trkpt lat="42.501582" lon="1.564049">
        <ele>1779.8</ele>
        <time>2013-08-08T09:17:41Z</time>
      </trkpt>
      <trkpt lat="42.501472" lon="1.564177">
        <ele>1777.0</ele>
        <time>2013-08-08T09:17:52Z</time>
      </trkpt>
      <trkpt lat="42.501391" lon="1.564281">
        <ele>1772.9</ele>
        <time>2013-08-08T09:18:03Z</time>
      </trkpt>
      <trkpt lat="42.501349" lon="1.564326">
        <ele>1770.8</ele>
        <time>2013-08-08T09:18:08Z</time>
      </trkpt>
      <trkpt lat="42.501255" lon="1.564433">
        <ele>1766.4</ele>
        <time>2013-08-08T09:18:21Z</time>
      </trkpt>
      <trkpt lat="42.501152" lon="1.564508">
        <ele>1759.5</ele>
        <time>2013-08-08T09:18:31Z</time>
      </trkpt>
      <trkpt lat="42.501115" lon="1.564520">
        <ele>1756.4</ele>
        <time>2013-08-08T09:18:34Z</time>
      </trkpt>
      <trkpt lat="42.501035" lon="1.564547">
        <ele>1749.5</ele>
        <time>2013-08-08T09:18:46Z</time>
      </trkpt>
      <trkpt lat="42.501033" lon="1.564553">
        <ele>1749.4</ele>
        <time>2013-08-08T09:19:03Z</time>
      </trkpt>
      <trkpt lat="42.501034" lon="1.564557">
        <ele>1749.5</ele>
        <time>2013-08-08T09:19:28Z</time>
      </trkpt>
      <trkpt lat="42.501058" lon="1.564714">
        <ele>1752.9</ele>
        <time>2013-08-08T09:19:41Z</time>
      </trkpt>
      <trkpt lat="42.501060" lon="1.564839">
        <ele>1754.1</ele>
        <time>2013-08-08T09:19:52Z</time>
      </trkpt>
      <trkpt lat="42.501046" lon="1.564898">
        <ele>1753.3</ele>
        <time>2013-08-08T09:19:58Z</time>
      </trkpt>
      <trkpt lat="42.501033" lon="1.564961">
        <ele>1752.5</ele>
        <time>2013-08-08T09:20:03Z</time>
      </trkpt>
      <trkpt lat="42.500980" lon="1.565022">
        <ele>1747.8</ele>
        <time>2013-08-08T09:20:12Z</time>
      </trkpt>
      <trkpt lat="42.500859" lon="1.565177">
        <ele>1736.8</ele>
        <time>2013-08-08T09:20:26Z</time>
      </trkpt>
      <trkpt lat="42.500865" lon="1.565317">
        <ele>1737.4</ele>
        <time>2013-08-08T09:20:37Z</time>
      </trkpt>
      <trkpt lat="42.500873" lon="1.565354">
        <ele>1738.1</ele>
        <time>2013-08-08T09:20:39Z</time>
      </trkpt>
      <trkpt lat="42.500912" lon="1.565457">
        <ele>1741.7</ele>
        <time>2013-08-08T09:20:47Z</time>
      </trkpt>
      <trkpt lat="42.500902" lon="1.565537">
        <ele>1741.3</ele>
        <time>2013-08-08T09:20:54Z</time>
      </trkpt>
      <trkpt lat="42.500784" lon="1.565690">
        <ele>1733.3</ele>
        <time>2013-08-08T09:21:09Z</time>
      </trkpt>
      <trkpt lat="42.500671" lon="1.565704">
        <ele>1724.9</ele>
        <time>2013-08-08T09:21:20Z</time>
      </trkpt>
      <trkpt lat="42.500563" lon="1.565775">
        <ele>1718.0</ele>
        <time>2013-08-08T09:21:32Z</time>
      </trkpt>
      <trkpt lat="42.500624" lon="1.565848">
        <ele>1722.4</ele>
        <time>2013-08-08T09:21:44Z</time>
      </trkpt>
      <trkpt lat="42.500647" lon="1.565922">
        <ele>1724.7</ele>
        <time>2013-08-08T09:21:49Z</time>
      </trkpt>
      <trkpt lat="42.500700" lon="1.566061">
        <ele>1731.1</ele>
        <time>2013-08-08T09:22:01Z</time>
      </trkpt>
      <trkpt lat="42.500684" lon="1.566109">
        <ele>1730.3</ele>
        <time>2013-08-08T09:22:05Z</time>
      </trkpt>
      <trkpt lat="42.500637" lon="1.566178">
        <ele>1727.3</ele>
        <time>2013-08-08T09:22:11Z</time>
      </trkpt>
      <trkpt lat="42.500598" lon="1.566205">
        <ele>1724.2</ele>
        <time>2013-08-08T09:22:14Z</time>
      </trkpt>
      <trkpt lat="42.500573" lon="1.566214">
        <ele>1722.2</ele>
        <time>2013-08-08T09:22:16Z</time>
      </trkpt>
      <trkpt lat="42.500537" lon="1.566260">
        <ele>1720.1</ele>
        <time>2013-08-08T09:22:21Z</time>
      </trkpt>
      <trkpt lat="42.500507" lon="1.566301">
        <ele>1718.5</ele>
        <time>2013-08-08T09:22:24Z</time>
      </trkpt>
      <trkpt lat="42.500485" lon="1.566321">
        <ele>1717.1</ele>
        <time>2013-08-08T09:22:26Z</time>
      </trkpt>
      <trkpt lat="42.500467" lon="1.566420">
        <ele>1717.3</ele>
        <time>2013-08-08T09:22:33Z</time>
      </trkpt>
      <trkpt lat="42.500449" lon="1.566500">
        <ele>1716.7</ele>
        <time>2013-08-08T09:22:45Z</time>
      </trkpt>
      <trkpt lat="42.500451" lon="1.566540">
        <ele>1717.3</ele>
        <time>2013-08-08T09:22:58Z</time>
      </trkpt>
      <trkpt lat="42.500452" lon="1.566541">
        <ele>1717.4</ele>
        <time>2013-08-08T09:23:04Z</time>
      </trkpt>
      <trkpt lat="42.500428" lon="1.566724">
        <ele>1717.8</ele>
        <time>2013-08-08T09:23:16Z</time>
      </trkpt>
      <trkpt lat="42.500420" lon="1.566742">
        <ele>1717.4</ele>
        <time>2013-08-08T09:23:17Z</time>
      </trkpt>
      <trkpt lat="42.500401" lon="1.566764">
        <ele>1716.1</ele>
        <time>2013-08-08T09:23:19Z</time>
      </trkpt>
      <trkpt lat="42.500393" lon="1.566798">
        <ele>1715.9</ele>
        <time>2013-08-08T09:23:21Z</time>
      </trkpt>
      <trkpt lat="42.500315" lon="1.566966">
        <ele>1712.1</ele>
        <time>2013-08-08T09:23:33Z</time>
      </trkpt>
      <trkpt lat="42.500277" lon="1.567085">
        <ele>1711.4</ele>
        <time>2013-08-08T09:23:44Z</time>
      </trkpt>
      <trkpt lat="42.500252" lon="1.567190">
        <ele>1711.3</ele>
        <time>2013-08-08T09:23:54Z</time>
      </trkpt>
      <trkpt lat="42.500227" lon="1.567364">
        <ele>1711.2</ele>
        <time>2013-08-08T09:24:05Z</time>
      </trkpt>
      <trkpt lat="42.500231" lon="1.567544">
        <ele>1712.0</ele>
        <time>2013-08-08T09:24:17Z</time>
      </trkpt>
      <trkpt lat="42.500245" lon="1.567586">
        <ele>1713.2</ele>
        <time>2013-08-08T09:24:22Z</time>
      </trkpt>
      <trkpt lat="42.500242" lon="1.567602">
        <ele>1713.1</ele>
        <time>2013-08-08T09:24:24Z</time>
      </trkpt>
      <trkpt lat="42.500145" lon="1.567874">
        <ele>1709.6</ele>
        <time>2013-08-08T09:24:39Z</time>
      </trkpt>
      <trkpt lat="42.500095" lon="1.567948">
        <ele>1707.7</ele>
        <time>2013-08-08T09:24:44Z</time>
      </trkpt>
      <trkpt lat="42.500007" lon="1.568127">
        <ele>1705.9</ele>
        <time>2013-08-08T09:24:58Z</time>
      </trkpt>
      <trkpt lat="42.499939" lon="1.568268">
        <ele>1705.0</ele>
        <time>2013-08-08T09:25:12Z</time>
      </trkpt>
      <trkpt lat="42.499923" lon="1.568306">
        <ele>1704.6</ele>
        <time>2013-08-08T09:25:14Z</time>
      </trkpt>
      <trkpt lat="42.499872" lon="1.568400">
        <ele>1702.6</ele>
        <time>2013-08-08T09:25:21Z</time>
      </trkpt>
      <trkpt lat="42.499780" lon="1.568564">
        <ele>1699.2</ele>
        <time>2013-08-08T09:25:33Z</time>
      </trkpt>
      <trkpt lat="42.499678" lon="1.568727">
        <ele>1695.5</ele>
        <time>2013-08-08T09:25:46Z</time>
      </trkpt>
      <trkpt lat="42.499641" lon="1.568875">
        <ele>1695.5</ele>
        <time>2013-08-08T09:25:57Z</time>
      </trkpt>
      <trkpt lat="42.499640" lon="1.568886">
        <ele>1695.6</ele>
        <time>2013-08-08T09:26:06Z</time>
      </trkpt>
      <trkpt lat="42.499597" lon="1.569070">
        <ele>1696.0</ele>
        <time>2013-08-08T09:26:20Z</time>
      </trkpt>
      <trkpt lat="42.499481" lon="1.569324">
        <ele>1692.0</ele>
        <time>2013-08-08T09:26:35Z</time>
      </trkpt>
      <trkpt lat="42.499289" lon="1.569495">
        <ele>1682.8</ele>
        <time>2013-08-08T09:26:48Z</time>
      </trkpt>
      <trkpt lat="42.499237" lon="1.569592">
        <ele>1680.7</ele>
        <time>2013-08-08T09:26:57Z</time>
      </trkpt>
      <trkpt lat="42.499172" lon="1.569739">
        <ele>1679.1</ele>
        <time>2013-08-08T09:27:09Z</time>
      </trkpt>
      <trkpt lat="42.499070" lon="1.569944">
        <ele>1675.8</ele>
        <time>2013-08-08T09:27:21Z</time>
      </trkpt>
      <trkpt lat="42.499068" lon="1.570101">
        <ele>1678.2</ele>
        <time>2013-08-08T09:27:34Z</time>
      </trkpt>
      <trkpt lat="42.499065" lon="1.570270">
        <ele>1681.2</ele>
        <time>2013-08-08T09:27:44Z</time>
      </trkpt>
      <trkpt lat="42.498960" lon="1.570456">
        <ele>1677.4</ele>
        <time>2013-08-08T09:27:58Z</time>
      </trkpt>
      <trkpt lat="42.498957" lon="1.570523">
        <ele>1678.3</ele>
        <time>2013-08-08T09:28:04Z</time>
      </trkpt>
      <trkpt lat="42.498936" lon="1.570606">
        <ele>1678.4</ele>
        <time>2013-08-08T09:28:14Z</time>
      </trkpt>
      <trkpt lat="42.498919" lon="1.570650">
        <ele>1678.0</ele>
        <time>2013-08-08T09:28:19Z</time>
      </trkpt>
      <trkpt lat="42.498750" lon="1.570755">
        <ele>1669.2</ele>
        <time>2013-08-08T09:28:32Z</time>
      </trkpt>
      <trkpt lat="42.498725" lon="1.570796">
        <ele>1668.3</ele>
        <time>2013-08-08T09:28:36Z</time>
      </trkpt>
      <trkpt lat="42.498720" lon="1.570824">
        <ele>1668.5</ele>
        <time>2013-08-08T09:28:38Z</time>
      </trkpt>
      <trkpt lat="42.498689" lon="1.570942">
        <ele>1668.6</ele>
        <time>2013-08-08T09:28:46Z</time>
      </trkpt>
      <trkpt lat="42.498647" lon="1.570994">
        <ele>1667.2</ele>
        <time>2013-08-08T09:28:50Z</time>
      </trkpt>
      <trkpt lat="42.498634" lon="1.571046">
        <ele>1667.4</ele>
        <time>2013-08-08T09:28:54Z</time>
      </trkpt>
      <trkpt lat="42.498631" lon="1.571088">
        <ele>1667.9</ele>
        <time>2013-08-08T09:28:57Z</time>
      </trkpt>
      <trkpt lat="42.498549" lon="1.571209">
        <ele>1665.3</ele>
        <time>2013-08-08T09:29:08Z</time>
      </trkpt>
      <trkpt lat="42.498508" lon="1.571434">
        <ele>1666.9</ele>
        <time>2013-08-08T09:29:23Z</time>
      </trkpt>
      <trkpt lat="42.498461" lon="1.571512">
        <ele>1665.0</ele>
        <time>2013-08-08T09:29:31Z</time>
      </trkpt>
      <trkpt lat="42.498467" lon="1.571638">
        <ele>1666.7</ele>
        <time>2013-08-08T09:29:39Z</time>
      </trkpt>
      <trkpt lat="42.498378" lon="1.571737">
        <ele>1662.0</ele>
        <time>2013-08-08T09:29:48Z</time>
      </trkpt>
      <trkpt lat="42.498243" lon="1.571833">
        <ele>1652.4</ele>
        <time>2013-08-08T09:29:58Z</time>
      </trkpt>
      <trkpt lat="42.498183" lon="1.572005">
        <ele>1648.8</ele>
        <time>2013-08-08T09:30:09Z</time>
      </trkpt>
      <trkpt lat="42.498198" lon="1.572166">
        <ele>1650.5</ele>
        <time>2013-08-08T09:30:20Z</time>
      </trkpt>
      <trkpt lat="42.498212" lon="1.572212">
        <ele>1651.8</ele>
        <time>2013-08-08T09:30:23Z</time>
      </trkpt>
      <trkpt lat="42.498242" lon="1.572276">
        <ele>1654.5</ele>
        <time>2013-08-08T09:30:27Z</time>
      </trkpt>
      <trkpt lat="42.498243" lon="1.572447">
        <ele>1653.6</ele>
        <time>2013-08-08T09:30:38Z</time>
      </trkpt>
      <trkpt lat="42.498257" lon="1.572501">
        <ele>1653.9</ele>
        <time>2013-08-08T09:30:43Z</time>
      </trkpt>
      <trkpt lat="42.498240" lon="1.572530">
        <ele>1652.1</ele>
        <time>2013-08-08T09:30:55Z</time>
      </trkpt>
      <trkpt lat="42.498240" lon="1.572530">
        <ele>1652.1</ele>
        <time>2013-08-08T09:30:57Z</time>
      </trkpt>
      <trkpt lat="42.498244" lon="1.572667">
        <ele>1650.5</ele>
        <time>2013-08-08T09:31:06Z</time>
      </trkpt>
      <trkpt lat="42.498228" lon="1.572728">
        <ele>1648.5</ele>
        <time>2013-08-08T09:31:22Z</time>
      </trkpt>
      <trkpt lat="42.498224" lon="1.572754">
        <ele>1647.9</ele>
        <time>2013-08-08T09:31:43Z</time>
      </trkpt>
      <trkpt lat="42.498224" lon="1.572754">
        <ele>1647.9</ele>
        <time>2013-08-08T09:31:45Z</time>
      </trkpt>
      <trkpt lat="42.498229" lon="1.572818">
        <ele>1647.7</ele>
        <time>2013-08-08T09:31:59Z</time>
      </trkpt>
      <trkpt lat="42.498209" lon="1.572836">
        <ele>1646.3</ele>
        <time>2013-08-08T09:32:11Z</time>
      </trkpt>
      <trkpt lat="42.498206" lon="1.572941">
        <ele>1645.2</ele>
        <time>2013-08-08T09:32:21Z</time>
      </trkpt>
      <trkpt lat="42.498202" lon="1.572956">
        <ele>1644.8</ele>
        <time>2013-08-08T09:32:23Z</time>
      </trkpt>
      <trkpt lat="42.498155" lon="1.573090">
        <ele>1641.4</ele>
        <time>2013-08-08T09:32:34Z</time>
      </trkpt>
      <trkpt lat="42.498208" lon="1.573190">
        <ele>1644.2</ele>
        <time>2013-08-08T09:32:47Z</time>
      </trkpt>
      <trkpt lat="42.498208" lon="1.573190">
        <ele>1644.2</ele>
        <time>2013-08-08T09:33:06Z</time>
      </trkpt>
      <trkpt lat="42.498233" lon="1.573453">
        <ele>1645.5</ele>
        <time>2013-08-08T09:35:07Z</time>
      </trkpt>
      <trkpt lat="42.498189" lon="1.573615">
        <ele>1645.5</ele>
        <time>2013-08-08T09:35:17Z</time>
      </trkpt>
      <trkpt lat="42.498182" lon="1.573704">
        <ele>1647.0</ele>
        <time>2013-08-08T09:35:21Z</time>
      </trkpt>
      <trkpt lat="42.498194" lon="1.573823">
        <ele>1650.3</ele>
        <time>2013-08-08T09:35:26Z</time>
      </trkpt>
      <trkpt lat="42.498139" lon="1.573871">
        <ele>1649.3</ele>
        <time>2013-08-08T09:35:32Z</time>
      </trkpt>
      <trkpt lat="42.497991" lon="1.573930">
        <ele>1646.0</ele>
        <time>2013-08-08T09:35:41Z</time>
      </trkpt>
      <trkpt lat="42.497926" lon="1.574064">
        <ele>1646.8</ele>
        <time>2013-08-08T09:35:53Z</time>
      </trkpt>
      <trkpt lat="42.497910" lon="1.574089">
        <ele>1647.1</ele>
        <time>2013-08-08T09:36:08Z</time>
      </trkpt>
      <trkpt lat="42.497894" lon="1.574145">
        <ele>1648.3</ele>
        <time>2013-08-08T09:36:23Z</time>
      </trkpt>
      <trkpt lat="42.497814" lon="1.574232">
        <ele>1648.0</ele>
        <time>2013-08-08T09:36:37Z</time>
      </trkpt>
      <trkpt lat="42.497738" lon="1.574320">
        <ele>1647.8</ele>
        <time>2013-08-08T09:36:49Z</time>
      </trkpt>
      <trkpt lat="42.497663" lon="1.574418">
        <ele>1647.8</ele>
        <time>2013-08-08T09:37:00Z</time>
      </trkpt>
      <trkpt lat="42.497606" lon="1.574531">
        <ele>1648.7</ele>
        <time>2013-08-08T09:37:13Z</time>
      </trkpt>
      <trkpt lat="42.497550" lon="1.574657">
        <ele>1649.6</ele>
        <time>2013-08-08T09:37:27Z</time>
      </trkpt>
      <trkpt lat="42.497547" lon="1.574688">
        <ele>1650.3</ele>
        <time>2013-08-08T09:37:29Z</time>
      </trkpt>
      <trkpt lat="42.497548" lon="1.574740">
        <ele>1651.2</ele>
        <time>2013-08-08T09:37:32Z</time>
      </trkpt>
      <trkpt lat="42.497505" lon="1.574842">
        <ele>1651.2</ele>
        <time>2013-08-08T09:37:43Z</time>
      </trkpt>
      <trkpt lat="42.497491" lon="1.574946">
        <ele>1651.8</ele>
        <time>2013-08-08T09:37:52Z</time>
      </trkpt>
      <trkpt lat="42.497494" lon="1.575039">
        <ele>1653.0</ele>
        <time>2013-08-08T09:38:02Z</time>
      </trkpt>
      <trkpt lat="42.497497" lon="1.575156">
        <ele>1655.0</ele>
        <time>2013-08-08T09:38:12Z</time>
      </trkpt>
      <trkpt lat="42.497484" lon="1.575221">
        <ele>1655.5</ele>
        <time>2013-08-08T09:38:19Z</time>
      </trkpt>
      <trkpt lat="42.497481" lon="1.575292">
        <ele>1656.5</ele>
        <time>2013-08-08T09:38:25Z</time>
      </trkpt>
      <trkpt lat="42.497491" lon="1.575428">
        <ele>1658.7</ele>
        <time>2013-08-08T09:38:37Z</time>
      </trkpt>
      <trkpt lat="42.497469" lon="1.575540">
        <ele>1659.4</ele>
        <time>2013-08-08T09:38:46Z</time>
      </trkpt>
      <trkpt lat="42.497454" lon="1.575649">
        <ele>1660.4</ele>
        <time>2013-08-08T09:38:53Z</time>
      </trkpt>
      <trkpt lat="42.497444" lon="1.575733">
        <ele>1661.4</ele>
        <time>2013-08-08T09:38:58Z</time>
      </trkpt>
      <trkpt lat="42.497427" lon="1.575876">
        <ele>1662.9</ele>
        <time>2013-08-08T09:39:08Z</time>
      </trkpt>
      <trkpt lat="42.497426" lon="1.575890">
        <ele>1663.0</ele>
        <time>2013-08-08T09:39:09Z</time>
      </trkpt>
      <trkpt lat="42.497409" lon="1.575963">
        <ele>1663.1</ele>
        <time>2013-08-08T09:39:14Z</time>
      </trkpt>
      <trkpt lat="42.497366" lon="1.576082">
        <ele>1662.8</ele>
        <time>2013-08-08T09:39:21Z</time>
      </trkpt>
      <trkpt lat="42.497337" lon="1.576220">
        <ele>1663.7</ele>
        <time>2013-08-08T09:39:29Z</time>
      </trkpt>
      <trkpt lat="42.497341" lon="1.576367">
        <ele>1665.6</ele>
        <time>2013-08-08T09:39:41Z</time>
      </trkpt>
      <trkpt lat="42.497336" lon="1.576380">
        <ele>1665.5</ele>
        <time>2013-08-08T09:39:42Z</time>
      </trkpt>
      <trkpt lat="42.497329" lon="1.576516">
        <ele>1666.1</ele>
        <time>2013-08-08T09:39:55Z</time>
      </trkpt>
      <trkpt lat="42.497340" lon="1.576574">
        <ele>1667.0</ele>
        <time>2013-08-08T09:40:02Z</time>
      </trkpt>
      <trkpt lat="42.497366" lon="1.576652">
        <ele>1668.7</ele>
        <time>2013-08-08T09:40:13Z</time>
      </trkpt>
      <trkpt lat="42.497383" lon="1.576676">
        <ele>1669.5</ele>
        <time>2013-08-08T09:40:15Z</time>
      </trkpt>
      <trkpt lat="42.497399" lon="1.576711">
        <ele>1670.3</ele>
        <time>2013-08-08T09:40:18Z</time>
      </trkpt>
      <trkpt lat="42.497408" lon="1.576804">
        <ele>1671.4</ele>
        <time>2013-08-08T09:40:28Z</time>
      </trkpt>
      <trkpt lat="42.497400" lon="1.576943">
        <ele>1672.1</ele>
        <time>2013-08-08T09:40:41Z</time>
      </trkpt>
      <trkpt lat="42.497397" lon="1.576972">
        <ele>1672.2</ele>
        <time>2013-08-08T09:40:44Z</time>
      </trkpt>
      <trkpt lat="42.497435" lon="1.577131">
        <ele>1674.3</ele>
        <time>2013-08-08T09:40:55Z</time>
      </trkpt>
      <trkpt lat="42.497478" lon="1.577222">
        <ele>1676.0</ele>
        <time>2013-08-08T09:41:06Z</time>
      </trkpt>
      <trkpt lat="42.497479" lon="1.577270">
        <ele>1676.1</ele>
        <time>2013-08-08T09:41:14Z</time>
      </trkpt>
      <trkpt lat="42.497494" lon="1.577311">
        <ele>1676.7</ele>
        <time>2013-08-08T09:41:25Z</time>
      </trkpt>
      <trkpt lat="42.497497" lon="1.577403">
        <ele>1677.3</ele>
        <time>2013-08-08T09:41:36Z</time>
      </trkpt>
      <trkpt lat="42.497497" lon="1.577452">
        <ele>1677.7</ele>
        <time>2013-08-08T09:41:41Z</time>
      </trkpt>
      <trkpt lat="42.497492" lon="1.577499">
        <ele>1678.1</ele>
        <time>2013-08-08T09:41:44Z</time>
      </trkpt>
      <trkpt lat="42.497512" lon="1.577609">
        <ele>1680.8</ele>
        <time>2013-08-08T09:41:54Z</time>
      </trkpt>
      <trkpt lat="42.497528" lon="1.577734">
        <ele>1683.4</ele>
        <time>2013-08-08T09:42:06Z</time>
      </trkpt>
      <trkpt lat="42.497550" lon="1.577878">
        <ele>1686.7</ele>
        <time>2013-08-08T09:42:18Z</time>
      </trkpt>
      <trkpt lat="42.497579" lon="1.578031">
        <ele>1690.8</ele>
        <time>2013-08-08T09:42:29Z</time>
      </trkpt>
      <trkpt lat="42.497569" lon="1.578154">
        <ele>1691.8</ele>
        <time>2013-08-08T09:42:40Z</time>
      </trkpt>
      <trkpt lat="42.497570" lon="1.578276">
        <ele>1692.8</ele>
        <time>2013-08-08T09:42:49Z</time>
      </trkpt>
      <trkpt lat="42.497557" lon="1.578418">
        <ele>1693.3</ele>
        <time>2013-08-08T09:43:01Z</time>
      </trkpt>
      <trkpt lat="42.497559" lon="1.578519">
        <ele>1694.6</ele>
        <time>2013-08-08T09:43:14Z</time>
      </trkpt>
      <trkpt lat="42.497548" lon="1.578619">
        <ele>1695.3</ele>
        <time>2013-08-08T09:43:25Z</time>
      </trkpt>
      <trkpt lat="42.497538" lon="1.578720">
        <ele>1695.5</ele>
        <time>2013-08-08T09:43:35Z</time>
      </trkpt>
      <trkpt lat="42.497575" lon="1.578848">
        <ele>1698.0</ele>
        <time>2013-08-08T09:43:46Z</time>
      </trkpt>
      <trkpt lat="42.497587" lon="1.578915">
        <ele>1698.9</ele>
        <time>2013-08-08T09:43:51Z</time>
      </trkpt>
      <trkpt lat="42.497599" lon="1.579061">
        <ele>1700.5</ele>
        <time>2013-08-08T09:44:05Z</time>
      </trkpt>
      <trkpt lat="42.497590" lon="1.579082">
        <ele>1700.3</ele>
        <time>2013-08-08T09:44:07Z</time>
      </trkpt>
      <trkpt lat="42.497588" lon="1.579217">
        <ele>1702.1</ele>
        <time>2013-08-08T09:44:19Z</time>
      </trkpt>
      <trkpt lat="42.497580" lon="1.579279">
        <ele>1703.0</ele>
        <time>2013-08-08T09:44:28Z</time>
      </trkpt>
      <trkpt lat="42.497658" lon="1.579498">
        <ele>1710.7</ele>
        <time>2013-08-08T09:44:40Z</time>
      </trkpt>
      <trkpt lat="42.497681" lon="1.579599">
        <ele>1713.4</ele>
        <time>2013-08-08T09:44:52Z</time>
      </trkpt>
      <trkpt lat="42.497705" lon="1.579784">
        <ele>1718.4</ele>
        <time>2013-08-08T09:45:09Z</time>
      </trkpt>
      <trkpt lat="42.497650" lon="1.579906">
        <ele>1719.3</ele>
        <time>2013-08-08T09:45:22Z</time>
      </trkpt>
      <trkpt lat="42.497638" lon="1.580102">
        <ele>1723.2</ele>
        <time>2013-08-08T09:45:40Z</time>
      </trkpt>
      <trkpt lat="42.497592" lon="1.580217">
        <ele>1723.5</ele>
        <time>2013-08-08T09:45:55Z</time>
      </trkpt>
      <trkpt lat="42.497447" lon="1.580349">
        <ele>1722.5</ele>
        <time>2013-08-08T09:46:09Z</time>
      </trkpt>
      <trkpt lat="42.497411" lon="1.580369">
        <ele>1722.8</ele>
        <time>2013-08-08T09:46:13Z</time>
      </trkpt>
      <trkpt lat="42.497410" lon="1.580407">
        <ele>1724.2</ele>
        <time>2013-08-08T09:46:16Z</time>
      </trkpt>
      <trkpt lat="42.497421" lon="1.580549">
        <ele>1729.7</ele>
        <time>2013-08-08T09:46:28Z</time>
      </trkpt>
      <trkpt lat="42.497395" lon="1.580641">
        <ele>1732.7</ele>
        <time>2013-08-08T09:46:42Z</time>
      </trkpt>
      <trkpt lat="42.497382" lon="1.580653">
        <ele>1732.9</ele>
        <time>2013-08-08T09:46:44Z</time>
      </trkpt>
      <trkpt lat="42.497285" lon="1.580721">
        <ele>1733.1</ele>
        <time>2013-08-08T09:46:58Z</time>
      </trkpt>
      <trkpt lat="42.497216" lon="1.580820">
        <ele>1734.5</ele>
        <time>2013-08-08T09:47:12Z</time>
      </trkpt>
      <trkpt lat="42.497144" lon="1.580872">
        <ele>1734.3</ele>
        <time>2013-08-08T09:47:23Z</time>
      </trkpt>
      <trkpt lat="42.497059" lon="1.580926">
        <ele>1733.8</ele>
        <time>2013-08-08T09:47:32Z</time>
      </trkpt>
      <trkpt lat="42.497036" lon="1.581036">
        <ele>1736.2</ele>
        <time>2013-08-08T09:47:44Z</time>
      </trkpt>
      <trkpt lat="42.496998" lon="1.581144">
        <ele>1738.2</ele>
        <time>2013-08-08T09:47:56Z</time>
      </trkpt>
      <trkpt lat="42.496998" lon="1.581184">
        <ele>1739.4</ele>
        <time>2013-08-08T09:48:06Z</time>
      </trkpt>
      <trkpt lat="42.496998" lon="1.581179">
        <ele>1739.3</ele>
        <time>2013-08-08T09:48:07Z</time>
      </trkpt>
      <trkpt lat="42.496982" lon="1.581317">
        <ele>1742.5</ele>
        <time>2013-08-08T09:48:19Z</time>
      </trkpt>
      <trkpt lat="42.497002" lon="1.581450">
        <ele>1746.8</ele>
        <time>2013-08-08T09:48:27Z</time>
      </trkpt>
      <trkpt lat="42.497015" lon="1.581561">
        <ele>1751.1</ele>
        <time>2013-08-08T09:48:39Z</time>
      </trkpt>
      <trkpt lat="42.496985" lon="1.581613">
        <ele>1751.7</ele>
        <time>2013-08-08T09:48:50Z</time>
      </trkpt>
      <trkpt lat="42.496963" lon="1.581641">
        <ele>1751.9</ele>
        <time>2013-08-08T09:49:02Z</time>
      </trkpt>
      <trkpt lat="42.496959" lon="1.581671">
        <ele>1753.0</ele>
        <time>2013-08-08T09:49:15Z</time>
      </trkpt>
      <trkpt lat="42.496945" lon="1.581730">
        <ele>1754.9</ele>
        <time>2013-08-08T09:49:27Z</time>
      </trkpt>
      <trkpt lat="42.496884" lon="1.581942">
        <ele>1761.2</ele>
        <time>2013-08-08T09:49:43Z</time>
      </trkpt>
      <trkpt lat="42.496759" lon="1.582167">
        <ele>1764.5</ele>
        <time>2013-08-08T09:49:55Z</time>
      </trkpt>
      <trkpt lat="42.496704" lon="1.582254">
        <ele>1765.2</ele>
        <time>2013-08-08T09:50:06Z</time>
      </trkpt>
      <trkpt lat="42.496622" lon="1.582364">
        <ele>1765.9</ele>
        <time>2013-08-08T09:50:20Z</time>
      </trkpt>
      <trkpt lat="42.496550" lon="1.582444">
        <ele>1766.1</ele>
        <time>2013-08-08T09:50:31Z</time>
      </trkpt>
      <trkpt lat="42.496505" lon="1.582504">
        <ele>1766.5</ele>
        <time>2013-08-08T09:50:38Z</time>
      </trkpt>
      <trkpt lat="42.496414" lon="1.582574">
        <ele>1767.0</ele>
        <time>2013-08-08T09:50:47Z</time>
      </trkpt>
      <trkpt lat="42.496287" lon="1.582622">
        <ele>1768.5</ele>
        <time>2013-08-08T09:51:00Z</time>
      </trkpt>
      <trkpt lat="42.496244" lon="1.582636">
        <ele>1769.1</ele>
        <time>2013-08-08T09:51:05Z</time>
      </trkpt>
      <trkpt lat="42.496192" lon="1.582696">
        <ele>1770.8</ele>
        <time>2013-08-08T09:51:12Z</time>
      </trkpt>
      <trkpt lat="42.496181" lon="1.582721">
        <ele>1771.4</ele>
        <time>2013-08-08T09:51:14Z</time>
      </trkpt>
      <trkpt lat="42.496121" lon="1.582866">
        <ele>1774.7</ele>
        <time>2013-08-08T09:51:27Z</time>
      </trkpt>
      <trkpt lat="42.496142" lon="1.582992">
        <ele>1777.1</ele>
        <time>2013-08-08T09:51:39Z</time>
      </trkpt>
      <trkpt lat="42.496139" lon="1.583006">
        <ele>1777.4</ele>
        <time>2013-08-08T09:51:41Z</time>
      </trkpt>
      <trkpt lat="42.496111" lon="1.583102">
        <ele>1779.0</ele>
        <time>2013-08-08T09:51:54Z</time>
      </trkpt>
      <trkpt lat="42.496120" lon="1.583232">
        <ele>1779.8</ele>
        <time>2013-08-08T09:52:09Z</time>
      </trkpt>
      <trkpt lat="42.496097" lon="1.583433">
        <ele>1780.0</ele>
        <time>2013-08-08T09:52:22Z</time>
      </trkpt>
      <trkpt lat="42.496119" lon="1.583497">
        <ele>1780.0</ele>
        <time>2013-08-08T09:52:35Z</time>
      </trkpt>
      <trkpt lat="42.496202" lon="1.583571">
        <ele>1780.0</ele>
        <time>2013-08-08T09:59:22Z</time>
      </trkpt>
      <trkpt lat="42.496099" lon="1.583741">
        <ele>1780.8</ele>
        <time>2013-08-08T09:59:35Z</time>
      </trkpt>
      <trkpt lat="42.496035" lon="1.583848">
        <ele>1782.1</ele>
        <time>2013-08-08T09:59:46Z</time>
      </trkpt>
      <trkpt lat="42.496028" lon="1.583878">
        <ele>1782.6</ele>
        <time>2013-08-08T09:59:48Z</time>
      </trkpt>
      <trkpt lat="42.495958" lon="1.584022">
        <ele>1784.7</ele>
        <time>2013-08-08T10:00:00Z</time>
      </trkpt>
      <trkpt lat="42.495865" lon="1.584144">
        <ele>1786.1</ele>
        <time>2013-08-08T10:00:12Z</time>
      </trkpt>
      <trkpt lat="42.495795" lon="1.584210">
        <ele>1787.4</ele>
        <time>2013-08-08T10:00:23Z</time>
      </trkpt>
      <trkpt lat="42.495774" lon="1.584218">
        <ele>1787.6</ele>
        <time>2013-08-08T10:00:34Z</time>
      </trkpt>
      <trkpt lat="42.495723" lon="1.584302">
        <ele>1789.0</ele>
        <time>2013-08-08T10:00:47Z</time>
      </trkpt>
      <trkpt lat="42.495699" lon="1.584319">
        <ele>1789.3</ele>
        <time>2013-08-08T10:00:54Z</time>
      </trkpt>
      <trkpt lat="42.495636" lon="1.584410">
        <ele>1791.4</ele>
        <time>2013-08-08T10:01:06Z</time>
      </trkpt>
      <trkpt lat="42.495514" lon="1.584543">
        <ele>1794.2</ele>
        <time>2013-08-08T10:01:18Z</time>
      </trkpt>
      <trkpt lat="42.495417" lon="1.584669">
        <ele>1796.5</ele>
        <time>2013-08-08T10:01:31Z</time>
      </trkpt>
      <trkpt lat="42.495355" lon="1.584738">
        <ele>1798.0</ele>
        <time>2013-08-08T10:01:43Z</time>
      </trkpt>
      <trkpt lat="42.495278" lon="1.584785">
        <ele>1799.0</ele>
        <time>2013-08-08T10:01:53Z</time>
      </trkpt>
      <trkpt lat="42.495205" lon="1.584899">
        <ele>1800.3</ele>
        <time>2013-08-08T10:02:01Z</time>
      </trkpt>
      <trkpt lat="42.495186" lon="1.585024">
        <ele>1800.6</ele>
        <time>2013-08-08T10:02:12Z</time>
      </trkpt>
      <trkpt lat="42.495249" lon="1.585144">
        <ele>1802.1</ele>
        <time>2013-08-08T10:02:24Z</time>
      </trkpt>
      <trkpt lat="42.495266" lon="1.585164">
        <ele>1802.5</ele>
        <time>2013-08-08T10:02:26Z</time>
      </trkpt>
      <trkpt lat="42.495295" lon="1.585246">
        <ele>1803.8</ele>
        <time>2013-08-08T10:02:35Z</time>
      </trkpt>
      <trkpt lat="42.495278" lon="1.585386">
        <ele>1804.7</ele>
        <time>2013-08-08T10:02:48Z</time>
      </trkpt>
      <trkpt lat="42.495269" lon="1.585462">
        <ele>1805.2</ele>
        <time>2013-08-08T10:02:54Z</time>
      </trkpt>
      <trkpt lat="42.495271" lon="1.585540">
        <ele>1806.3</ele>
        <time>2013-08-08T10:03:01Z</time>
      </trkpt>
      <trkpt lat="42.495281" lon="1.585697">
        <ele>1809.2</ele>
        <time>2013-08-08T10:03:13Z</time>
      </trkpt>
      <trkpt lat="42.495275" lon="1.585720">
        <ele>1809.4</ele>
        <time>2013-08-08T10:03:16Z</time>
      </trkpt>
      <trkpt lat="42.495252" lon="1.585851">
        <ele>1811.1</ele>
        <time>2013-08-08T10:03:27Z</time>
      </trkpt>
      <trkpt lat="42.495262" lon="1.585918">
        <ele>1812.5</ele>
        <time>2013-08-08T10:03:31Z</time>
      </trkpt>
      <trkpt lat="42.495216" lon="1.586059">
        <ele>1814.0</ele>
        <time>2013-08-08T10:03:42Z</time>
      </trkpt>
      <trkpt lat="42.495164" lon="1.586183">
        <ele>1816.5</ele>
        <time>2013-08-08T10:03:52Z</time>
      </trkpt>
      <trkpt lat="42.495165" lon="1.586214">
        <ele>1817.0</ele>
        <time>2013-08-08T10:03:54Z</time>
      </trkpt>
      <trkpt lat="42.495170" lon="1.586275">
        <ele>1818.1</ele>
        <time>2013-08-08T10:03:58Z</time>
      </trkpt>
      <trkpt lat="42.495186" lon="1.586342">
        <ele>1819.8</ele>
        <time>2013-08-08T10:04:02Z</time>
      </trkpt>
      <trkpt lat="42.495201" lon="1.586522">
        <ele>1823.6</ele>
        <time>2013-08-08T10:04:14Z</time>
      </trkpt>
      <trkpt lat="42.495190" lon="1.586555">
        <ele>1823.5</ele>
        <time>2013-08-08T10:04:29Z</time>
      </trkpt>
      <trkpt lat="42.495190" lon="1.586555">
        <ele>1823.5</ele>
        <time>2013-08-08T10:04:53Z</time>
      </trkpt>
      <trkpt lat="42.495189" lon="1.586557">
        <ele>1823.4</ele>
        <time>2013-08-08T10:05:10Z</time>
      </trkpt>
      <trkpt lat="42.495161" lon="1.586740">
        <ele>1822.8</ele>
        <time>2013-08-08T10:05:22Z</time>
      </trkpt>
      <trkpt lat="42.495148" lon="1.586764">
        <ele>1822.2</ele>
        <time>2013-08-08T10:05:24Z</time>
      </trkpt>
      <trkpt lat="42.495112" lon="1.586856">
        <ele>1821.1</ele>
        <time>2013-08-08T10:05:36Z</time>
      </trkpt>
      <trkpt lat="42.495082" lon="1.587019">
        <ele>1820.7</ele>
        <time>2013-08-08T10:05:47Z</time>
      </trkpt>
      <trkpt lat="42.495066" lon="1.587084">
        <ele>1820.5</ele>
        <time>2013-08-08T10:05:54Z</time>
      </trkpt>
      <trkpt lat="42.495044" lon="1.587156">
        <ele>1822.1</ele>
        <time>2013-08-08T10:06:01Z</time>
      </trkpt>
      <trkpt lat="42.495000" lon="1.587266">
        <ele>1825.0</ele>
        <time>2013-08-08T10:06:13Z</time>
      </trkpt>
      <trkpt lat="42.494916" lon="1.587355">
        <ele>1826.3</ele>
        <time>2013-08-08T10:06:24Z</time>
      </trkpt>
      <trkpt lat="42.494849" lon="1.587441">
        <ele>1827.2</ele>
        <time>2013-08-08T10:06:34Z</time>
      </trkpt>
      <trkpt lat="42.494799" lon="1.587558">
        <ele>1828.0</ele>
        <time>2013-08-08T10:06:44Z</time>
      </trkpt>
      <trkpt lat="42.494753" lon="1.587667">
        <ele>1827.9</ele>
        <time>2013-08-08T10:06:53Z</time>
      </trkpt>
      <trkpt lat="42.494705" lon="1.587837">
        <ele>1830.1</ele>
        <time>2013-08-08T10:07:05Z</time>
      </trkpt>
      <trkpt lat="42.494676" lon="1.587971">
        <ele>1833.0</ele>
        <time>2013-08-08T10:07:14Z</time>
      </trkpt>
      <trkpt lat="42.494664" lon="1.587999">
        <ele>1833.6</ele>
        <time>2013-08-08T10:07:16Z</time>
      </trkpt>
      <trkpt lat="42.494587" lon="1.588162">
        <ele>1837.7</ele>
        <time>2013-08-08T10:07:29Z</time>
      </trkpt>
      <trkpt lat="42.494579" lon="1.588177">
        <ele>1838.2</ele>
        <time>2013-08-08T10:07:31Z</time>
      </trkpt>
      <trkpt lat="42.494536" lon="1.588254">
        <ele>1840.1</ele>
        <time>2013-08-08T10:07:44Z</time>
      </trkpt>
      <trkpt lat="42.494536" lon="1.588254">
        <ele>1840.1</ele>
        <time>2013-08-08T10:07:45Z</time>
      </trkpt>
      <trkpt lat="42.494460" lon="1.588368">
        <ele>1842.4</ele>
        <time>2013-08-08T10:07:56Z</time>
      </trkpt>
      <trkpt lat="42.494369" lon="1.588457">
        <ele>1842.2</ele>
        <time>2013-08-08T10:08:06Z</time>
      </trkpt>
      <trkpt lat="42.494263" lon="1.588619">
        <ele>1841.2</ele>
        <time>2013-08-08T10:08:20Z</time>
      </trkpt>
      <trkpt lat="42.494263" lon="1.588619">
        <ele>1841.2</ele>
        <time>2013-08-08T10:08:21Z</time>
      </trkpt>
      <trkpt lat="42.494193" lon="1.588692">
        <ele>1840.1</ele>
        <time>2013-08-08T10:08:32Z</time>
      </trkpt>
      <trkpt lat="42.494175" lon="1.588725">
        <ele>1840.2</ele>
        <time>2013-08-08T10:08:36Z</time>
      </trkpt>
      <trkpt lat="42.494080" lon="1.588881">
        <ele>1840.0</ele>
        <time>2013-08-08T10:08:48Z</time>
      </trkpt>
      <trkpt lat="42.494068" lon="1.588963">
        <ele>1840.0</ele>
        <time>2013-08-08T10:09:03Z</time>
      </trkpt>
      <trkpt lat="42.494062" lon="1.589055">
        <ele>1840.1</ele>
        <time>2013-08-08T10:09:13Z</time>
      </trkpt>
      <trkpt lat="42.494087" lon="1.589228">
        <ele>1840.3</ele>
        <time>2013-08-08T10:09:26Z</time>
      </trkpt>
      <trkpt lat="42.494098" lon="1.589241">
        <ele>1840.4</ele>
        <time>2013-08-08T10:09:44Z</time>
      </trkpt>
      <trkpt lat="42.494098" lon="1.589241">
        <ele>1840.4</ele>
        <time>2013-08-08T10:10:12Z</time>
      </trkpt>
      <trkpt lat="42.494088" lon="1.589307">
        <ele>1840.5</ele>
        <time>2013-08-08T10:10:33Z</time>
      </trkpt>
      <trkpt lat="42.494036" lon="1.589474">
        <ele>1841.7</ele>
        <time>2013-08-08T10:10:44Z</time>
      </trkpt>
      <trkpt lat="42.494007" lon="1.589524">
        <ele>1842.3</ele>
        <time>2013-08-08T10:10:56Z</time>
      </trkpt>
      <trkpt lat="42.494007" lon="1.589524">
        <ele>1842.3</ele>
        <time>2013-08-08T10:11:09Z</time>
      </trkpt>
      <trkpt lat="42.493910" lon="1.589647">
        <ele>1844.1</ele>
        <time>2013-08-08T10:11:20Z</time>
      </trkpt>
      <trkpt lat="42.493850" lon="1.589702">
        <ele>1844.9</ele>
        <time>2013-08-08T10:11:32Z</time>
      </trkpt>
      <trkpt lat="42.493690" lon="1.589850">
        <ele>1847.6</ele>
        <time>2013-08-08T10:11:45Z</time>
      </trkpt>
      <trkpt lat="42.493630" lon="1.589966">
        <ele>1849.5</ele>
        <time>2013-08-08T10:11:57Z</time>
      </trkpt>
      <trkpt lat="42.493566" lon="1.590053">
        <ele>1850.6</ele>
        <time>2013-08-08T10:12:08Z</time>
      </trkpt>
      <trkpt lat="42.493503" lon="1.590199">
        <ele>1853.2</ele>
        <time>2013-08-08T10:12:21Z</time>
      </trkpt>
      <trkpt lat="42.493443" lon="1.590346">
        <ele>1855.7</ele>
        <time>2013-08-08T10:12:32Z</time>
      </trkpt>
      <trkpt lat="42.493365" lon="1.590515">
        <ele>1859.6</ele>
        <time>2013-08-08T10:12:43Z</time>
      </trkpt>
      <trkpt lat="42.493318" lon="1.590605">
        <ele>1860.7</ele>
        <time>2013-08-08T10:12:54Z</time>
      </trkpt>
      <trkpt lat="42.493298" lon="1.590660">
        <ele>1861.3</ele>
        <time>2013-08-08T10:12:59Z</time>
      </trkpt>
      <trkpt lat="42.493264" lon="1.590756">
        <ele>1862.2</ele>
        <time>2013-08-08T10:13:08Z</time>
      </trkpt>
      <trkpt lat="42.493250" lon="1.590803">
        <ele>1862.5</ele>
        <time>2013-08-08T10:13:13Z</time>
      </trkpt>
      <trkpt lat="42.493183" lon="1.590911">
        <ele>1862.5</ele>
        <time>2013-08-08T10:13:24Z</time>
      </trkpt>
      <trkpt lat="42.493087" lon="1.590990">
        <ele>1861.3</ele>
        <time>2013-08-08T10:13:37Z</time>
      </trkpt>
      <trkpt lat="42.493014" lon="1.591064">
        <ele>1860.4</ele>
        <time>2013-08-08T10:13:50Z</time>
      </trkpt>
      <trkpt lat="42.492803" lon="1.591369">
        <ele>1863.8</ele>
        <time>2013-08-08T10:14:02Z</time>
      </trkpt>
      <trkpt lat="42.492730" lon="1.591495">
        <ele>1864.0</ele>
        <time>2013-08-08T10:14:10Z</time>
      </trkpt>
      <trkpt lat="42.492659" lon="1.591636">
        <ele>1862.7</ele>
        <time>2013-08-08T10:14:22Z</time>
      </trkpt>
      <trkpt lat="42.492639" lon="1.591770">
        <ele>1863.1</ele>
        <time>2013-08-08T10:14:30Z</time>
      </trkpt>
      <trkpt lat="42.492589" lon="1.591976">
        <ele>1865.2</ele>
        <time>2013-08-08T10:14:43Z</time>
      </trkpt>
      <trkpt lat="42.492525" lon="1.592146">
        <ele>1867.2</ele>
        <time>2013-08-08T10:14:55Z</time>
      </trkpt>
      <trkpt lat="42.492499" lon="1.592238">
        <ele>1868.7</ele>
        <time>2013-08-08T10:15:02Z</time>
      </trkpt>
      <trkpt lat="42.492465" lon="1.592390">
        <ele>1871.4</ele>
        <time>2013-08-08T10:15:11Z</time>
      </trkpt>
      <trkpt lat="42.492454" lon="1.592547">
        <ele>1874.5</ele>
        <time>2013-08-08T10:15:19Z</time>
      </trkpt>
      <trkpt lat="42.492448" lon="1.592692">
        <ele>1877.5</ele>
        <time>2013-08-08T10:15:31Z</time>
      </trkpt>
      <trkpt lat="42.492451" lon="1.592752">
        <ele>1878.7</ele>
        <time>2013-08-08T10:15:39Z</time>
      </trkpt>
      <trkpt lat="42.492443" lon="1.592875">
        <ele>1879.8</ele>
        <time>2013-08-08T10:15:46Z</time>
      </trkpt>
      <trkpt lat="42.492371" lon="1.592990">
        <ele>1880.0</ele>
        <time>2013-08-08T10:15:57Z</time>
      </trkpt>
      <trkpt lat="42.492285" lon="1.593020">
        <ele>1880.0</ele>
        <time>2013-08-08T10:16:05Z</time>
      </trkpt>
      <trkpt lat="42.492251" lon="1.593189">
        <ele>1880.0</ele>
        <time>2013-08-08T10:16:16Z</time>
      </trkpt>
      <trkpt lat="42.492227" lon="1.593288">
        <ele>1880.0</ele>
        <time>2013-08-08T10:16:27Z</time>
      </trkpt>
      <trkpt lat="42.492205" lon="1.593328">
        <ele>1880.0</ele>
        <time>2013-08-08T10:16:30Z</time>
      </trkpt>
      <trkpt lat="42.492158" lon="1.593565">
        <ele>1880.0</ele>
        <time>2013-08-08T10:16:44Z</time>
      </trkpt>
      <trkpt lat="42.492133" lon="1.593632">
        <ele>1880.0</ele>
        <time>2013-08-08T10:16:49Z</time>
      </trkpt>
      <trkpt lat="42.492050" lon="1.593758">
        <ele>1880.0</ele>
        <time>2013-08-08T10:16:59Z</time>
      </trkpt>
      <trkpt lat="42.492029" lon="1.593813">
        <ele>1880.0</ele>
        <time>2013-08-08T10:17:11Z</time>
      </trkpt>
      <trkpt lat="42.492051" lon="1.593817">
        <ele>1880.0</ele>
        <time>2013-08-08T10:17:16Z</time>
      </trkpt>
      <trkpt lat="42.492100" lon="1.593851">
        <ele>1880.0</ele>
        <time>2013-08-08T10:17:21Z</time>
      </trkpt>
      <trkpt lat="42.492092" lon="1.593909">
        <ele>1880.0</ele>
        <time>2013-08-08T10:17:25Z</time>
      </trkpt>
      <trkpt lat="42.492074" lon="1.594009">
        <ele>1880.0</ele>
        <time>2013-08-08T10:17:33Z</time>
      </trkpt>
      <trkpt lat="42.492068" lon="1.594036">
        <ele>1880.0</ele>
        <time>2013-08-08T10:17:35Z</time>
      </trkpt>
      <trkpt lat="42.492052" lon="1.594082">
        <ele>1880.3</ele>
        <time>2013-08-08T10:17:38Z</time>
      </trkpt>
      <trkpt lat="42.492021" lon="1.594136">
        <ele>1880.5</ele>
        <time>2013-08-08T10:18:25Z</time>
      </trkpt>
      <trkpt lat="42.492028" lon="1.594180">
        <ele>1880.6</ele>
        <time>2013-08-08T10:18:29Z</time>
      </trkpt>
      <trkpt lat="42.492000" lon="1.594227">
        <ele>1880.5</ele>
        <time>2013-08-08T10:18:32Z</time>
      </trkpt>
      <trkpt lat="42.492050" lon="1.594344">
        <ele>1881.2</ele>
        <time>2013-08-08T10:18:41Z</time>
      </trkpt>
      <trkpt lat="42.492030" lon="1.594425">
        <ele>1881.4</ele>
        <time>2013-08-08T10:18:46Z</time>
      </trkpt>
      <trkpt lat="42.492031" lon="1.594562">
        <ele>1882.6</ele>
        <time>2013-08-08T10:18:57Z</time>
      </trkpt>
      <trkpt lat="42.491958" lon="1.594480">
        <ele>1880.9</ele>
        <time>2013-08-08T10:39:29Z</time>
      </trkpt>
      <trkpt lat="42.491924" lon="1.594486">
        <ele>1880.6</ele>
        <time>2013-08-08T10:39:33Z</time>
      </trkpt>
      <trkpt lat="42.491836" lon="1.594477">
        <ele>1880.2</ele>
        <time>2013-08-08T10:39:42Z</time>
      </trkpt>
      <trkpt lat="42.491741" lon="1.594603">
        <ele>1881.4</ele>
        <time>2013-08-08T10:39:53Z</time>
      </trkpt>
      <trkpt lat="42.491664" lon="1.594656">
        <ele>1881.6</ele>
        <time>2013-08-08T10:40:01Z</time>
      </trkpt>
      <trkpt lat="42.491564" lon="1.594766">
        <ele>1881.9</ele>
        <time>2013-08-08T10:40:14Z</time>
      </trkpt>
      <trkpt lat="42.491557" lon="1.594818">
        <ele>1882.3</ele>
        <time>2013-08-08T10:40:18Z</time>
      </trkpt>
      <trkpt lat="42.491564" lon="1.594848">
        <ele>1882.7</ele>
        <time>2013-08-08T10:40:20Z</time>
      </trkpt>
      <trkpt lat="42.491561" lon="1.594903">
        <ele>1883.4</ele>
        <time>2013-08-08T10:40:24Z</time>
      </trkpt>
      <trkpt lat="42.491563" lon="1.594917">
        <ele>1883.7</ele>
        <time>2013-08-08T10:40:25Z</time>
      </trkpt>
      <trkpt lat="42.491551" lon="1.594981">
        <ele>1884.3</ele>
        <time>2013-08-08T10:40:30Z</time>
      </trkpt>
      <trkpt lat="42.491551" lon="1.595010">
        <ele>1884.5</ele>
        <time>2013-08-08T10:40:32Z</time>
      </trkpt>
      <trkpt lat="42.491556" lon="1.595170">
        <ele>1886.3</ele>
        <time>2013-08-08T10:40:43Z</time>
      </trkpt>
      <trkpt lat="42.491543" lon="1.595245">
        <ele>1887.3</ele>
        <time>2013-08-08T10:40:48Z</time>
      </trkpt>
      <trkpt lat="42.491552" lon="1.595386">
        <ele>1889.5</ele>
        <time>2013-08-08T10:41:01Z</time>
      </trkpt>
      <trkpt lat="42.491515" lon="1.595505">
        <ele>1890.9</ele>
        <time>2013-08-08T10:41:12Z</time>
      </trkpt>
      <trkpt lat="42.491466" lon="1.595632">
        <ele>1893.1</ele>
        <time>2013-08-08T10:41:24Z</time>
      </trkpt>
      <trkpt lat="42.491448" lon="1.595713">
        <ele>1894.3</ele>
        <time>2013-08-08T10:41:31Z</time>
      </trkpt>
      <trkpt lat="42.491437" lon="1.595754">
        <ele>1894.8</ele>
        <time>2013-08-08T10:41:35Z</time>
      </trkpt>
      <trkpt lat="42.491424" lon="1.595797">
        <ele>1895.4</ele>
        <time>2013-08-08T10:41:38Z</time>
      </trkpt>
      <trkpt lat="42.491375" lon="1.595922">
        <ele>1897.2</ele>
        <time>2013-08-08T10:41:49Z</time>
      </trkpt>
      <trkpt lat="42.491309" lon="1.596068">
        <ele>1898.7</ele>
        <time>2013-08-08T10:42:00Z</time>
      </trkpt>
      <trkpt lat="42.491301" lon="1.596217">
        <ele>1899.7</ele>
        <time>2013-08-08T10:42:13Z</time>
      </trkpt>
      <trkpt lat="42.491303" lon="1.596244">
        <ele>1899.8</ele>
        <time>2013-08-08T10:42:15Z</time>
      </trkpt>
      <trkpt lat="42.491341" lon="1.596381">
        <ele>1900.1</ele>
        <time>2013-08-08T10:42:26Z</time>
      </trkpt>
      <trkpt lat="42.491371" lon="1.596472">
        <ele>1900.1</ele>
        <time>2013-08-08T10:42:38Z</time>
      </trkpt>
      <trkpt lat="42.491375" lon="1.596492">
        <ele>1900.1</ele>
        <time>2013-08-08T10:42:42Z</time>
      </trkpt>
      <trkpt lat="42.491386" lon="1.596615">
        <ele>1900.1</ele>
        <time>2013-08-08T10:42:53Z</time>
      </trkpt>
      <trkpt lat="42.491385" lon="1.596633">
        <ele>1900.1</ele>
        <time>2013-08-08T10:42:54Z</time>
      </trkpt>
      <trkpt lat="42.491380" lon="1.596692">
        <ele>1900.1</ele>
        <time>2013-08-08T10:42:58Z</time>
      </trkpt>
      <trkpt lat="42.491380" lon="1.596757">
        <ele>1900.4</ele>
        <time>2013-08-08T10:43:03Z</time>
      </trkpt>
      <trkpt lat="42.491390" lon="1.596797">
        <ele>1900.6</ele>
        <time>2013-08-08T10:43:06Z</time>
      </trkpt>
      <trkpt lat="42.491394" lon="1.596941">
        <ele>1902.5</ele>
        <time>2013-08-08T10:43:17Z</time>
      </trkpt>
      <trkpt lat="42.491389" lon="1.597011">
        <ele>1903.5</ele>
        <time>2013-08-08T10:43:27Z</time>
      </trkpt>
      <trkpt lat="42.491364" lon="1.597094">
        <ele>1904.5</ele>
        <time>2013-08-08T10:43:40Z</time>
      </trkpt>
      <trkpt lat="42.491364" lon="1.597101">
        <ele>1904.6</ele>
        <time>2013-08-08T10:43:56Z</time>
      </trkpt>
      <trkpt lat="42.491348" lon="1.597230">
        <ele>1906.2</ele>
        <time>2013-08-08T10:44:10Z</time>
      </trkpt>
      <trkpt lat="42.491296" lon="1.597344">
        <ele>1907.2</ele>
        <time>2013-08-08T10:44:23Z</time>
      </trkpt>
      <trkpt lat="42.491254" lon="1.597519">
        <ele>1910.3</ele>
        <time>2013-08-08T10:44:37Z</time>
      </trkpt>
      <trkpt lat="42.491251" lon="1.597535">
        <ele>1910.6</ele>
        <time>2013-08-08T10:44:39Z</time>
      </trkpt>
      <trkpt lat="42.491217" lon="1.597742">
        <ele>1915.2</ele>
        <time>2013-08-08T10:44:53Z</time>
      </trkpt>
      <trkpt lat="42.491193" lon="1.597888">
        <ele>1918.4</ele>
        <time>2013-08-08T10:45:04Z</time>
      </trkpt>
      <trkpt lat="42.491194" lon="1.597911">
        <ele>1918.9</ele>
        <time>2013-08-08T10:45:07Z</time>
      </trkpt>
      <trkpt lat="42.491208" lon="1.598052">
        <ele>1919.7</ele>
        <time>2013-08-08T10:45:18Z</time>
      </trkpt>
      <trkpt lat="42.491206" lon="1.598241">
        <ele>1919.9</ele>
        <time>2013-08-08T10:45:28Z</time>
      </trkpt>
      <trkpt lat="42.491164" lon="1.598483">
        <ele>1919.9</ele>
        <time>2013-08-08T10:45:41Z</time>
      </trkpt>
      <trkpt lat="42.491125" lon="1.598601">
        <ele>1919.9</ele>
        <time>2013-08-08T10:45:53Z</time>
      </trkpt>
      <trkpt lat="42.491100" lon="1.598776">
        <ele>1919.9</ele>
        <time>2013-08-08T10:46:05Z</time>
      </trkpt>
      <trkpt lat="42.491023" lon="1.598967">
        <ele>1919.9</ele>
        <time>2013-08-08T10:46:18Z</time>
      </trkpt>
      <trkpt lat="42.491007" lon="1.599088">
        <ele>1919.9</ele>
        <time>2013-08-08T10:46:23Z</time>
      </trkpt>
      <trkpt lat="42.490996" lon="1.599171">
        <ele>1919.9</ele>
        <time>2013-08-08T10:46:29Z</time>
      </trkpt>
      <trkpt lat="42.490969" lon="1.599253">
        <ele>1919.9</ele>
        <time>2013-08-08T10:46:35Z</time>
      </trkpt>
      <trkpt lat="42.490898" lon="1.599406">
        <ele>1919.9</ele>
        <time>2013-08-08T10:46:47Z</time>
      </trkpt>
      <trkpt lat="42.490875" lon="1.599583">
        <ele>1919.9</ele>
        <time>2013-08-08T10:46:59Z</time>
      </trkpt>
      <trkpt lat="42.490873" lon="1.599597">
        <ele>1920.0</ele>
        <time>2013-08-08T10:47:00Z</time>
      </trkpt>
      <trkpt lat="42.490853" lon="1.599649">
        <ele>1920.3</ele>
        <time>2013-08-08T10:47:04Z</time>
      </trkpt>
      <trkpt lat="42.490846" lon="1.599728">
        <ele>1921.7</ele>
        <time>2013-08-08T10:47:10Z</time>
      </trkpt>
      <trkpt lat="42.490824" lon="1.599784">
        <ele>1922.7</ele>
        <time>2013-08-08T10:47:23Z</time>
      </trkpt>
      <trkpt lat="42.490727" lon="1.599879">
        <ele>1924.5</ele>
        <time>2013-08-08T10:47:38Z</time>
      </trkpt>
      <trkpt lat="42.490692" lon="1.599907">
        <ele>1925.1</ele>
        <time>2013-08-08T10:47:44Z</time>
      </trkpt>
      <trkpt lat="42.490660" lon="1.599936">
        <ele>1925.7</ele>
        <time>2013-08-08T10:47:48Z</time>
      </trkpt>
      <trkpt lat="42.490583" lon="1.600073">
        <ele>1926.8</ele>
        <time>2013-08-08T10:48:02Z</time>
      </trkpt>
      <trkpt lat="42.490516" lon="1.600177">
        <ele>1926.0</ele>
        <time>2013-08-08T10:48:15Z</time>
      </trkpt>
      <trkpt lat="42.490459" lon="1.600294">
        <ele>1926.8</ele>
        <time>2013-08-08T10:48:29Z</time>
      </trkpt>
      <trkpt lat="42.490443" lon="1.600328">
        <ele>1927.1</ele>
        <time>2013-08-08T10:48:41Z</time>
      </trkpt>
      <trkpt lat="42.490435" lon="1.600395">
        <ele>1928.8</ele>
        <time>2013-08-08T10:48:51Z</time>
      </trkpt>
      <trkpt lat="42.490427" lon="1.600414">
        <ele>1929.1</ele>
        <time>2013-08-08T10:49:05Z</time>
      </trkpt>
      <trkpt lat="42.490355" lon="1.600554">
        <ele>1929.3</ele>
        <time>2013-08-08T10:49:13Z</time>
      </trkpt>
      <trkpt lat="42.490324" lon="1.600612">
        <ele>1928.9</ele>
        <time>2013-08-08T10:49:25Z</time>
      </trkpt>
      <trkpt lat="42.490324" lon="1.600612">
        <ele>1928.9</ele>
        <time>2013-08-08T10:49:40Z</time>
      </trkpt>
      <trkpt lat="42.490319" lon="1.600698">
        <ele>1930.4</ele>
        <time>2013-08-08T10:49:50Z</time>
      </trkpt>
      <trkpt lat="42.490254" lon="1.601056">
        <ele>1937.7</ele>
        <time>2013-08-08T10:50:05Z</time>
      </trkpt>
      <trkpt lat="42.490240" lon="1.601098">
        <ele>1938.1</ele>
        <time>2013-08-08T10:50:07Z</time>
      </trkpt>
      <trkpt lat="42.490184" lon="1.601314">
        <ele>1941.8</ele>
        <time>2013-08-08T10:50:20Z</time>
      </trkpt>
      <trkpt lat="42.490173" lon="1.601360">
        <ele>1942.4</ele>
        <time>2013-08-08T10:50:32Z</time>
      </trkpt>
      <trkpt lat="42.490114" lon="1.601609">
        <ele>1945.7</ele>
        <time>2013-08-08T10:50:44Z</time>
      </trkpt>
      <trkpt lat="42.490104" lon="1.601759">
        <ele>1949.3</ele>
        <time>2013-08-08T10:50:55Z</time>
      </trkpt>
      <trkpt lat="42.490104" lon="1.601759">
        <ele>1949.3</ele>
        <time>2013-08-08T10:51:06Z</time>
      </trkpt>
      <trkpt lat="42.490141" lon="1.602018">
        <ele>1955.7</ele>
        <time>2013-08-08T10:51:18Z</time>
      </trkpt>
      <trkpt lat="42.490147" lon="1.602118">
        <ele>1957.1</ele>
        <time>2013-08-08T10:51:30Z</time>
      </trkpt>
      <trkpt lat="42.490150" lon="1.602164">
        <ele>1957.7</ele>
        <time>2013-08-08T10:51:35Z</time>
      </trkpt>
      <trkpt lat="42.490155" lon="1.602207">
        <ele>1958.2</ele>
        <time>2013-08-08T10:51:41Z</time>
      </trkpt>
      <trkpt lat="42.490103" lon="1.602379">
        <ele>1958.5</ele>
        <time>2013-08-08T10:51:54Z</time>
      </trkpt>
      <trkpt lat="42.490029" lon="1.602477">
        <ele>1957.8</ele>
        <time>2013-08-08T10:52:07Z</time>
      </trkpt>
      <trkpt lat="42.489976" lon="1.602546">
        <ele>1957.8</ele>
        <time>2013-08-08T10:52:16Z</time>
      </trkpt>
      <trkpt lat="42.489920" lon="1.602644">
        <ele>1958.4</ele>
        <time>2013-08-08T10:52:27Z</time>
      </trkpt>
      <trkpt lat="42.489861" lon="1.602730">
        <ele>1958.2</ele>
        <time>2013-08-08T10:52:41Z</time>
      </trkpt>
      <trkpt lat="42.489867" lon="1.602771">
        <ele>1959.9</ele>
        <time>2013-08-08T10:52:45Z</time>
      </trkpt>
      <trkpt lat="42.489918" lon="1.602894">
        <ele>1965.6</ele>
        <time>2013-08-08T10:52:56Z</time>
      </trkpt>
      <trkpt lat="42.489951" lon="1.602917">
        <ele>1967.4</ele>
        <time>2013-08-08T10:53:00Z</time>
      </trkpt>
      <trkpt lat="42.489998" lon="1.602959">
        <ele>1969.7</ele>
        <time>2013-08-08T10:53:11Z</time>
      </trkpt>
      <trkpt lat="42.489982" lon="1.603028">
        <ele>1970.9</ele>
        <time>2013-08-08T10:53:23Z</time>
      </trkpt>
      <trkpt lat="42.489956" lon="1.603084">
        <ele>1971.4</ele>
        <time>2013-08-08T10:53:35Z</time>
      </trkpt>
      <trkpt lat="42.489956" lon="1.603183">
        <ele>1973.2</ele>
        <time>2013-08-08T10:53:45Z</time>
      </trkpt>
      <trkpt lat="42.489948" lon="1.603256">
        <ele>1973.9</ele>
        <time>2013-08-08T10:53:55Z</time>
      </trkpt>
      <trkpt lat="42.489926" lon="1.603350">
        <ele>1974.5</ele>
        <time>2013-08-08T10:54:06Z</time>
      </trkpt>
      <trkpt lat="42.489915" lon="1.603363">
        <ele>1974.2</ele>
        <time>2013-08-08T10:54:08Z</time>
      </trkpt>
      <trkpt lat="42.489874" lon="1.603518">
        <ele>1974.7</ele>
        <time>2013-08-08T10:54:21Z</time>
      </trkpt>
      <trkpt lat="42.489869" lon="1.603546">
        <ele>1974.7</ele>
        <time>2013-08-08T10:54:23Z</time>
      </trkpt>
      <trkpt lat="42.489873" lon="1.603626">
        <ele>1975.7</ele>
        <time>2013-08-08T10:54:29Z</time>
      </trkpt>
      <trkpt lat="42.489865" lon="1.603668">
        <ele>1975.9</ele>
        <time>2013-08-08T10:54:32Z</time>
      </trkpt>
      <trkpt lat="42.489842" lon="1.603786">
        <ele>1977.3</ele>
        <time>2013-08-08T10:54:41Z</time>
      </trkpt>
      <trkpt lat="42.489834" lon="1.603788">
        <ele>1976.9</ele>
        <time>2013-08-08T10:54:58Z</time>
      </trkpt>
      <trkpt lat="42.489811" lon="1.603843">
        <ele>1976.9</ele>
        <time>2013-08-08T10:55:03Z</time>
      </trkpt>
      <trkpt lat="42.489772" lon="1.603947">
        <ele>1976.8</ele>
        <time>2013-08-08T10:55:13Z</time>
      </trkpt>
      <trkpt lat="42.489762" lon="1.603975">
        <ele>1976.7</ele>
        <time>2013-08-08T10:55:15Z</time>
      </trkpt>
      <trkpt lat="42.489706" lon="1.604111">
        <ele>1976.2</ele>
        <time>2013-08-08T10:55:27Z</time>
      </trkpt>
      <trkpt lat="42.489699" lon="1.604173">
        <ele>1976.7</ele>
        <time>2013-08-08T10:55:34Z</time>
      </trkpt>
      <trkpt lat="42.489668" lon="1.604415">
        <ele>1978.1</ele>
        <time>2013-08-08T10:55:48Z</time>
      </trkpt>
      <trkpt lat="42.489667" lon="1.604439">
        <ele>1978.3</ele>
        <time>2013-08-08T10:55:50Z</time>
      </trkpt>
      <trkpt lat="42.489663" lon="1.604498">
        <ele>1978.8</ele>
        <time>2013-08-08T10:55:53Z</time>
      </trkpt>
      <trkpt lat="42.489601" lon="1.604708">
        <ele>1980.2</ele>
        <time>2013-08-08T10:56:06Z</time>
      </trkpt>
      <trkpt lat="42.489594" lon="1.604905">
        <ele>1980.7</ele>
        <time>2013-08-08T10:56:19Z</time>
      </trkpt>
      <trkpt lat="42.489602" lon="1.605071">
        <ele>1981.3</ele>
        <time>2013-08-08T10:56:30Z</time>
      </trkpt>
      <trkpt lat="42.489602" lon="1.605087">
        <ele>1981.4</ele>
        <time>2013-08-08T10:56:31Z</time>
      </trkpt>
      <trkpt lat="42.489600" lon="1.605144">
        <ele>1981.4</ele>
        <time>2013-08-08T10:56:35Z</time>
      </trkpt>
      <trkpt lat="42.489595" lon="1.605385">
        <ele>1981.6</ele>
        <time>2013-08-08T10:56:48Z</time>
      </trkpt>
      <trkpt lat="42.489632" lon="1.605572">
        <ele>1981.4</ele>
        <time>2013-08-08T10:57:01Z</time>
      </trkpt>
      <trkpt lat="42.489634" lon="1.605584">
        <ele>1981.4</ele>
        <time>2013-08-08T10:57:02Z</time>
      </trkpt>
      <trkpt lat="42.489669" lon="1.605741">
        <ele>1981.4</ele>
        <time>2013-08-08T10:57:12Z</time>
      </trkpt>
      <trkpt lat="42.489701" lon="1.605885">
        <ele>1981.9</ele>
        <time>2013-08-08T10:57:20Z</time>
      </trkpt>
      <trkpt lat="42.489710" lon="1.606061">
        <ele>1985.4</ele>
        <time>2013-08-08T10:57:33Z</time>
      </trkpt>
      <trkpt lat="42.489703" lon="1.606127">
        <ele>1986.5</ele>
        <time>2013-08-08T10:57:38Z</time>
      </trkpt>
      <trkpt lat="42.489643" lon="1.606249">
        <ele>1987.8</ele>
        <time>2013-08-08T10:57:49Z</time>
      </trkpt>
      <trkpt lat="42.489586" lon="1.606367">
        <ele>1988.9</ele>
        <time>2013-08-08T10:58:00Z</time>
      </trkpt>
      <trkpt lat="42.489556" lon="1.606424">
        <ele>1989.0</ele>
        <time>2013-08-08T10:58:06Z</time>
      </trkpt>
      <trkpt lat="42.489539" lon="1.606459">
        <ele>1988.6</ele>
        <time>2013-08-08T10:58:09Z</time>
      </trkpt>
      <trkpt lat="42.489506" lon="1.606661">
        <ele>1986.7</ele>
        <time>2013-08-08T10:58:23Z</time>
      </trkpt>
      <trkpt lat="42.489557" lon="1.606836">
        <ele>1987.6</ele>
        <time>2013-08-08T10:58:36Z</time>
      </trkpt>
      <trkpt lat="42.489582" lon="1.606912">
        <ele>1988.4</ele>
        <time>2013-08-08T10:58:47Z</time>
      </trkpt>
      <trkpt lat="42.489582" lon="1.606909">
        <ele>1988.4</ele>
        <time>2013-08-08T10:58:57Z</time>
      </trkpt>
      <trkpt lat="42.489628" lon="1.607041">
        <ele>1990.4</ele>
        <time>2013-08-08T10:59:08Z</time>
      </trkpt>
      <trkpt lat="42.489638" lon="1.607151">
        <ele>1991.1</ele>
        <time>2013-08-08T10:59:15Z</time>
      </trkpt>
      <trkpt lat="42.489623" lon="1.607330">
        <ele>1991.5</ele>
        <time>2013-08-08T10:59:27Z</time>
      </trkpt>
      <trkpt lat="42.489633" lon="1.607491">
        <ele>1992.4</ele>
        <time>2013-08-08T10:59:38Z</time>
      </trkpt>
      <trkpt lat="42.489652" lon="1.607535">
        <ele>1993.2</ele>
        <time>2013-08-08T11:03:29Z</time>
      </trkpt>
      <trkpt lat="42.489659" lon="1.607676">
        <ele>1994.7</ele>
        <time>2013-08-08T11:03:42Z</time>
      </trkpt>
      <trkpt lat="42.489669" lon="1.607743">
        <ele>1995.7</ele>
        <time>2013-08-08T11:03:46Z</time>
      </trkpt>
      <trkpt lat="42.489696" lon="1.607839">
        <ele>1997.3</ele>
        <time>2013-08-08T11:03:53Z</time>
      </trkpt>
      <trkpt lat="42.489691" lon="1.607906">
        <ele>1997.8</ele>
        <time>2013-08-08T11:03:57Z</time>
      </trkpt>
      <trkpt lat="42.489691" lon="1.607970">
        <ele>1998.4</ele>
        <time>2013-08-08T11:04:02Z</time>
      </trkpt>
      <trkpt lat="42.489673" lon="1.608030">
        <ele>1998.9</ele>
        <time>2013-08-08T11:04:07Z</time>
      </trkpt>
      <trkpt lat="42.489687" lon="1.608120">
        <ele>1999.7</ele>
        <time>2013-08-08T11:04:12Z</time>
      </trkpt>
      <trkpt lat="42.489693" lon="1.608196">
        <ele>2000.1</ele>
        <time>2013-08-08T11:04:16Z</time>
      </trkpt>
      <trkpt lat="42.489730" lon="1.608312">
        <ele>2000.1</ele>
        <time>2013-08-08T11:04:24Z</time>
      </trkpt>
      <trkpt lat="42.489738" lon="1.608422">
        <ele>2000.1</ele>
        <time>2013-08-08T11:04:30Z</time>
      </trkpt>
      <trkpt lat="42.489760" lon="1.608527">
        <ele>2000.1</ele>
        <time>2013-08-08T11:04:41Z</time>
      </trkpt>
      <trkpt lat="42.489786" lon="1.608564">
        <ele>2000.1</ele>
        <time>2013-08-08T11:04:45Z</time>
      </trkpt>
      <trkpt lat="42.489812" lon="1.608666">
        <ele>2000.1</ele>
        <time>2013-08-08T11:04:54Z</time>
      </trkpt>
      <trkpt lat="42.489830" lon="1.608803">
        <ele>2000.2</ele>
        <time>2013-08-08T11:05:07Z</time>
      </trkpt>
      <trkpt lat="42.489827" lon="1.608846">
        <ele>2000.3</ele>
        <time>2013-08-08T11:05:11Z</time>
      </trkpt>
      <trkpt lat="42.489809" lon="1.609008">
        <ele>2000.5</ele>
        <time>2013-08-08T11:05:22Z</time>
      </trkpt>
      <trkpt lat="42.489783" lon="1.609148">
        <ele>2000.5</ele>
        <time>2013-08-08T11:05:34Z</time>
      </trkpt>
      <trkpt lat="42.489775" lon="1.609268">
        <ele>2001.1</ele>
        <time>2013-08-08T11:05:44Z</time>
      </trkpt>
      <trkpt lat="42.489773" lon="1.609305">
        <ele>2001.3</ele>
        <time>2013-08-08T11:05:46Z</time>
      </trkpt>
      <trkpt lat="42.489777" lon="1.609410">
        <ele>2002.2</ele>
        <time>2013-08-08T11:05:56Z</time>
      </trkpt>
      <trkpt lat="42.489745" lon="1.609521">
        <ele>2002.9</ele>
        <time>2013-08-08T11:06:08Z</time>
      </trkpt>
      <trkpt lat="42.489726" lon="1.609548">
        <ele>2002.7</ele>
        <time>2013-08-08T11:06:26Z</time>
      </trkpt>
      <trkpt lat="42.489645" lon="1.609698">
        <ele>2002.2</ele>
        <time>2013-08-08T11:06:40Z</time>
      </trkpt>
      <trkpt lat="42.489578" lon="1.609778">
        <ele>2001.2</ele>
        <time>2013-08-08T11:06:51Z</time>
      </trkpt>
      <trkpt lat="42.489548" lon="1.609812">
        <ele>2001.0</ele>
        <time>2013-08-08T11:07:03Z</time>
      </trkpt>
      <trkpt lat="42.489449" lon="1.609958">
        <ele>2001.9</ele>
        <time>2013-08-08T11:07:16Z</time>
      </trkpt>
      <trkpt lat="42.489402" lon="1.609995">
        <ele>2002.7</ele>
        <time>2013-08-08T11:07:21Z</time>
      </trkpt>
      <trkpt lat="42.489355" lon="1.610062">
        <ele>2004.1</ele>
        <time>2013-08-08T11:07:27Z</time>
      </trkpt>
      <trkpt lat="42.489272" lon="1.610180">
        <ele>2005.8</ele>
        <time>2013-08-08T11:07:42Z</time>
      </trkpt>
      <trkpt lat="42.489210" lon="1.610328">
        <ele>2006.9</ele>
        <time>2013-08-08T11:07:56Z</time>
      </trkpt>
      <trkpt lat="42.489162" lon="1.610506">
        <ele>2009.0</ele>
        <time>2013-08-08T11:08:09Z</time>
      </trkpt>
      <trkpt lat="42.489143" lon="1.610571">
        <ele>2009.8</ele>
        <time>2013-08-08T11:08:14Z</time>
      </trkpt>
      <trkpt lat="42.489128" lon="1.610642">
        <ele>2010.8</ele>
        <time>2013-08-08T11:08:20Z</time>
      </trkpt>
      <trkpt lat="42.489097" lon="1.610754">
        <ele>2013.0</ele>
        <time>2013-08-08T11:08:31Z</time>
      </trkpt>
      <trkpt lat="42.489109" lon="1.610749">
        <ele>2012.8</ele>
        <time>2013-08-08T11:08:44Z</time>
      </trkpt>
      <trkpt lat="42.489089" lon="1.610825">
        <ele>2014.8</ele>
        <time>2013-08-08T11:09:00Z</time>
      </trkpt>
      <trkpt lat="42.489031" lon="1.610960">
        <ele>2018.5</ele>
        <time>2013-08-08T11:09:12Z</time>
      </trkpt>
      <trkpt lat="42.488950" lon="1.611061">
        <ele>2019.6</ele>
        <time>2013-08-08T11:09:24Z</time>
      </trkpt>
      <trkpt lat="42.488905" lon="1.611099">
        <ele>2019.8</ele>
        <time>2013-08-08T11:09:30Z</time>
      </trkpt>
      <trkpt lat="42.488829" lon="1.611205">
        <ele>2019.9</ele>
        <time>2013-08-08T11:09:41Z</time>
      </trkpt>
      <trkpt lat="42.488809" lon="1.611349">
        <ele>2019.9</ele>
        <time>2013-08-08T11:09:55Z</time>
      </trkpt>
      <trkpt lat="42.488763" lon="1.611464">
        <ele>2019.9</ele>
        <time>2013-08-08T11:10:02Z</time>
      </trkpt>
      <trkpt lat="42.488661" lon="1.611692">
        <ele>2020.6</ele>
        <time>2013-08-08T11:10:16Z</time>
      </trkpt>
      <trkpt lat="42.488657" lon="1.611703">
        <ele>2020.6</ele>
        <time>2013-08-08T11:10:17Z</time>
      </trkpt>
      <trkpt lat="42.488587" lon="1.611810">
        <ele>2020.2</ele>
        <time>2013-08-08T11:10:24Z</time>
      </trkpt>
      <trkpt lat="42.488560" lon="1.611866">
        <ele>2019.9</ele>
        <time>2013-08-08T11:10:29Z</time>
      </trkpt>
      <trkpt lat="42.488486" lon="1.612052">
        <ele>2019.9</ele>
        <time>2013-08-08T11:10:42Z</time>
      </trkpt>
      <trkpt lat="42.488432" lon="1.612235">
        <ele>2020.7</ele>
        <time>2013-08-08T11:10:55Z</time>
      </trkpt>
      <trkpt lat="42.488403" lon="1.612305">
        <ele>2021.3</ele>
        <time>2013-08-08T11:11:00Z</time>
      </trkpt>
      <trkpt lat="42.488353" lon="1.612397">
        <ele>2021.3</ele>
        <time>2013-08-08T11:11:08Z</time>
      </trkpt>
      <trkpt lat="42.488294" lon="1.612473">
        <ele>2020.9</ele>
        <time>2013-08-08T11:11:21Z</time>
      </trkpt>
      <trkpt lat="42.488257" lon="1.612532">
        <ele>2020.8</ele>
        <time>2013-08-08T11:11:31Z</time>
      </trkpt>
      <trkpt lat="42.488231" lon="1.612576">
        <ele>2020.5</ele>
        <time>2013-08-08T11:11:36Z</time>
      </trkpt>
      <trkpt lat="42.488163" lon="1.612741">
        <ele>2020.6</ele>
        <time>2013-08-08T11:11:48Z</time>
      </trkpt>
      <trkpt lat="42.488091" lon="1.612857">
        <ele>2022.4</ele>
        <time>2013-08-08T11:11:59Z</time>
      </trkpt>
      <trkpt lat="42.488077" lon="1.612956">
        <ele>2024.0</ele>
        <time>2013-08-08T11:12:10Z</time>
      </trkpt>
      <trkpt lat="42.488039" lon="1.613091">
        <ele>2026.1</ele>
        <time>2013-08-08T11:12:24Z</time>
      </trkpt>
      <trkpt lat="42.488034" lon="1.613194">
        <ele>2027.7</ele>
        <time>2013-08-08T11:12:32Z</time>
      </trkpt>
      <trkpt lat="42.487959" lon="1.613433">
        <ele>2031.7</ele>
        <time>2013-08-08T11:12:42Z</time>
      </trkpt>
      <trkpt lat="42.487927" lon="1.613541">
        <ele>2033.9</ele>
        <time>2013-08-08T11:12:49Z</time>
      </trkpt>
      <trkpt lat="42.487908" lon="1.613588">
        <ele>2034.9</ele>
        <time>2013-08-08T11:12:52Z</time>
      </trkpt>
      <trkpt lat="42.487863" lon="1.613675">
        <ele>2036.8</ele>
        <time>2013-08-08T11:13:02Z</time>
      </trkpt>
      <trkpt lat="42.487827" lon="1.613780">
        <ele>2038.6</ele>
        <time>2013-08-08T11:13:12Z</time>
      </trkpt>
      <trkpt lat="42.487765" lon="1.613855">
        <ele>2039.6</ele>
        <time>2013-08-08T11:13:23Z</time>
      </trkpt>
      <trkpt lat="42.487693" lon="1.613963">
        <ele>2040.1</ele>
        <time>2013-08-08T11:13:35Z</time>
      </trkpt>
      <trkpt lat="42.487635" lon="1.614055">
        <ele>2040.0</ele>
        <time>2013-08-08T11:13:47Z</time>
      </trkpt>
      <trkpt lat="42.487586" lon="1.614166">
        <ele>2040.0</ele>
        <time>2013-08-08T11:13:59Z</time>
      </trkpt>
      <trkpt lat="42.487535" lon="1.614243">
        <ele>2040.0</ele>
        <time>2013-08-08T11:14:10Z</time>
      </trkpt>
      <trkpt lat="42.487446" lon="1.614310">
        <ele>2040.0</ele>
        <time>2013-08-08T11:14:21Z</time>
      </trkpt>
      <trkpt lat="42.487328" lon="1.614497">
        <ele>2040.8</ele>
        <time>2013-08-08T11:14:34Z</time>
      </trkpt>
      <trkpt lat="42.487316" lon="1.614506">
        <ele>2040.9</ele>
        <time>2013-08-08T11:14:35Z</time>
      </trkpt>
      <trkpt lat="42.487283" lon="1.614537">
        <ele>2041.4</ele>
        <time>2013-08-08T11:14:38Z</time>
      </trkpt>
      <trkpt lat="42.487233" lon="1.614698">
        <ele>2042.9</ele>
        <time>2013-08-08T11:14:51Z</time>
      </trkpt>
      <trkpt lat="42.487216" lon="1.614780">
        <ele>2043.5</ele>
        <time>2013-08-08T11:14:58Z</time>
      </trkpt>
      <trkpt lat="42.487150" lon="1.614915">
        <ele>2044.6</ele>
        <time>2013-08-08T11:15:11Z</time>
      </trkpt>
      <trkpt lat="42.487117" lon="1.614952">
        <ele>2044.9</ele>
        <time>2013-08-08T11:15:17Z</time>
      </trkpt>
      <trkpt lat="42.487044" lon="1.615077">
        <ele>2046.7</ele>
        <time>2013-08-08T11:15:30Z</time>
      </trkpt>
      <trkpt lat="42.486966" lon="1.615191">
        <ele>2048.0</ele>
        <time>2013-08-08T11:15:41Z</time>
      </trkpt>
      <trkpt lat="42.486899" lon="1.615284">
        <ele>2049.6</ele>
        <time>2013-08-08T11:15:56Z</time>
      </trkpt>
      <trkpt lat="42.486877" lon="1.615355">
        <ele>2050.8</ele>
        <time>2013-08-08T11:16:14Z</time>
      </trkpt>
      <trkpt lat="42.486847" lon="1.615436">
        <ele>2052.3</ele>
        <time>2013-08-08T11:16:26Z</time>
      </trkpt>
      <trkpt lat="42.486793" lon="1.615524">
        <ele>2053.4</ele>
        <time>2013-08-08T11:16:38Z</time>
      </trkpt>
      <trkpt lat="42.486750" lon="1.615585">
        <ele>2054.1</ele>
        <time>2013-08-08T11:16:46Z</time>
      </trkpt>
      <trkpt lat="42.486637" lon="1.615790">
        <ele>2056.0</ele>
        <time>2013-08-08T11:16:56Z</time>
      </trkpt>
      <trkpt lat="42.486462" lon="1.615921">
        <ele>2057.1</ele>
        <time>2013-08-08T11:17:10Z</time>
      </trkpt>
      <trkpt lat="42.486452" lon="1.615929">
        <ele>2057.2</ele>
        <time>2013-08-08T11:17:12Z</time>
      </trkpt>
      <trkpt lat="42.486370" lon="1.615958">
        <ele>2057.6</ele>
        <time>2013-08-08T11:17:23Z</time>
      </trkpt>
      <trkpt lat="42.486258" lon="1.616051">
        <ele>2058.9</ele>
        <time>2013-08-08T11:17:37Z</time>
      </trkpt>
      <trkpt lat="42.486245" lon="1.616059">
        <ele>2059.0</ele>
        <time>2013-08-08T11:17:38Z</time>
      </trkpt>
      <trkpt lat="42.486216" lon="1.616069">
        <ele>2059.1</ele>
        <time>2013-08-08T11:17:40Z</time>
      </trkpt>
      <trkpt lat="42.486124" lon="1.616125">
        <ele>2059.6</ele>
        <time>2013-08-08T11:17:52Z</time>
      </trkpt>
      <trkpt lat="42.486009" lon="1.616180">
        <ele>2059.9</ele>
        <time>2013-08-08T11:18:05Z</time>
      </trkpt>
      <trkpt lat="42.485911" lon="1.616296">
        <ele>2060.1</ele>
        <time>2013-08-08T11:18:18Z</time>
      </trkpt>
      <trkpt lat="42.485804" lon="1.616435">
        <ele>2060.1</ele>
        <time>2013-08-08T11:18:30Z</time>
      </trkpt>
      <trkpt lat="42.485764" lon="1.616500">
        <ele>2060.1</ele>
        <time>2013-08-08T11:18:36Z</time>
      </trkpt>
      <trkpt lat="42.485685" lon="1.616618">
        <ele>2060.1</ele>
        <time>2013-08-08T11:18:48Z</time>
      </trkpt>
      <trkpt lat="42.485678" lon="1.616632">
        <ele>2060.1</ele>
        <time>2013-08-08T11:18:49Z</time>
      </trkpt>
      <trkpt lat="42.485640" lon="1.616702">
        <ele>2060.1</ele>
        <time>2013-08-08T11:18:54Z</time>
      </trkpt>
      <trkpt lat="42.485589" lon="1.616790">
        <ele>2060.4</ele>
        <time>2013-08-08T11:19:05Z</time>
      </trkpt>
      <trkpt lat="42.485565" lon="1.616848">
        <ele>2061.0</ele>
        <time>2013-08-08T11:19:10Z</time>
      </trkpt>
      <trkpt lat="42.485516" lon="1.616918">
        <ele>2061.5</ele>
        <time>2013-08-08T11:19:18Z</time>
      </trkpt>
      <trkpt lat="42.485489" lon="1.616948">
        <ele>2061.7</ele>
        <time>2013-08-08T11:19:22Z</time>
      </trkpt>
      <trkpt lat="42.485453" lon="1.617018">
        <ele>2062.4</ele>
        <time>2013-08-08T11:19:32Z</time>
      </trkpt>
      <trkpt lat="42.485363" lon="1.617229">
        <ele>2065.0</ele>
        <time>2013-08-08T11:19:44Z</time>
      </trkpt>
      <trkpt lat="42.485273" lon="1.617332">
        <ele>2066.4</ele>
        <time>2013-08-08T11:19:55Z</time>
      </trkpt>
      <trkpt lat="42.485208" lon="1.617521">
        <ele>2069.3</ele>
        <time>2013-08-08T11:20:09Z</time>
      </trkpt>
      <trkpt lat="42.485196" lon="1.617551">
        <ele>2069.7</ele>
        <time>2013-08-08T11:20:14Z</time>
      </trkpt>
      <trkpt lat="42.485133" lon="1.617612">
        <ele>2070.7</ele>
        <time>2013-08-08T11:20:18Z</time>
      </trkpt>
      <trkpt lat="42.485111" lon="1.617698">
        <ele>2071.8</ele>
        <time>2013-08-08T11:20:29Z</time>
      </trkpt>
      <trkpt lat="42.485083" lon="1.617814">
        <ele>2073.2</ele>
        <time>2013-08-08T11:20:41Z</time>
      </trkpt>
      <trkpt lat="42.485014" lon="1.617894">
        <ele>2074.4</ele>
        <time>2013-08-08T11:20:54Z</time>
      </trkpt>
      <trkpt lat="42.484996" lon="1.617918">
        <ele>2074.7</ele>
        <time>2013-08-08T11:20:58Z</time>
      </trkpt>
      <trkpt lat="42.484936" lon="1.618020">
        <ele>2076.0</ele>
        <time>2013-08-08T11:21:07Z</time>
      </trkpt>
      <trkpt lat="42.484812" lon="1.618235">
        <ele>2078.4</ele>
        <time>2013-08-08T11:21:21Z</time>
      </trkpt>
      <trkpt lat="42.484717" lon="1.618360">
        <ele>2079.6</ele>
        <time>2013-08-08T11:21:32Z</time>
      </trkpt>
      <trkpt lat="42.484687" lon="1.618398">
        <ele>2080.1</ele>
        <time>2013-08-08T11:21:37Z</time>
      </trkpt>
      <trkpt lat="42.484675" lon="1.618414">
        <ele>2080.4</ele>
        <time>2013-08-08T11:21:40Z</time>
      </trkpt>
      <trkpt lat="42.484628" lon="1.618531">
        <ele>2082.3</ele>
        <time>2013-08-08T11:21:52Z</time>
      </trkpt>
      <trkpt lat="42.484599" lon="1.618710">
        <ele>2085.0</ele>
        <time>2013-08-08T11:22:04Z</time>
      </trkpt>
      <trkpt lat="42.484545" lon="1.618819">
        <ele>2086.5</ele>
        <time>2013-08-08T11:22:15Z</time>
      </trkpt>
      <trkpt lat="42.484518" lon="1.618868">
        <ele>2087.3</ele>
        <time>2013-08-08T11:22:18Z</time>
      </trkpt>
      <trkpt lat="42.484491" lon="1.618948">
        <ele>2088.6</ele>
        <time>2013-08-08T11:22:31Z</time>
      </trkpt>
      <trkpt lat="42.484486" lon="1.619007">
        <ele>2089.6</ele>
        <time>2013-08-08T11:22:43Z</time>
      </trkpt>
      <trkpt lat="42.484481" lon="1.619019">
        <ele>2089.7</ele>
        <time>2013-08-08T11:22:44Z</time>
      </trkpt>
      <trkpt lat="42.484455" lon="1.619049">
        <ele>2089.9</ele>
        <time>2013-08-08T11:22:46Z</time>
      </trkpt>
      <trkpt lat="42.484379" lon="1.619206">
        <ele>2091.1</ele>
        <time>2013-08-08T11:22:59Z</time>
      </trkpt>
      <trkpt lat="42.484339" lon="1.619345">
        <ele>2092.7</ele>
        <time>2013-08-08T11:23:10Z</time>
      </trkpt>
      <trkpt lat="42.484332" lon="1.619450">
        <ele>2094.1</ele>
        <time>2013-08-08T11:23:22Z</time>
      </trkpt>
      <trkpt lat="42.484306" lon="1.619611">
        <ele>2095.4</ele>
        <time>2013-08-08T11:23:33Z</time>
      </trkpt>
      <trkpt lat="42.484291" lon="1.619801">
        <ele>2096.9</ele>
        <time>2013-08-08T11:23:48Z</time>
      </trkpt>
      <trkpt lat="42.484289" lon="1.619939">
        <ele>2098.1</ele>
        <time>2013-08-08T11:23:59Z</time>
      </trkpt>
      <trkpt lat="42.484309" lon="1.620045">
        <ele>2099.6</ele>
        <time>2013-08-08T11:24:11Z</time>
      </trkpt>
      <trkpt lat="42.484317" lon="1.620117">
        <ele>2100.4</ele>
        <time>2013-08-08T11:24:21Z</time>
      </trkpt>
      <trkpt lat="42.484312" lon="1.620165">
        <ele>2100.8</ele>
        <time>2013-08-08T11:24:24Z</time>
      </trkpt>
      <trkpt lat="42.484331" lon="1.620241">
        <ele>2101.6</ele>
        <time>2013-08-08T11:24:30Z</time>
      </trkpt>
      <trkpt lat="42.484344" lon="1.620379">
        <ele>2103.1</ele>
        <time>2013-08-08T11:24:42Z</time>
      </trkpt>
      <trkpt lat="42.484333" lon="1.620387">
        <ele>2103.1</ele>
        <time>2013-08-08T11:24:52Z</time>
      </trkpt>
      <trkpt lat="42.484261" lon="1.620489">
        <ele>2103.7</ele>
        <time>2013-08-08T11:25:04Z</time>
      </trkpt>
      <trkpt lat="42.484206" lon="1.620630">
        <ele>2104.4</ele>
        <time>2013-08-08T11:25:17Z</time>
      </trkpt>
      <trkpt lat="42.484199" lon="1.620725">
        <ele>2105.1</ele>
        <time>2013-08-08T11:25:22Z</time>
      </trkpt>
      <trkpt lat="42.484167" lon="1.620874">
        <ele>2105.7</ele>
        <time>2013-08-08T11:25:34Z</time>
      </trkpt>
      <trkpt lat="42.484114" lon="1.620989">
        <ele>2105.8</ele>
        <time>2013-08-08T11:25:46Z</time>
      </trkpt>
      <trkpt lat="42.484110" lon="1.620990">
        <ele>2105.8</ele>
        <time>2013-08-08T11:25:47Z</time>
      </trkpt>
      <trkpt lat="42.484080" lon="1.620955">
        <ele>2105.2</ele>
        <time>2013-08-08T11:25:58Z</time>
      </trkpt>
      <trkpt lat="42.484053" lon="1.620987">
        <ele>2105.1</ele>
        <time>2013-08-08T11:26:03Z</time>
      </trkpt>
      <trkpt lat="42.484014" lon="1.621025">
        <ele>2105.0</ele>
        <time>2013-08-08T11:26:21Z</time>
      </trkpt>
      <trkpt lat="42.484041" lon="1.621059">
        <ele>2105.5</ele>
        <time>2013-08-08T11:26:33Z</time>
      </trkpt>
      <trkpt lat="42.484004" lon="1.621173">
        <ele>2106.0</ele>
        <time>2013-08-08T11:26:48Z</time>
      </trkpt>
      <trkpt lat="42.483973" lon="1.621273">
        <ele>2106.6</ele>
        <time>2013-08-08T11:26:59Z</time>
      </trkpt>
      <trkpt lat="42.483967" lon="1.621317">
        <ele>2107.0</ele>
        <time>2013-08-08T11:27:01Z</time>
      </trkpt>
      <trkpt lat="42.483928" lon="1.621520">
        <ele>2108.3</ele>
        <time>2013-08-08T11:27:13Z</time>
      </trkpt>
      <trkpt lat="42.483919" lon="1.621581">
        <ele>2108.4</ele>
        <time>2013-08-08T11:27:17Z</time>
      </trkpt>
      <trkpt lat="42.483901" lon="1.621706">
        <ele>2108.6</ele>
        <time>2013-08-08T11:27:31Z</time>
      </trkpt>
      <trkpt lat="42.483902" lon="1.621812">
        <ele>2109.5</ele>
        <time>2013-08-08T11:27:36Z</time>
      </trkpt>
      <trkpt lat="42.483898" lon="1.621945">
        <ele>2110.8</ele>
        <time>2013-08-08T11:27:47Z</time>
      </trkpt>
      <trkpt lat="42.483900" lon="1.622033">
        <ele>2112.1</ele>
        <time>2013-08-08T11:27:59Z</time>
      </trkpt>
      <trkpt lat="42.483794" lon="1.622261">
        <ele>2112.3</ele>
        <time>2013-08-08T11:28:05Z</time>
      </trkpt>
      <trkpt lat="42.483712" lon="1.622374">
        <ele>2112.4</ele>
        <time>2013-08-08T11:28:19Z</time>
      </trkpt>
      <trkpt lat="42.483658" lon="1.622437">
        <ele>2112.6</ele>
        <time>2013-08-08T11:28:30Z</time>
      </trkpt>
      <trkpt lat="42.483622" lon="1.622546">
        <ele>2113.8</ele>
        <time>2013-08-08T11:28:40Z</time>
      </trkpt>
      <trkpt lat="42.483554" lon="1.622732">
        <ele>2115.9</ele>
        <time>2013-08-08T11:28:51Z</time>
      </trkpt>
      <trkpt lat="42.483477" lon="1.622783">
        <ele>2116.6</ele>
        <time>2013-08-08T11:29:02Z</time>
      </trkpt>
      <trkpt lat="42.483440" lon="1.622850">
        <ele>2117.8</ele>
        <time>2013-08-08T11:29:13Z</time>
      </trkpt>
      <trkpt lat="42.483414" lon="1.622951">
        <ele>2119.4</ele>
        <time>2013-08-08T11:29:26Z</time>
      </trkpt>
      <trkpt lat="42.483373" lon="1.623043">
        <ele>2119.8</ele>
        <time>2013-08-08T11:29:35Z</time>
      </trkpt>
      <trkpt lat="42.483363" lon="1.623152">
        <ele>2120.3</ele>
        <time>2013-08-08T11:29:44Z</time>
      </trkpt>
      <trkpt lat="42.483330" lon="1.623259">
        <ele>2120.4</ele>
        <time>2013-08-08T11:29:54Z</time>
      </trkpt>
      <trkpt lat="42.483296" lon="1.623448">
        <ele>2120.2</ele>
        <time>2013-08-08T11:30:07Z</time>
      </trkpt>
      <trkpt lat="42.483297" lon="1.623547">
        <ele>2120.9</ele>
        <time>2013-08-08T11:30:19Z</time>
      </trkpt>
      <trkpt lat="42.483303" lon="1.623626">
        <ele>2121.9</ele>
        <time>2013-08-08T11:30:27Z</time>
      </trkpt>
      <trkpt lat="42.483300" lon="1.623668">
        <ele>2122.6</ele>
        <time>2013-08-08T11:30:30Z</time>
      </trkpt>
      <trkpt lat="42.483283" lon="1.623819">
        <ele>2124.9</ele>
        <time>2013-08-08T11:30:42Z</time>
      </trkpt>
      <trkpt lat="42.483272" lon="1.623917">
        <ele>2126.5</ele>
        <time>2013-08-08T11:30:53Z</time>
      </trkpt>
      <trkpt lat="42.483242" lon="1.624082">
        <ele>2129.1</ele>
        <time>2013-08-08T11:31:03Z</time>
      </trkpt>
      <trkpt lat="42.483178" lon="1.624275">
        <ele>2131.1</ele>
        <time>2013-08-08T11:31:14Z</time>
      </trkpt>
      <trkpt lat="42.483126" lon="1.624360">
        <ele>2132.1</ele>
        <time>2013-08-08T11:31:22Z</time>
      </trkpt>
      <trkpt lat="42.483119" lon="1.624393">
        <ele>2132.6</ele>
        <time>2013-08-08T11:31:26Z</time>
      </trkpt>
      <trkpt lat="42.483089" lon="1.624542">
        <ele>2134.9</ele>
        <time>2013-08-08T11:31:38Z</time>
      </trkpt>
      <trkpt lat="42.483044" lon="1.624694">
        <ele>2136.4</ele>
        <time>2013-08-08T11:31:51Z</time>
      </trkpt>
      <trkpt lat="42.483038" lon="1.624809">
        <ele>2137.7</ele>
        <time>2013-08-08T11:32:05Z</time>
      </trkpt>
      <trkpt lat="42.483011" lon="1.624931">
        <ele>2138.3</ele>
        <time>2013-08-08T11:32:16Z</time>
      </trkpt>
      <trkpt lat="42.482980" lon="1.625001">
        <ele>2138.5</ele>
        <time>2013-08-08T11:32:27Z</time>
      </trkpt>
      <trkpt lat="42.482965" lon="1.625051">
        <ele>2139.0</ele>
        <time>2013-08-08T11:32:38Z</time>
      </trkpt>
      <trkpt lat="42.482908" lon="1.625157">
        <ele>2139.7</ele>
        <time>2013-08-08T11:32:49Z</time>
      </trkpt>
      <trkpt lat="42.482875" lon="1.625227">
        <ele>2140.2</ele>
        <time>2013-08-08T11:32:52Z</time>
      </trkpt>
      <trkpt lat="42.482829" lon="1.625323">
        <ele>2140.8</ele>
        <time>2013-08-08T11:32:57Z</time>
      </trkpt>
      <trkpt lat="42.482770" lon="1.625564">
        <ele>2141.4</ele>
        <time>2013-08-08T11:33:10Z</time>
      </trkpt>
      <trkpt lat="42.482772" lon="1.625611">
        <ele>2141.7</ele>
        <time>2013-08-08T11:33:13Z</time>
      </trkpt>
      <trkpt lat="42.482792" lon="1.625729">
        <ele>2143.2</ele>
        <time>2013-08-08T11:33:27Z</time>
      </trkpt>
      <trkpt lat="42.482799" lon="1.625812">
        <ele>2144.9</ele>
        <time>2013-08-08T11:33:39Z</time>
      </trkpt>
      <trkpt lat="42.482801" lon="1.625852">
        <ele>2145.9</ele>
        <time>2013-08-08T11:33:51Z</time>
      </trkpt>
      <trkpt lat="42.482812" lon="1.625903">
        <ele>2147.7</ele>
        <time>2013-08-08T11:33:55Z</time>
      </trkpt>
      <trkpt lat="42.482829" lon="1.625979">
        <ele>2150.4</ele>
        <time>2013-08-08T11:34:02Z</time>
      </trkpt>
      <trkpt lat="42.482834" lon="1.626118">
        <ele>2153.9</ele>
        <time>2013-08-08T11:34:15Z</time>
      </trkpt>
      <trkpt lat="42.482821" lon="1.626172">
        <ele>2154.9</ele>
        <time>2013-08-08T11:34:20Z</time>
      </trkpt>
      <trkpt lat="42.482808" lon="1.626335">
        <ele>2158.9</ele>
        <time>2013-08-08T11:34:31Z</time>
      </trkpt>
      <trkpt lat="42.482809" lon="1.626346">
        <ele>2159.0</ele>
        <time>2013-08-08T11:34:32Z</time>
      </trkpt>
      <trkpt lat="42.482802" lon="1.626385">
        <ele>2159.4</ele>
        <time>2013-08-08T11:34:35Z</time>
      </trkpt>
      <trkpt lat="42.482823" lon="1.626446">
        <ele>2160.0</ele>
        <time>2013-08-08T11:34:44Z</time>
      </trkpt>
      <trkpt lat="42.482830" lon="1.626545">
        <ele>2160.6</ele>
        <time>2013-08-08T11:34:55Z</time>
      </trkpt>
      <trkpt lat="42.482845" lon="1.626636">
        <ele>2161.3</ele>
        <time>2013-08-08T11:35:06Z</time>
      </trkpt>
      <trkpt lat="42.482850" lon="1.626697">
        <ele>2161.6</ele>
        <time>2013-08-08T11:35:12Z</time>
      </trkpt>
      <trkpt lat="42.482862" lon="1.626831">
        <ele>2162.4</ele>
        <time>2013-08-08T11:35:24Z</time>
      </trkpt>
      <trkpt lat="42.482873" lon="1.626860">
        <ele>2163.0</ele>
        <time>2013-08-08T11:35:29Z</time>
      </trkpt>
      <trkpt lat="42.482884" lon="1.627006">
        <ele>2164.9</ele>
        <time>2013-08-08T11:35:40Z</time>
      </trkpt>
      <trkpt lat="42.482843" lon="1.627184">
        <ele>2166.0</ele>
        <time>2013-08-08T11:35:53Z</time>
      </trkpt>
      <trkpt lat="42.482835" lon="1.627230">
        <ele>2166.5</ele>
        <time>2013-08-08T11:35:57Z</time>
      </trkpt>
      <trkpt lat="42.482821" lon="1.627305">
        <ele>2167.2</ele>
        <time>2013-08-08T11:36:04Z</time>
      </trkpt>
      <trkpt lat="42.482767" lon="1.627409">
        <ele>2169.6</ele>
        <time>2013-08-08T11:36:12Z</time>
      </trkpt>
      <trkpt lat="42.482767" lon="1.627483">
        <ele>2170.8</ele>
        <time>2013-08-08T11:36:17Z</time>
      </trkpt>
      <trkpt lat="42.482760" lon="1.627611">
        <ele>2172.8</ele>
        <time>2013-08-08T11:36:31Z</time>
      </trkpt>
      <trkpt lat="42.482743" lon="1.627675">
        <ele>2174.0</ele>
        <time>2013-08-08T11:36:41Z</time>
      </trkpt>
      <trkpt lat="42.482716" lon="1.627841">
        <ele>2176.9</ele>
        <time>2013-08-08T11:36:53Z</time>
      </trkpt>
      <trkpt lat="42.482707" lon="1.627874">
        <ele>2177.5</ele>
        <time>2013-08-08T11:36:56Z</time>
      </trkpt>
      <trkpt lat="42.482681" lon="1.628006">
        <ele>2179.3</ele>
        <time>2013-08-08T11:37:08Z</time>
      </trkpt>
      <trkpt lat="42.482674" lon="1.628189">
        <ele>2179.9</ele>
        <time>2013-08-08T11:37:20Z</time>
      </trkpt>
      <trkpt lat="42.482689" lon="1.628251">
        <ele>2179.9</ele>
        <time>2013-08-08T11:37:25Z</time>
      </trkpt>
      <trkpt lat="42.482714" lon="1.628396">
        <ele>2179.9</ele>
        <time>2013-08-08T11:37:38Z</time>
      </trkpt>
      <trkpt lat="42.482736" lon="1.628490">
        <ele>2179.9</ele>
        <time>2013-08-08T11:37:48Z</time>
      </trkpt>
      <trkpt lat="42.482723" lon="1.628659">
        <ele>2179.9</ele>
        <time>2013-08-08T11:38:04Z</time>
      </trkpt>
      <trkpt lat="42.482701" lon="1.628822">
        <ele>2179.9</ele>
        <time>2013-08-08T11:38:16Z</time>
      </trkpt>
      <trkpt lat="42.482682" lon="1.628977">
        <ele>2179.9</ele>
        <time>2013-08-08T11:38:27Z</time>
      </trkpt>
      <trkpt lat="42.482656" lon="1.629131">
        <ele>2179.9</ele>
        <time>2013-08-08T11:38:40Z</time>
      </trkpt>
      <trkpt lat="42.482653" lon="1.629152">
        <ele>2179.9</ele>
        <time>2013-08-08T11:38:43Z</time>
      </trkpt>
      <trkpt lat="42.482662" lon="1.629295">
        <ele>2180.0</ele>
        <time>2013-08-08T11:38:54Z</time>
      </trkpt>
      <trkpt lat="42.482678" lon="1.629367">
        <ele>2179.9</ele>
        <time>2013-08-08T11:39:06Z</time>
      </trkpt>
      <trkpt lat="42.482643" lon="1.629464">
        <ele>2179.9</ele>
        <time>2013-08-08T11:39:19Z</time>
      </trkpt>
      <trkpt lat="42.482657" lon="1.629555">
        <ele>2179.9</ele>
        <time>2013-08-08T11:39:28Z</time>
      </trkpt>
      <trkpt lat="42.482660" lon="1.629577">
        <ele>2179.9</ele>
        <time>2013-08-08T11:48:05Z</time>
      </trkpt>
      <trkpt lat="42.482660" lon="1.629577">
        <ele>2179.9</ele>
        <time>2013-08-08T11:48:14Z</time>
      </trkpt>
      <trkpt lat="42.482663" lon="1.629617">
        <ele>2179.9</ele>
        <time>2013-08-08T11:48:18Z</time>
      </trkpt>
      <trkpt lat="42.482679" lon="1.629746">
        <ele>2179.9</ele>
        <time>2013-08-08T11:48:26Z</time>
      </trkpt>
      <trkpt lat="42.482688" lon="1.629869">
        <ele>2179.9</ele>
        <time>2013-08-08T11:48:36Z</time>
      </trkpt>
      <trkpt lat="42.482693" lon="1.629910">
        <ele>2179.9</ele>
        <time>2013-08-08T11:48:45Z</time>
      </trkpt>
      <trkpt lat="42.482713" lon="1.629960">
        <ele>2179.9</ele>
        <time>2013-08-08T11:48:48Z</time>
      </trkpt>
      <trkpt lat="42.482747" lon="1.630094">
        <ele>2179.9</ele>
        <time>2013-08-08T11:48:56Z</time>
      </trkpt>
      <trkpt lat="42.482764" lon="1.630297">
        <ele>2179.9</ele>
        <time>2013-08-08T11:49:07Z</time>
      </trkpt>
      <trkpt lat="42.482784" lon="1.630382">
        <ele>2179.9</ele>
        <time>2013-08-08T11:49:13Z</time>
      </trkpt>
      <trkpt lat="42.482779" lon="1.630491">
        <ele>2179.9</ele>
        <time>2013-08-08T11:49:19Z</time>
      </trkpt>
      <trkpt lat="42.482773" lon="1.630526">
        <ele>2179.9</ele>
        <time>2013-08-08T11:49:21Z</time>
      </trkpt>
      <trkpt lat="42.482771" lon="1.630731">
        <ele>2179.9</ele>
        <time>2013-08-08T11:49:31Z</time>
      </trkpt>
      <trkpt lat="42.482804" lon="1.630961">
        <ele>2179.9</ele>
        <time>2013-08-08T11:49:44Z</time>
      </trkpt>
      <trkpt lat="42.482860" lon="1.631156">
        <ele>2180.1</ele>
        <time>2013-08-08T11:49:57Z</time>
      </trkpt>
      <trkpt lat="42.482911" lon="1.631331">
        <ele>2179.9</ele>
        <time>2013-08-08T11:50:09Z</time>
      </trkpt>
      <trkpt lat="42.482930" lon="1.631394">
        <ele>2179.9</ele>
        <time>2013-08-08T11:50:12Z</time>
      </trkpt>
      <trkpt lat="42.482992" lon="1.631498">
        <ele>2179.9</ele>
        <time>2013-08-08T11:50:20Z</time>
      </trkpt>
      <trkpt lat="42.483091" lon="1.631670">
        <ele>2179.9</ele>
        <time>2013-08-08T11:50:33Z</time>
      </trkpt>
      <trkpt lat="42.483161" lon="1.631728">
        <ele>2180.0</ele>
        <time>2013-08-08T11:50:43Z</time>
      </trkpt>
      <trkpt lat="42.483186" lon="1.631939">
        <ele>2179.9</ele>
        <time>2013-08-08T11:50:56Z</time>
      </trkpt>
      <trkpt lat="42.483194" lon="1.631981">
        <ele>2179.9</ele>
        <time>2013-08-08T11:50:59Z</time>
      </trkpt>
      <trkpt lat="42.483215" lon="1.632077">
        <ele>2180.2</ele>
        <time>2013-08-08T11:51:05Z</time>
      </trkpt>
      <trkpt lat="42.483228" lon="1.632199">
        <ele>2181.0</ele>
        <time>2013-08-08T11:51:12Z</time>
      </trkpt>
      <trkpt lat="42.483263" lon="1.632333">
        <ele>2182.3</ele>
        <time>2013-08-08T11:51:21Z</time>
      </trkpt>
      <trkpt lat="42.483284" lon="1.632397">
        <ele>2183.0</ele>
        <time>2013-08-08T11:51:26Z</time>
      </trkpt>
      <trkpt lat="42.483315" lon="1.632501">
        <ele>2184.1</ele>
        <time>2013-08-08T11:51:33Z</time>
      </trkpt>
      <trkpt lat="42.483325" lon="1.632624">
        <ele>2184.9</ele>
        <time>2013-08-08T11:51:41Z</time>
      </trkpt>
      <trkpt lat="42.483340" lon="1.632703">
        <ele>2185.8</ele>
        <time>2013-08-08T11:51:47Z</time>
      </trkpt>
      <trkpt lat="42.483355" lon="1.632780">
        <ele>2186.2</ele>
        <time>2013-08-08T11:51:52Z</time>
      </trkpt>
      <trkpt lat="42.483359" lon="1.632969">
        <ele>2186.6</ele>
        <time>2013-08-08T11:52:02Z</time>
      </trkpt>
      <trkpt lat="42.483420" lon="1.633145">
        <ele>2187.9</ele>
        <time>2013-08-08T11:52:14Z</time>
      </trkpt>
      <trkpt lat="42.483431" lon="1.633188">
        <ele>2188.5</ele>
        <time>2013-08-08T11:52:17Z</time>
      </trkpt>
      <trkpt lat="42.483459" lon="1.633277">
        <ele>2190.1</ele>
        <time>2013-08-08T11:52:24Z</time>
      </trkpt>
      <trkpt lat="42.483484" lon="1.633335">
        <ele>2191.3</ele>
        <time>2013-08-08T11:52:28Z</time>
      </trkpt>
      <trkpt lat="42.483517" lon="1.633470">
        <ele>2194.2</ele>
        <time>2013-08-08T11:52:37Z</time>
      </trkpt>
      <trkpt lat="42.483535" lon="1.633537">
        <ele>2195.5</ele>
        <time>2013-08-08T11:52:42Z</time>
      </trkpt>
      <trkpt lat="42.483586" lon="1.633668">
        <ele>2198.1</ele>
        <time>2013-08-08T11:52:52Z</time>
      </trkpt>
      <trkpt lat="42.483619" lon="1.633756">
        <ele>2199.4</ele>
        <time>2013-08-08T11:52:58Z</time>
      </trkpt>
      <trkpt lat="42.483655" lon="1.633899">
        <ele>2200.0</ele>
        <time>2013-08-08T11:53:08Z</time>
      </trkpt>
      <trkpt lat="42.483689" lon="1.634050">
        <ele>2200.0</ele>
        <time>2013-08-08T11:53:19Z</time>
      </trkpt>
      <trkpt lat="42.483706" lon="1.634229">
        <ele>2200.0</ele>
        <time>2013-08-08T11:53:30Z</time>
      </trkpt>
      <trkpt lat="42.483726" lon="1.634297">
        <ele>2200.0</ele>
        <time>2013-08-08T11:53:36Z</time>
      </trkpt>
      <trkpt lat="42.483753" lon="1.634366">
        <ele>2200.0</ele>
        <time>2013-08-08T11:53:42Z</time>
      </trkpt>
      <trkpt lat="42.483757" lon="1.634419">
        <ele>2200.0</ele>
        <time>2013-08-08T11:53:46Z</time>
      </trkpt>
      <trkpt lat="42.483758" lon="1.634454">
        <ele>2200.0</ele>
        <time>2013-08-08T11:53:49Z</time>
      </trkpt>
      <trkpt lat="42.483770" lon="1.634543">
        <ele>2200.0</ele>
        <time>2013-08-08T11:53:58Z</time>
      </trkpt>
      <trkpt lat="42.483785" lon="1.634599">
        <ele>2200.0</ele>
        <time>2013-08-08T11:54:04Z</time>
      </trkpt>
      <trkpt lat="42.483780" lon="1.634701">
        <ele>2200.0</ele>
        <time>2013-08-08T11:54:12Z</time>
      </trkpt>
      <trkpt lat="42.483795" lon="1.634863">
        <ele>2200.0</ele>
        <time>2013-08-08T11:54:24Z</time>
      </trkpt>
      <trkpt lat="42.483812" lon="1.634917">
        <ele>2200.0</ele>
        <time>2013-08-08T11:54:28Z</time>
      </trkpt>
      <trkpt lat="42.483795" lon="1.635070">
        <ele>2200.0</ele>
        <time>2013-08-08T11:54:40Z</time>
      </trkpt>
      <trkpt lat="42.483749" lon="1.635258">
        <ele>2200.0</ele>
        <time>2013-08-08T11:54:51Z</time>
      </trkpt>
      <trkpt lat="42.483750" lon="1.635356">
        <ele>2200.0</ele>
        <time>2013-08-08T11:54:58Z</time>
      </trkpt>
      <trkpt lat="42.483749" lon="1.635388">
        <ele>2200.0</ele>
        <time>2013-08-08T11:55:00Z</time>
      </trkpt>
      <trkpt lat="42.483799" lon="1.635527">
        <ele>2200.0</ele>
        <time>2013-08-08T11:55:11Z</time>
      </trkpt>
      <trkpt lat="42.483804" lon="1.635548">
        <ele>2200.0</ele>
        <time>2013-08-08T11:55:13Z</time>
      </trkpt>
      <trkpt lat="42.483815" lon="1.635704">
        <ele>2200.1</ele>
        <time>2013-08-08T11:55:23Z</time>
      </trkpt>
      <trkpt lat="42.483849" lon="1.635819">
        <ele>2200.4</ele>
        <time>2013-08-08T11:55:32Z</time>
      </trkpt>
      <trkpt lat="42.483865" lon="1.635891">
        <ele>2200.6</ele>
        <time>2013-08-08T11:55:37Z</time>
      </trkpt>
      <trkpt lat="42.483906" lon="1.635966">
        <ele>2201.0</ele>
        <time>2013-08-08T11:55:42Z</time>
      </trkpt>
      <trkpt lat="42.483935" lon="1.636027">
        <ele>2201.4</ele>
        <time>2013-08-08T11:55:47Z</time>
      </trkpt>
      <trkpt lat="42.483978" lon="1.636110">
        <ele>2202.9</ele>
        <time>2013-08-08T11:55:53Z</time>
      </trkpt>
      <trkpt lat="42.484008" lon="1.636242">
        <ele>2203.5</ele>
        <time>2013-08-08T11:56:04Z</time>
      </trkpt>
      <trkpt lat="42.484047" lon="1.636304">
        <ele>2204.9</ele>
        <time>2013-08-08T11:56:10Z</time>
      </trkpt>
      <trkpt lat="42.484084" lon="1.636395">
        <ele>2206.0</ele>
        <time>2013-08-08T11:56:18Z</time>
      </trkpt>
      <trkpt lat="42.484106" lon="1.636435">
        <ele>2206.7</ele>
        <time>2013-08-08T11:56:23Z</time>
      </trkpt>
      <trkpt lat="42.484120" lon="1.636469">
        <ele>2207.0</ele>
        <time>2013-08-08T11:56:26Z</time>
      </trkpt>
      <trkpt lat="42.484117" lon="1.636498">
        <ele>2206.8</ele>
        <time>2013-08-08T11:56:28Z</time>
      </trkpt>
      <trkpt lat="42.484136" lon="1.636565">
        <ele>2207.3</ele>
        <time>2013-08-08T11:56:33Z</time>
      </trkpt>
      <trkpt lat="42.484199" lon="1.636654">
        <ele>2209.8</ele>
        <time>2013-08-08T11:56:45Z</time>
      </trkpt>
      <trkpt lat="42.484268" lon="1.636755">
        <ele>2213.1</ele>
        <time>2013-08-08T12:01:42Z</time>
      </trkpt>
      <trkpt lat="42.484280" lon="1.636774">
        <ele>2213.7</ele>
        <time>2013-08-08T12:01:46Z</time>
      </trkpt>
      <trkpt lat="42.484307" lon="1.636823">
        <ele>2215.1</ele>
        <time>2013-08-08T12:01:49Z</time>
      </trkpt>
      <trkpt lat="42.484380" lon="1.636871">
        <ele>2217.9</ele>
        <time>2013-08-08T12:01:59Z</time>
      </trkpt>
      <trkpt lat="42.484429" lon="1.636957">
        <ele>2220.3</ele>
        <time>2013-08-08T12:02:11Z</time>
      </trkpt>
      <trkpt lat="42.484450" lon="1.637022">
        <ele>2221.9</ele>
        <time>2013-08-08T12:02:21Z</time>
      </trkpt>
      <trkpt lat="42.484478" lon="1.637084">
        <ele>2223.7</ele>
        <time>2013-08-08T12:02:30Z</time>
      </trkpt>
      <trkpt lat="42.484509" lon="1.637146">
        <ele>2226.1</ele>
        <time>2013-08-08T12:02:35Z</time>
      </trkpt>
      <trkpt lat="42.484519" lon="1.637195">
        <ele>2226.7</ele>
        <time>2013-08-08T12:02:39Z</time>
      </trkpt>
      <trkpt lat="42.484540" lon="1.637299">
        <ele>2227.2</ele>
        <time>2013-08-08T12:02:49Z</time>
      </trkpt>
      <trkpt lat="42.484561" lon="1.637400">
        <ele>2226.5</ele>
        <time>2013-08-08T12:02:56Z</time>
      </trkpt>
      <trkpt lat="42.484568" lon="1.637437">
        <ele>2226.0</ele>
        <time>2013-08-08T12:02:58Z</time>
      </trkpt>
      <trkpt lat="42.484572" lon="1.637573">
        <ele>2223.4</ele>
        <time>2013-08-08T12:03:05Z</time>
      </trkpt>
      <trkpt lat="42.484584" lon="1.637601">
        <ele>2223.1</ele>
        <time>2013-08-08T12:03:07Z</time>
      </trkpt>
      <trkpt lat="42.484602" lon="1.637651">
        <ele>2223.0</ele>
        <time>2013-08-08T12:03:12Z</time>
      </trkpt>
      <trkpt lat="42.484647" lon="1.637736">
        <ele>2223.7</ele>
        <time>2013-08-08T12:03:19Z</time>
      </trkpt>
      <trkpt lat="42.484675" lon="1.637844">
        <ele>2224.6</ele>
        <time>2013-08-08T12:03:28Z</time>
      </trkpt>
      <trkpt lat="42.484680" lon="1.637892">
        <ele>2225.1</ele>
        <time>2013-08-08T12:03:33Z</time>
      </trkpt>
      <trkpt lat="42.484689" lon="1.638041">
        <ele>2227.4</ele>
        <time>2013-08-08T12:03:45Z</time>
      </trkpt>
      <trkpt lat="42.484689" lon="1.638041">
        <ele>2227.4</ele>
        <time>2013-08-08T12:03:55Z</time>
      </trkpt>
      <trkpt lat="42.484704" lon="1.638112">
        <ele>2228.9</ele>
        <time>2013-08-08T12:04:00Z</time>
      </trkpt>
      <trkpt lat="42.484692" lon="1.638255">
        <ele>2230.1</ele>
        <time>2013-08-08T12:04:11Z</time>
      </trkpt>
      <trkpt lat="42.484694" lon="1.638309">
        <ele>2231.1</ele>
        <time>2013-08-08T12:04:15Z</time>
      </trkpt>
      <trkpt lat="42.484750" lon="1.638453">
        <ele>2234.8</ele>
        <time>2013-08-08T12:04:25Z</time>
      </trkpt>
      <trkpt lat="42.484775" lon="1.638513">
        <ele>2236.3</ele>
        <time>2013-08-08T12:04:28Z</time>
      </trkpt>
      <trkpt lat="42.484802" lon="1.638607">
        <ele>2238.1</ele>
        <time>2013-08-08T12:04:34Z</time>
      </trkpt>
      <trkpt lat="42.484848" lon="1.638655">
        <ele>2239.8</ele>
        <time>2013-08-08T12:04:41Z</time>
      </trkpt>
      <trkpt lat="42.484862" lon="1.638710">
        <ele>2240.8</ele>
        <time>2013-08-08T12:04:45Z</time>
      </trkpt>
      <trkpt lat="42.484896" lon="1.638747">
        <ele>2241.7</ele>
        <time>2013-08-08T12:04:49Z</time>
      </trkpt>
      <trkpt lat="42.484917" lon="1.638784">
        <ele>2242.3</ele>
        <time>2013-08-08T12:04:53Z</time>
      </trkpt>
      <trkpt lat="42.484998" lon="1.638879">
        <ele>2244.1</ele>
        <time>2013-08-08T12:05:06Z</time>
      </trkpt>
      <trkpt lat="42.485000" lon="1.638903">
        <ele>2244.1</ele>
        <time>2013-08-08T12:05:08Z</time>
      </trkpt>
      <trkpt lat="42.485019" lon="1.639071">
        <ele>2243.5</ele>
        <time>2013-08-08T12:05:16Z</time>
      </trkpt>
      <trkpt lat="42.485044" lon="1.639125">
        <ele>2243.3</ele>
        <time>2013-08-08T12:05:20Z</time>
      </trkpt>
      <trkpt lat="42.485027" lon="1.639251">
        <ele>2242.0</ele>
        <time>2013-08-08T12:05:27Z</time>
      </trkpt>
      <trkpt lat="42.485032" lon="1.639301">
        <ele>2241.6</ele>
        <time>2013-08-08T12:05:30Z</time>
      </trkpt>
      <trkpt lat="42.485003" lon="1.639423">
        <ele>2240.6</ele>
        <time>2013-08-08T12:05:43Z</time>
      </trkpt>
      <trkpt lat="42.485018" lon="1.639441">
        <ele>2240.4</ele>
        <time>2013-08-08T12:05:49Z</time>
      </trkpt>
      <trkpt lat="42.485024" lon="1.639563">
        <ele>2239.9</ele>
        <time>2013-08-08T12:05:57Z</time>
      </trkpt>
      <trkpt lat="42.484984" lon="1.639695">
        <ele>2239.9</ele>
        <time>2013-08-08T12:06:11Z</time>
      </trkpt>
      <trkpt lat="42.485061" lon="1.639773">
        <ele>2239.9</ele>
        <time>2013-08-08T12:28:19Z</time>
      </trkpt>
      <trkpt lat="42.485097" lon="1.639876">
        <ele>2239.9</ele>
        <time>2013-08-08T12:28:29Z</time>
      </trkpt>
      <trkpt lat="42.485101" lon="1.639952">
        <ele>2239.9</ele>
        <time>2013-08-08T12:28:34Z</time>
      </trkpt>
      <trkpt lat="42.485108" lon="1.640150">
        <ele>2239.9</ele>
        <time>2013-08-08T12:28:46Z</time>
      </trkpt>
      <trkpt lat="42.485127" lon="1.640267">
        <ele>2239.9</ele>
        <time>2013-08-08T12:28:54Z</time>
      </trkpt>
      <trkpt lat="42.485130" lon="1.640377">
        <ele>2239.9</ele>
        <time>2013-08-08T12:29:04Z</time>
      </trkpt>
      <trkpt lat="42.485142" lon="1.640428">
        <ele>2239.9</ele>
        <time>2013-08-08T12:29:08Z</time>
      </trkpt>
      <trkpt lat="42.485264" lon="1.640560">
        <ele>2242.0</ele>
        <time>2013-08-08T12:29:20Z</time>
      </trkpt>
      <trkpt lat="42.485310" lon="1.640634">
        <ele>2243.9</ele>
        <time>2013-08-08T12:29:27Z</time>
      </trkpt>
      <trkpt lat="42.485313" lon="1.640667">
        <ele>2244.0</ele>
        <time>2013-08-08T12:29:33Z</time>
      </trkpt>
      <trkpt lat="42.485347" lon="1.640730">
        <ele>2245.7</ele>
        <time>2013-08-08T12:29:39Z</time>
      </trkpt>
      <trkpt lat="42.485356" lon="1.640774">
        <ele>2246.0</ele>
        <time>2013-08-08T12:29:43Z</time>
      </trkpt>
      <trkpt lat="42.485402" lon="1.640882">
        <ele>2247.5</ele>
        <time>2013-08-08T12:29:53Z</time>
      </trkpt>
      <trkpt lat="42.485428" lon="1.640960">
        <ele>2248.5</ele>
        <time>2013-08-08T12:30:01Z</time>
      </trkpt>
      <trkpt lat="42.485463" lon="1.641053">
        <ele>2249.2</ele>
        <time>2013-08-08T12:30:11Z</time>
      </trkpt>
      <trkpt lat="42.485498" lon="1.641071">
        <ele>2250.1</ele>
        <time>2013-08-08T12:30:15Z</time>
      </trkpt>
      <trkpt lat="42.485530" lon="1.641162">
        <ele>2250.8</ele>
        <time>2013-08-08T12:30:26Z</time>
      </trkpt>
      <trkpt lat="42.485536" lon="1.641163">
        <ele>2251.0</ele>
        <time>2013-08-08T12:30:29Z</time>
      </trkpt>
      <trkpt lat="42.485552" lon="1.641198">
        <ele>2251.6</ele>
        <time>2013-08-08T12:30:33Z</time>
      </trkpt>
      <trkpt lat="42.485510" lon="1.641251">
        <ele>2250.9</ele>
        <time>2013-08-08T12:30:41Z</time>
      </trkpt>
      <trkpt lat="42.485516" lon="1.641373">
        <ele>2252.6</ele>
        <time>2013-08-08T12:30:46Z</time>
      </trkpt>
      <trkpt lat="42.485573" lon="1.641475">
        <ele>2255.1</ele>
        <time>2013-08-08T12:30:58Z</time>
      </trkpt>
      <trkpt lat="42.485573" lon="1.641475">
        <ele>2255.1</ele>
        <time>2013-08-08T12:31:12Z</time>
      </trkpt>
      <trkpt lat="42.485588" lon="1.641596">
        <ele>2256.7</ele>
        <time>2013-08-08T12:31:21Z</time>
      </trkpt>
      <trkpt lat="42.485595" lon="1.641644">
        <ele>2257.2</ele>
        <time>2013-08-08T12:31:25Z</time>
      </trkpt>
      <trkpt lat="42.485633" lon="1.641749">
        <ele>2258.5</ele>
        <time>2013-08-08T12:31:34Z</time>
      </trkpt>
      <trkpt lat="42.485687" lon="1.641869">
        <ele>2259.1</ele>
        <time>2013-08-08T12:31:45Z</time>
      </trkpt>
      <trkpt lat="42.485691" lon="1.641880">
        <ele>2259.2</ele>
        <time>2013-08-08T12:31:46Z</time>
      </trkpt>
      <trkpt lat="42.485704" lon="1.641912">
        <ele>2259.4</ele>
        <time>2013-08-08T12:31:49Z</time>
      </trkpt>
      <trkpt lat="42.485800" lon="1.642013">
        <ele>2260.3</ele>
        <time>2013-08-08T12:32:01Z</time>
      </trkpt>
      <trkpt lat="42.485835" lon="1.642031">
        <ele>2260.8</ele>
        <time>2013-08-08T12:32:04Z</time>
      </trkpt>
      <trkpt lat="42.485928" lon="1.642063">
        <ele>2262.7</ele>
        <time>2013-08-08T12:32:12Z</time>
      </trkpt>
      <trkpt lat="42.485944" lon="1.642132">
        <ele>2263.1</ele>
        <time>2013-08-08T12:36:20Z</time>
      </trkpt>
      <trkpt lat="42.485868" lon="1.642353">
        <ele>2261.3</ele>
        <time>2013-08-08T12:36:33Z</time>
      </trkpt>
      <trkpt lat="42.485878" lon="1.642476">
        <ele>2263.7</ele>
        <time>2013-08-08T12:36:42Z</time>
      </trkpt>
      <trkpt lat="42.485879" lon="1.642513">
        <ele>2264.4</ele>
        <time>2013-08-08T12:36:45Z</time>
      </trkpt>
      <trkpt lat="42.485879" lon="1.642552">
        <ele>2264.9</ele>
        <time>2013-08-08T12:36:48Z</time>
      </trkpt>
      <trkpt lat="42.485883" lon="1.642597">
        <ele>2265.6</ele>
        <time>2013-08-08T12:36:51Z</time>
      </trkpt>
      <trkpt lat="42.485897" lon="1.642634">
        <ele>2266.5</ele>
        <time>2013-08-08T12:36:54Z</time>
      </trkpt>
      <trkpt lat="42.485911" lon="1.642677">
        <ele>2267.4</ele>
        <time>2013-08-08T12:36:58Z</time>
      </trkpt>
      <trkpt lat="42.485902" lon="1.642698">
        <ele>2267.6</ele>
        <time>2013-08-08T12:37:00Z</time>
      </trkpt>
      <trkpt lat="42.485900" lon="1.642753">
        <ele>2268.3</ele>
        <time>2013-08-08T12:37:04Z</time>
      </trkpt>
      <trkpt lat="42.485946" lon="1.642840">
        <ele>2270.3</ele>
        <time>2013-08-08T12:37:12Z</time>
      </trkpt>
      <trkpt lat="42.485926" lon="1.642874">
        <ele>2270.4</ele>
        <time>2013-08-08T12:37:19Z</time>
      </trkpt>
      <trkpt lat="42.485905" lon="1.642902">
        <ele>2270.2</ele>
        <time>2013-08-08T12:37:23Z</time>
      </trkpt>
      <trkpt lat="42.485888" lon="1.642929">
        <ele>2270.1</ele>
        <time>2013-08-08T12:37:25Z</time>
      </trkpt>
      <trkpt lat="42.485882" lon="1.643010">
        <ele>2270.5</ele>
        <time>2013-08-08T12:37:30Z</time>
      </trkpt>
      <trkpt lat="42.485891" lon="1.643068">
        <ele>2271.0</ele>
        <time>2013-08-08T12:37:34Z</time>
      </trkpt>
      <trkpt lat="42.485879" lon="1.643163">
        <ele>2271.7</ele>
        <time>2013-08-08T12:37:45Z</time>
      </trkpt>
      <trkpt lat="42.485880" lon="1.643234">
        <ele>2272.2</ele>
        <time>2013-08-08T12:37:50Z</time>
      </trkpt>
      <trkpt lat="42.485868" lon="1.643268">
        <ele>2272.2</ele>
        <time>2013-08-08T12:37:53Z</time>
      </trkpt>
      <trkpt lat="42.485854" lon="1.643304">
        <ele>2272.3</ele>
        <time>2013-08-08T12:37:57Z</time>
      </trkpt>
      <trkpt lat="42.485806" lon="1.643454">
        <ele>2273.3</ele>
        <time>2013-08-08T12:38:08Z</time>
      </trkpt>
      <trkpt lat="42.485724" lon="1.643577">
        <ele>2274.3</ele>
        <time>2013-08-08T12:38:19Z</time>
      </trkpt>
      <trkpt lat="42.485675" lon="1.643603">
        <ele>2274.3</ele>
        <time>2013-08-08T12:38:23Z</time>
      </trkpt>
      <trkpt lat="42.485525" lon="1.643714">
        <ele>2275.0</ele>
        <time>2013-08-08T12:38:38Z</time>
      </trkpt>
      <trkpt lat="42.485503" lon="1.643743">
        <ele>2275.3</ele>
        <time>2013-08-08T12:38:44Z</time>
      </trkpt>
      <trkpt lat="42.485408" lon="1.643799">
        <ele>2276.0</ele>
        <time>2013-08-08T12:38:58Z</time>
      </trkpt>
      <trkpt lat="42.485406" lon="1.643812">
        <ele>2276.2</ele>
        <time>2013-08-08T12:39:13Z</time>
      </trkpt>
      <trkpt lat="42.485419" lon="1.643838">
        <ele>2276.6</ele>
        <time>2013-08-08T12:39:28Z</time>
      </trkpt>
      <trkpt lat="42.485422" lon="1.643841">
        <ele>2276.7</ele>
        <time>2013-08-08T12:39:52Z</time>
      </trkpt>
      <trkpt lat="42.485418" lon="1.643902">
        <ele>2277.7</ele>
        <time>2013-08-08T12:40:03Z</time>
      </trkpt>
      <trkpt lat="42.485343" lon="1.643916">
        <ele>2278.4</ele>
        <time>2013-08-08T12:40:16Z</time>
      </trkpt>
      <trkpt lat="42.485289" lon="1.643922">
        <ele>2278.9</ele>
        <time>2013-08-08T12:40:27Z</time>
      </trkpt>
      <trkpt lat="42.485244" lon="1.643953">
        <ele>2279.9</ele>
        <time>2013-08-08T12:40:33Z</time>
      </trkpt>
      <trkpt lat="42.485136" lon="1.643988">
        <ele>2282.3</ele>
        <time>2013-08-08T12:40:44Z</time>
      </trkpt>
      <trkpt lat="42.485051" lon="1.644027">
        <ele>2285.0</ele>
        <time>2013-08-08T12:40:55Z</time>
      </trkpt>
      <trkpt lat="42.485028" lon="1.644066">
        <ele>2286.4</ele>
        <time>2013-08-08T12:41:07Z</time>
      </trkpt>
      <trkpt lat="42.484949" lon="1.644138">
        <ele>2289.5</ele>
        <time>2013-08-08T12:41:18Z</time>
      </trkpt>
      <trkpt lat="42.484881" lon="1.644254">
        <ele>2293.1</ele>
        <time>2013-08-08T12:41:29Z</time>
      </trkpt>
      <trkpt lat="42.484833" lon="1.644374">
        <ele>2295.8</ele>
        <time>2013-08-08T12:41:41Z</time>
      </trkpt>
      <trkpt lat="42.484833" lon="1.644374">
        <ele>2295.8</ele>
        <time>2013-08-08T12:41:50Z</time>
      </trkpt>
      <trkpt lat="42.484825" lon="1.644401">
        <ele>2296.2</ele>
        <time>2013-08-08T12:41:53Z</time>
      </trkpt>
      <trkpt lat="42.484816" lon="1.644528">
        <ele>2298.6</ele>
        <time>2013-08-08T12:42:04Z</time>
      </trkpt>
      <trkpt lat="42.484808" lon="1.644632">
        <ele>2299.8</ele>
        <time>2013-08-08T12:42:16Z</time>
      </trkpt>
      <trkpt lat="42.484802" lon="1.644764">
        <ele>2300.0</ele>
        <time>2013-08-08T12:42:28Z</time>
      </trkpt>
      <trkpt lat="42.484815" lon="1.644899">
        <ele>2300.0</ele>
        <time>2013-08-08T12:42:39Z</time>
      </trkpt>
      <trkpt lat="42.484824" lon="1.644999">
        <ele>2300.0</ele>
        <time>2013-08-08T12:42:51Z</time>
      </trkpt>
      <trkpt lat="42.484857" lon="1.645072">
        <ele>2300.0</ele>
        <time>2013-08-08T12:43:02Z</time>
      </trkpt>
      <trkpt lat="42.484943" lon="1.645075">
        <ele>2301.0</ele>
        <time>2013-08-08T12:43:15Z</time>
      </trkpt>
      <trkpt lat="42.484960" lon="1.645156">
        <ele>2302.0</ele>
        <time>2013-08-08T12:43:28Z</time>
      </trkpt>
      <trkpt lat="42.484985" lon="1.645219">
        <ele>2303.3</ele>
        <time>2013-08-08T12:43:38Z</time>
      </trkpt>
      <trkpt lat="42.485002" lon="1.645294">
        <ele>2304.7</ele>
        <time>2013-08-08T12:43:50Z</time>
      </trkpt>
      <trkpt lat="42.485024" lon="1.645366">
        <ele>2306.3</ele>
        <time>2013-08-08T12:43:58Z</time>
      </trkpt>
      <trkpt lat="42.485034" lon="1.645426">
        <ele>2307.6</ele>
        <time>2013-08-08T12:44:03Z</time>
      </trkpt>
      <trkpt lat="42.485042" lon="1.645498">
        <ele>2309.2</ele>
        <time>2013-08-08T12:44:14Z</time>
      </trkpt>
      <trkpt lat="42.485042" lon="1.645550">
        <ele>2310.0</ele>
        <time>2013-08-08T12:44:21Z</time>
      </trkpt>
      <trkpt lat="42.485040" lon="1.645645">
        <ele>2311.3</ele>
        <time>2013-08-08T12:44:33Z</time>
      </trkpt>
      <trkpt lat="42.485046" lon="1.645758">
        <ele>2313.3</ele>
        <time>2013-08-08T12:44:45Z</time>
      </trkpt>
      <trkpt lat="42.485069" lon="1.645779">
        <ele>2314.2</ele>
        <time>2013-08-08T12:44:54Z</time>
      </trkpt>
      <trkpt lat="42.485095" lon="1.645859">
        <ele>2316.1</ele>
        <time>2013-08-08T12:45:02Z</time>
      </trkpt>
      <trkpt lat="42.485159" lon="1.645944">
        <ele>2318.7</ele>
        <time>2013-08-08T12:46:27Z</time>
      </trkpt>
      <trkpt lat="42.485174" lon="1.645961">
        <ele>2319.1</ele>
        <time>2013-08-08T12:46:29Z</time>
      </trkpt>
      <trkpt lat="42.485216" lon="1.646026">
        <ele>2320.2</ele>
        <time>2013-08-08T12:46:37Z</time>
      </trkpt>
      <trkpt lat="42.485240" lon="1.646096">
        <ele>2321.1</ele>
        <time>2013-08-08T12:46:44Z</time>
      </trkpt>
      <trkpt lat="42.485244" lon="1.646113">
        <ele>2321.3</ele>
        <time>2013-08-08T12:46:46Z</time>
      </trkpt>
      <trkpt lat="42.485263" lon="1.646166">
        <ele>2322.0</ele>
        <time>2013-08-08T12:46:59Z</time>
      </trkpt>
      <trkpt lat="42.485266" lon="1.646188">
        <ele>2322.2</ele>
        <time>2013-08-08T12:47:01Z</time>
      </trkpt>
      <trkpt lat="42.485289" lon="1.646218">
        <ele>2322.9</ele>
        <time>2013-08-08T12:47:04Z</time>
      </trkpt>
      <trkpt lat="42.485312" lon="1.646247">
        <ele>2323.6</ele>
        <time>2013-08-08T12:47:07Z</time>
      </trkpt>
      <trkpt lat="42.485379" lon="1.646234">
        <ele>2325.0</ele>
        <time>2013-08-08T12:47:16Z</time>
      </trkpt>
      <trkpt lat="42.485401" lon="1.646222">
        <ele>2325.4</ele>
        <time>2013-08-08T12:47:18Z</time>
      </trkpt>
      <trkpt lat="42.485497" lon="1.646188">
        <ele>2326.5</ele>
        <time>2013-08-08T12:47:27Z</time>
      </trkpt>
      <trkpt lat="42.485507" lon="1.646167">
        <ele>2326.5</ele>
        <time>2013-08-08T12:47:29Z</time>
      </trkpt>
      <trkpt lat="42.485558" lon="1.646031">
        <ele>2326.3</ele>
        <time>2013-08-08T12:47:39Z</time>
      </trkpt>
      <trkpt lat="42.485656" lon="1.645982">
        <ele>2327.5</ele>
        <time>2013-08-08T12:47:51Z</time>
      </trkpt>
      <trkpt lat="42.485706" lon="1.645953">
        <ele>2328.2</ele>
        <time>2013-08-08T12:47:58Z</time>
      </trkpt>
      <trkpt lat="42.485723" lon="1.645953">
        <ele>2328.6</ele>
        <time>2013-08-08T12:48:00Z</time>
      </trkpt>
      <trkpt lat="42.485825" lon="1.645909">
        <ele>2330.4</ele>
        <time>2013-08-08T12:48:12Z</time>
      </trkpt>
      <trkpt lat="42.485868" lon="1.645882">
        <ele>2330.9</ele>
        <time>2013-08-08T12:48:16Z</time>
      </trkpt>
      <trkpt lat="42.485901" lon="1.645905">
        <ele>2331.6</ele>
        <time>2013-08-08T12:48:23Z</time>
      </trkpt>
      <trkpt lat="42.485933" lon="1.645969">
        <ele>2332.5</ele>
        <time>2013-08-08T12:48:30Z</time>
      </trkpt>
      <trkpt lat="42.485952" lon="1.646035">
        <ele>2333.3</ele>
        <time>2013-08-08T12:48:42Z</time>
      </trkpt>
      <trkpt lat="42.485952" lon="1.646035">
        <ele>2333.3</ele>
        <time>2013-08-08T12:49:08Z</time>
      </trkpt>
      <trkpt lat="42.485951" lon="1.646034">
        <ele>2333.3</ele>
        <time>2013-08-08T12:49:43Z</time>
      </trkpt>
      <trkpt lat="42.485948" lon="1.646038">
        <ele>2333.2</ele>
        <time>2013-08-08T12:50:03Z</time>
      </trkpt>
      <trkpt lat="42.486048" lon="1.646121">
        <ele>2335.4</ele>
        <time>2013-08-08T12:50:16Z</time>
      </trkpt>
      <trkpt lat="42.486083" lon="1.646152">
        <ele>2336.4</ele>
        <time>2013-08-08T12:50:20Z</time>
      </trkpt>
      <trkpt lat="42.486199" lon="1.646196">
        <ele>2339.5</ele>
        <time>2013-08-08T12:50:32Z</time>
      </trkpt>
      <trkpt lat="42.486302" lon="1.646180">
        <ele>2342.2</ele>
        <time>2013-08-08T12:50:44Z</time>
      </trkpt>
      <trkpt lat="42.486334" lon="1.646158">
        <ele>2342.9</ele>
        <time>2013-08-08T12:50:48Z</time>
      </trkpt>
      <trkpt lat="42.486436" lon="1.646068">
        <ele>2343.7</ele>
        <time>2013-08-08T12:51:00Z</time>
      </trkpt>
      <trkpt lat="42.486449" lon="1.646049">
        <ele>2343.6</ele>
        <time>2013-08-08T12:51:02Z</time>
      </trkpt>
      <trkpt lat="42.486507" lon="1.645971">
        <ele>2343.0</ele>
        <time>2013-08-08T12:51:12Z</time>
      </trkpt>
      <trkpt lat="42.486539" lon="1.645979">
        <ele>2343.4</ele>
        <time>2013-08-08T12:51:16Z</time>
      </trkpt>
      <trkpt lat="42.486577" lon="1.645977">
        <ele>2343.8</ele>
        <time>2013-08-08T12:51:20Z</time>
      </trkpt>
      <trkpt lat="42.486654" lon="1.646026">
        <ele>2345.9</ele>
        <time>2013-08-08T12:51:32Z</time>
      </trkpt>
      <trkpt lat="42.486658" lon="1.646030">
        <ele>2346.0</ele>
        <time>2013-08-08T12:51:33Z</time>
      </trkpt>
      <trkpt lat="42.486669" lon="1.646123">
        <ele>2348.0</ele>
        <time>2013-08-08T12:51:43Z</time>
      </trkpt>
      <trkpt lat="42.486683" lon="1.646146">
        <ele>2348.6</ele>
        <time>2013-08-08T12:51:46Z</time>
      </trkpt>
      <trkpt lat="42.486749" lon="1.646076">
        <ele>2348.9</ele>
        <time>2013-08-08T12:51:58Z</time>
      </trkpt>
      <trkpt lat="42.486762" lon="1.646069">
        <ele>2349.1</ele>
        <time>2013-08-08T12:52:00Z</time>
      </trkpt>
      <trkpt lat="42.486866" lon="1.646101">
        <ele>2352.0</ele>
        <time>2013-08-08T12:52:12Z</time>
      </trkpt>
      <trkpt lat="42.486874" lon="1.646103">
        <ele>2352.2</ele>
        <time>2013-08-08T12:52:13Z</time>
      </trkpt>
      <trkpt lat="42.486900" lon="1.646126">
        <ele>2353.2</ele>
        <time>2013-08-08T12:52:16Z</time>
      </trkpt>
      <trkpt lat="42.486993" lon="1.646234">
        <ele>2357.6</ele>
        <time>2013-08-08T12:52:28Z</time>
      </trkpt>
      <trkpt lat="42.487054" lon="1.646304">
        <ele>2359.1</ele>
        <time>2013-08-08T12:52:36Z</time>
      </trkpt>
      <trkpt lat="42.487100" lon="1.646373">
        <ele>2360.2</ele>
        <time>2013-08-08T12:52:45Z</time>
      </trkpt>
      <trkpt lat="42.487115" lon="1.646427">
        <ele>2360.8</ele>
        <time>2013-08-08T12:52:51Z</time>
      </trkpt>
      <trkpt lat="42.487120" lon="1.646458">
        <ele>2361.1</ele>
        <time>2013-08-08T12:52:54Z</time>
      </trkpt>
      <trkpt lat="42.487126" lon="1.646494">
        <ele>2361.4</ele>
        <time>2013-08-08T12:52:57Z</time>
      </trkpt>
      <trkpt lat="42.487166" lon="1.646567">
        <ele>2362.5</ele>
        <time>2013-08-08T12:53:06Z</time>
      </trkpt>
      <trkpt lat="42.487167" lon="1.646574">
        <ele>2362.6</ele>
        <time>2013-08-08T12:53:07Z</time>
      </trkpt>
      <trkpt lat="42.487171" lon="1.646651">
        <ele>2363.2</ele>
        <time>2013-08-08T12:53:15Z</time>
      </trkpt>
      <trkpt lat="42.487187" lon="1.646688">
        <ele>2363.7</ele>
        <time>2013-08-08T12:53:21Z</time>
      </trkpt>
      <trkpt lat="42.487185" lon="1.646711">
        <ele>2363.8</ele>
        <time>2013-08-08T12:53:24Z</time>
      </trkpt>
      <trkpt lat="42.487159" lon="1.646838">
        <ele>2364.5</ele>
        <time>2013-08-08T12:53:35Z</time>
      </trkpt>
      <trkpt lat="42.487177" lon="1.646910">
        <ele>2366.0</ele>
        <time>2013-08-08T12:53:46Z</time>
      </trkpt>
      <trkpt lat="42.487190" lon="1.646938">
        <ele>2366.9</ele>
        <time>2013-08-08T12:53:50Z</time>
      </trkpt>
      <trkpt lat="42.487240" lon="1.646980">
        <ele>2368.6</ele>
        <time>2013-08-08T12:53:57Z</time>
      </trkpt>
      <trkpt lat="42.487252" lon="1.647003">
        <ele>2369.1</ele>
        <time>2013-08-08T12:53:59Z</time>
      </trkpt>
      <trkpt lat="42.487271" lon="1.647040">
        <ele>2370.1</ele>
        <time>2013-08-08T12:54:03Z</time>
      </trkpt>
      <trkpt lat="42.487288" lon="1.647064">
        <ele>2370.9</ele>
        <time>2013-08-08T12:54:06Z</time>
      </trkpt>
      <trkpt lat="42.487328" lon="1.647121">
        <ele>2372.6</ele>
        <time>2013-08-08T12:54:14Z</time>
      </trkpt>
      <trkpt lat="42.487341" lon="1.647144">
        <ele>2373.2</ele>
        <time>2013-08-08T12:54:17Z</time>
      </trkpt>
      <trkpt lat="42.487350" lon="1.647163">
        <ele>2373.7</ele>
        <time>2013-08-08T12:54:20Z</time>
      </trkpt>
      <trkpt lat="42.487408" lon="1.647112">
        <ele>2374.5</ele>
        <time>2013-08-08T12:54:31Z</time>
      </trkpt>
      <trkpt lat="42.487498" lon="1.647094">
        <ele>2377.0</ele>
        <time>2013-08-08T12:54:43Z</time>
      </trkpt>
      <trkpt lat="42.487575" lon="1.647092">
        <ele>2379.4</ele>
        <time>2013-08-08T12:54:54Z</time>
      </trkpt>
      <trkpt lat="42.487631" lon="1.647106">
        <ele>2381.3</ele>
        <time>2013-08-08T12:55:07Z</time>
      </trkpt>
      <trkpt lat="42.487687" lon="1.647124">
        <ele>2382.5</ele>
        <time>2013-08-08T12:55:12Z</time>
      </trkpt>
      <trkpt lat="42.487719" lon="1.647118">
        <ele>2383.1</ele>
        <time>2013-08-08T12:55:15Z</time>
      </trkpt>
      <trkpt lat="42.487802" lon="1.647133">
        <ele>2384.6</ele>
        <time>2013-08-08T12:55:24Z</time>
      </trkpt>
      <trkpt lat="42.487828" lon="1.647118">
        <ele>2384.7</ele>
        <time>2013-08-08T12:55:27Z</time>
      </trkpt>
      <trkpt lat="42.487887" lon="1.647036">
        <ele>2384.0</ele>
        <time>2013-08-08T12:55:35Z</time>
      </trkpt>
      <trkpt lat="42.487920" lon="1.647009">
        <ele>2383.9</ele>
        <time>2013-08-08T12:55:39Z</time>
      </trkpt>
      <trkpt lat="42.488029" lon="1.647027">
        <ele>2386.9</ele>
        <time>2013-08-08T12:55:51Z</time>
      </trkpt>
      <trkpt lat="42.488053" lon="1.647035">
        <ele>2387.6</ele>
        <time>2013-08-08T12:55:54Z</time>
      </trkpt>
      <trkpt lat="42.488110" lon="1.647078">
        <ele>2389.6</ele>
        <time>2013-08-08T12:56:01Z</time>
      </trkpt>
      <trkpt lat="42.488132" lon="1.647102">
        <ele>2390.3</ele>
        <time>2013-08-08T12:56:04Z</time>
      </trkpt>
      <trkpt lat="42.488187" lon="1.647172">
        <ele>2392.1</ele>
        <time>2013-08-08T12:56:15Z</time>
      </trkpt>
      <trkpt lat="42.488241" lon="1.647236">
        <ele>2394.1</ele>
        <time>2013-08-08T12:56:25Z</time>
      </trkpt>
      <trkpt lat="42.488300" lon="1.647271">
        <ele>2395.3</ele>
        <time>2013-08-08T12:56:32Z</time>
      </trkpt>
      <trkpt lat="42.488345" lon="1.647294">
        <ele>2396.3</ele>
        <time>2013-08-08T12:56:37Z</time>
      </trkpt>
      <trkpt lat="42.488425" lon="1.647414">
        <ele>2398.9</ele>
        <time>2013-08-08T12:56:48Z</time>
      </trkpt>
      <trkpt lat="42.488434" lon="1.647429">
        <ele>2399.1</ele>
        <time>2013-08-08T12:56:50Z</time>
      </trkpt>
      <trkpt lat="42.488445" lon="1.647462">
        <ele>2399.4</ele>
        <time>2013-08-08T12:56:53Z</time>
      </trkpt>
      <trkpt lat="42.488464" lon="1.647496">
        <ele>2399.8</ele>
        <time>2013-08-08T12:56:57Z</time>
      </trkpt>
      <trkpt lat="42.488508" lon="1.647581">
        <ele>2399.9</ele>
        <time>2013-08-08T12:57:06Z</time>
      </trkpt>
      <trkpt lat="42.488593" lon="1.647672">
        <ele>2399.9</ele>
        <time>2013-08-08T12:57:17Z</time>
      </trkpt>
      <trkpt lat="42.488627" lon="1.647811">
        <ele>2399.9</ele>
        <time>2013-08-08T12:57:28Z</time>
      </trkpt>
      <trkpt lat="42.488634" lon="1.647844">
        <ele>2399.9</ele>
        <time>2013-08-08T12:57:33Z</time>
      </trkpt>
      <trkpt lat="42.488646" lon="1.647864">
        <ele>2399.9</ele>
        <time>2013-08-08T12:57:36Z</time>
      </trkpt>
      <trkpt lat="42.488670" lon="1.647890">
        <ele>2400.0</ele>
        <time>2013-08-08T12:57:39Z</time>
      </trkpt>
      <trkpt lat="42.488691" lon="1.647926">
        <ele>2400.1</ele>
        <time>2013-08-08T12:57:43Z</time>
      </trkpt>
      <trkpt lat="42.488768" lon="1.647994">
        <ele>2400.4</ele>
        <time>2013-08-08T12:57:53Z</time>
      </trkpt>
      <trkpt lat="42.488845" lon="1.648051">
        <ele>2401.0</ele>
        <time>2013-08-08T12:58:03Z</time>
      </trkpt>
      <trkpt lat="42.488941" lon="1.648085">
        <ele>2401.6</ele>
        <time>2013-08-08T12:58:12Z</time>
      </trkpt>
      <trkpt lat="42.488992" lon="1.648032">
        <ele>2401.1</ele>
        <time>2013-08-08T12:58:18Z</time>
      </trkpt>
      <trkpt lat="42.489107" lon="1.647897">
        <ele>2400.9</ele>
        <time>2013-08-08T12:58:32Z</time>
      </trkpt>
      <trkpt lat="42.489177" lon="1.647740">
        <ele>2402.0</ele>
        <time>2013-08-08T12:58:45Z</time>
      </trkpt>
      <trkpt lat="42.489193" lon="1.647702">
        <ele>2402.2</ele>
        <time>2013-08-08T12:58:48Z</time>
      </trkpt>
      <trkpt lat="42.489223" lon="1.647584">
        <ele>2402.0</ele>
        <time>2013-08-08T12:58:56Z</time>
      </trkpt>
      <trkpt lat="42.489234" lon="1.647493">
        <ele>2401.6</ele>
        <time>2013-08-08T12:59:02Z</time>
      </trkpt>
      <trkpt lat="42.489241" lon="1.647468">
        <ele>2401.6</ele>
        <time>2013-08-08T12:59:04Z</time>
      </trkpt>
      <trkpt lat="42.489273" lon="1.647270">
        <ele>2401.5</ele>
        <time>2013-08-08T12:59:19Z</time>
      </trkpt>
      <trkpt lat="42.489293" lon="1.647261">
        <ele>2401.7</ele>
        <time>2013-08-08T12:59:22Z</time>
      </trkpt>
      <trkpt lat="42.489331" lon="1.647269">
        <ele>2402.6</ele>
        <time>2013-08-08T12:59:28Z</time>
      </trkpt>
      <trkpt lat="42.489402" lon="1.647318">
        <ele>2404.2</ele>
        <time>2013-08-08T12:59:39Z</time>
      </trkpt>
      <trkpt lat="42.489481" lon="1.647341">
        <ele>2406.1</ele>
        <time>2013-08-08T12:59:49Z</time>
      </trkpt>
      <trkpt lat="42.489540" lon="1.647331">
        <ele>2407.6</ele>
        <time>2013-08-08T12:59:57Z</time>
      </trkpt>
      <trkpt lat="42.489596" lon="1.647371">
        <ele>2409.4</ele>
        <time>2013-08-08T13:00:06Z</time>
      </trkpt>
      <trkpt lat="42.489661" lon="1.647429">
        <ele>2411.8</ele>
        <time>2013-08-08T13:00:15Z</time>
      </trkpt>
      <trkpt lat="42.489725" lon="1.647481">
        <ele>2413.9</ele>
        <time>2013-08-08T13:00:26Z</time>
      </trkpt>
      <trkpt lat="42.489747" lon="1.647494">
        <ele>2414.6</ele>
        <time>2013-08-08T13:00:29Z</time>
      </trkpt>
      <trkpt lat="42.489791" lon="1.647531">
        <ele>2416.4</ele>
        <time>2013-08-08T13:00:37Z</time>
      </trkpt>
      <trkpt lat="42.489849" lon="1.647537">
        <ele>2418.1</ele>
        <time>2013-08-08T13:00:49Z</time>
      </trkpt>
      <trkpt lat="42.489906" lon="1.647508">
        <ele>2419.0</ele>
        <time>2013-08-08T13:00:59Z</time>
      </trkpt>
      <trkpt lat="42.489940" lon="1.647526">
        <ele>2420.2</ele>
        <time>2013-08-08T13:01:05Z</time>
      </trkpt>
      <trkpt lat="42.489950" lon="1.647541">
        <ele>2420.7</ele>
        <time>2013-08-08T13:01:08Z</time>
      </trkpt>
      <trkpt lat="42.489960" lon="1.647574">
        <ele>2421.4</ele>
        <time>2013-08-08T13:01:11Z</time>
      </trkpt>
      <trkpt lat="42.489972" lon="1.647601">
        <ele>2422.0</ele>
        <time>2013-08-08T13:01:14Z</time>
      </trkpt>
      <trkpt lat="42.489986" lon="1.647628">
        <ele>2422.5</ele>
        <time>2013-08-08T13:01:17Z</time>
      </trkpt>
      <trkpt lat="42.490013" lon="1.647643">
        <ele>2422.8</ele>
        <time>2013-08-08T13:01:20Z</time>
      </trkpt>
      <trkpt lat="42.490093" lon="1.647662">
        <ele>2423.4</ele>
        <time>2013-08-08T13:01:28Z</time>
      </trkpt>
      <trkpt lat="42.490177" lon="1.647677">
        <ele>2424.3</ele>
        <time>2013-08-08T13:01:37Z</time>
      </trkpt>
      <trkpt lat="42.490268" lon="1.647744">
        <ele>2426.3</ele>
        <time>2013-08-08T13:01:49Z</time>
      </trkpt>
      <trkpt lat="42.490291" lon="1.647783">
        <ele>2427.0</ele>
        <time>2013-08-08T13:01:53Z</time>
      </trkpt>
      <trkpt lat="42.490303" lon="1.647807">
        <ele>2427.3</ele>
        <time>2013-08-08T13:01:55Z</time>
      </trkpt>
      <trkpt lat="42.490398" lon="1.647920">
        <ele>2430.3</ele>
        <time>2013-08-08T13:02:07Z</time>
      </trkpt>
      <trkpt lat="42.490407" lon="1.647937">
        <ele>2430.6</ele>
        <time>2013-08-08T13:02:10Z</time>
      </trkpt>
      <trkpt lat="42.490418" lon="1.648010">
        <ele>2431.4</ele>
        <time>2013-08-08T13:02:17Z</time>
      </trkpt>
      <trkpt lat="42.490398" lon="1.648033">
        <ele>2431.0</ele>
        <time>2013-08-08T13:02:20Z</time>
      </trkpt>
      <trkpt lat="42.490370" lon="1.648169">
        <ele>2431.8</ele>
        <time>2013-08-08T13:02:30Z</time>
      </trkpt>
      <trkpt lat="42.490374" lon="1.648206">
        <ele>2432.4</ele>
        <time>2013-08-08T13:02:33Z</time>
      </trkpt>
      <trkpt lat="42.490363" lon="1.648306">
        <ele>2433.5</ele>
        <time>2013-08-08T13:02:48Z</time>
      </trkpt>
      <trkpt lat="42.490361" lon="1.648306">
        <ele>2433.5</ele>
        <time>2013-08-08T13:03:10Z</time>
      </trkpt>
      <trkpt lat="42.490335" lon="1.648328">
        <ele>2433.3</ele>
        <time>2013-08-08T13:03:15Z</time>
      </trkpt>
      <trkpt lat="42.490297" lon="1.648338">
        <ele>2432.6</ele>
        <time>2013-08-08T13:03:21Z</time>
      </trkpt>
      <trkpt lat="42.490316" lon="1.648413">
        <ele>2434.1</ele>
        <time>2013-08-08T13:03:34Z</time>
      </trkpt>
      <trkpt lat="42.490363" lon="1.648419">
        <ele>2434.9</ele>
        <time>2013-08-08T13:03:49Z</time>
      </trkpt>
      <trkpt lat="42.490363" lon="1.648419">
        <ele>2434.9</ele>
        <time>2013-08-08T13:04:16Z</time>
      </trkpt>
      <trkpt lat="42.490362" lon="1.648424">
        <ele>2435.0</ele>
        <time>2013-08-08T13:04:26Z</time>
      </trkpt>
      <trkpt lat="42.490458" lon="1.648431">
        <ele>2436.7</ele>
        <time>2013-08-08T13:04:34Z</time>
      </trkpt>
      <trkpt lat="42.490480" lon="1.648454">
        <ele>2437.2</ele>
        <time>2013-08-08T13:04:37Z</time>
      </trkpt>
      <trkpt lat="42.490517" lon="1.648532">
        <ele>2438.2</ele>
        <time>2013-08-08T13:04:43Z</time>
      </trkpt>
      <trkpt lat="42.490532" lon="1.648550">
        <ele>2438.2</ele>
        <time>2013-08-08T13:04:45Z</time>
      </trkpt>
      <trkpt lat="42.490568" lon="1.648623">
        <ele>2437.9</ele>
        <time>2013-08-08T13:04:51Z</time>
      </trkpt>
      <trkpt lat="42.490637" lon="1.648745">
        <ele>2435.8</ele>
        <time>2013-08-08T13:05:02Z</time>
      </trkpt>
      <trkpt lat="42.490687" lon="1.648792">
        <ele>2435.4</ele>
        <time>2013-08-08T13:05:08Z</time>
      </trkpt>
      <trkpt lat="42.490747" lon="1.648950">
        <ele>2434.2</ele>
        <time>2013-08-08T13:05:19Z</time>
      </trkpt>
      <trkpt lat="42.490762" lon="1.648949">
        <ele>2434.7</ele>
        <time>2013-08-08T13:05:30Z</time>
      </trkpt>
      <trkpt lat="42.490757" lon="1.648946">
        <ele>2434.6</ele>
        <time>2013-08-08T13:05:36Z</time>
      </trkpt>
      <trkpt lat="42.490747" lon="1.648951">
        <ele>2434.2</ele>
        <time>2013-08-08T13:05:47Z</time>
      </trkpt>
      <trkpt lat="42.490682" lon="1.648925">
        <ele>2432.7</ele>
        <time>2013-08-08T13:05:56Z</time>
      </trkpt>
      <trkpt lat="42.490682" lon="1.648930">
        <ele>2432.6</ele>
        <time>2013-08-08T13:06:10Z</time>
      </trkpt>
      <trkpt lat="42.490710" lon="1.648974">
        <ele>2432.6</ele>
        <time>2013-08-08T13:06:14Z</time>
      </trkpt>
      <trkpt lat="42.490769" lon="1.649028">
        <ele>2433.5</ele>
        <time>2013-08-08T13:06:19Z</time>
      </trkpt>
      <trkpt lat="42.490789" lon="1.649073">
        <ele>2433.3</ele>
        <time>2013-08-08T13:06:32Z</time>
      </trkpt>
      <trkpt lat="42.490789" lon="1.649073">
        <ele>2433.3</ele>
        <time>2013-08-08T13:07:04Z</time>
      </trkpt>
      <trkpt lat="42.490788" lon="1.649072">
        <ele>2433.3</ele>
        <time>2013-08-08T13:07:26Z</time>
      </trkpt>
      <trkpt lat="42.490787" lon="1.649084">
        <ele>2433.0</ele>
        <time>2013-08-08T13:07:55Z</time>
      </trkpt>
      <trkpt lat="42.490823" lon="1.649191">
        <ele>2432.7</ele>
        <time>2013-08-08T13:08:20Z</time>
      </trkpt>
      <trkpt lat="42.490829" lon="1.649212">
        <ele>2432.7</ele>
        <time>2013-08-08T13:08:22Z</time>
      </trkpt>
      <trkpt lat="42.490895" lon="1.649404">
        <ele>2433.1</ele>
        <time>2013-08-08T13:08:35Z</time>
      </trkpt>
      <trkpt lat="42.490875" lon="1.649584">
        <ele>2430.3</ele>
        <time>2013-08-08T13:08:47Z</time>
      </trkpt>
      <trkpt lat="42.490877" lon="1.649686">
        <ele>2429.5</ele>
        <time>2013-08-08T13:08:54Z</time>
      </trkpt>
      <trkpt lat="42.490890" lon="1.649707">
        <ele>2429.9</ele>
        <time>2013-08-08T13:08:56Z</time>
      </trkpt>
      <trkpt lat="42.490932" lon="1.649809">
        <ele>2431.3</ele>
        <time>2013-08-08T13:09:05Z</time>
      </trkpt>
      <trkpt lat="42.490940" lon="1.649843">
        <ele>2431.5</ele>
        <time>2013-08-08T13:09:08Z</time>
      </trkpt>
      <trkpt lat="42.490953" lon="1.649871">
        <ele>2431.9</ele>
        <time>2013-08-08T13:09:11Z</time>
      </trkpt>
      <trkpt lat="42.491020" lon="1.649911">
        <ele>2434.5</ele>
        <time>2013-08-08T13:09:19Z</time>
      </trkpt>
      <trkpt lat="42.491040" lon="1.649943">
        <ele>2435.3</ele>
        <time>2013-08-08T13:09:22Z</time>
      </trkpt>
      <trkpt lat="42.491077" lon="1.650026">
        <ele>2436.7</ele>
        <time>2013-08-08T13:09:33Z</time>
      </trkpt>
      <trkpt lat="42.491077" lon="1.650026">
        <ele>2436.7</ele>
        <time>2013-08-08T13:10:02Z</time>
      </trkpt>
      <trkpt lat="42.491093" lon="1.650054">
        <ele>2437.3</ele>
        <time>2013-08-08T13:10:05Z</time>
      </trkpt>
      <trkpt lat="42.491114" lon="1.650136">
        <ele>2437.8</ele>
        <time>2013-08-08T13:10:11Z</time>
      </trkpt>
      <trkpt lat="42.491133" lon="1.650248">
        <ele>2438.3</ele>
        <time>2013-08-08T13:10:19Z</time>
      </trkpt>
      <trkpt lat="42.491161" lon="1.650470">
        <ele>2439.8</ele>
        <time>2013-08-08T13:10:32Z</time>
      </trkpt>
      <trkpt lat="42.491180" lon="1.650533">
        <ele>2440.0</ele>
        <time>2013-08-08T13:10:35Z</time>
      </trkpt>
      <trkpt lat="42.491187" lon="1.650641">
        <ele>2440.2</ele>
        <time>2013-08-08T13:10:42Z</time>
      </trkpt>
      <trkpt lat="42.491118" lon="1.650788">
        <ele>2439.9</ele>
        <time>2013-08-08T13:10:53Z</time>
      </trkpt>
      <trkpt lat="42.491106" lon="1.650839">
        <ele>2439.9</ele>
        <time>2013-08-08T13:10:57Z</time>
      </trkpt>
      <trkpt lat="42.491100" lon="1.650891">
        <ele>2439.9</ele>
        <time>2013-08-08T13:11:00Z</time>
      </trkpt>
      <trkpt lat="42.491089" lon="1.650944">
        <ele>2440.0</ele>
        <time>2013-08-08T13:11:04Z</time>
      </trkpt>
      <trkpt lat="42.491132" lon="1.651145">
        <ele>2440.1</ele>
        <time>2013-08-08T13:11:16Z</time>
      </trkpt>
      <trkpt lat="42.491184" lon="1.651172">
        <ele>2440.4</ele>
        <time>2013-08-08T13:11:20Z</time>
      </trkpt>
      <trkpt lat="42.491373" lon="1.651139">
        <ele>2442.9</ele>
        <time>2013-08-08T13:11:35Z</time>
      </trkpt>
      <trkpt lat="42.491525" lon="1.651134">
        <ele>2446.2</ele>
        <time>2013-08-08T13:11:47Z</time>
      </trkpt>
      <trkpt lat="42.491564" lon="1.651135">
        <ele>2446.9</ele>
        <time>2013-08-08T13:11:50Z</time>
      </trkpt>
      <trkpt lat="42.491627" lon="1.651165">
        <ele>2448.3</ele>
        <time>2013-08-08T13:11:56Z</time>
      </trkpt>
      <trkpt lat="42.491783" lon="1.651265">
        <ele>2451.8</ele>
        <time>2013-08-08T13:12:09Z</time>
      </trkpt>
      <trkpt lat="42.491802" lon="1.651345">
        <ele>2452.2</ele>
        <time>2013-08-08T13:12:15Z</time>
      </trkpt>
      <trkpt lat="42.491852" lon="1.651424">
        <ele>2452.9</ele>
        <time>2013-08-08T13:12:21Z</time>
      </trkpt>
      <trkpt lat="42.491937" lon="1.651475">
        <ele>2453.6</ele>
        <time>2013-08-08T13:12:27Z</time>
      </trkpt>
      <trkpt lat="42.492061" lon="1.651591">
        <ele>2452.8</ele>
        <time>2013-08-08T13:12:38Z</time>
      </trkpt>
      <trkpt lat="42.492192" lon="1.651675">
        <ele>2452.6</ele>
        <time>2013-08-08T13:12:50Z</time>
      </trkpt>
      <trkpt lat="42.492243" lon="1.651679">
        <ele>2452.9</ele>
        <time>2013-08-08T13:12:53Z</time>
      </trkpt>
      <trkpt lat="42.492327" lon="1.651748">
        <ele>2452.6</ele>
        <time>2013-08-08T13:13:00Z</time>
      </trkpt>
      <trkpt lat="42.492342" lon="1.651803">
        <ele>2452.1</ele>
        <time>2013-08-08T13:13:03Z</time>
      </trkpt>
      <trkpt lat="42.492406" lon="1.651882">
        <ele>2452.6</ele>
        <time>2013-08-08T13:13:12Z</time>
      </trkpt>
      <trkpt lat="42.492412" lon="1.651883">
        <ele>2452.8</ele>
        <time>2013-08-08T13:13:14Z</time>
      </trkpt>
      <trkpt lat="42.492467" lon="1.651834">
        <ele>2454.4</ele>
        <time>2013-08-08T13:13:21Z</time>
      </trkpt>
      <trkpt lat="42.492542" lon="1.651727">
        <ele>2456.7</ele>
        <time>2013-08-08T13:13:29Z</time>
      </trkpt>
      <trkpt lat="42.492612" lon="1.651597">
        <ele>2458.5</ele>
        <time>2013-08-08T13:13:39Z</time>
      </trkpt>
      <trkpt lat="42.492641" lon="1.651514">
        <ele>2459.3</ele>
        <time>2013-08-08T13:13:45Z</time>
      </trkpt>
      <trkpt lat="42.492678" lon="1.651460">
        <ele>2459.8</ele>
        <time>2013-08-08T13:13:50Z</time>
      </trkpt>
      <trkpt lat="42.492726" lon="1.651405">
        <ele>2460.0</ele>
        <time>2013-08-08T13:13:56Z</time>
      </trkpt>
      <trkpt lat="42.492772" lon="1.651385">
        <ele>2460.0</ele>
        <time>2013-08-08T13:14:00Z</time>
      </trkpt>
      <trkpt lat="42.492923" lon="1.651334">
        <ele>2460.3</ele>
        <time>2013-08-08T13:14:12Z</time>
      </trkpt>
      <trkpt lat="42.493095" lon="1.651264">
        <ele>2460.8</ele>
        <time>2013-08-08T13:14:24Z</time>
      </trkpt>
      <trkpt lat="42.493197" lon="1.651210">
        <ele>2461.2</ele>
        <time>2013-08-08T13:14:32Z</time>
      </trkpt>
      <trkpt lat="42.493349" lon="1.651203">
        <ele>2461.0</ele>
        <time>2013-08-08T13:14:44Z</time>
      </trkpt>
      <trkpt lat="42.493383" lon="1.651175">
        <ele>2461.0</ele>
        <time>2013-08-08T13:14:47Z</time>
      </trkpt>
      <trkpt lat="42.493471" lon="1.651152">
        <ele>2460.8</ele>
        <time>2013-08-08T13:14:55Z</time>
      </trkpt>
      <trkpt lat="42.493548" lon="1.651238">
        <ele>2460.2</ele>
        <time>2013-08-08T13:15:05Z</time>
      </trkpt>
      <trkpt lat="42.493554" lon="1.651255">
        <ele>2460.2</ele>
        <time>2013-08-08T13:15:06Z</time>
      </trkpt>
      <trkpt lat="42.493609" lon="1.651339">
        <ele>2460.0</ele>
        <time>2013-08-08T13:15:15Z</time>
      </trkpt>
      <trkpt lat="42.493584" lon="1.651338">
        <ele>2460.0</ele>
        <time>2013-08-08T13:15:25Z</time>
      </trkpt>
      <trkpt lat="42.493584" lon="1.651338">
        <ele>2460.0</ele>
        <time>2013-08-08T13:15:41Z</time>
      </trkpt>
      <trkpt lat="42.493621" lon="1.651363">
        <ele>2460.0</ele>
        <time>2013-08-08T13:15:45Z</time>
      </trkpt>
      <trkpt lat="42.493607" lon="1.651413">
        <ele>2460.2</ele>
        <time>2013-08-08T13:15:52Z</time>
      </trkpt>
      <trkpt lat="42.493577" lon="1.651476">
        <ele>2460.9</ele>
        <time>2013-08-08T13:16:04Z</time>
      </trkpt>
      <trkpt lat="42.493573" lon="1.651493">
        <ele>2461.0</ele>
        <time>2013-08-08T13:16:07Z</time>
      </trkpt>
      <trkpt lat="42.493561" lon="1.651522">
        <ele>2461.3</ele>
        <time>2013-08-08T13:16:10Z</time>
      </trkpt>
      <trkpt lat="42.493540" lon="1.651565">
        <ele>2461.8</ele>
        <time>2013-08-08T13:16:14Z</time>
      </trkpt>
      <trkpt lat="42.493518" lon="1.651587">
        <ele>2462.0</ele>
        <time>2013-08-08T13:16:17Z</time>
      </trkpt>
      <trkpt lat="42.493481" lon="1.651591">
        <ele>2461.9</ele>
        <time>2013-08-08T13:16:21Z</time>
      </trkpt>
      <trkpt lat="42.493446" lon="1.651592">
        <ele>2461.8</ele>
        <time>2013-08-08T13:16:24Z</time>
      </trkpt>
      <trkpt lat="42.493403" lon="1.651632">
        <ele>2462.0</ele>
        <time>2013-08-08T13:16:31Z</time>
      </trkpt>
      <trkpt lat="42.493338" lon="1.651704">
        <ele>2462.5</ele>
        <time>2013-08-08T13:16:41Z</time>
      </trkpt>
      <trkpt lat="42.493324" lon="1.651726">
        <ele>2462.8</ele>
        <time>2013-08-08T13:16:43Z</time>
      </trkpt>
      <trkpt lat="42.493249" lon="1.651789">
        <ele>2462.9</ele>
        <time>2013-08-08T13:16:54Z</time>
      </trkpt>
      <trkpt lat="42.493153" lon="1.651948">
        <ele>2463.0</ele>
        <time>2013-08-08T13:17:06Z</time>
      </trkpt>
      <trkpt lat="42.493081" lon="1.652030">
        <ele>2464.1</ele>
        <time>2013-08-08T13:17:14Z</time>
      </trkpt>
      <trkpt lat="42.493079" lon="1.652132">
        <ele>2466.4</ele>
        <time>2013-08-08T13:17:22Z</time>
      </trkpt>
      <trkpt lat="42.493117" lon="1.652157">
        <ele>2467.2</ele>
        <time>2013-08-08T13:17:28Z</time>
      </trkpt>
      <trkpt lat="42.493137" lon="1.652156">
        <ele>2467.3</ele>
        <time>2013-08-08T13:17:30Z</time>
      </trkpt>
      <trkpt lat="42.493174" lon="1.652152">
        <ele>2467.5</ele>
        <time>2013-08-08T13:17:34Z</time>
      </trkpt>
      <trkpt lat="42.493261" lon="1.652122">
        <ele>2467.4</ele>
        <time>2013-08-08T13:17:43Z</time>
      </trkpt>
      <trkpt lat="42.493310" lon="1.652118">
        <ele>2467.8</ele>
        <time>2013-08-08T13:17:49Z</time>
      </trkpt>
      <trkpt lat="42.493335" lon="1.652103">
        <ele>2467.7</ele>
        <time>2013-08-08T13:17:52Z</time>
      </trkpt>
      <trkpt lat="42.493358" lon="1.652112">
        <ele>2468.1</ele>
        <time>2013-08-08T13:17:55Z</time>
      </trkpt>
      <trkpt lat="42.493366" lon="1.652142">
        <ele>2468.8</ele>
        <time>2013-08-08T13:17:58Z</time>
      </trkpt>
      <trkpt lat="42.493454" lon="1.652202">
        <ele>2470.8</ele>
        <time>2013-08-08T13:18:09Z</time>
      </trkpt>
      <trkpt lat="42.493462" lon="1.652199">
        <ele>2470.8</ele>
        <time>2013-08-08T13:18:10Z</time>
      </trkpt>
      <trkpt lat="42.493498" lon="1.652228">
        <ele>2471.7</ele>
        <time>2013-08-08T13:18:16Z</time>
      </trkpt>
      <trkpt lat="42.493517" lon="1.652328">
        <ele>2474.1</ele>
        <time>2013-08-08T13:18:26Z</time>
      </trkpt>
      <trkpt lat="42.493540" lon="1.652355">
        <ele>2474.8</ele>
        <time>2013-08-08T13:18:29Z</time>
      </trkpt>
      <trkpt lat="42.493552" lon="1.652393">
        <ele>2475.6</ele>
        <time>2013-08-08T13:18:33Z</time>
      </trkpt>
      <trkpt lat="42.493564" lon="1.652497">
        <ele>2477.4</ele>
        <time>2013-08-08T13:18:41Z</time>
      </trkpt>
      <trkpt lat="42.493585" lon="1.652573">
        <ele>2478.7</ele>
        <time>2013-08-08T13:18:47Z</time>
      </trkpt>
      <trkpt lat="42.493592" lon="1.652634">
        <ele>2479.5</ele>
        <time>2013-08-08T13:18:52Z</time>
      </trkpt>
      <trkpt lat="42.493589" lon="1.652671">
        <ele>2479.8</ele>
        <time>2013-08-08T13:18:55Z</time>
      </trkpt>
      <trkpt lat="42.493594" lon="1.652708">
        <ele>2480.2</ele>
        <time>2013-08-08T13:18:58Z</time>
      </trkpt>
      <trkpt lat="42.493664" lon="1.652850">
        <ele>2481.8</ele>
        <time>2013-08-08T13:19:10Z</time>
      </trkpt>
      <trkpt lat="42.493680" lon="1.652879">
        <ele>2482.0</ele>
        <time>2013-08-08T13:19:13Z</time>
      </trkpt>
      <trkpt lat="42.493690" lon="1.652910">
        <ele>2482.1</ele>
        <time>2013-08-08T13:19:16Z</time>
      </trkpt>
      <trkpt lat="42.493711" lon="1.652955">
        <ele>2482.3</ele>
        <time>2013-08-08T13:19:20Z</time>
      </trkpt>
      <trkpt lat="42.493795" lon="1.653093">
        <ele>2482.6</ele>
        <time>2013-08-08T13:19:31Z</time>
      </trkpt>
      <trkpt lat="42.493797" lon="1.653121">
        <ele>2482.8</ele>
        <time>2013-08-08T13:19:35Z</time>
      </trkpt>
      <trkpt lat="42.493810" lon="1.653158">
        <ele>2483.1</ele>
        <time>2013-08-08T13:19:40Z</time>
      </trkpt>
      <trkpt lat="42.493820" lon="1.653188">
        <ele>2483.2</ele>
        <time>2013-08-08T13:19:43Z</time>
      </trkpt>
      <trkpt lat="42.493858" lon="1.653235">
        <ele>2483.1</ele>
        <time>2013-08-08T13:19:49Z</time>
      </trkpt>
      <trkpt lat="42.493880" lon="1.653255">
        <ele>2483.2</ele>
        <time>2013-08-08T13:19:52Z</time>
      </trkpt>
      <trkpt lat="42.493929" lon="1.653352">
        <ele>2483.7</ele>
        <time>2013-08-08T13:20:03Z</time>
      </trkpt>
      <trkpt lat="42.493945" lon="1.653390">
        <ele>2483.7</ele>
        <time>2013-08-08T13:20:07Z</time>
      </trkpt>
      <trkpt lat="42.494007" lon="1.653480">
        <ele>2483.4</ele>
        <time>2013-08-08T13:20:18Z</time>
      </trkpt>
      <trkpt lat="42.494026" lon="1.653507">
        <ele>2483.4</ele>
        <time>2013-08-08T13:20:21Z</time>
      </trkpt>
      <trkpt lat="42.494074" lon="1.653650">
        <ele>2484.4</ele>
        <time>2013-08-08T13:20:33Z</time>
      </trkpt>
      <trkpt lat="42.494082" lon="1.653690">
        <ele>2484.4</ele>
        <time>2013-08-08T13:20:36Z</time>
      </trkpt>
      <trkpt lat="42.494066" lon="1.653793">
        <ele>2485.0</ele>
        <time>2013-08-08T13:20:44Z</time>
      </trkpt>
      <trkpt lat="42.494041" lon="1.653857">
        <ele>2485.9</ele>
        <time>2013-08-08T13:20:48Z</time>
      </trkpt>
      <trkpt lat="42.494038" lon="1.654061">
        <ele>2487.4</ele>
        <time>2013-08-08T13:20:59Z</time>
      </trkpt>
      <trkpt lat="42.494025" lon="1.654222">
        <ele>2488.4</ele>
        <time>2013-08-08T13:21:10Z</time>
      </trkpt>
      <trkpt lat="42.494010" lon="1.654270">
        <ele>2489.4</ele>
        <time>2013-08-08T13:21:14Z</time>
      </trkpt>
      <trkpt lat="42.494038" lon="1.654333">
        <ele>2489.4</ele>
        <time>2013-08-08T13:21:19Z</time>
      </trkpt>
      <trkpt lat="42.494179" lon="1.654407">
        <ele>2486.9</ele>
        <time>2013-08-08T13:21:32Z</time>
      </trkpt>
      <trkpt lat="42.494310" lon="1.654471">
        <ele>2484.3</ele>
        <time>2013-08-08T13:21:45Z</time>
      </trkpt>
      <trkpt lat="42.494380" lon="1.654569">
        <ele>2482.6</ele>
        <time>2013-08-08T13:21:56Z</time>
      </trkpt>
      <trkpt lat="42.494388" lon="1.654594">
        <ele>2482.4</ele>
        <time>2013-08-08T13:21:58Z</time>
      </trkpt>
      <trkpt lat="42.494370" lon="1.654799">
        <ele>2482.8</ele>
        <time>2013-08-08T13:22:11Z</time>
      </trkpt>
      <trkpt lat="42.494352" lon="1.654853">
        <ele>2483.4</ele>
        <time>2013-08-08T13:22:15Z</time>
      </trkpt>
      <trkpt lat="42.494289" lon="1.655032">
        <ele>2486.4</ele>
        <time>2013-08-08T13:22:27Z</time>
      </trkpt>
      <trkpt lat="42.494276" lon="1.655205">
        <ele>2487.6</ele>
        <time>2013-08-08T13:22:38Z</time>
      </trkpt>
      <trkpt lat="42.494274" lon="1.655217">
        <ele>2487.7</ele>
        <time>2013-08-08T13:22:39Z</time>
      </trkpt>
      <trkpt lat="42.494272" lon="1.655243">
        <ele>2487.9</ele>
        <time>2013-08-08T13:22:41Z</time>
      </trkpt>
      <trkpt lat="42.494274" lon="1.655301">
        <ele>2488.1</ele>
        <time>2013-08-08T13:22:45Z</time>
      </trkpt>
      <trkpt lat="42.494296" lon="1.655362">
        <ele>2487.6</ele>
        <time>2013-08-08T13:22:49Z</time>
      </trkpt>
      <trkpt lat="42.494320" lon="1.655397">
        <ele>2486.6</ele>
        <time>2013-08-08T13:22:52Z</time>
      </trkpt>
      <trkpt lat="42.494359" lon="1.655471">
        <ele>2484.8</ele>
        <time>2013-08-08T13:23:04Z</time>
      </trkpt>
      <trkpt lat="42.494386" lon="1.655497">
        <ele>2483.7</ele>
        <time>2013-08-08T13:23:09Z</time>
      </trkpt>
      <trkpt lat="42.494400" lon="1.655510">
        <ele>2483.2</ele>
        <time>2013-08-08T13:23:11Z</time>
      </trkpt>
      <trkpt lat="42.494427" lon="1.655554">
        <ele>2482.3</ele>
        <time>2013-08-08T13:23:15Z</time>
      </trkpt>
      <trkpt lat="42.494534" lon="1.655681">
        <ele>2480.5</ele>
        <time>2013-08-08T13:23:28Z</time>
      </trkpt>
      <trkpt lat="42.494632" lon="1.655824">
        <ele>2481.0</ele>
        <time>2013-08-08T13:23:39Z</time>
      </trkpt>
      <trkpt lat="42.494671" lon="1.655889">
        <ele>2481.1</ele>
        <time>2013-08-08T13:23:44Z</time>
      </trkpt>
      <trkpt lat="42.494712" lon="1.655908">
        <ele>2481.3</ele>
        <time>2013-08-08T13:23:49Z</time>
      </trkpt>
      <trkpt lat="42.494761" lon="1.655950">
        <ele>2481.9</ele>
        <time>2013-08-08T13:24:00Z</time>
      </trkpt>
      <trkpt lat="42.494791" lon="1.655977">
        <ele>2482.7</ele>
        <time>2013-08-08T13:24:13Z</time>
      </trkpt>
      <trkpt lat="42.494832" lon="1.656041">
        <ele>2484.3</ele>
        <time>2013-08-08T13:24:19Z</time>
      </trkpt>
      <trkpt lat="42.494899" lon="1.656071">
        <ele>2485.8</ele>
        <time>2013-08-08T13:24:27Z</time>
      </trkpt>
      <trkpt lat="42.494901" lon="1.656111">
        <ele>2486.4</ele>
        <time>2013-08-08T13:24:30Z</time>
      </trkpt>
      <trkpt lat="42.494919" lon="1.656127">
        <ele>2486.9</ele>
        <time>2013-08-08T13:24:36Z</time>
      </trkpt>
      <trkpt lat="42.494903" lon="1.656197">
        <ele>2487.8</ele>
        <time>2013-08-08T13:24:41Z</time>
      </trkpt>
      <trkpt lat="42.494904" lon="1.656249">
        <ele>2488.5</ele>
        <time>2013-08-08T13:24:45Z</time>
      </trkpt>
      <trkpt lat="42.494903" lon="1.656264">
        <ele>2488.8</ele>
        <time>2013-08-08T13:24:47Z</time>
      </trkpt>
      <trkpt lat="42.494909" lon="1.656306">
        <ele>2489.4</ele>
        <time>2013-08-08T13:24:50Z</time>
      </trkpt>
      <trkpt lat="42.494894" lon="1.656356">
        <ele>2490.0</ele>
        <time>2013-08-08T13:24:54Z</time>
      </trkpt>
      <trkpt lat="42.494897" lon="1.656437">
        <ele>2491.2</ele>
        <time>2013-08-08T13:25:05Z</time>
      </trkpt>
      <trkpt lat="42.494909" lon="1.656499">
        <ele>2492.3</ele>
        <time>2013-08-08T13:25:11Z</time>
      </trkpt>
      <trkpt lat="42.494911" lon="1.656470">
        <ele>2484.0</ele>
        <time>2013-08-08T14:10:33Z</time>
      </trkpt>
      <trkpt lat="42.494886" lon="1.656587">
        <ele>2485.4</ele>
        <time>2013-08-08T14:10:44Z</time>
      </trkpt>
      <trkpt lat="42.494888" lon="1.656679">
        <ele>2485.2</ele>
        <time>2013-08-08T14:10:56Z</time>
      </trkpt>
      <trkpt lat="42.494938" lon="1.656750">
        <ele>2487.6</ele>
        <time>2013-08-08T14:11:08Z</time>
      </trkpt>
      <trkpt lat="42.494973" lon="1.656799">
        <ele>2489.2</ele>
        <time>2013-08-08T14:11:23Z</time>
      </trkpt>
      <trkpt lat="42.495018" lon="1.656813">
        <ele>2491.4</ele>
        <time>2013-08-08T14:11:34Z</time>
      </trkpt>
      <trkpt lat="42.495046" lon="1.656889">
        <ele>2493.1</ele>
        <time>2013-08-08T14:11:45Z</time>
      </trkpt>
      <trkpt lat="42.495078" lon="1.656950">
        <ele>2495.4</ele>
        <time>2013-08-08T14:11:58Z</time>
      </trkpt>
      <trkpt lat="42.495100" lon="1.657037">
        <ele>2496.0</ele>
        <time>2013-08-08T14:12:10Z</time>
      </trkpt>
      <trkpt lat="42.495150" lon="1.657091">
        <ele>2498.6</ele>
        <time>2013-08-08T14:12:23Z</time>
      </trkpt>
      <trkpt lat="42.495178" lon="1.657185">
        <ele>2500.6</ele>
        <time>2013-08-08T14:12:35Z</time>
      </trkpt>
      <trkpt lat="42.495177" lon="1.657195">
        <ele>2500.5</ele>
        <time>2013-08-08T14:12:36Z</time>
      </trkpt>
      <trkpt lat="42.495157" lon="1.657284">
        <ele>2499.4</ele>
        <time>2013-08-08T14:12:43Z</time>
      </trkpt>
      <trkpt lat="42.495143" lon="1.657361">
        <ele>2499.0</ele>
        <time>2013-08-08T14:12:50Z</time>
      </trkpt>
      <trkpt lat="42.495097" lon="1.657415">
        <ele>2501.4</ele>
        <time>2013-08-08T14:13:01Z</time>
      </trkpt>
      <trkpt lat="42.495107" lon="1.657475">
        <ele>2504.2</ele>
        <time>2013-08-08T14:13:11Z</time>
      </trkpt>
      <trkpt lat="42.495138" lon="1.657543">
        <ele>2506.2</ele>
        <time>2013-08-08T14:13:20Z</time>
      </trkpt>
      <trkpt lat="42.495160" lon="1.657604">
        <ele>2506.9</ele>
        <time>2013-08-08T14:13:28Z</time>
      </trkpt>
      <trkpt lat="42.495133" lon="1.657707">
        <ele>2509.1</ele>
        <time>2013-08-08T14:13:41Z</time>
      </trkpt>
      <trkpt lat="42.495138" lon="1.657727">
        <ele>2509.6</ele>
        <time>2013-08-08T14:13:43Z</time>
      </trkpt>
      <trkpt lat="42.495174" lon="1.657819">
        <ele>2511.6</ele>
        <time>2013-08-08T14:13:54Z</time>
      </trkpt>
      <trkpt lat="42.495195" lon="1.657894">
        <ele>2512.7</ele>
        <time>2013-08-08T14:14:01Z</time>
      </trkpt>
      <trkpt lat="42.495228" lon="1.658010">
        <ele>2513.9</ele>
        <time>2013-08-08T14:14:12Z</time>
      </trkpt>
      <trkpt lat="42.495223" lon="1.658020">
        <ele>2514.0</ele>
        <time>2013-08-08T14:14:20Z</time>
      </trkpt>
      <trkpt lat="42.495172" lon="1.658117">
        <ele>2514.6</ele>
        <time>2013-08-08T14:14:30Z</time>
      </trkpt>
      <trkpt lat="42.495176" lon="1.658125">
        <ele>2514.6</ele>
        <time>2013-08-08T14:14:32Z</time>
      </trkpt>
      <trkpt lat="42.495252" lon="1.658195">
        <ele>2514.9</ele>
        <time>2013-08-08T14:14:45Z</time>
      </trkpt>
      <trkpt lat="42.495314" lon="1.658277">
        <ele>2516.2</ele>
        <time>2013-08-08T14:14:55Z</time>
      </trkpt>
      <trkpt lat="42.495318" lon="1.658283">
        <ele>2516.3</ele>
        <time>2013-08-08T14:14:56Z</time>
      </trkpt>
      <trkpt lat="42.495400" lon="1.658358">
        <ele>2517.4</ele>
        <time>2013-08-08T14:15:08Z</time>
      </trkpt>
      <trkpt lat="42.495422" lon="1.658394">
        <ele>2517.7</ele>
        <time>2013-08-08T14:15:11Z</time>
      </trkpt>
      <trkpt lat="42.495431" lon="1.658517">
        <ele>2519.0</ele>
        <time>2013-08-08T14:15:20Z</time>
      </trkpt>
      <trkpt lat="42.495413" lon="1.658547">
        <ele>2519.8</ele>
        <time>2013-08-08T14:15:23Z</time>
      </trkpt>
      <trkpt lat="42.495407" lon="1.658570">
        <ele>2520.2</ele>
        <time>2013-08-08T14:15:26Z</time>
      </trkpt>
      <trkpt lat="42.495412" lon="1.658613">
        <ele>2520.3</ele>
        <time>2013-08-08T14:15:30Z</time>
      </trkpt>
      <trkpt lat="42.495430" lon="1.658681">
        <ele>2520.8</ele>
        <time>2013-08-08T14:15:35Z</time>
      </trkpt>
      <trkpt lat="42.495435" lon="1.658727">
        <ele>2521.1</ele>
        <time>2013-08-08T14:15:38Z</time>
      </trkpt>
      <trkpt lat="42.495448" lon="1.658798">
        <ele>2521.2</ele>
        <time>2013-08-08T14:15:43Z</time>
      </trkpt>
      <trkpt lat="42.495453" lon="1.658878">
        <ele>2521.7</ele>
        <time>2013-08-08T14:15:48Z</time>
      </trkpt>
      <trkpt lat="42.495459" lon="1.658919">
        <ele>2522.1</ele>
        <time>2013-08-08T14:15:51Z</time>
      </trkpt>
      <trkpt lat="42.495511" lon="1.659057">
        <ele>2524.0</ele>
        <time>2013-08-08T14:16:02Z</time>
      </trkpt>
      <trkpt lat="42.495534" lon="1.659118">
        <ele>2524.4</ele>
        <time>2013-08-08T14:16:06Z</time>
      </trkpt>
      <trkpt lat="42.495573" lon="1.659263">
        <ele>2524.6</ele>
        <time>2013-08-08T14:16:18Z</time>
      </trkpt>
      <trkpt lat="42.495569" lon="1.659274">
        <ele>2524.8</ele>
        <time>2013-08-08T14:16:19Z</time>
      </trkpt>
      <trkpt lat="42.495559" lon="1.659351">
        <ele>2525.2</ele>
        <time>2013-08-08T14:16:25Z</time>
      </trkpt>
      <trkpt lat="42.495557" lon="1.659418">
        <ele>2526.2</ele>
        <time>2013-08-08T14:16:31Z</time>
      </trkpt>
      <trkpt lat="42.495555" lon="1.659458">
        <ele>2527.1</ele>
        <time>2013-08-08T14:16:34Z</time>
      </trkpt>
      <trkpt lat="42.495556" lon="1.659556">
        <ele>2528.5</ele>
        <time>2013-08-08T14:16:45Z</time>
      </trkpt>
      <trkpt lat="42.495577" lon="1.659673">
        <ele>2526.5</ele>
        <time>2013-08-08T14:16:58Z</time>
      </trkpt>
      <trkpt lat="42.495577" lon="1.659721">
        <ele>2525.5</ele>
        <time>2013-08-08T14:17:02Z</time>
      </trkpt>
      <trkpt lat="42.495570" lon="1.659802">
        <ele>2525.4</ele>
        <time>2013-08-08T14:17:08Z</time>
      </trkpt>
      <trkpt lat="42.495534" lon="1.659928">
        <ele>2526.9</ele>
        <time>2013-08-08T14:17:20Z</time>
      </trkpt>
      <trkpt lat="42.495531" lon="1.659995">
        <ele>2526.6</ele>
        <time>2013-08-08T14:17:26Z</time>
      </trkpt>
      <trkpt lat="42.495513" lon="1.660096">
        <ele>2527.0</ele>
        <time>2013-08-08T14:17:37Z</time>
      </trkpt>
      <trkpt lat="42.495511" lon="1.660158">
        <ele>2527.4</ele>
        <time>2013-08-08T14:17:42Z</time>
      </trkpt>
      <trkpt lat="42.495515" lon="1.660216">
        <ele>2527.9</ele>
        <time>2013-08-08T14:17:46Z</time>
      </trkpt>
      <trkpt lat="42.495491" lon="1.660361">
        <ele>2528.9</ele>
        <time>2013-08-08T14:17:59Z</time>
      </trkpt>
      <trkpt lat="42.495494" lon="1.660391">
        <ele>2528.7</ele>
        <time>2013-08-08T14:18:04Z</time>
      </trkpt>
      <trkpt lat="42.495458" lon="1.660529">
        <ele>2529.7</ele>
        <time>2013-08-08T14:18:15Z</time>
      </trkpt>
      <trkpt lat="42.495423" lon="1.660570">
        <ele>2530.5</ele>
        <time>2013-08-08T14:18:25Z</time>
      </trkpt>
      <trkpt lat="42.495423" lon="1.660570">
        <ele>2530.5</ele>
        <time>2013-08-08T14:18:51Z</time>
      </trkpt>
      <trkpt lat="42.495423" lon="1.660570">
        <ele>2530.5</ele>
        <time>2013-08-08T14:19:02Z</time>
      </trkpt>
      <trkpt lat="42.495409" lon="1.660593">
        <ele>2530.6</ele>
        <time>2013-08-08T14:19:05Z</time>
      </trkpt>
      <trkpt lat="42.495388" lon="1.660632">
        <ele>2530.7</ele>
        <time>2013-08-08T14:19:13Z</time>
      </trkpt>
      <trkpt lat="42.495378" lon="1.660700">
        <ele>2530.4</ele>
        <time>2013-08-08T14:19:18Z</time>
      </trkpt>
      <trkpt lat="42.495375" lon="1.660747">
        <ele>2530.3</ele>
        <time>2013-08-08T14:19:21Z</time>
      </trkpt>
      <trkpt lat="42.495314" lon="1.660882">
        <ele>2530.4</ele>
        <time>2013-08-08T14:19:33Z</time>
      </trkpt>
      <trkpt lat="42.495274" lon="1.660977">
        <ele>2530.5</ele>
        <time>2013-08-08T14:19:43Z</time>
      </trkpt>
      <trkpt lat="42.495137" lon="1.661049">
        <ele>2532.4</ele>
        <time>2013-08-08T14:19:55Z</time>
      </trkpt>
      <trkpt lat="42.495045" lon="1.661120">
        <ele>2533.9</ele>
        <time>2013-08-08T14:20:04Z</time>
      </trkpt>
      <trkpt lat="42.494992" lon="1.661218">
        <ele>2534.5</ele>
        <time>2013-08-08T14:20:13Z</time>
      </trkpt>
      <trkpt lat="42.494971" lon="1.661269">
        <ele>2535.2</ele>
        <time>2013-08-08T14:20:18Z</time>
      </trkpt>
      <trkpt lat="42.494929" lon="1.661237">
        <ele>2535.5</ele>
        <time>2013-08-08T14:20:23Z</time>
      </trkpt>
      <trkpt lat="42.494810" lon="1.661254">
        <ele>2536.4</ele>
        <time>2013-08-08T14:20:35Z</time>
      </trkpt>
      <trkpt lat="42.494770" lon="1.661290">
        <ele>2536.7</ele>
        <time>2013-08-08T14:20:46Z</time>
      </trkpt>
      <trkpt lat="42.494770" lon="1.661290">
        <ele>2536.7</ele>
        <time>2013-08-08T14:21:10Z</time>
      </trkpt>
      <trkpt lat="42.494767" lon="1.661292">
        <ele>2536.7</ele>
        <time>2013-08-08T14:21:45Z</time>
      </trkpt>
      <trkpt lat="42.494754" lon="1.661290">
        <ele>2537.0</ele>
        <time>2013-08-08T14:21:47Z</time>
      </trkpt>
      <trkpt lat="42.494706" lon="1.661335">
        <ele>2537.3</ele>
        <time>2013-08-08T14:21:52Z</time>
      </trkpt>
      <trkpt lat="42.494651" lon="1.661371">
        <ele>2537.5</ele>
        <time>2013-08-08T14:22:05Z</time>
      </trkpt>
      <trkpt lat="42.494566" lon="1.661432">
        <ele>2537.5</ele>
        <time>2013-08-08T14:22:13Z</time>
      </trkpt>
      <trkpt lat="42.494475" lon="1.661473">
        <ele>2537.8</ele>
        <time>2013-08-08T14:22:19Z</time>
      </trkpt>
      <trkpt lat="42.494348" lon="1.661547">
        <ele>2537.9</ele>
        <time>2013-08-08T14:22:30Z</time>
      </trkpt>
      <trkpt lat="42.494212" lon="1.661714">
        <ele>2538.5</ele>
        <time>2013-08-08T14:22:43Z</time>
      </trkpt>
      <trkpt lat="42.494099" lon="1.661871">
        <ele>2539.4</ele>
        <time>2013-08-08T14:22:55Z</time>
      </trkpt>
      <trkpt lat="42.493958" lon="1.661979">
        <ele>2541.4</ele>
        <time>2013-08-08T14:23:07Z</time>
      </trkpt>
      <trkpt lat="42.493834" lon="1.662132">
        <ele>2543.2</ele>
        <time>2013-08-08T14:23:20Z</time>
      </trkpt>
      <trkpt lat="42.493709" lon="1.662275">
        <ele>2543.6</ele>
        <time>2013-08-08T14:23:32Z</time>
      </trkpt>
      <trkpt lat="42.493677" lon="1.662295">
        <ele>2543.5</ele>
        <time>2013-08-08T14:23:44Z</time>
      </trkpt>
      <trkpt lat="42.493626" lon="1.662315">
        <ele>2543.3</ele>
        <time>2013-08-08T14:23:53Z</time>
      </trkpt>
      <trkpt lat="42.493582" lon="1.662323">
        <ele>2543.3</ele>
        <time>2013-08-08T14:23:56Z</time>
      </trkpt>
      <trkpt lat="42.493438" lon="1.662528">
        <ele>2543.1</ele>
        <time>2013-08-08T14:24:09Z</time>
      </trkpt>
      <trkpt lat="42.493425" lon="1.662674">
        <ele>2543.2</ele>
        <time>2013-08-08T14:24:18Z</time>
      </trkpt>
      <trkpt lat="42.493313" lon="1.662911">
        <ele>2542.0</ele>
        <time>2013-08-08T14:24:32Z</time>
      </trkpt>
      <trkpt lat="42.493277" lon="1.663081">
        <ele>2540.0</ele>
        <time>2013-08-08T14:24:45Z</time>
      </trkpt>
      <trkpt lat="42.493240" lon="1.663130">
        <ele>2539.2</ele>
        <time>2013-08-08T14:24:54Z</time>
      </trkpt>
      <trkpt lat="42.493156" lon="1.663210">
        <ele>2538.2</ele>
        <time>2013-08-08T14:25:00Z</time>
      </trkpt>
      <trkpt lat="42.493090" lon="1.663318">
        <ele>2536.9</ele>
        <time>2013-08-08T14:25:06Z</time>
      </trkpt>
      <trkpt lat="42.493004" lon="1.663457">
        <ele>2535.8</ele>
        <time>2013-08-08T14:25:15Z</time>
      </trkpt>
      <trkpt lat="42.492871" lon="1.663642">
        <ele>2534.1</ele>
        <time>2013-08-08T14:25:30Z</time>
      </trkpt>
      <trkpt lat="42.492739" lon="1.663913">
        <ele>2533.3</ele>
        <time>2013-08-08T14:25:45Z</time>
      </trkpt>
      <trkpt lat="42.492645" lon="1.664052">
        <ele>2532.8</ele>
        <time>2013-08-08T14:25:57Z</time>
      </trkpt>
      <trkpt lat="42.492628" lon="1.664085">
        <ele>2532.4</ele>
        <time>2013-08-08T14:26:05Z</time>
      </trkpt>
      <trkpt lat="42.492625" lon="1.664114">
        <ele>2532.2</ele>
        <time>2013-08-08T14:26:19Z</time>
      </trkpt>
      <trkpt lat="42.492625" lon="1.664114">
        <ele>2532.2</ele>
        <time>2013-08-08T14:26:21Z</time>
      </trkpt>
      <trkpt lat="42.492513" lon="1.664149">
        <ele>2530.6</ele>
        <time>2013-08-08T14:26:32Z</time>
      </trkpt>
      <trkpt lat="42.492513" lon="1.664150">
        <ele>2530.6</ele>
        <time>2013-08-08T14:26:55Z</time>
      </trkpt>
      <trkpt lat="42.492510" lon="1.664157">
        <ele>2530.4</ele>
        <time>2013-08-08T14:27:08Z</time>
      </trkpt>
      <trkpt lat="42.492475" lon="1.664174">
        <ele>2529.5</ele>
        <time>2013-08-08T14:27:18Z</time>
      </trkpt>
      <trkpt lat="42.492387" lon="1.664195">
        <ele>2527.0</ele>
        <time>2013-08-08T14:27:27Z</time>
      </trkpt>
      <trkpt lat="42.492273" lon="1.664200">
        <ele>2523.8</ele>
        <time>2013-08-08T14:27:40Z</time>
      </trkpt>
      <trkpt lat="42.492212" lon="1.664185">
        <ele>2521.6</ele>
        <time>2013-08-08T14:27:51Z</time>
      </trkpt>
      <trkpt lat="42.492206" lon="1.664195">
        <ele>2521.0</ele>
        <time>2013-08-08T14:28:04Z</time>
      </trkpt>
      <trkpt lat="42.492228" lon="1.664394">
        <ele>2517.4</ele>
        <time>2013-08-08T14:28:18Z</time>
      </trkpt>
      <trkpt lat="42.492206" lon="1.664411">
        <ele>2516.5</ele>
        <time>2013-08-08T14:28:21Z</time>
      </trkpt>
      <trkpt lat="42.492181" lon="1.664466">
        <ele>2515.2</ele>
        <time>2013-08-08T14:28:27Z</time>
      </trkpt>
      <trkpt lat="42.492152" lon="1.664572">
        <ele>2513.1</ele>
        <time>2013-08-08T14:28:38Z</time>
      </trkpt>
      <trkpt lat="42.492092" lon="1.664590">
        <ele>2510.4</ele>
        <time>2013-08-08T14:28:49Z</time>
      </trkpt>
      <trkpt lat="42.492067" lon="1.664581">
        <ele>2509.4</ele>
        <time>2013-08-08T14:28:52Z</time>
      </trkpt>
      <trkpt lat="42.492032" lon="1.664585">
        <ele>2507.8</ele>
        <time>2013-08-08T14:28:56Z</time>
      </trkpt>
      <trkpt lat="42.491991" lon="1.664628">
        <ele>2505.3</ele>
        <time>2013-08-08T14:29:03Z</time>
      </trkpt>
      <trkpt lat="42.491964" lon="1.664673">
        <ele>2503.8</ele>
        <time>2013-08-08T14:29:07Z</time>
      </trkpt>
      <trkpt lat="42.491851" lon="1.664777">
        <ele>2499.1</ele>
        <time>2013-08-08T14:29:24Z</time>
      </trkpt>
      <trkpt lat="42.491818" lon="1.664795">
        <ele>2497.6</ele>
        <time>2013-08-08T14:29:29Z</time>
      </trkpt>
      <trkpt lat="42.491767" lon="1.664839">
        <ele>2495.8</ele>
        <time>2013-08-08T14:29:37Z</time>
      </trkpt>
      <trkpt lat="42.491729" lon="1.664855">
        <ele>2494.3</ele>
        <time>2013-08-08T14:29:41Z</time>
      </trkpt>
      <trkpt lat="42.491656" lon="1.664941">
        <ele>2490.8</ele>
        <time>2013-08-08T14:29:54Z</time>
      </trkpt>
      <trkpt lat="42.491625" lon="1.664992">
        <ele>2489.1</ele>
        <time>2013-08-08T14:30:07Z</time>
      </trkpt>
      <trkpt lat="42.491631" lon="1.665042">
        <ele>2488.3</ele>
        <time>2013-08-08T14:30:28Z</time>
      </trkpt>
      <trkpt lat="42.491605" lon="1.665078">
        <ele>2486.1</ele>
        <time>2013-08-08T14:30:40Z</time>
      </trkpt>
      <trkpt lat="42.491563" lon="1.665160">
        <ele>2481.7</ele>
        <time>2013-08-08T14:30:52Z</time>
      </trkpt>
      <trkpt lat="42.491541" lon="1.665193">
        <ele>2479.4</ele>
        <time>2013-08-08T14:31:01Z</time>
      </trkpt>
      <trkpt lat="42.491527" lon="1.665205">
        <ele>2477.9</ele>
        <time>2013-08-08T14:31:05Z</time>
      </trkpt>
      <trkpt lat="42.491547" lon="1.665241">
        <ele>2478.7</ele>
        <time>2013-08-08T14:31:17Z</time>
      </trkpt>
      <trkpt lat="42.491544" lon="1.665295">
        <ele>2477.2</ele>
        <time>2013-08-08T14:31:26Z</time>
      </trkpt>
      <trkpt lat="42.491550" lon="1.665334">
        <ele>2476.5</ele>
        <time>2013-08-08T14:31:29Z</time>
      </trkpt>
      <trkpt lat="42.491561" lon="1.665379">
        <ele>2475.6</ele>
        <time>2013-08-08T14:31:39Z</time>
      </trkpt>
      <trkpt lat="42.491565" lon="1.665389">
        <ele>2475.5</ele>
        <time>2013-08-08T14:31:51Z</time>
      </trkpt>
      <trkpt lat="42.491565" lon="1.665389">
        <ele>2475.5</ele>
        <time>2013-08-08T14:32:02Z</time>
      </trkpt>
      <trkpt lat="42.491555" lon="1.665438">
        <ele>2473.0</ele>
        <time>2013-08-08T14:32:06Z</time>
      </trkpt>
      <trkpt lat="42.491530" lon="1.665493">
        <ele>2469.4</ele>
        <time>2013-08-08T14:32:15Z</time>
      </trkpt>
      <trkpt lat="42.491474" lon="1.665577">
        <ele>2463.4</ele>
        <time>2013-08-08T14:32:27Z</time>
      </trkpt>
      <trkpt lat="42.491457" lon="1.665641">
        <ele>2460.2</ele>
        <time>2013-08-08T14:32:39Z</time>
      </trkpt>
      <trkpt lat="42.491391" lon="1.665715">
        <ele>2455.4</ele>
        <time>2013-08-08T14:32:48Z</time>
      </trkpt>
      <trkpt lat="42.491352" lon="1.665735">
        <ele>2453.4</ele>
        <time>2013-08-08T14:32:53Z</time>
      </trkpt>
      <trkpt lat="42.491252" lon="1.665723">
        <ele>2449.7</ele>
        <time>2013-08-08T14:33:05Z</time>
      </trkpt>
      <trkpt lat="42.491228" lon="1.665770">
        <ele>2447.6</ele>
        <time>2013-08-08T14:33:18Z</time>
      </trkpt>
      <trkpt lat="42.491225" lon="1.665870">
        <ele>2444.7</ele>
        <time>2013-08-08T14:33:28Z</time>
      </trkpt>
      <trkpt lat="42.491197" lon="1.665892">
        <ele>2442.9</ele>
        <time>2013-08-08T14:33:37Z</time>
      </trkpt>
      <trkpt lat="42.491192" lon="1.665921">
        <ele>2442.4</ele>
        <time>2013-08-08T14:33:42Z</time>
      </trkpt>
      <trkpt lat="42.491168" lon="1.665921">
        <ele>2441.2</ele>
        <time>2013-08-08T14:33:46Z</time>
      </trkpt>
      <trkpt lat="42.491096" lon="1.665874">
        <ele>2439.8</ele>
        <time>2013-08-08T14:33:56Z</time>
      </trkpt>
      <trkpt lat="42.490957" lon="1.665878">
        <ele>2435.1</ele>
        <time>2013-08-08T14:34:12Z</time>
      </trkpt>
      <trkpt lat="42.490904" lon="1.665874">
        <ele>2433.8</ele>
        <time>2013-08-08T14:34:18Z</time>
      </trkpt>
      <trkpt lat="42.490870" lon="1.665939">
        <ele>2431.5</ele>
        <time>2013-08-08T14:34:24Z</time>
      </trkpt>
      <trkpt lat="42.490912" lon="1.666024">
        <ele>2429.0</ele>
        <time>2013-08-08T14:34:36Z</time>
      </trkpt>
      <trkpt lat="42.490931" lon="1.666090">
        <ele>2427.2</ele>
        <time>2013-08-08T14:34:44Z</time>
      </trkpt>
      <trkpt lat="42.490987" lon="1.666187">
        <ele>2424.4</ele>
        <time>2013-08-08T14:34:58Z</time>
      </trkpt>
      <trkpt lat="42.490991" lon="1.666250">
        <ele>2423.7</ele>
        <time>2013-08-08T14:35:04Z</time>
      </trkpt>
      <trkpt lat="42.490991" lon="1.666285">
        <ele>2423.3</ele>
        <time>2013-08-08T14:35:10Z</time>
      </trkpt>
      <trkpt lat="42.490971" lon="1.666370">
        <ele>2421.3</ele>
        <time>2013-08-08T14:35:22Z</time>
      </trkpt>
      <trkpt lat="42.490956" lon="1.666488">
        <ele>2418.9</ele>
        <time>2013-08-08T14:35:35Z</time>
      </trkpt>
      <trkpt lat="42.490937" lon="1.666506">
        <ele>2417.6</ele>
        <time>2013-08-08T14:35:37Z</time>
      </trkpt>
      <trkpt lat="42.490961" lon="1.666683">
        <ele>2417.1</ele>
        <time>2013-08-08T14:35:49Z</time>
      </trkpt>
      <trkpt lat="42.490924" lon="1.666810">
        <ele>2413.2</ele>
        <time>2013-08-08T14:36:01Z</time>
      </trkpt>
      <trkpt lat="42.490919" lon="1.666824">
        <ele>2412.7</ele>
        <time>2013-08-08T14:36:03Z</time>
      </trkpt>
      <trkpt lat="42.490917" lon="1.666883">
        <ele>2411.7</ele>
        <time>2013-08-08T14:36:08Z</time>
      </trkpt>
      <trkpt lat="42.490907" lon="1.666943">
        <ele>2410.1</ele>
        <time>2013-08-08T14:36:13Z</time>
      </trkpt>
      <trkpt lat="42.490901" lon="1.666988">
        <ele>2408.8</ele>
        <time>2013-08-08T14:36:17Z</time>
      </trkpt>
      <trkpt lat="42.490889" lon="1.667047">
        <ele>2406.8</ele>
        <time>2013-08-08T14:36:23Z</time>
      </trkpt>
      <trkpt lat="42.490891" lon="1.667175">
        <ele>2403.1</ele>
        <time>2013-08-08T14:36:35Z</time>
      </trkpt>
      <trkpt lat="42.490851" lon="1.667349">
        <ele>2399.9</ele>
        <time>2013-08-08T14:36:45Z</time>
      </trkpt>
      <trkpt lat="42.490817" lon="1.667433">
        <ele>2398.8</ele>
        <time>2013-08-08T14:36:51Z</time>
      </trkpt>
      <trkpt lat="42.490715" lon="1.667530">
        <ele>2396.5</ele>
        <time>2013-08-08T14:37:02Z</time>
      </trkpt>
      <trkpt lat="42.490625" lon="1.667568">
        <ele>2393.3</ele>
        <time>2013-08-08T14:37:15Z</time>
      </trkpt>
      <trkpt lat="42.490574" lon="1.667581">
        <ele>2391.4</ele>
        <time>2013-08-08T14:37:23Z</time>
      </trkpt>
      <trkpt lat="42.490484" lon="1.667621">
        <ele>2387.7</ele>
        <time>2013-08-08T14:37:35Z</time>
      </trkpt>
      <trkpt lat="42.490430" lon="1.667674">
        <ele>2385.5</ele>
        <time>2013-08-08T14:37:47Z</time>
      </trkpt>
      <trkpt lat="42.490407" lon="1.667794">
        <ele>2383.8</ele>
        <time>2013-08-08T14:37:59Z</time>
      </trkpt>
      <trkpt lat="42.490415" lon="1.667835">
        <ele>2384.0</ele>
        <time>2013-08-08T14:38:08Z</time>
      </trkpt>
      <trkpt lat="42.490391" lon="1.667952">
        <ele>2382.4</ele>
        <time>2013-08-08T14:38:20Z</time>
      </trkpt>
      <trkpt lat="42.490378" lon="1.667992">
        <ele>2381.6</ele>
        <time>2013-08-08T14:38:23Z</time>
      </trkpt>
      <trkpt lat="42.490371" lon="1.668106">
        <ele>2380.7</ele>
        <time>2013-08-08T14:38:35Z</time>
      </trkpt>
      <trkpt lat="42.490375" lon="1.668127">
        <ele>2380.8</ele>
        <time>2013-08-08T14:38:38Z</time>
      </trkpt>
      <trkpt lat="42.490381" lon="1.668158">
        <ele>2380.9</ele>
        <time>2013-08-08T14:38:40Z</time>
      </trkpt>
      <trkpt lat="42.490345" lon="1.668339">
        <ele>2377.2</ele>
        <time>2013-08-08T14:38:51Z</time>
      </trkpt>
      <trkpt lat="42.490207" lon="1.668484">
        <ele>2372.7</ele>
        <time>2013-08-08T14:39:05Z</time>
      </trkpt>
      <trkpt lat="42.490106" lon="1.668571">
        <ele>2370.0</ele>
        <time>2013-08-08T14:39:13Z</time>
      </trkpt>
      <trkpt lat="42.490053" lon="1.668625">
        <ele>2368.8</ele>
        <time>2013-08-08T14:39:19Z</time>
      </trkpt>
      <trkpt lat="42.489976" lon="1.668692">
        <ele>2367.1</ele>
        <time>2013-08-08T14:39:28Z</time>
      </trkpt>
      <trkpt lat="42.489947" lon="1.668719">
        <ele>2366.4</ele>
        <time>2013-08-08T14:39:31Z</time>
      </trkpt>
      <trkpt lat="42.489812" lon="1.668845">
        <ele>2363.2</ele>
        <time>2013-08-08T14:39:44Z</time>
      </trkpt>
      <trkpt lat="42.489672" lon="1.669008">
        <ele>2360.0</ele>
        <time>2013-08-08T14:39:59Z</time>
      </trkpt>
      <trkpt lat="42.489552" lon="1.669167">
        <ele>2357.5</ele>
        <time>2013-08-08T14:40:13Z</time>
      </trkpt>
      <trkpt lat="42.489512" lon="1.669216">
        <ele>2356.8</ele>
        <time>2013-08-08T14:40:17Z</time>
      </trkpt>
      <trkpt lat="42.489383" lon="1.669395">
        <ele>2355.2</ele>
        <time>2013-08-08T14:40:31Z</time>
      </trkpt>
      <trkpt lat="42.489271" lon="1.669559">
        <ele>2354.1</ele>
        <time>2013-08-08T14:40:44Z</time>
      </trkpt>
      <trkpt lat="42.489216" lon="1.669678">
        <ele>2353.2</ele>
        <time>2013-08-08T14:40:53Z</time>
      </trkpt>
      <trkpt lat="42.489148" lon="1.669947">
        <ele>2351.9</ele>
        <time>2013-08-08T14:41:07Z</time>
      </trkpt>
      <trkpt lat="42.489123" lon="1.670027">
        <ele>2351.3</ele>
        <time>2013-08-08T14:41:15Z</time>
      </trkpt>
      <trkpt lat="42.489097" lon="1.670070">
        <ele>2350.8</ele>
        <time>2013-08-08T14:41:18Z</time>
      </trkpt>
      <trkpt lat="42.489089" lon="1.670119">
        <ele>2350.8</ele>
        <time>2013-08-08T14:41:26Z</time>
      </trkpt>
      <trkpt lat="42.489086" lon="1.670163">
        <ele>2350.8</ele>
        <time>2013-08-08T14:41:34Z</time>
      </trkpt>
      <trkpt lat="42.489093" lon="1.670273">
        <ele>2350.7</ele>
        <time>2013-08-08T14:41:40Z</time>
      </trkpt>
      <trkpt lat="42.489058" lon="1.670508">
        <ele>2350.1</ele>
        <time>2013-08-08T14:41:53Z</time>
      </trkpt>
      <trkpt lat="42.488965" lon="1.670740">
        <ele>2349.1</ele>
        <time>2013-08-08T14:42:08Z</time>
      </trkpt>
      <trkpt lat="42.488960" lon="1.670756">
        <ele>2349.0</ele>
        <time>2013-08-08T14:42:09Z</time>
      </trkpt>
      <trkpt lat="42.488875" lon="1.670992">
        <ele>2347.3</ele>
        <time>2013-08-08T14:42:24Z</time>
      </trkpt>
      <trkpt lat="42.488800" lon="1.671109">
        <ele>2345.5</ele>
        <time>2013-08-08T14:42:34Z</time>
      </trkpt>
      <trkpt lat="42.488804" lon="1.671290">
        <ele>2345.1</ele>
        <time>2013-08-08T14:42:45Z</time>
      </trkpt>
      <trkpt lat="42.488852" lon="1.671459">
        <ele>2343.1</ele>
        <time>2013-08-08T14:42:56Z</time>
      </trkpt>
      <trkpt lat="42.488860" lon="1.671547">
        <ele>2341.6</ele>
        <time>2013-08-08T14:43:01Z</time>
      </trkpt>
      <trkpt lat="42.488886" lon="1.671628">
        <ele>2341.1</ele>
        <time>2013-08-08T14:43:06Z</time>
      </trkpt>
      <trkpt lat="42.488853" lon="1.671782">
        <ele>2340.8</ele>
        <time>2013-08-08T14:43:17Z</time>
      </trkpt>
      <trkpt lat="42.488787" lon="1.671867">
        <ele>2338.4</ele>
        <time>2013-08-08T14:43:25Z</time>
      </trkpt>
      <trkpt lat="42.488727" lon="1.671896">
        <ele>2336.6</ele>
        <time>2013-08-08T14:43:30Z</time>
      </trkpt>
      <trkpt lat="42.488667" lon="1.672018">
        <ele>2334.2</ele>
        <time>2013-08-08T14:43:40Z</time>
      </trkpt>
      <trkpt lat="42.488655" lon="1.672076">
        <ele>2333.5</ele>
        <time>2013-08-08T14:43:45Z</time>
      </trkpt>
      <trkpt lat="42.488641" lon="1.672229">
        <ele>2332.3</ele>
        <time>2013-08-08T14:43:55Z</time>
      </trkpt>
      <trkpt lat="42.488622" lon="1.672298">
        <ele>2331.0</ele>
        <time>2013-08-08T14:44:01Z</time>
      </trkpt>
      <trkpt lat="42.488594" lon="1.672396">
        <ele>2329.4</ele>
        <time>2013-08-08T14:44:09Z</time>
      </trkpt>
      <trkpt lat="42.488575" lon="1.672416">
        <ele>2329.0</ele>
        <time>2013-08-08T14:44:11Z</time>
      </trkpt>
      <trkpt lat="42.488569" lon="1.672587">
        <ele>2326.7</ele>
        <time>2013-08-08T14:44:22Z</time>
      </trkpt>
      <trkpt lat="42.488555" lon="1.672656">
        <ele>2325.5</ele>
        <time>2013-08-08T14:44:26Z</time>
      </trkpt>
      <trkpt lat="42.488525" lon="1.672810">
        <ele>2323.3</ele>
        <time>2013-08-08T14:44:35Z</time>
      </trkpt>
      <trkpt lat="42.488502" lon="1.672978">
        <ele>2321.9</ele>
        <time>2013-08-08T14:44:47Z</time>
      </trkpt>
      <trkpt lat="42.488521" lon="1.673116">
        <ele>2321.0</ele>
        <time>2013-08-08T14:44:55Z</time>
      </trkpt>
      <trkpt lat="42.488536" lon="1.673262">
        <ele>2320.6</ele>
        <time>2013-08-08T14:45:01Z</time>
      </trkpt>
      <trkpt lat="42.488542" lon="1.673498">
        <ele>2318.0</ele>
        <time>2013-08-08T14:45:15Z</time>
      </trkpt>
      <trkpt lat="42.488507" lon="1.673763">
        <ele>2315.2</ele>
        <time>2013-08-08T14:45:27Z</time>
      </trkpt>
      <trkpt lat="42.488501" lon="1.673804">
        <ele>2314.7</ele>
        <time>2013-08-08T14:45:29Z</time>
      </trkpt>
      <trkpt lat="42.488506" lon="1.674022">
        <ele>2311.8</ele>
        <time>2013-08-08T14:45:42Z</time>
      </trkpt>
      <trkpt lat="42.488533" lon="1.674223">
        <ele>2309.4</ele>
        <time>2013-08-08T14:45:56Z</time>
      </trkpt>
      <trkpt lat="42.488589" lon="1.674631">
        <ele>2306.5</ele>
        <time>2013-08-08T14:46:14Z</time>
      </trkpt>
      <trkpt lat="42.488610" lon="1.674756">
        <ele>2305.2</ele>
        <time>2013-08-08T14:46:22Z</time>
      </trkpt>
      <trkpt lat="42.488589" lon="1.674944">
        <ele>2306.0</ele>
        <time>2013-08-08T14:46:34Z</time>
      </trkpt>
      <trkpt lat="42.488588" lon="1.674955">
        <ele>2306.1</ele>
        <time>2013-08-08T14:46:35Z</time>
      </trkpt>
      <trkpt lat="42.488596" lon="1.675192">
        <ele>2306.0</ele>
        <time>2013-08-08T14:46:49Z</time>
      </trkpt>
      <trkpt lat="42.488591" lon="1.675317">
        <ele>2304.9</ele>
        <time>2013-08-08T14:46:57Z</time>
      </trkpt>
      <trkpt lat="42.488602" lon="1.675446">
        <ele>2303.1</ele>
        <time>2013-08-08T14:47:04Z</time>
      </trkpt>
      <trkpt lat="42.488595" lon="1.675533">
        <ele>2301.4</ele>
        <time>2013-08-08T14:47:11Z</time>
      </trkpt>
      <trkpt lat="42.488563" lon="1.675782">
        <ele>2297.4</ele>
        <time>2013-08-08T14:47:24Z</time>
      </trkpt>
      <trkpt lat="42.488555" lon="1.675845">
        <ele>2296.3</ele>
        <time>2013-08-08T14:47:32Z</time>
      </trkpt>
      <trkpt lat="42.488547" lon="1.675956">
        <ele>2294.2</ele>
        <time>2013-08-08T14:52:06Z</time>
      </trkpt>
      <trkpt lat="42.488523" lon="1.676095">
        <ele>2291.3</ele>
        <time>2013-08-08T14:52:18Z</time>
      </trkpt>
      <trkpt lat="42.488507" lon="1.676170">
        <ele>2289.5</ele>
        <time>2013-08-08T14:52:24Z</time>
      </trkpt>
      <trkpt lat="42.488513" lon="1.676201">
        <ele>2288.9</ele>
        <time>2013-08-08T14:52:26Z</time>
      </trkpt>
      <trkpt lat="42.488489" lon="1.676314">
        <ele>2287.0</ele>
        <time>2013-08-08T14:52:33Z</time>
      </trkpt>
      <trkpt lat="42.488459" lon="1.676372">
        <ele>2286.3</ele>
        <time>2013-08-08T14:52:39Z</time>
      </trkpt>
      <trkpt lat="42.488348" lon="1.676509">
        <ele>2283.8</ele>
        <time>2013-08-08T14:52:53Z</time>
      </trkpt>
      <trkpt lat="42.488313" lon="1.676664">
        <ele>2281.4</ele>
        <time>2013-08-08T14:53:04Z</time>
      </trkpt>
      <trkpt lat="42.488323" lon="1.676858">
        <ele>2280.3</ele>
        <time>2013-08-08T14:53:18Z</time>
      </trkpt>
      <trkpt lat="42.488330" lon="1.676975">
        <ele>2278.3</ele>
        <time>2013-08-08T14:53:29Z</time>
      </trkpt>
      <trkpt lat="42.488341" lon="1.677054">
        <ele>2278.1</ele>
        <time>2013-08-08T14:53:40Z</time>
      </trkpt>
      <trkpt lat="42.488355" lon="1.677190">
        <ele>2278.8</ele>
        <time>2013-08-08T14:53:50Z</time>
      </trkpt>
      <trkpt lat="42.488316" lon="1.677361">
        <ele>2278.1</ele>
        <time>2013-08-08T14:53:59Z</time>
      </trkpt>
      <trkpt lat="42.488319" lon="1.677455">
        <ele>2278.0</ele>
        <time>2013-08-08T14:54:04Z</time>
      </trkpt>
      <trkpt lat="42.488304" lon="1.677511">
        <ele>2277.5</ele>
        <time>2013-08-08T14:54:08Z</time>
      </trkpt>
      <trkpt lat="42.488297" lon="1.677562">
        <ele>2277.1</ele>
        <time>2013-08-08T14:54:11Z</time>
      </trkpt>
      <trkpt lat="42.488324" lon="1.677696">
        <ele>2277.2</ele>
        <time>2013-08-08T14:54:23Z</time>
      </trkpt>
      <trkpt lat="42.488310" lon="1.677900">
        <ele>2275.0</ele>
        <time>2013-08-08T14:54:35Z</time>
      </trkpt>
      <trkpt lat="42.488296" lon="1.678086">
        <ele>2272.9</ele>
        <time>2013-08-08T14:54:46Z</time>
      </trkpt>
      <trkpt lat="42.488332" lon="1.678148">
        <ele>2273.4</ele>
        <time>2013-08-08T14:54:52Z</time>
      </trkpt>
      <trkpt lat="42.488341" lon="1.678198">
        <ele>2273.0</ele>
        <time>2013-08-08T14:54:55Z</time>
      </trkpt>
      <trkpt lat="42.488388" lon="1.678431">
        <ele>2272.5</ele>
        <time>2013-08-08T14:55:08Z</time>
      </trkpt>
      <trkpt lat="42.488404" lon="1.678650">
        <ele>2271.5</ele>
        <time>2013-08-08T14:55:20Z</time>
      </trkpt>
      <trkpt lat="42.488422" lon="1.678908">
        <ele>2269.5</ele>
        <time>2013-08-08T14:55:33Z</time>
      </trkpt>
      <trkpt lat="42.488433" lon="1.679167">
        <ele>2267.8</ele>
        <time>2013-08-08T14:55:47Z</time>
      </trkpt>
      <trkpt lat="42.488400" lon="1.679455">
        <ele>2264.7</ele>
        <time>2013-08-08T14:56:02Z</time>
      </trkpt>
      <trkpt lat="42.488400" lon="1.679475">
        <ele>2264.6</ele>
        <time>2013-08-08T14:56:03Z</time>
      </trkpt>
      <trkpt lat="42.488373" lon="1.679574">
        <ele>2264.4</ele>
        <time>2013-08-08T14:56:10Z</time>
      </trkpt>
      <trkpt lat="42.488322" lon="1.679635">
        <ele>2265.4</ele>
        <time>2013-08-08T14:56:16Z</time>
      </trkpt>
      <trkpt lat="42.488287" lon="1.679678">
        <ele>2265.8</ele>
        <time>2013-08-08T14:56:21Z</time>
      </trkpt>
      <trkpt lat="42.488196" lon="1.679859">
        <ele>2265.5</ele>
        <time>2013-08-08T14:56:33Z</time>
      </trkpt>
      <trkpt lat="42.488145" lon="1.679941">
        <ele>2265.2</ele>
        <time>2013-08-08T14:56:39Z</time>
      </trkpt>
      <trkpt lat="42.488104" lon="1.680170">
        <ele>2264.6</ele>
        <time>2013-08-08T14:56:53Z</time>
      </trkpt>
      <trkpt lat="42.488100" lon="1.680230">
        <ele>2264.4</ele>
        <time>2013-08-08T14:56:56Z</time>
      </trkpt>
      <trkpt lat="42.488094" lon="1.680363">
        <ele>2262.7</ele>
        <time>2013-08-08T14:57:07Z</time>
      </trkpt>
      <trkpt lat="42.488087" lon="1.680418">
        <ele>2262.0</ele>
        <time>2013-08-08T14:57:10Z</time>
      </trkpt>
      <trkpt lat="42.488075" lon="1.680475">
        <ele>2261.1</ele>
        <time>2013-08-08T14:57:13Z</time>
      </trkpt>
      <trkpt lat="42.488073" lon="1.680552">
        <ele>2260.0</ele>
        <time>2013-08-08T14:57:18Z</time>
      </trkpt>
      <trkpt lat="42.488059" lon="1.680721">
        <ele>2259.5</ele>
        <time>2013-08-08T14:57:31Z</time>
      </trkpt>
      <trkpt lat="42.488042" lon="1.680803">
        <ele>2259.3</ele>
        <time>2013-08-08T14:57:44Z</time>
      </trkpt>
      <trkpt lat="42.487985" lon="1.680977">
        <ele>2258.8</ele>
        <time>2013-08-08T14:57:57Z</time>
      </trkpt>
      <trkpt lat="42.487913" lon="1.681120">
        <ele>2256.3</ele>
        <time>2013-08-08T14:58:07Z</time>
      </trkpt>
      <trkpt lat="42.487854" lon="1.681293">
        <ele>2253.9</ele>
        <time>2013-08-08T14:58:19Z</time>
      </trkpt>
      <trkpt lat="42.487839" lon="1.681323">
        <ele>2253.5</ele>
        <time>2013-08-08T14:58:22Z</time>
      </trkpt>
      <trkpt lat="42.487823" lon="1.681373">
        <ele>2253.3</ele>
        <time>2013-08-08T14:58:25Z</time>
      </trkpt>
      <trkpt lat="42.487811" lon="1.681456">
        <ele>2254.0</ele>
        <time>2013-08-08T14:58:31Z</time>
      </trkpt>
      <trkpt lat="42.487763" lon="1.681563">
        <ele>2252.2</ele>
        <time>2013-08-08T14:58:40Z</time>
      </trkpt>
      <trkpt lat="42.487713" lon="1.681780">
        <ele>2252.8</ele>
        <time>2013-08-08T14:58:54Z</time>
      </trkpt>
      <trkpt lat="42.487701" lon="1.681877">
        <ele>2253.4</ele>
        <time>2013-08-08T14:58:59Z</time>
      </trkpt>
      <trkpt lat="42.487694" lon="1.682126">
        <ele>2254.3</ele>
        <time>2013-08-08T14:59:11Z</time>
      </trkpt>
      <trkpt lat="42.487723" lon="1.682362">
        <ele>2254.6</ele>
        <time>2013-08-08T14:59:24Z</time>
      </trkpt>
      <trkpt lat="42.487686" lon="1.682554">
        <ele>2253.3</ele>
        <time>2013-08-08T14:59:35Z</time>
      </trkpt>
      <trkpt lat="42.487644" lon="1.682725">
        <ele>2252.2</ele>
        <time>2013-08-08T14:59:46Z</time>
      </trkpt>
      <trkpt lat="42.487634" lon="1.682826">
        <ele>2251.9</ele>
        <time>2013-08-08T14:59:52Z</time>
      </trkpt>
      <trkpt lat="42.487661" lon="1.683019">
        <ele>2251.0</ele>
        <time>2013-08-08T15:00:05Z</time>
      </trkpt>
      <trkpt lat="42.487660" lon="1.683060">
        <ele>2250.2</ele>
        <time>2013-08-08T15:00:07Z</time>
      </trkpt>
      <trkpt lat="42.487660" lon="1.683182">
        <ele>2248.1</ele>
        <time>2013-08-08T15:00:15Z</time>
      </trkpt>
      <trkpt lat="42.487654" lon="1.683284">
        <ele>2247.8</ele>
        <time>2013-08-08T15:00:21Z</time>
      </trkpt>
      <trkpt lat="42.487674" lon="1.683433">
        <ele>2245.7</ele>
        <time>2013-08-08T15:00:33Z</time>
      </trkpt>
      <trkpt lat="42.487673" lon="1.683447">
        <ele>2245.5</ele>
        <time>2013-08-08T15:00:34Z</time>
      </trkpt>
      <trkpt lat="42.487655" lon="1.683534">
        <ele>2244.1</ele>
        <time>2013-08-08T15:00:44Z</time>
      </trkpt>
      <trkpt lat="42.487650" lon="1.683590">
        <ele>2243.2</ele>
        <time>2013-08-08T15:00:47Z</time>
      </trkpt>
      <trkpt lat="42.487605" lon="1.683737">
        <ele>2240.7</ele>
        <time>2013-08-08T15:00:57Z</time>
      </trkpt>
      <trkpt lat="42.487559" lon="1.683822">
        <ele>2238.7</ele>
        <time>2013-08-08T15:01:04Z</time>
      </trkpt>
      <trkpt lat="42.487515" lon="1.683981">
        <ele>2236.4</ele>
        <time>2013-08-08T15:01:16Z</time>
      </trkpt>
      <trkpt lat="42.487475" lon="1.684079">
        <ele>2235.3</ele>
        <time>2013-08-08T15:01:26Z</time>
      </trkpt>
      <trkpt lat="42.487486" lon="1.684209">
        <ele>2234.3</ele>
        <time>2013-08-08T15:01:36Z</time>
      </trkpt>
      <trkpt lat="42.487511" lon="1.684277">
        <ele>2233.3</ele>
        <time>2013-08-08T15:01:41Z</time>
      </trkpt>
      <trkpt lat="42.487484" lon="1.684432">
        <ele>2231.5</ele>
        <time>2013-08-08T15:01:53Z</time>
      </trkpt>
      <trkpt lat="42.487497" lon="1.684558">
        <ele>2228.6</ele>
        <time>2013-08-08T15:02:05Z</time>
      </trkpt>
      <trkpt lat="42.487479" lon="1.684571">
        <ele>2228.2</ele>
        <time>2013-08-08T15:02:07Z</time>
      </trkpt>
      <trkpt lat="42.487439" lon="1.684629">
        <ele>2226.9</ele>
        <time>2013-08-08T15:02:13Z</time>
      </trkpt>
      <trkpt lat="42.487448" lon="1.684673">
        <ele>2225.9</ele>
        <time>2013-08-08T15:02:24Z</time>
      </trkpt>
      <trkpt lat="42.487452" lon="1.684784">
        <ele>2223.2</ele>
        <time>2013-08-08T15:02:34Z</time>
      </trkpt>
      <trkpt lat="42.487444" lon="1.684822">
        <ele>2222.2</ele>
        <time>2013-08-08T15:02:37Z</time>
      </trkpt>
      <trkpt lat="42.487443" lon="1.684850">
        <ele>2221.6</ele>
        <time>2013-08-08T15:02:42Z</time>
      </trkpt>
      <trkpt lat="42.487434" lon="1.684996">
        <ele>2219.2</ele>
        <time>2013-08-08T15:02:52Z</time>
      </trkpt>
      <trkpt lat="42.487456" lon="1.685034">
        <ele>2218.8</ele>
        <time>2013-08-08T15:02:55Z</time>
      </trkpt>
      <trkpt lat="42.487479" lon="1.685078">
        <ele>2218.6</ele>
        <time>2013-08-08T15:02:59Z</time>
      </trkpt>
      <trkpt lat="42.487502" lon="1.685099">
        <ele>2218.7</ele>
        <time>2013-08-08T15:03:11Z</time>
      </trkpt>
      <trkpt lat="42.487521" lon="1.685208">
        <ele>2218.3</ele>
        <time>2013-08-08T15:03:20Z</time>
      </trkpt>
      <trkpt lat="42.487612" lon="1.685371">
        <ele>2217.8</ele>
        <time>2013-08-08T15:03:33Z</time>
      </trkpt>
      <trkpt lat="42.487616" lon="1.685391">
        <ele>2217.7</ele>
        <time>2013-08-08T15:03:35Z</time>
      </trkpt>
      <trkpt lat="42.487617" lon="1.685421">
        <ele>2217.6</ele>
        <time>2013-08-08T15:03:37Z</time>
      </trkpt>
      <trkpt lat="42.487650" lon="1.685575">
        <ele>2217.7</ele>
        <time>2013-08-08T15:03:50Z</time>
      </trkpt>
      <trkpt lat="42.487654" lon="1.685692">
        <ele>2217.5</ele>
        <time>2013-08-08T15:03:58Z</time>
      </trkpt>
      <trkpt lat="42.487656" lon="1.685834">
        <ele>2217.2</ele>
        <time>2013-08-08T15:04:09Z</time>
      </trkpt>
      <trkpt lat="42.487625" lon="1.685978">
        <ele>2215.6</ele>
        <time>2013-08-08T15:04:19Z</time>
      </trkpt>
      <trkpt lat="42.487592" lon="1.686129">
        <ele>2215.1</ele>
        <time>2013-08-08T15:04:30Z</time>
      </trkpt>
      <trkpt lat="42.487591" lon="1.686151">
        <ele>2214.9</ele>
        <time>2013-08-08T15:04:32Z</time>
      </trkpt>
      <trkpt lat="42.487587" lon="1.686184">
        <ele>2214.6</ele>
        <time>2013-08-08T15:04:34Z</time>
      </trkpt>
      <trkpt lat="42.487581" lon="1.686309">
        <ele>2214.4</ele>
        <time>2013-08-08T15:04:42Z</time>
      </trkpt>
      <trkpt lat="42.487572" lon="1.686420">
        <ele>2213.8</ele>
        <time>2013-08-08T15:04:50Z</time>
      </trkpt>
      <trkpt lat="42.487561" lon="1.686538">
        <ele>2212.7</ele>
        <time>2013-08-08T15:04:58Z</time>
      </trkpt>
      <trkpt lat="42.487559" lon="1.686621">
        <ele>2212.1</ele>
        <time>2013-08-08T15:05:04Z</time>
      </trkpt>
      <trkpt lat="42.487538" lon="1.686730">
        <ele>2211.3</ele>
        <time>2013-08-08T15:05:17Z</time>
      </trkpt>
      <trkpt lat="42.487532" lon="1.686744">
        <ele>2211.0</ele>
        <time>2013-08-08T15:05:19Z</time>
      </trkpt>
      <trkpt lat="42.487489" lon="1.686902">
        <ele>2209.1</ele>
        <time>2013-08-08T15:05:30Z</time>
      </trkpt>
      <trkpt lat="42.487481" lon="1.686938">
        <ele>2208.8</ele>
        <time>2013-08-08T15:05:32Z</time>
      </trkpt>
      <trkpt lat="42.487479" lon="1.687138">
        <ele>2208.0</ele>
        <time>2013-08-08T15:05:44Z</time>
      </trkpt>
      <trkpt lat="42.487504" lon="1.687199">
        <ele>2208.4</ele>
        <time>2013-08-08T15:05:48Z</time>
      </trkpt>
      <trkpt lat="42.487599" lon="1.687318">
        <ele>2210.8</ele>
        <time>2013-08-08T15:05:58Z</time>
      </trkpt>
      <trkpt lat="42.487617" lon="1.687338">
        <ele>2211.3</ele>
        <time>2013-08-08T15:06:00Z</time>
      </trkpt>
      <trkpt lat="42.487631" lon="1.687361">
        <ele>2211.5</ele>
        <time>2013-08-08T15:06:02Z</time>
      </trkpt>
      <trkpt lat="42.487642" lon="1.687415">
        <ele>2211.2</ele>
        <time>2013-08-08T15:06:07Z</time>
      </trkpt>
      <trkpt lat="42.487653" lon="1.687487">
        <ele>2211.1</ele>
        <time>2013-08-08T15:06:12Z</time>
      </trkpt>
      <trkpt lat="42.487633" lon="1.687526">
        <ele>2210.5</ele>
        <time>2013-08-08T15:06:16Z</time>
      </trkpt>
      <trkpt lat="42.487560" lon="1.687549">
        <ele>2208.5</ele>
        <time>2013-08-08T15:06:24Z</time>
      </trkpt>
      <trkpt lat="42.487457" lon="1.687684">
        <ele>2206.4</ele>
        <time>2013-08-08T15:06:36Z</time>
      </trkpt>
      <trkpt lat="42.487352" lon="1.687885">
        <ele>2205.0</ele>
        <time>2013-08-08T15:06:50Z</time>
      </trkpt>
      <trkpt lat="42.487331" lon="1.687945">
        <ele>2204.5</ele>
        <time>2013-08-08T15:06:56Z</time>
      </trkpt>
      <trkpt lat="42.487332" lon="1.687992">
        <ele>2204.4</ele>
        <time>2013-08-08T15:06:59Z</time>
      </trkpt>
      <trkpt lat="42.487333" lon="1.688057">
        <ele>2204.7</ele>
        <time>2013-08-08T15:07:04Z</time>
      </trkpt>
      <trkpt lat="42.487321" lon="1.688101">
        <ele>2204.5</ele>
        <time>2013-08-08T15:07:07Z</time>
      </trkpt>
      <trkpt lat="42.487307" lon="1.688279">
        <ele>2204.3</ele>
        <time>2013-08-08T15:07:18Z</time>
      </trkpt>
      <trkpt lat="42.487330" lon="1.688318">
        <ele>2205.2</ele>
        <time>2013-08-08T15:07:22Z</time>
      </trkpt>
      <trkpt lat="42.487332" lon="1.688397">
        <ele>2204.9</ele>
        <time>2013-08-08T15:07:29Z</time>
      </trkpt>
      <trkpt lat="42.487341" lon="1.688481">
        <ele>2205.2</ele>
        <time>2013-08-08T15:07:36Z</time>
      </trkpt>
      <trkpt lat="42.487336" lon="1.688535">
        <ele>2205.0</ele>
        <time>2013-08-08T15:07:40Z</time>
      </trkpt>
      <trkpt lat="42.487352" lon="1.688590">
        <ele>2206.1</ele>
        <time>2013-08-08T15:07:44Z</time>
      </trkpt>
      <trkpt lat="42.487355" lon="1.688637">
        <ele>2206.4</ele>
        <time>2013-08-08T15:07:48Z</time>
      </trkpt>
      <trkpt lat="42.487378" lon="1.688753">
        <ele>2208.1</ele>
        <time>2013-08-08T15:07:58Z</time>
      </trkpt>
      <trkpt lat="42.487406" lon="1.688935">
        <ele>2209.5</ele>
        <time>2013-08-08T15:08:09Z</time>
      </trkpt>
      <trkpt lat="42.487428" lon="1.689059">
        <ele>2209.7</ele>
        <time>2013-08-08T15:08:16Z</time>
      </trkpt>
      <trkpt lat="42.487376" lon="1.689341">
        <ele>2207.7</ele>
        <time>2013-08-08T15:08:29Z</time>
      </trkpt>
      <trkpt lat="42.487383" lon="1.689399">
        <ele>2207.6</ele>
        <time>2013-08-08T15:08:33Z</time>
      </trkpt>
      <trkpt lat="42.487429" lon="1.689543">
        <ele>2207.6</ele>
        <time>2013-08-08T15:08:44Z</time>
      </trkpt>
      <trkpt lat="42.487426" lon="1.689799">
        <ele>2207.1</ele>
        <time>2013-08-08T15:08:58Z</time>
      </trkpt>
      <trkpt lat="42.487395" lon="1.689949">
        <ele>2206.4</ele>
        <time>2013-08-08T15:09:09Z</time>
      </trkpt>
      <trkpt lat="42.487339" lon="1.690183">
        <ele>2203.6</ele>
        <time>2013-08-08T15:09:21Z</time>
      </trkpt>
      <trkpt lat="42.487307" lon="1.690251">
        <ele>2202.4</ele>
        <time>2013-08-08T15:09:25Z</time>
      </trkpt>
      <trkpt lat="42.487260" lon="1.690306">
        <ele>2200.7</ele>
        <time>2013-08-08T15:09:31Z</time>
      </trkpt>
      <trkpt lat="42.487227" lon="1.690374">
        <ele>2199.6</ele>
        <time>2013-08-08T15:09:36Z</time>
      </trkpt>
      <trkpt lat="42.487200" lon="1.690433">
        <ele>2199.1</ele>
        <time>2013-08-08T15:09:44Z</time>
      </trkpt>
      <trkpt lat="42.487154" lon="1.690605">
        <ele>2196.5</ele>
        <time>2013-08-08T15:09:57Z</time>
      </trkpt>
      <trkpt lat="42.487150" lon="1.690616">
        <ele>2196.3</ele>
        <time>2013-08-08T15:09:59Z</time>
      </trkpt>
      <trkpt lat="42.487150" lon="1.690734">
        <ele>2194.6</ele>
        <time>2013-08-08T15:10:12Z</time>
      </trkpt>
      <trkpt lat="42.487186" lon="1.690868">
        <ele>2192.9</ele>
        <time>2013-08-08T15:10:23Z</time>
      </trkpt>
      <trkpt lat="42.487128" lon="1.691061">
        <ele>2191.6</ele>
        <time>2013-08-08T15:10:37Z</time>
      </trkpt>
      <trkpt lat="42.487121" lon="1.691104">
        <ele>2190.7</ele>
        <time>2013-08-08T15:10:40Z</time>
      </trkpt>
      <trkpt lat="42.487015" lon="1.691214">
        <ele>2188.1</ele>
        <time>2013-08-08T15:10:54Z</time>
      </trkpt>
      <trkpt lat="42.487006" lon="1.691233">
        <ele>2187.6</ele>
        <time>2013-08-08T15:10:57Z</time>
      </trkpt>
      <trkpt lat="42.486989" lon="1.691393">
        <ele>2184.1</ele>
        <time>2013-08-08T15:11:08Z</time>
      </trkpt>
      <trkpt lat="42.486973" lon="1.691426">
        <ele>2183.2</ele>
        <time>2013-08-08T15:11:11Z</time>
      </trkpt>
      <trkpt lat="42.486957" lon="1.691538">
        <ele>2181.2</ele>
        <time>2013-08-08T15:11:20Z</time>
      </trkpt>
      <trkpt lat="42.486961" lon="1.691570">
        <ele>2181.3</ele>
        <time>2013-08-08T15:11:22Z</time>
      </trkpt>
      <trkpt lat="42.486954" lon="1.691630">
        <ele>2180.8</ele>
        <time>2013-08-08T15:11:27Z</time>
      </trkpt>
      <trkpt lat="42.486962" lon="1.691690">
        <ele>2180.4</ele>
        <time>2013-08-08T15:16:22Z</time>
      </trkpt>
      <trkpt lat="42.486907" lon="1.691738">
        <ele>2178.5</ele>
        <time>2013-08-08T15:16:36Z</time>
      </trkpt>
      <trkpt lat="42.486888" lon="1.691769">
        <ele>2177.2</ele>
        <time>2013-08-08T15:16:39Z</time>
      </trkpt>
      <trkpt lat="42.486870" lon="1.691798">
        <ele>2175.9</ele>
        <time>2013-08-08T15:16:41Z</time>
      </trkpt>
      <trkpt lat="42.486849" lon="1.691858">
        <ele>2174.1</ele>
        <time>2013-08-08T15:16:49Z</time>
      </trkpt>
      <trkpt lat="42.486814" lon="1.692007">
        <ele>2172.1</ele>
        <time>2013-08-08T15:17:00Z</time>
      </trkpt>
      <trkpt lat="42.486815" lon="1.692142">
        <ele>2171.4</ele>
        <time>2013-08-08T15:17:11Z</time>
      </trkpt>
      <trkpt lat="42.486731" lon="1.692237">
        <ele>2169.2</ele>
        <time>2013-08-08T15:17:23Z</time>
      </trkpt>
      <trkpt lat="42.486708" lon="1.692313">
        <ele>2168.3</ele>
        <time>2013-08-08T15:17:29Z</time>
      </trkpt>
      <trkpt lat="42.486701" lon="1.692491">
        <ele>2168.0</ele>
        <time>2013-08-08T15:17:42Z</time>
      </trkpt>
      <trkpt lat="42.486714" lon="1.692557">
        <ele>2168.0</ele>
        <time>2013-08-08T15:17:54Z</time>
      </trkpt>
      <trkpt lat="42.486714" lon="1.692557">
        <ele>2168.0</ele>
        <time>2013-08-08T15:17:57Z</time>
      </trkpt>
      <trkpt lat="42.486730" lon="1.692641">
        <ele>2167.9</ele>
        <time>2013-08-08T15:18:00Z</time>
      </trkpt>
      <trkpt lat="42.486724" lon="1.692747">
        <ele>2166.9</ele>
        <time>2013-08-08T15:18:06Z</time>
      </trkpt>
      <trkpt lat="42.486712" lon="1.692907">
        <ele>2165.7</ele>
        <time>2013-08-08T15:18:18Z</time>
      </trkpt>
      <trkpt lat="42.486672" lon="1.693020">
        <ele>2164.3</ele>
        <time>2013-08-08T15:18:30Z</time>
      </trkpt>
      <trkpt lat="42.486672" lon="1.693020">
        <ele>2164.3</ele>
        <time>2013-08-08T15:18:33Z</time>
      </trkpt>
      <trkpt lat="42.486618" lon="1.693126">
        <ele>2164.4</ele>
        <time>2013-08-08T15:18:45Z</time>
      </trkpt>
      <trkpt lat="42.486601" lon="1.693200">
        <ele>2164.9</ele>
        <time>2013-08-08T15:18:58Z</time>
      </trkpt>
      <trkpt lat="42.486595" lon="1.693214">
        <ele>2164.8</ele>
        <time>2013-08-08T15:19:09Z</time>
      </trkpt>
      <trkpt lat="42.486590" lon="1.693276">
        <ele>2164.6</ele>
        <time>2013-08-08T15:19:19Z</time>
      </trkpt>
      <trkpt lat="42.486563" lon="1.693364">
        <ele>2163.4</ele>
        <time>2013-08-08T15:19:24Z</time>
      </trkpt>
      <trkpt lat="42.486538" lon="1.693448">
        <ele>2160.8</ele>
        <time>2013-08-08T15:19:31Z</time>
      </trkpt>
      <trkpt lat="42.486509" lon="1.693514">
        <ele>2159.2</ele>
        <time>2013-08-08T15:19:34Z</time>
      </trkpt>
      <trkpt lat="42.486472" lon="1.693647">
        <ele>2157.3</ele>
        <time>2013-08-08T15:19:39Z</time>
      </trkpt>
      <trkpt lat="42.486461" lon="1.693882">
        <ele>2157.2</ele>
        <time>2013-08-08T15:19:51Z</time>
      </trkpt>
      <trkpt lat="42.486464" lon="1.694089">
        <ele>2155.9</ele>
        <time>2013-08-08T15:20:03Z</time>
      </trkpt>
      <trkpt lat="42.486423" lon="1.694213">
        <ele>2150.9</ele>
        <time>2013-08-08T15:20:14Z</time>
      </trkpt>
      <trkpt lat="42.486379" lon="1.694343">
        <ele>2147.6</ele>
        <time>2013-08-08T15:20:27Z</time>
      </trkpt>
      <trkpt lat="42.486376" lon="1.694355">
        <ele>2147.3</ele>
        <time>2013-08-08T15:20:28Z</time>
      </trkpt>
      <trkpt lat="42.486349" lon="1.694513">
        <ele>2144.3</ele>
        <time>2013-08-08T15:20:41Z</time>
      </trkpt>
      <trkpt lat="42.486346" lon="1.694531">
        <ele>2143.9</ele>
        <time>2013-08-08T15:20:48Z</time>
      </trkpt>
      <trkpt lat="42.486348" lon="1.694546">
        <ele>2143.8</ele>
        <time>2013-08-08T15:20:52Z</time>
      </trkpt>
      <trkpt lat="42.486351" lon="1.694558">
        <ele>2143.8</ele>
        <time>2013-08-08T15:20:53Z</time>
      </trkpt>
      <trkpt lat="42.486353" lon="1.694617">
        <ele>2142.8</ele>
        <time>2013-08-08T15:20:58Z</time>
      </trkpt>
      <trkpt lat="42.486311" lon="1.694866">
        <ele>2135.0</ele>
        <time>2013-08-08T15:21:14Z</time>
      </trkpt>
      <trkpt lat="42.486269" lon="1.695056">
        <ele>2131.5</ele>
        <time>2013-08-08T15:21:29Z</time>
      </trkpt>
      <trkpt lat="42.486258" lon="1.695246">
        <ele>2131.3</ele>
        <time>2013-08-08T15:21:42Z</time>
      </trkpt>
      <trkpt lat="42.486238" lon="1.695279">
        <ele>2130.3</ele>
        <time>2013-08-08T15:21:50Z</time>
      </trkpt>
      <trkpt lat="42.486237" lon="1.695290">
        <ele>2130.4</ele>
        <time>2013-08-08T15:21:52Z</time>
      </trkpt>
      <trkpt lat="42.486232" lon="1.695339">
        <ele>2131.0</ele>
        <time>2013-08-08T15:21:56Z</time>
      </trkpt>
      <trkpt lat="42.486206" lon="1.695423">
        <ele>2132.3</ele>
        <time>2013-08-08T15:22:08Z</time>
      </trkpt>
      <trkpt lat="42.486192" lon="1.695494">
        <ele>2133.1</ele>
        <time>2013-08-08T15:22:13Z</time>
      </trkpt>
      <trkpt lat="42.486193" lon="1.695550">
        <ele>2133.4</ele>
        <time>2013-08-08T15:22:17Z</time>
      </trkpt>
      <trkpt lat="42.486155" lon="1.695663">
        <ele>2130.0</ele>
        <time>2013-08-08T15:22:26Z</time>
      </trkpt>
      <trkpt lat="42.486157" lon="1.695759">
        <ele>2129.0</ele>
        <time>2013-08-08T15:22:35Z</time>
      </trkpt>
      <trkpt lat="42.486161" lon="1.695902">
        <ele>2126.9</ele>
        <time>2013-08-08T15:22:46Z</time>
      </trkpt>
      <trkpt lat="42.486128" lon="1.696032">
        <ele>2120.8</ele>
        <time>2013-08-08T15:22:58Z</time>
      </trkpt>
      <trkpt lat="42.486122" lon="1.696091">
        <ele>2118.8</ele>
        <time>2013-08-08T15:23:16Z</time>
      </trkpt>
      <trkpt lat="42.486134" lon="1.696185">
        <ele>2117.3</ele>
        <time>2013-08-08T15:23:28Z</time>
      </trkpt>
      <trkpt lat="42.486137" lon="1.696230">
        <ele>2116.5</ele>
        <time>2013-08-08T15:23:31Z</time>
      </trkpt>
      <trkpt lat="42.486141" lon="1.696385">
        <ele>2113.4</ele>
        <time>2013-08-08T15:23:42Z</time>
      </trkpt>
      <trkpt lat="42.486121" lon="1.696483">
        <ele>2110.1</ele>
        <time>2013-08-08T15:23:49Z</time>
      </trkpt>
      <trkpt lat="42.486085" lon="1.696667">
        <ele>2105.3</ele>
        <time>2013-08-08T15:23:58Z</time>
      </trkpt>
      <trkpt lat="42.486067" lon="1.696784">
        <ele>2104.0</ele>
        <time>2013-08-08T15:24:03Z</time>
      </trkpt>
      <trkpt lat="42.486074" lon="1.696849">
        <ele>2103.2</ele>
        <time>2013-08-08T15:24:12Z</time>
      </trkpt>
      <trkpt lat="42.486073" lon="1.696896">
        <ele>2102.6</ele>
        <time>2013-08-08T15:24:23Z</time>
      </trkpt>
      <trkpt lat="42.486096" lon="1.697116">
        <ele>2100.3</ele>
        <time>2013-08-08T15:24:34Z</time>
      </trkpt>
      <trkpt lat="42.486115" lon="1.697148">
        <ele>2100.2</ele>
        <time>2013-08-08T15:24:36Z</time>
      </trkpt>
      <trkpt lat="42.486143" lon="1.697370">
        <ele>2098.7</ele>
        <time>2013-08-08T15:24:49Z</time>
      </trkpt>
      <trkpt lat="42.486180" lon="1.697572">
        <ele>2096.7</ele>
        <time>2013-08-08T15:25:00Z</time>
      </trkpt>
      <trkpt lat="42.486180" lon="1.697752">
        <ele>2094.4</ele>
        <time>2013-08-08T15:25:13Z</time>
      </trkpt>
      <trkpt lat="42.486196" lon="1.697788">
        <ele>2094.6</ele>
        <time>2013-08-08T15:25:24Z</time>
      </trkpt>
      <trkpt lat="42.486188" lon="1.697798">
        <ele>2094.4</ele>
        <time>2013-08-08T15:25:37Z</time>
      </trkpt>
      <trkpt lat="42.486188" lon="1.697798">
        <ele>2094.4</ele>
        <time>2013-08-08T15:26:07Z</time>
      </trkpt>
      <trkpt lat="42.486185" lon="1.697802">
        <ele>2094.3</ele>
        <time>2013-08-08T15:26:26Z</time>
      </trkpt>
      <trkpt lat="42.486186" lon="1.697923">
        <ele>2094.2</ele>
        <time>2013-08-08T15:26:37Z</time>
      </trkpt>
      <trkpt lat="42.486150" lon="1.698082">
        <ele>2092.3</ele>
        <time>2013-08-08T15:26:47Z</time>
      </trkpt>
      <trkpt lat="42.486172" lon="1.698129">
        <ele>2091.7</ele>
        <time>2013-08-08T15:26:52Z</time>
      </trkpt>
      <trkpt lat="42.486182" lon="1.698160">
        <ele>2091.4</ele>
        <time>2013-08-08T15:26:54Z</time>
      </trkpt>
      <trkpt lat="42.486150" lon="1.698270">
        <ele>2089.3</ele>
        <time>2013-08-08T15:27:05Z</time>
      </trkpt>
      <trkpt lat="42.486117" lon="1.698340">
        <ele>2088.1</ele>
        <time>2013-08-08T15:27:17Z</time>
      </trkpt>
      <trkpt lat="42.486108" lon="1.698398">
        <ele>2087.2</ele>
        <time>2013-08-08T15:27:23Z</time>
      </trkpt>
      <trkpt lat="42.486141" lon="1.698529">
        <ele>2086.7</ele>
        <time>2013-08-08T15:27:34Z</time>
      </trkpt>
      <trkpt lat="42.486139" lon="1.698541">
        <ele>2086.5</ele>
        <time>2013-08-08T15:27:35Z</time>
      </trkpt>
      <trkpt lat="42.486117" lon="1.698650">
        <ele>2085.1</ele>
        <time>2013-08-08T15:27:46Z</time>
      </trkpt>
      <trkpt lat="42.486117" lon="1.698728">
        <ele>2084.4</ele>
        <time>2013-08-08T15:27:53Z</time>
      </trkpt>
      <trkpt lat="42.486115" lon="1.698880">
        <ele>2082.6</ele>
        <time>2013-08-08T15:28:04Z</time>
      </trkpt>
      <trkpt lat="42.486118" lon="1.698955">
        <ele>2081.6</ele>
        <time>2013-08-08T15:28:16Z</time>
      </trkpt>
      <trkpt lat="42.486103" lon="1.699043">
        <ele>2080.5</ele>
        <time>2013-08-08T15:28:23Z</time>
      </trkpt>
      <trkpt lat="42.486157" lon="1.699155">
        <ele>2080.6</ele>
        <time>2013-08-08T15:28:34Z</time>
      </trkpt>
      <trkpt lat="42.486165" lon="1.699249">
        <ele>2079.4</ele>
        <time>2013-08-08T15:28:43Z</time>
      </trkpt>
      <trkpt lat="42.486224" lon="1.699458">
        <ele>2077.2</ele>
        <time>2013-08-08T15:28:56Z</time>
      </trkpt>
      <trkpt lat="42.486277" lon="1.699708">
        <ele>2075.3</ele>
        <time>2013-08-08T15:29:09Z</time>
      </trkpt>
      <trkpt lat="42.486264" lon="1.699903">
        <ele>2074.5</ele>
        <time>2013-08-08T15:29:21Z</time>
      </trkpt>
      <trkpt lat="42.486202" lon="1.699967">
        <ele>2073.6</ele>
        <time>2013-08-08T15:29:29Z</time>
      </trkpt>
      <trkpt lat="42.486072" lon="1.700023">
        <ele>2071.6</ele>
        <time>2013-08-08T15:29:43Z</time>
      </trkpt>
      <trkpt lat="42.486058" lon="1.700065">
        <ele>2071.7</ele>
        <time>2013-08-08T15:29:48Z</time>
      </trkpt>
      <trkpt lat="42.485946" lon="1.700164">
        <ele>2070.7</ele>
        <time>2013-08-08T15:30:01Z</time>
      </trkpt>
      <trkpt lat="42.485895" lon="1.700270">
        <ele>2070.0</ele>
        <time>2013-08-08T15:30:09Z</time>
      </trkpt>
      <trkpt lat="42.485862" lon="1.700368">
        <ele>2069.6</ele>
        <time>2013-08-08T15:30:14Z</time>
      </trkpt>
      <trkpt lat="42.485771" lon="1.700545">
        <ele>2069.2</ele>
        <time>2013-08-08T15:30:28Z</time>
      </trkpt>
      <trkpt lat="42.485766" lon="1.700562">
        <ele>2069.2</ele>
        <time>2013-08-08T15:30:30Z</time>
      </trkpt>
      <trkpt lat="42.485776" lon="1.700656">
        <ele>2068.8</ele>
        <time>2013-08-08T15:30:42Z</time>
      </trkpt>
      <trkpt lat="42.485779" lon="1.700734">
        <ele>2068.8</ele>
        <time>2013-08-08T15:30:46Z</time>
      </trkpt>
      <trkpt lat="42.485760" lon="1.700779">
        <ele>2068.8</ele>
        <time>2013-08-08T15:30:48Z</time>
      </trkpt>
      <trkpt lat="42.485747" lon="1.700830">
        <ele>2068.8</ele>
        <time>2013-08-08T15:30:51Z</time>
      </trkpt>
      <trkpt lat="42.485739" lon="1.701009">
        <ele>2069.9</ele>
        <time>2013-08-08T15:31:03Z</time>
      </trkpt>
      <trkpt lat="42.485721" lon="1.701187">
        <ele>2070.7</ele>
        <time>2013-08-08T15:31:17Z</time>
      </trkpt>
      <trkpt lat="42.485716" lon="1.701204">
        <ele>2070.5</ele>
        <time>2013-08-08T15:31:18Z</time>
      </trkpt>
      <trkpt lat="42.485692" lon="1.701299">
        <ele>2070.1</ele>
        <time>2013-08-08T15:31:25Z</time>
      </trkpt>
      <trkpt lat="42.485700" lon="1.701324">
        <ele>2069.9</ele>
        <time>2013-08-08T15:31:27Z</time>
      </trkpt>
      <trkpt lat="42.485702" lon="1.701383">
        <ele>2069.4</ele>
        <time>2013-08-08T15:31:31Z</time>
      </trkpt>
      <trkpt lat="42.485673" lon="1.701586">
        <ele>2068.0</ele>
        <time>2013-08-08T15:31:43Z</time>
      </trkpt>
      <trkpt lat="42.485652" lon="1.701809">
        <ele>2066.1</ele>
        <time>2013-08-08T15:31:56Z</time>
      </trkpt>
      <trkpt lat="42.485676" lon="1.701894">
        <ele>2066.6</ele>
        <time>2013-08-08T15:32:03Z</time>
      </trkpt>
      <trkpt lat="42.485642" lon="1.702044">
        <ele>2067.5</ele>
        <time>2013-08-08T15:32:13Z</time>
      </trkpt>
      <trkpt lat="42.485586" lon="1.702193">
        <ele>2068.8</ele>
        <time>2013-08-08T15:32:24Z</time>
      </trkpt>
      <trkpt lat="42.485518" lon="1.702244">
        <ele>2068.4</ele>
        <time>2013-08-08T15:32:38Z</time>
      </trkpt>
      <trkpt lat="42.485543" lon="1.702354">
        <ele>2068.4</ele>
        <time>2013-08-08T15:34:41Z</time>
      </trkpt>
      <trkpt lat="42.485551" lon="1.702425">
        <ele>2068.1</ele>
        <time>2013-08-08T15:34:45Z</time>
      </trkpt>
      <trkpt lat="42.485551" lon="1.702565">
        <ele>2067.9</ele>
        <time>2013-08-08T15:34:55Z</time>
      </trkpt>
      <trkpt lat="42.485554" lon="1.702719">
        <ele>2068.1</ele>
        <time>2013-08-08T15:35:06Z</time>
      </trkpt>
      <trkpt lat="42.485561" lon="1.702785">
        <ele>2067.8</ele>
        <time>2013-08-08T15:35:10Z</time>
      </trkpt>
      <trkpt lat="42.485553" lon="1.703031">
        <ele>2066.9</ele>
        <time>2013-08-08T15:35:24Z</time>
      </trkpt>
      <trkpt lat="42.485584" lon="1.703167">
        <ele>2067.0</ele>
        <time>2013-08-08T15:35:34Z</time>
      </trkpt>
      <trkpt lat="42.485597" lon="1.703260">
        <ele>2067.0</ele>
        <time>2013-08-08T15:55:15Z</time>
      </trkpt>
      <trkpt lat="42.485569" lon="1.703308">
        <ele>2066.7</ele>
        <time>2013-08-08T15:55:19Z</time>
      </trkpt>
      <trkpt lat="42.485522" lon="1.703404">
        <ele>2066.5</ele>
        <time>2013-08-08T15:55:26Z</time>
      </trkpt>
      <trkpt lat="42.485485" lon="1.703475">
        <ele>2066.3</ele>
        <time>2013-08-08T15:55:31Z</time>
      </trkpt>
      <trkpt lat="42.485475" lon="1.703518">
        <ele>2066.3</ele>
        <time>2013-08-08T15:55:34Z</time>
      </trkpt>
      <trkpt lat="42.485457" lon="1.703668">
        <ele>2066.6</ele>
        <time>2013-08-08T15:55:44Z</time>
      </trkpt>
      <trkpt lat="42.485442" lon="1.703698">
        <ele>2066.8</ele>
        <time>2013-08-08T15:55:47Z</time>
      </trkpt>
      <trkpt lat="42.485438" lon="1.703756">
        <ele>2067.5</ele>
        <time>2013-08-08T15:55:51Z</time>
      </trkpt>
      <trkpt lat="42.485435" lon="1.703793">
        <ele>2067.9</ele>
        <time>2013-08-08T15:55:54Z</time>
      </trkpt>
      <trkpt lat="42.485348" lon="1.703980">
        <ele>2069.6</ele>
        <time>2013-08-08T15:56:09Z</time>
      </trkpt>
      <trkpt lat="42.485317" lon="1.704049">
        <ele>2070.6</ele>
        <time>2013-08-08T15:56:15Z</time>
      </trkpt>
      <trkpt lat="42.485276" lon="1.704101">
        <ele>2070.9</ele>
        <time>2013-08-08T15:56:20Z</time>
      </trkpt>
      <trkpt lat="42.485240" lon="1.704197">
        <ele>2072.9</ele>
        <time>2013-08-08T15:56:28Z</time>
      </trkpt>
      <trkpt lat="42.485208" lon="1.704272">
        <ele>2074.5</ele>
        <time>2013-08-08T15:56:40Z</time>
      </trkpt>
      <trkpt lat="42.485194" lon="1.704279">
        <ele>2074.5</ele>
        <time>2013-08-08T15:56:55Z</time>
      </trkpt>
      <trkpt lat="42.485191" lon="1.704322">
        <ele>2075.8</ele>
        <time>2013-08-08T15:57:13Z</time>
      </trkpt>
      <trkpt lat="42.485190" lon="1.704323">
        <ele>2075.8</ele>
        <time>2013-08-08T15:57:14Z</time>
      </trkpt>
      <trkpt lat="42.485188" lon="1.704376">
        <ele>2077.4</ele>
        <time>2013-08-08T15:57:18Z</time>
      </trkpt>
      <trkpt lat="42.485195" lon="1.704440">
        <ele>2078.5</ele>
        <time>2013-08-08T15:57:25Z</time>
      </trkpt>
      <trkpt lat="42.485212" lon="1.704466">
        <ele>2078.6</ele>
        <time>2013-08-08T15:57:28Z</time>
      </trkpt>
      <trkpt lat="42.485363" lon="1.704512">
        <ele>2076.1</ele>
        <time>2013-08-08T15:57:42Z</time>
      </trkpt>
      <trkpt lat="42.485510" lon="1.704555">
        <ele>2075.2</ele>
        <time>2013-08-08T15:57:53Z</time>
      </trkpt>
      <trkpt lat="42.485518" lon="1.704560">
        <ele>2075.1</ele>
        <time>2013-08-08T15:57:54Z</time>
      </trkpt>
      <trkpt lat="42.485535" lon="1.704567">
        <ele>2075.1</ele>
        <time>2013-08-08T15:57:56Z</time>
      </trkpt>
      <trkpt lat="42.485687" lon="1.704638">
        <ele>2075.4</ele>
        <time>2013-08-08T15:58:09Z</time>
      </trkpt>
      <trkpt lat="42.485695" lon="1.704647">
        <ele>2075.5</ele>
        <time>2013-08-08T15:58:10Z</time>
      </trkpt>
      <trkpt lat="42.485746" lon="1.704699">
        <ele>2076.2</ele>
        <time>2013-08-08T15:58:16Z</time>
      </trkpt>
      <trkpt lat="42.485788" lon="1.704756">
        <ele>2076.9</ele>
        <time>2013-08-08T15:58:21Z</time>
      </trkpt>
      <trkpt lat="42.485881" lon="1.704815">
        <ele>2077.8</ele>
        <time>2013-08-08T15:58:30Z</time>
      </trkpt>
      <trkpt lat="42.485890" lon="1.704817">
        <ele>2077.9</ele>
        <time>2013-08-08T15:58:44Z</time>
      </trkpt>
      <trkpt lat="42.485888" lon="1.704814">
        <ele>2077.9</ele>
        <time>2013-08-08T15:58:56Z</time>
      </trkpt>
      <trkpt lat="42.485897" lon="1.704835">
        <ele>2078.1</ele>
        <time>2013-08-08T15:58:59Z</time>
      </trkpt>
      <trkpt lat="42.485929" lon="1.704888">
        <ele>2078.5</ele>
        <time>2013-08-08T15:59:10Z</time>
      </trkpt>
      <trkpt lat="42.485931" lon="1.704890">
        <ele>2078.5</ele>
        <time>2013-08-08T15:59:24Z</time>
      </trkpt>
      <trkpt lat="42.485939" lon="1.704948">
        <ele>2078.5</ele>
        <time>2013-08-08T15:59:28Z</time>
      </trkpt>
      <trkpt lat="42.485929" lon="1.705011">
        <ele>2077.2</ele>
        <time>2013-08-08T15:59:32Z</time>
      </trkpt>
      <trkpt lat="42.485956" lon="1.705093">
        <ele>2076.6</ele>
        <time>2013-08-08T15:59:39Z</time>
      </trkpt>
      <trkpt lat="42.485959" lon="1.705183">
        <ele>2076.9</ele>
        <time>2013-08-08T15:59:44Z</time>
      </trkpt>
      <trkpt lat="42.485970" lon="1.705264">
        <ele>2076.6</ele>
        <time>2013-08-08T15:59:49Z</time>
      </trkpt>
      <trkpt lat="42.485994" lon="1.705308">
        <ele>2076.3</ele>
        <time>2013-08-08T15:59:52Z</time>
      </trkpt>
      <trkpt lat="42.486000" lon="1.705353">
        <ele>2075.8</ele>
        <time>2013-08-08T15:59:55Z</time>
      </trkpt>
      <trkpt lat="42.486023" lon="1.705429">
        <ele>2075.9</ele>
        <time>2013-08-08T16:00:01Z</time>
      </trkpt>
      <trkpt lat="42.486056" lon="1.705544">
        <ele>2076.9</ele>
        <time>2013-08-08T16:00:13Z</time>
      </trkpt>
      <trkpt lat="42.486070" lon="1.705603">
        <ele>2076.6</ele>
        <time>2013-08-08T16:00:22Z</time>
      </trkpt>
      <trkpt lat="42.486071" lon="1.705722">
        <ele>2077.5</ele>
        <time>2013-08-08T16:00:33Z</time>
      </trkpt>
      <trkpt lat="42.486060" lon="1.705761">
        <ele>2078.1</ele>
        <time>2013-08-08T16:00:36Z</time>
      </trkpt>
      <trkpt lat="42.485945" lon="1.705830">
        <ele>2078.4</ele>
        <time>2013-08-08T16:00:49Z</time>
      </trkpt>
      <trkpt lat="42.485816" lon="1.705896">
        <ele>2080.0</ele>
        <time>2013-08-08T16:01:03Z</time>
      </trkpt>
      <trkpt lat="42.485764" lon="1.705917">
        <ele>2079.8</ele>
        <time>2013-08-08T16:01:08Z</time>
      </trkpt>
      <trkpt lat="42.485731" lon="1.705964">
        <ele>2081.1</ele>
        <time>2013-08-08T16:01:13Z</time>
      </trkpt>
      <trkpt lat="42.485662" lon="1.706035">
        <ele>2082.2</ele>
        <time>2013-08-08T16:01:26Z</time>
      </trkpt>
      <trkpt lat="42.485614" lon="1.706084">
        <ele>2083.3</ele>
        <time>2013-08-08T16:01:37Z</time>
      </trkpt>
      <trkpt lat="42.485551" lon="1.706140">
        <ele>2085.1</ele>
        <time>2013-08-08T16:01:47Z</time>
      </trkpt>
      <trkpt lat="42.485469" lon="1.706161">
        <ele>2086.4</ele>
        <time>2013-08-08T16:01:59Z</time>
      </trkpt>
      <trkpt lat="42.485397" lon="1.706231">
        <ele>2088.6</ele>
        <time>2013-08-08T16:02:09Z</time>
      </trkpt>
      <trkpt lat="42.485370" lon="1.706295">
        <ele>2089.4</ele>
        <time>2013-08-08T16:02:15Z</time>
      </trkpt>
      <trkpt lat="42.485332" lon="1.706329">
        <ele>2090.4</ele>
        <time>2013-08-08T16:02:20Z</time>
      </trkpt>
      <trkpt lat="42.485304" lon="1.706346">
        <ele>2090.9</ele>
        <time>2013-08-08T16:02:24Z</time>
      </trkpt>
      <trkpt lat="42.485244" lon="1.706453">
        <ele>2093.1</ele>
        <time>2013-08-08T16:02:36Z</time>
      </trkpt>
      <trkpt lat="42.485181" lon="1.706543">
        <ele>2095.0</ele>
        <time>2013-08-08T16:02:47Z</time>
      </trkpt>
      <trkpt lat="42.485133" lon="1.706641">
        <ele>2096.9</ele>
        <time>2013-08-08T16:02:57Z</time>
      </trkpt>
      <trkpt lat="42.485091" lon="1.706693">
        <ele>2098.0</ele>
        <time>2013-08-08T16:03:06Z</time>
      </trkpt>
      <trkpt lat="42.485064" lon="1.706700">
        <ele>2098.1</ele>
        <time>2013-08-08T16:03:10Z</time>
      </trkpt>
      <trkpt lat="42.484982" lon="1.706801">
        <ele>2101.0</ele>
        <time>2013-08-08T16:03:21Z</time>
      </trkpt>
      <trkpt lat="42.484939" lon="1.706863">
        <ele>2102.2</ele>
        <time>2013-08-08T16:03:30Z</time>
      </trkpt>
      <trkpt lat="42.484920" lon="1.706907">
        <ele>2102.8</ele>
        <time>2013-08-08T16:03:35Z</time>
      </trkpt>
      <trkpt lat="42.484899" lon="1.707021">
        <ele>2104.7</ele>
        <time>2013-08-08T16:03:44Z</time>
      </trkpt>
      <trkpt lat="42.484887" lon="1.707046">
        <ele>2105.0</ele>
        <time>2013-08-08T16:03:47Z</time>
      </trkpt>
      <trkpt lat="42.484841" lon="1.707146">
        <ele>2106.6</ele>
        <time>2013-08-08T16:03:57Z</time>
      </trkpt>
      <trkpt lat="42.484784" lon="1.707207">
        <ele>2108.5</ele>
        <time>2013-08-08T16:04:08Z</time>
      </trkpt>
      <trkpt lat="42.484789" lon="1.707228">
        <ele>2109.3</ele>
        <time>2013-08-08T16:04:27Z</time>
      </trkpt>
      <trkpt lat="42.484788" lon="1.707291">
        <ele>2111.6</ele>
        <time>2013-08-08T16:04:38Z</time>
      </trkpt>
      <trkpt lat="42.484827" lon="1.707362">
        <ele>2114.2</ele>
        <time>2013-08-08T16:04:49Z</time>
      </trkpt>
      <trkpt lat="42.484852" lon="1.707406">
        <ele>2115.8</ele>
        <time>2013-08-08T16:04:59Z</time>
      </trkpt>
      <trkpt lat="42.484920" lon="1.707422">
        <ele>2117.5</ele>
        <time>2013-08-08T16:05:12Z</time>
      </trkpt>
      <trkpt lat="42.484972" lon="1.707441">
        <ele>2119.4</ele>
        <time>2013-08-08T16:05:24Z</time>
      </trkpt>
      <trkpt lat="42.485008" lon="1.707445">
        <ele>2120.3</ele>
        <time>2013-08-08T16:05:38Z</time>
      </trkpt>
      <trkpt lat="42.485082" lon="1.707474">
        <ele>2123.0</ele>
        <time>2013-08-08T16:05:49Z</time>
      </trkpt>
      <trkpt lat="42.485141" lon="1.707517">
        <ele>2125.7</ele>
        <time>2013-08-08T16:06:01Z</time>
      </trkpt>
      <trkpt lat="42.485187" lon="1.707509">
        <ele>2126.6</ele>
        <time>2013-08-08T16:06:12Z</time>
      </trkpt>
      <trkpt lat="42.485256" lon="1.707528">
        <ele>2129.3</ele>
        <time>2013-08-08T16:06:22Z</time>
      </trkpt>
      <trkpt lat="42.485326" lon="1.707515">
        <ele>2130.7</ele>
        <time>2013-08-08T16:06:34Z</time>
      </trkpt>
      <trkpt lat="42.485403" lon="1.707494">
        <ele>2132.3</ele>
        <time>2013-08-08T16:06:47Z</time>
      </trkpt>
      <trkpt lat="42.485440" lon="1.707490">
        <ele>2133.1</ele>
        <time>2013-08-08T16:06:58Z</time>
      </trkpt>
      <trkpt lat="42.485468" lon="1.707485">
        <ele>2133.5</ele>
        <time>2013-08-08T16:07:10Z</time>
      </trkpt>
      <trkpt lat="42.485492" lon="1.707478">
        <ele>2133.8</ele>
        <time>2013-08-08T16:07:19Z</time>
      </trkpt>
      <trkpt lat="42.485617" lon="1.707504">
        <ele>2136.8</ele>
        <time>2013-08-08T16:07:30Z</time>
      </trkpt>
      <trkpt lat="42.485644" lon="1.707504">
        <ele>2137.3</ele>
        <time>2013-08-08T16:07:32Z</time>
      </trkpt>
      <trkpt lat="42.485766" lon="1.707558">
        <ele>2140.3</ele>
        <time>2013-08-08T16:07:43Z</time>
      </trkpt>
      <trkpt lat="42.485831" lon="1.707553">
        <ele>2140.9</ele>
        <time>2013-08-08T16:07:56Z</time>
      </trkpt>
      <trkpt lat="42.485852" lon="1.707566">
        <ele>2141.4</ele>
        <time>2013-08-08T16:08:16Z</time>
      </trkpt>
      <trkpt lat="42.485924" lon="1.707615">
        <ele>2142.8</ele>
        <time>2013-08-08T16:08:22Z</time>
      </trkpt>
      <trkpt lat="42.486031" lon="1.707677">
        <ele>2144.8</ele>
        <time>2013-08-08T16:08:33Z</time>
      </trkpt>
      <trkpt lat="42.486044" lon="1.707697">
        <ele>2145.1</ele>
        <time>2013-08-08T16:08:35Z</time>
      </trkpt>
      <trkpt lat="42.486110" lon="1.707758">
        <ele>2146.7</ele>
        <time>2013-08-08T16:08:43Z</time>
      </trkpt>
      <trkpt lat="42.486209" lon="1.707748">
        <ele>2146.9</ele>
        <time>2013-08-08T16:08:54Z</time>
      </trkpt>
      <trkpt lat="42.486242" lon="1.707759">
        <ele>2147.2</ele>
        <time>2013-08-08T16:09:05Z</time>
      </trkpt>
      <trkpt lat="42.486242" lon="1.707759">
        <ele>2147.2</ele>
        <time>2013-08-08T16:09:28Z</time>
      </trkpt>
      <trkpt lat="42.486243" lon="1.707759">
        <ele>2147.2</ele>
        <time>2013-08-08T16:09:51Z</time>
      </trkpt>
      <trkpt lat="42.486257" lon="1.707762">
        <ele>2147.3</ele>
        <time>2013-08-08T16:10:13Z</time>
      </trkpt>
      <trkpt lat="42.486323" lon="1.707803">
        <ele>2148.5</ele>
        <time>2013-08-08T16:10:25Z</time>
      </trkpt>
      <trkpt lat="42.486326" lon="1.707811">
        <ele>2148.7</ele>
        <time>2013-08-08T16:10:39Z</time>
      </trkpt>
      <trkpt lat="42.486326" lon="1.707811">
        <ele>2148.7</ele>
        <time>2013-08-08T16:10:49Z</time>
      </trkpt>
      <trkpt lat="42.486333" lon="1.707803">
        <ele>2148.6</ele>
        <time>2013-08-08T16:11:03Z</time>
      </trkpt>
      <trkpt lat="42.486346" lon="1.707816">
        <ele>2148.9</ele>
        <time>2013-08-08T16:11:25Z</time>
      </trkpt>
      <trkpt lat="42.486389" lon="1.707824">
        <ele>2149.2</ele>
        <time>2013-08-08T16:11:29Z</time>
      </trkpt>
      <trkpt lat="42.486446" lon="1.707843">
        <ele>2150.1</ele>
        <time>2013-08-08T16:11:36Z</time>
      </trkpt>
      <trkpt lat="42.486533" lon="1.707883">
        <ele>2151.6</ele>
        <time>2013-08-08T16:11:46Z</time>
      </trkpt>
      <trkpt lat="42.486555" lon="1.707913">
        <ele>2152.6</ele>
        <time>2013-08-08T16:11:51Z</time>
      </trkpt>
      <trkpt lat="42.486538" lon="1.707958">
        <ele>2153.6</ele>
        <time>2013-08-08T16:12:01Z</time>
      </trkpt>
      <trkpt lat="42.486555" lon="1.707987">
        <ele>2154.9</ele>
        <time>2013-08-08T16:12:12Z</time>
      </trkpt>
      <trkpt lat="42.486641" lon="1.708061">
        <ele>2157.1</ele>
        <time>2013-08-08T16:12:23Z</time>
      </trkpt>
      <trkpt lat="42.486611" lon="1.708126">
        <ele>2159.2</ele>
        <time>2013-08-08T16:12:36Z</time>
      </trkpt>
      <trkpt lat="42.486555" lon="1.708150">
        <ele>2160.5</ele>
        <time>2013-08-08T16:12:47Z</time>
      </trkpt>
      <trkpt lat="42.486484" lon="1.708234">
        <ele>2162.5</ele>
        <time>2013-08-08T16:12:58Z</time>
      </trkpt>
      <trkpt lat="42.486464" lon="1.708298">
        <ele>2164.5</ele>
        <time>2013-08-08T16:13:09Z</time>
      </trkpt>
      <trkpt lat="42.486478" lon="1.708369">
        <ele>2166.8</ele>
        <time>2013-08-08T16:13:21Z</time>
      </trkpt>
      <trkpt lat="42.486509" lon="1.708444">
        <ele>2169.1</ele>
        <time>2013-08-08T16:13:32Z</time>
      </trkpt>
      <trkpt lat="42.486522" lon="1.708494">
        <ele>2170.6</ele>
        <time>2013-08-08T16:13:44Z</time>
      </trkpt>
      <trkpt lat="42.486493" lon="1.708522">
        <ele>2171.5</ele>
        <time>2013-08-08T16:13:51Z</time>
      </trkpt>
      <trkpt lat="42.486426" lon="1.708599">
        <ele>2173.9</ele>
        <time>2013-08-08T16:14:02Z</time>
      </trkpt>
      <trkpt lat="42.486380" lon="1.708631">
        <ele>2175.0</ele>
        <time>2013-08-08T16:14:13Z</time>
      </trkpt>
      <trkpt lat="42.486352" lon="1.708704">
        <ele>2178.7</ele>
        <time>2013-08-08T16:14:27Z</time>
      </trkpt>
      <trkpt lat="42.486360" lon="1.708747">
        <ele>2180.4</ele>
        <time>2013-08-08T16:14:37Z</time>
      </trkpt>
      <trkpt lat="42.486352" lon="1.708762">
        <ele>2181.1</ele>
        <time>2013-08-08T16:14:49Z</time>
      </trkpt>
      <trkpt lat="42.486292" lon="1.708801">
        <ele>2182.8</ele>
        <time>2013-08-08T16:15:01Z</time>
      </trkpt>
      <trkpt lat="42.486262" lon="1.708843">
        <ele>2185.2</ele>
        <time>2013-08-08T16:15:13Z</time>
      </trkpt>
      <trkpt lat="42.486264" lon="1.708861">
        <ele>2186.0</ele>
        <time>2013-08-08T16:15:23Z</time>
      </trkpt>
      <trkpt lat="42.486287" lon="1.708921">
        <ele>2188.5</ele>
        <time>2013-08-08T16:15:34Z</time>
      </trkpt>
      <trkpt lat="42.486315" lon="1.709002">
        <ele>2191.6</ele>
        <time>2013-08-08T16:15:46Z</time>
      </trkpt>
      <trkpt lat="42.486314" lon="1.709045">
        <ele>2193.6</ele>
        <time>2013-08-08T16:15:56Z</time>
      </trkpt>
      <trkpt lat="42.486338" lon="1.709094">
        <ele>2196.0</ele>
        <time>2013-08-08T16:16:09Z</time>
      </trkpt>
      <trkpt lat="42.486335" lon="1.709141">
        <ele>2198.3</ele>
        <time>2013-08-08T16:16:21Z</time>
      </trkpt>
      <trkpt lat="42.486277" lon="1.709188">
        <ele>2200.7</ele>
        <time>2013-08-08T16:16:33Z</time>
      </trkpt>
      <trkpt lat="42.486243" lon="1.709223">
        <ele>2202.1</ele>
        <time>2013-08-08T16:16:43Z</time>
      </trkpt>
      <trkpt lat="42.486212" lon="1.709250">
        <ele>2203.2</ele>
        <time>2013-08-08T16:16:55Z</time>
      </trkpt>
      <trkpt lat="42.486192" lon="1.709283">
        <ele>2205.2</ele>
        <time>2013-08-08T16:17:10Z</time>
      </trkpt>
      <trkpt lat="42.486180" lon="1.709329">
        <ele>2207.6</ele>
        <time>2013-08-08T16:17:21Z</time>
      </trkpt>
      <trkpt lat="42.486161" lon="1.709396">
        <ele>2211.0</ele>
        <time>2013-08-08T16:17:35Z</time>
      </trkpt>
      <trkpt lat="42.486160" lon="1.709446">
        <ele>2212.8</ele>
        <time>2013-08-08T16:17:47Z</time>
      </trkpt>
      <trkpt lat="42.486147" lon="1.709479">
        <ele>2214.0</ele>
        <time>2013-08-08T16:17:58Z</time>
      </trkpt>
      <trkpt lat="42.486148" lon="1.709559">
        <ele>2216.6</ele>
        <time>2013-08-08T16:18:09Z</time>
      </trkpt>
      <trkpt lat="42.486147" lon="1.709586">
        <ele>2217.5</ele>
        <time>2013-08-08T16:18:11Z</time>
      </trkpt>
      <trkpt lat="42.486152" lon="1.709626">
        <ele>2218.7</ele>
        <time>2013-08-08T16:18:22Z</time>
      </trkpt>
      <trkpt lat="42.486161" lon="1.709647">
        <ele>2219.2</ele>
        <time>2013-08-08T16:18:24Z</time>
      </trkpt>
      <trkpt lat="42.486187" lon="1.709749">
        <ele>2221.1</ele>
        <time>2013-08-08T16:18:35Z</time>
      </trkpt>
      <trkpt lat="42.486191" lon="1.709754">
        <ele>2221.2</ele>
        <time>2013-08-08T16:18:36Z</time>
      </trkpt>
      <trkpt lat="42.486241" lon="1.709799">
        <ele>2222.1</ele>
        <time>2013-08-08T16:18:46Z</time>
      </trkpt>
      <trkpt lat="42.486252" lon="1.709830">
        <ele>2222.9</ele>
        <time>2013-08-08T16:18:51Z</time>
      </trkpt>
      <trkpt lat="42.486333" lon="1.709924">
        <ele>2225.1</ele>
        <time>2013-08-08T16:19:06Z</time>
      </trkpt>
      <trkpt lat="42.486375" lon="1.709998">
        <ele>2226.4</ele>
        <time>2013-08-08T16:19:16Z</time>
      </trkpt>
      <trkpt lat="42.486385" lon="1.710015">
        <ele>2226.8</ele>
        <time>2013-08-08T16:19:19Z</time>
      </trkpt>
      <trkpt lat="42.486435" lon="1.710090">
        <ele>2228.7</ele>
        <time>2013-08-08T16:19:30Z</time>
      </trkpt>
      <trkpt lat="42.486454" lon="1.710115">
        <ele>2229.5</ele>
        <time>2013-08-08T16:19:34Z</time>
      </trkpt>
      <trkpt lat="42.486466" lon="1.710148">
        <ele>2230.5</ele>
        <time>2013-08-08T16:19:39Z</time>
      </trkpt>
      <trkpt lat="42.486466" lon="1.710205">
        <ele>2231.9</ele>
        <time>2013-08-08T16:19:47Z</time>
      </trkpt>
      <trkpt lat="42.486455" lon="1.710290">
        <ele>2233.7</ele>
        <time>2013-08-08T16:19:59Z</time>
      </trkpt>
      <trkpt lat="42.486432" lon="1.710309">
        <ele>2233.9</ele>
        <time>2013-08-08T16:20:03Z</time>
      </trkpt>
      <trkpt lat="42.486413" lon="1.710321">
        <ele>2234.0</ele>
        <time>2013-08-08T16:20:06Z</time>
      </trkpt>
      <trkpt lat="42.486371" lon="1.710359">
        <ele>2234.8</ele>
        <time>2013-08-08T16:20:14Z</time>
      </trkpt>
      <trkpt lat="42.486357" lon="1.710377">
        <ele>2235.3</ele>
        <time>2013-08-08T16:20:17Z</time>
      </trkpt>
      <trkpt lat="42.486305" lon="1.710436">
        <ele>2237.2</ele>
        <time>2013-08-08T16:20:29Z</time>
      </trkpt>
      <trkpt lat="42.486266" lon="1.710481">
        <ele>2238.8</ele>
        <time>2013-08-08T16:20:39Z</time>
      </trkpt>
      <trkpt lat="42.486246" lon="1.710509">
        <ele>2239.6</ele>
        <time>2013-08-08T16:20:43Z</time>
      </trkpt>
      <trkpt lat="42.486233" lon="1.710530">
        <ele>2240.2</ele>
        <time>2013-08-08T16:20:46Z</time>
      </trkpt>
      <trkpt lat="42.486194" lon="1.710599">
        <ele>2242.0</ele>
        <time>2013-08-08T16:20:56Z</time>
      </trkpt>
      <trkpt lat="42.486186" lon="1.710612">
        <ele>2242.2</ele>
        <time>2013-08-08T16:20:57Z</time>
      </trkpt>
      <trkpt lat="42.486153" lon="1.710749">
        <ele>2244.4</ele>
        <time>2013-08-08T16:21:04Z</time>
      </trkpt>
      <trkpt lat="42.486149" lon="1.710771">
        <ele>2244.9</ele>
        <time>2013-08-08T16:21:08Z</time>
      </trkpt>
      <trkpt lat="42.486109" lon="1.710788">
        <ele>2245.8</ele>
        <time>2013-08-08T16:21:33Z</time>
      </trkpt>
      <trkpt lat="42.486073" lon="1.710874">
        <ele>2247.8</ele>
        <time>2013-08-08T16:21:42Z</time>
      </trkpt>
      <trkpt lat="42.486060" lon="1.710897">
        <ele>2248.2</ele>
        <time>2013-08-08T16:21:44Z</time>
      </trkpt>
      <trkpt lat="42.486016" lon="1.710960">
        <ele>2248.6</ele>
        <time>2013-08-08T16:21:50Z</time>
      </trkpt>
      <trkpt lat="42.485928" lon="1.711135">
        <ele>2247.9</ele>
        <time>2013-08-08T16:22:03Z</time>
      </trkpt>
      <trkpt lat="42.485917" lon="1.711149">
        <ele>2247.9</ele>
        <time>2013-08-08T16:22:05Z</time>
      </trkpt>
      <trkpt lat="42.485900" lon="1.711213">
        <ele>2248.3</ele>
        <time>2013-08-08T16:22:10Z</time>
      </trkpt>
      <trkpt lat="42.485836" lon="1.711297">
        <ele>2248.1</ele>
        <time>2013-08-08T16:22:22Z</time>
      </trkpt>
      <trkpt lat="42.485791" lon="1.711391">
        <ele>2249.2</ele>
        <time>2013-08-08T16:22:32Z</time>
      </trkpt>
      <trkpt lat="42.485737" lon="1.711500">
        <ele>2250.0</ele>
        <time>2013-08-08T16:22:42Z</time>
      </trkpt>
      <trkpt lat="42.485686" lon="1.711558">
        <ele>2251.3</ele>
        <time>2013-08-08T16:22:53Z</time>
      </trkpt>
      <trkpt lat="42.485657" lon="1.711590">
        <ele>2252.4</ele>
        <time>2013-08-08T16:22:59Z</time>
      </trkpt>
      <trkpt lat="42.485632" lon="1.711607">
        <ele>2253.1</ele>
        <time>2013-08-08T16:23:02Z</time>
      </trkpt>
      <trkpt lat="42.485611" lon="1.711630">
        <ele>2253.9</ele>
        <time>2013-08-08T16:23:05Z</time>
      </trkpt>
      <trkpt lat="42.485587" lon="1.711647">
        <ele>2254.4</ele>
        <time>2013-08-08T16:23:10Z</time>
      </trkpt>
      <trkpt lat="42.485570" lon="1.711760">
        <ele>2256.9</ele>
        <time>2013-08-08T16:23:20Z</time>
      </trkpt>
      <trkpt lat="42.485535" lon="1.711779">
        <ele>2257.4</ele>
        <time>2013-08-08T16:23:27Z</time>
      </trkpt>
      <trkpt lat="42.485480" lon="1.711839">
        <ele>2259.8</ele>
        <time>2013-08-08T16:23:38Z</time>
      </trkpt>
      <trkpt lat="42.485403" lon="1.711899">
        <ele>2261.1</ele>
        <time>2013-08-08T16:23:49Z</time>
      </trkpt>
      <trkpt lat="42.485391" lon="1.711915">
        <ele>2261.7</ele>
        <time>2013-08-08T16:23:52Z</time>
      </trkpt>
      <trkpt lat="42.485345" lon="1.711975">
        <ele>2263.5</ele>
        <time>2013-08-08T16:24:03Z</time>
      </trkpt>
      <trkpt lat="42.485328" lon="1.712003">
        <ele>2264.4</ele>
        <time>2013-08-08T16:24:08Z</time>
      </trkpt>
      <trkpt lat="42.485249" lon="1.712033">
        <ele>2265.1</ele>
        <time>2013-08-08T16:24:19Z</time>
      </trkpt>
      <trkpt lat="42.485242" lon="1.712038">
        <ele>2265.3</ele>
        <time>2013-08-08T16:24:21Z</time>
      </trkpt>
      <trkpt lat="42.485196" lon="1.712080">
        <ele>2266.8</ele>
        <time>2013-08-08T16:24:33Z</time>
      </trkpt>
      <trkpt lat="42.485192" lon="1.712089">
        <ele>2267.1</ele>
        <time>2013-08-08T16:24:46Z</time>
      </trkpt>
      <trkpt lat="42.485192" lon="1.712089">
        <ele>2267.1</ele>
        <time>2013-08-08T16:25:01Z</time>
      </trkpt>
      <trkpt lat="42.485174" lon="1.712109">
        <ele>2267.4</ele>
        <time>2013-08-08T16:25:14Z</time>
      </trkpt>
      <trkpt lat="42.485161" lon="1.712110">
        <ele>2267.3</ele>
        <time>2013-08-08T16:25:15Z</time>
      </trkpt>
      <trkpt lat="42.485074" lon="1.712126">
        <ele>2268.0</ele>
        <time>2013-08-08T16:25:27Z</time>
      </trkpt>
      <trkpt lat="42.485074" lon="1.712126">
        <ele>2268.0</ele>
        <time>2013-08-08T16:25:55Z</time>
      </trkpt>
      <trkpt lat="42.485036" lon="1.712137">
        <ele>2268.8</ele>
        <time>2013-08-08T16:26:21Z</time>
      </trkpt>
      <trkpt lat="42.485014" lon="1.712132">
        <ele>2268.9</ele>
        <time>2013-08-08T16:26:23Z</time>
      </trkpt>
      <trkpt lat="42.484885" lon="1.712090">
        <ele>2269.9</ele>
        <time>2013-08-08T16:26:34Z</time>
      </trkpt>
      <trkpt lat="42.484783" lon="1.712062">
        <ele>2270.0</ele>
        <time>2013-08-08T16:26:44Z</time>
      </trkpt>
      <trkpt lat="42.484668" lon="1.712047">
        <ele>2271.1</ele>
        <time>2013-08-08T16:26:55Z</time>
      </trkpt>
      <trkpt lat="42.484660" lon="1.712044">
        <ele>2271.1</ele>
        <time>2013-08-08T16:26:56Z</time>
      </trkpt>
      <trkpt lat="42.484590" lon="1.712025">
        <ele>2271.8</ele>
        <time>2013-08-08T16:27:06Z</time>
      </trkpt>
      <trkpt lat="42.484566" lon="1.712034">
        <ele>2272.5</ele>
        <time>2013-08-08T16:27:09Z</time>
      </trkpt>
      <trkpt lat="42.484477" lon="1.712034">
        <ele>2274.0</ele>
        <time>2013-08-08T16:27:21Z</time>
      </trkpt>
      <trkpt lat="42.484450" lon="1.712031">
        <ele>2274.6</ele>
        <time>2013-08-08T16:27:27Z</time>
      </trkpt>
      <trkpt lat="42.484430" lon="1.712026">
        <ele>2274.9</ele>
        <time>2013-08-08T16:27:29Z</time>
      </trkpt>
      <trkpt lat="42.484416" lon="1.712008">
        <ele>2274.7</ele>
        <time>2013-08-08T16:27:31Z</time>
      </trkpt>
      <trkpt lat="42.484398" lon="1.711996">
        <ele>2274.7</ele>
        <time>2013-08-08T16:27:33Z</time>
      </trkpt>
      <trkpt lat="42.484359" lon="1.711982">
        <ele>2275.2</ele>
        <time>2013-08-08T16:27:38Z</time>
      </trkpt>
      <trkpt lat="42.484331" lon="1.711935">
        <ele>2273.9</ele>
        <time>2013-08-08T16:27:43Z</time>
      </trkpt>
      <trkpt lat="42.484276" lon="1.711877">
        <ele>2274.3</ele>
        <time>2013-08-08T16:27:51Z</time>
      </trkpt>
      <trkpt lat="42.484252" lon="1.711866">
        <ele>2275.1</ele>
        <time>2013-08-08T16:27:54Z</time>
      </trkpt>
      <trkpt lat="42.484159" lon="1.711837">
        <ele>2277.3</ele>
        <time>2013-08-08T16:28:06Z</time>
      </trkpt>
      <trkpt lat="42.484075" lon="1.711822">
        <ele>2279.2</ele>
        <time>2013-08-08T16:28:17Z</time>
      </trkpt>
      <trkpt lat="42.484008" lon="1.711826">
        <ele>2281.0</ele>
        <time>2013-08-08T16:28:28Z</time>
      </trkpt>
      <trkpt lat="42.483979" lon="1.711870">
        <ele>2283.0</ele>
        <time>2013-08-08T16:28:38Z</time>
      </trkpt>
      <trkpt lat="42.483952" lon="1.711900">
        <ele>2285.0</ele>
        <time>2013-08-08T16:28:50Z</time>
      </trkpt>
      <trkpt lat="42.483943" lon="1.711909">
        <ele>2285.4</ele>
        <time>2013-08-08T16:28:55Z</time>
      </trkpt>
      <trkpt lat="42.483922" lon="1.711888">
        <ele>2285.2</ele>
        <time>2013-08-08T16:28:58Z</time>
      </trkpt>
      <trkpt lat="42.483859" lon="1.711884">
        <ele>2287.2</ele>
        <time>2013-08-08T16:29:11Z</time>
      </trkpt>
      <trkpt lat="42.483820" lon="1.711883">
        <ele>2288.6</ele>
        <time>2013-08-08T16:29:24Z</time>
      </trkpt>
      <trkpt lat="42.483719" lon="1.711859">
        <ele>2291.6</ele>
        <time>2013-08-08T16:29:35Z</time>
      </trkpt>
      <trkpt lat="42.483699" lon="1.711863">
        <ele>2291.9</ele>
        <time>2013-08-08T16:29:37Z</time>
      </trkpt>
      <trkpt lat="42.483651" lon="1.711915">
        <ele>2293.8</ele>
        <time>2013-08-08T16:29:48Z</time>
      </trkpt>
      <trkpt lat="42.483681" lon="1.711955">
        <ele>2295.3</ele>
        <time>2013-08-08T16:29:55Z</time>
      </trkpt>
      <trkpt lat="42.483701" lon="1.712008">
        <ele>2297.0</ele>
        <time>2013-08-08T16:30:05Z</time>
      </trkpt>
      <trkpt lat="42.483720" lon="1.712086">
        <ele>2299.0</ele>
        <time>2013-08-08T16:30:15Z</time>
      </trkpt>
      <trkpt lat="42.483720" lon="1.712132">
        <ele>2300.4</ele>
        <time>2013-08-08T16:30:24Z</time>
      </trkpt>
      <trkpt lat="42.483745" lon="1.712199">
        <ele>2302.2</ele>
        <time>2013-08-08T16:30:36Z</time>
      </trkpt>
      <trkpt lat="42.483730" lon="1.712220">
        <ele>2303.2</ele>
        <time>2013-08-08T16:30:44Z</time>
      </trkpt>
      <trkpt lat="42.483697" lon="1.712238">
        <ele>2304.3</ele>
        <time>2013-08-08T16:30:51Z</time>
      </trkpt>
      <trkpt lat="42.483667" lon="1.712297">
        <ele>2307.1</ele>
        <time>2013-08-08T16:31:03Z</time>
      </trkpt>
      <trkpt lat="42.483642" lon="1.712313">
        <ele>2307.9</ele>
        <time>2013-08-08T16:31:16Z</time>
      </trkpt>
      <trkpt lat="42.483594" lon="1.712290">
        <ele>2308.0</ele>
        <time>2013-08-08T16:31:30Z</time>
      </trkpt>
      <trkpt lat="42.483533" lon="1.712251">
        <ele>2309.7</ele>
        <time>2013-08-08T16:31:43Z</time>
      </trkpt>
      <trkpt lat="42.483462" lon="1.712233">
        <ele>2312.2</ele>
        <time>2013-08-08T16:31:54Z</time>
      </trkpt>
      <trkpt lat="42.483401" lon="1.712229">
        <ele>2313.7</ele>
        <time>2013-08-08T16:32:06Z</time>
      </trkpt>
      <trkpt lat="42.483335" lon="1.712242">
        <ele>2315.8</ele>
        <time>2013-08-08T16:32:19Z</time>
      </trkpt>
      <trkpt lat="42.483267" lon="1.712250">
        <ele>2318.3</ele>
        <time>2013-08-08T16:32:32Z</time>
      </trkpt>
      <trkpt lat="42.483202" lon="1.712274">
        <ele>2320.3</ele>
        <time>2013-08-08T16:32:43Z</time>
      </trkpt>
      <trkpt lat="42.483153" lon="1.712317">
        <ele>2321.8</ele>
        <time>2013-08-08T16:32:53Z</time>
      </trkpt>
      <trkpt lat="42.483147" lon="1.712322">
        <ele>2321.9</ele>
        <time>2013-08-08T16:32:54Z</time>
      </trkpt>
      <trkpt lat="42.483083" lon="1.712341">
        <ele>2322.1</ele>
        <time>2013-08-08T16:33:01Z</time>
      </trkpt>
      <trkpt lat="42.483025" lon="1.712434">
        <ele>2323.1</ele>
        <time>2013-08-08T16:33:12Z</time>
      </trkpt>
      <trkpt lat="42.482977" lon="1.712523">
        <ele>2324.2</ele>
        <time>2013-08-08T16:33:22Z</time>
      </trkpt>
      <trkpt lat="42.482946" lon="1.712603">
        <ele>2325.4</ele>
        <time>2013-08-08T16:33:32Z</time>
      </trkpt>
      <trkpt lat="42.482892" lon="1.712678">
        <ele>2326.4</ele>
        <time>2013-08-08T16:33:42Z</time>
      </trkpt>
      <trkpt lat="42.482839" lon="1.712767">
        <ele>2327.6</ele>
        <time>2013-08-08T16:33:52Z</time>
      </trkpt>
      <trkpt lat="42.482818" lon="1.712793">
        <ele>2328.0</ele>
        <time>2013-08-08T16:33:56Z</time>
      </trkpt>
      <trkpt lat="42.482760" lon="1.712844">
        <ele>2328.8</ele>
        <time>2013-08-08T16:34:07Z</time>
      </trkpt>
      <trkpt lat="42.482712" lon="1.712891">
        <ele>2330.1</ele>
        <time>2013-08-08T16:34:17Z</time>
      </trkpt>
      <trkpt lat="42.482687" lon="1.712965">
        <ele>2333.2</ele>
        <time>2013-08-08T16:34:28Z</time>
      </trkpt>
      <trkpt lat="42.482678" lon="1.713042">
        <ele>2336.3</ele>
        <time>2013-08-08T16:34:39Z</time>
      </trkpt>
      <trkpt lat="42.482650" lon="1.713087">
        <ele>2337.6</ele>
        <time>2013-08-08T16:34:48Z</time>
      </trkpt>
      <trkpt lat="42.482649" lon="1.713094">
        <ele>2337.9</ele>
        <time>2013-08-08T16:34:49Z</time>
      </trkpt>
      <trkpt lat="42.482649" lon="1.713132">
        <ele>2339.7</ele>
        <time>2013-08-08T16:34:59Z</time>
      </trkpt>
      <trkpt lat="42.482604" lon="1.713190">
        <ele>2340.8</ele>
        <time>2013-08-08T16:35:10Z</time>
      </trkpt>
      <trkpt lat="42.482588" lon="1.713214">
        <ele>2341.4</ele>
        <time>2013-08-08T16:35:15Z</time>
      </trkpt>
      <trkpt lat="42.482537" lon="1.713254">
        <ele>2342.7</ele>
        <time>2013-08-08T16:35:25Z</time>
      </trkpt>
      <trkpt lat="42.482528" lon="1.713309">
        <ele>2345.0</ele>
        <time>2013-08-08T16:35:35Z</time>
      </trkpt>
      <trkpt lat="42.482531" lon="1.713315">
        <ele>2345.3</ele>
        <time>2013-08-08T16:35:52Z</time>
      </trkpt>
      <trkpt lat="42.482527" lon="1.713326">
        <ele>2345.6</ele>
        <time>2013-08-08T16:36:30Z</time>
      </trkpt>
      <trkpt lat="42.482530" lon="1.713333">
        <ele>2346.0</ele>
        <time>2013-08-08T16:36:58Z</time>
      </trkpt>
      <trkpt lat="42.482530" lon="1.713333">
        <ele>2346.0</ele>
        <time>2013-08-08T16:37:20Z</time>
      </trkpt>
      <trkpt lat="42.482530" lon="1.713361">
        <ele>2347.0</ele>
        <time>2013-08-08T16:37:33Z</time>
      </trkpt>
      <trkpt lat="42.482512" lon="1.713410">
        <ele>2348.5</ele>
        <time>2013-08-08T16:37:43Z</time>
      </trkpt>
      <trkpt lat="42.482501" lon="1.713454">
        <ele>2350.1</ele>
        <time>2013-08-08T16:37:52Z</time>
      </trkpt>
      <trkpt lat="42.482492" lon="1.713479">
        <ele>2350.8</ele>
        <time>2013-08-08T16:37:55Z</time>
      </trkpt>
      <trkpt lat="42.482467" lon="1.713583">
        <ele>2353.6</ele>
        <time>2013-08-08T16:38:06Z</time>
      </trkpt>
      <trkpt lat="42.482467" lon="1.713604">
        <ele>2354.1</ele>
        <time>2013-08-08T16:38:09Z</time>
      </trkpt>
      <trkpt lat="42.482485" lon="1.713624">
        <ele>2355.0</ele>
        <time>2013-08-08T16:38:12Z</time>
      </trkpt>
      <trkpt lat="42.482594" lon="1.713559">
        <ele>2356.8</ele>
        <time>2013-08-08T16:38:25Z</time>
      </trkpt>
      <trkpt lat="42.482636" lon="1.713542">
        <ele>2357.5</ele>
        <time>2013-08-08T16:38:31Z</time>
      </trkpt>
      <trkpt lat="42.482712" lon="1.713528">
        <ele>2358.6</ele>
        <time>2013-08-08T16:38:44Z</time>
      </trkpt>
      <trkpt lat="42.482720" lon="1.713526">
        <ele>2358.5</ele>
        <time>2013-08-08T16:38:45Z</time>
      </trkpt>
      <trkpt lat="42.482813" lon="1.713494">
        <ele>2358.5</ele>
        <time>2013-08-08T16:38:54Z</time>
      </trkpt>
      <trkpt lat="42.482844" lon="1.713496">
        <ele>2359.0</ele>
        <time>2013-08-08T16:38:57Z</time>
      </trkpt>
      <trkpt lat="42.482887" lon="1.713494">
        <ele>2359.4</ele>
        <time>2013-08-08T16:39:01Z</time>
      </trkpt>
      <trkpt lat="42.482924" lon="1.713495">
        <ele>2359.3</ele>
        <time>2013-08-08T16:39:05Z</time>
      </trkpt>
      <trkpt lat="42.483009" lon="1.713556">
        <ele>2361.2</ele>
        <time>2013-08-08T16:39:15Z</time>
      </trkpt>
      <trkpt lat="42.483053" lon="1.713661">
        <ele>2361.9</ele>
        <time>2013-08-08T16:39:25Z</time>
      </trkpt>
      <trkpt lat="42.483079" lon="1.713716">
        <ele>2362.4</ele>
        <time>2013-08-08T16:39:44Z</time>
      </trkpt>
      <trkpt lat="42.483090" lon="1.713734">
        <ele>2362.7</ele>
        <time>2013-08-08T16:39:46Z</time>
      </trkpt>
      <trkpt lat="42.483140" lon="1.713779">
        <ele>2363.6</ele>
        <time>2013-08-08T16:39:53Z</time>
      </trkpt>
      <trkpt lat="42.483201" lon="1.713871">
        <ele>2366.4</ele>
        <time>2013-08-08T16:40:05Z</time>
      </trkpt>
      <trkpt lat="42.483214" lon="1.713899">
        <ele>2367.2</ele>
        <time>2013-08-08T16:40:10Z</time>
      </trkpt>
      <trkpt lat="42.483227" lon="1.713967">
        <ele>2369.2</ele>
        <time>2013-08-08T16:40:21Z</time>
      </trkpt>
      <trkpt lat="42.483215" lon="1.714006">
        <ele>2370.1</ele>
        <time>2013-08-08T16:40:26Z</time>
      </trkpt>
      <trkpt lat="42.483184" lon="1.714097">
        <ele>2372.2</ele>
        <time>2013-08-08T16:40:37Z</time>
      </trkpt>
      <trkpt lat="42.483173" lon="1.714118">
        <ele>2372.6</ele>
        <time>2013-08-08T16:40:39Z</time>
      </trkpt>
      <trkpt lat="42.483132" lon="1.714177">
        <ele>2373.9</ele>
        <time>2013-08-08T16:40:49Z</time>
      </trkpt>
      <trkpt lat="42.483092" lon="1.714253">
        <ele>2375.9</ele>
        <time>2013-08-08T16:41:00Z</time>
      </trkpt>
      <trkpt lat="42.483078" lon="1.714303">
        <ele>2377.5</ele>
        <time>2013-08-08T16:41:10Z</time>
      </trkpt>
      <trkpt lat="42.483030" lon="1.714364">
        <ele>2378.6</ele>
        <time>2013-08-08T16:41:21Z</time>
      </trkpt>
      <trkpt lat="42.482984" lon="1.714430">
        <ele>2380.8</ele>
        <time>2013-08-08T16:41:33Z</time>
      </trkpt>
      <trkpt lat="42.482951" lon="1.714481">
        <ele>2382.4</ele>
        <time>2013-08-08T16:41:45Z</time>
      </trkpt>
      <trkpt lat="42.482955" lon="1.714477">
        <ele>2382.3</ele>
        <time>2013-08-08T16:42:00Z</time>
      </trkpt>
      <trkpt lat="42.482948" lon="1.714494">
        <ele>2382.9</ele>
        <time>2013-08-08T16:42:23Z</time>
      </trkpt>
      <trkpt lat="42.482876" lon="1.714551">
        <ele>2384.3</ele>
        <time>2013-08-08T16:42:33Z</time>
      </trkpt>
      <trkpt lat="42.482833" lon="1.714594">
        <ele>2385.5</ele>
        <time>2013-08-08T16:42:43Z</time>
      </trkpt>
      <trkpt lat="42.482774" lon="1.714640">
        <ele>2386.6</ele>
        <time>2013-08-08T16:42:54Z</time>
      </trkpt>
      <trkpt lat="42.482765" lon="1.714637">
        <ele>2386.4</ele>
        <time>2013-08-08T16:42:55Z</time>
      </trkpt>
      <trkpt lat="42.482698" lon="1.714658">
        <ele>2387.9</ele>
        <time>2013-08-08T16:43:07Z</time>
      </trkpt>
      <trkpt lat="42.482671" lon="1.714672">
        <ele>2388.8</ele>
        <time>2013-08-08T16:43:12Z</time>
      </trkpt>
      <trkpt lat="42.482619" lon="1.714716">
        <ele>2390.6</ele>
        <time>2013-08-08T16:43:23Z</time>
      </trkpt>
      <trkpt lat="42.482584" lon="1.714773">
        <ele>2393.1</ele>
        <time>2013-08-08T16:43:34Z</time>
      </trkpt>
      <trkpt lat="42.482552" lon="1.714781">
        <ele>2393.1</ele>
        <time>2013-08-08T16:43:41Z</time>
      </trkpt>
      <trkpt lat="42.482486" lon="1.714824">
        <ele>2394.7</ele>
        <time>2013-08-08T16:43:53Z</time>
      </trkpt>
      <trkpt lat="42.482394" lon="1.714873">
        <ele>2396.7</ele>
        <time>2013-08-08T16:44:04Z</time>
      </trkpt>
      <trkpt lat="42.482384" lon="1.714877">
        <ele>2396.9</ele>
        <time>2013-08-08T16:44:05Z</time>
      </trkpt>
      <trkpt lat="42.482360" lon="1.714882">
        <ele>2396.9</ele>
        <time>2013-08-08T16:44:07Z</time>
      </trkpt>
      <trkpt lat="42.482280" lon="1.714981">
        <ele>2398.6</ele>
        <time>2013-08-08T16:44:18Z</time>
      </trkpt>
      <trkpt lat="42.482246" lon="1.715036">
        <ele>2399.6</ele>
        <time>2013-08-08T16:44:30Z</time>
      </trkpt>
      <trkpt lat="42.482219" lon="1.715081">
        <ele>2400.5</ele>
        <time>2013-08-08T16:44:45Z</time>
      </trkpt>
      <trkpt lat="42.482189" lon="1.715148">
        <ele>2402.0</ele>
        <time>2013-08-08T16:44:52Z</time>
      </trkpt>
      <trkpt lat="42.482148" lon="1.715168">
        <ele>2400.5</ele>
        <time>2013-08-08T16:45:08Z</time>
      </trkpt>
      <trkpt lat="42.482123" lon="1.715192">
        <ele>2400.4</ele>
        <time>2013-08-08T16:45:49Z</time>
      </trkpt>
      <trkpt lat="42.482080" lon="1.715232">
        <ele>2400.7</ele>
        <time>2013-08-08T16:45:58Z</time>
      </trkpt>
      <trkpt lat="42.482059" lon="1.715270">
        <ele>2402.0</ele>
        <time>2013-08-08T16:46:02Z</time>
      </trkpt>
      <trkpt lat="42.482032" lon="1.715304">
        <ele>2403.1</ele>
        <time>2013-08-08T16:46:07Z</time>
      </trkpt>
      <trkpt lat="42.481983" lon="1.715391">
        <ele>2405.2</ele>
        <time>2013-08-08T16:46:19Z</time>
      </trkpt>
      <trkpt lat="42.481981" lon="1.715394">
        <ele>2405.2</ele>
        <time>2013-08-08T16:46:21Z</time>
      </trkpt>
      <trkpt lat="42.481946" lon="1.715423">
        <ele>2405.1</ele>
        <time>2013-08-08T16:46:27Z</time>
      </trkpt>
      <trkpt lat="42.481915" lon="1.715464">
        <ele>2405.7</ele>
        <time>2013-08-08T16:46:40Z</time>
      </trkpt>
      <trkpt lat="42.481908" lon="1.715479">
        <ele>2406.2</ele>
        <time>2013-08-08T16:46:50Z</time>
      </trkpt>
      <trkpt lat="42.481906" lon="1.715510">
        <ele>2407.4</ele>
        <time>2013-08-08T16:47:13Z</time>
      </trkpt>
      <trkpt lat="42.481883" lon="1.715575">
        <ele>2409.0</ele>
        <time>2013-08-08T16:47:24Z</time>
      </trkpt>
      <trkpt lat="42.481788" lon="1.715683">
        <ele>2410.0</ele>
        <time>2013-08-08T16:47:38Z</time>
      </trkpt>
      <trkpt lat="42.481777" lon="1.715725">
        <ele>2410.9</ele>
        <time>2013-08-08T16:47:48Z</time>
      </trkpt>
      <trkpt lat="42.481752" lon="1.715806">
        <ele>2413.0</ele>
        <time>2013-08-08T16:47:54Z</time>
      </trkpt>
      <trkpt lat="42.481729" lon="1.715872">
        <ele>2414.7</ele>
        <time>2013-08-08T16:47:59Z</time>
      </trkpt>
      <trkpt lat="42.481706" lon="1.715988">
        <ele>2416.6</ele>
        <time>2013-08-08T16:48:08Z</time>
      </trkpt>
      <trkpt lat="42.481703" lon="1.716024">
        <ele>2417.0</ele>
        <time>2013-08-08T16:48:11Z</time>
      </trkpt>
      <trkpt lat="42.481681" lon="1.716120">
        <ele>2417.9</ele>
        <time>2013-08-08T16:48:18Z</time>
      </trkpt>
      <trkpt lat="42.481665" lon="1.716156">
        <ele>2418.1</ele>
        <time>2013-08-08T16:48:23Z</time>
      </trkpt>
      <trkpt lat="42.481636" lon="1.716201">
        <ele>2418.7</ele>
        <time>2013-08-08T16:48:33Z</time>
      </trkpt>
      <trkpt lat="42.481625" lon="1.716240">
        <ele>2419.8</ele>
        <time>2013-08-08T16:48:45Z</time>
      </trkpt>
      <trkpt lat="42.481625" lon="1.716240">
        <ele>2419.8</ele>
        <time>2013-08-08T16:49:02Z</time>
      </trkpt>
      <trkpt lat="42.481623" lon="1.716258">
        <ele>2420.6</ele>
        <time>2013-08-08T16:49:27Z</time>
      </trkpt>
      <trkpt lat="42.481611" lon="1.716289">
        <ele>2421.6</ele>
        <time>2013-08-08T16:49:29Z</time>
      </trkpt>
      <trkpt lat="42.481586" lon="1.716318">
        <ele>2422.3</ele>
        <time>2013-08-08T16:49:33Z</time>
      </trkpt>
      <trkpt lat="42.481553" lon="1.716359">
        <ele>2423.2</ele>
        <time>2013-08-08T16:49:44Z</time>
      </trkpt>
      <trkpt lat="42.481515" lon="1.716430">
        <ele>2425.0</ele>
        <time>2013-08-08T16:49:55Z</time>
      </trkpt>
      <trkpt lat="42.481489" lon="1.716432">
        <ele>2424.2</ele>
        <time>2013-08-08T16:50:06Z</time>
      </trkpt>
      <trkpt lat="42.481458" lon="1.716478">
        <ele>2425.4</ele>
        <time>2013-08-08T16:50:22Z</time>
      </trkpt>
      <trkpt lat="42.481432" lon="1.716575">
        <ele>2427.5</ele>
        <time>2013-08-08T16:50:31Z</time>
      </trkpt>
      <trkpt lat="42.481401" lon="1.716626">
        <ele>2428.1</ele>
        <time>2013-08-08T16:50:42Z</time>
      </trkpt>
      <trkpt lat="42.481391" lon="1.716644">
        <ele>2428.3</ele>
        <time>2013-08-08T16:50:45Z</time>
      </trkpt>
      <trkpt lat="42.481382" lon="1.716747">
        <ele>2431.8</ele>
        <time>2013-08-08T16:50:55Z</time>
      </trkpt>
      <trkpt lat="42.481384" lon="1.716818">
        <ele>2432.8</ele>
        <time>2013-08-08T16:51:03Z</time>
      </trkpt>
      <trkpt lat="42.481360" lon="1.716880">
        <ele>2433.7</ele>
        <time>2013-08-08T16:51:13Z</time>
      </trkpt>
      <trkpt lat="42.481351" lon="1.716924">
        <ele>2434.6</ele>
        <time>2013-08-08T16:51:18Z</time>
      </trkpt>
      <trkpt lat="42.481338" lon="1.716976">
        <ele>2435.9</ele>
        <time>2013-08-08T16:51:24Z</time>
      </trkpt>
      <trkpt lat="42.481318" lon="1.717084">
        <ele>2438.1</ele>
        <time>2013-08-08T16:51:35Z</time>
      </trkpt>
      <trkpt lat="42.481285" lon="1.717181">
        <ele>2439.9</ele>
        <time>2013-08-08T16:51:46Z</time>
      </trkpt>
      <trkpt lat="42.481270" lon="1.717254">
        <ele>2441.3</ele>
        <time>2013-08-08T16:51:55Z</time>
      </trkpt>
      <trkpt lat="42.481233" lon="1.717323">
        <ele>2443.4</ele>
        <time>2013-08-08T16:52:06Z</time>
      </trkpt>
      <trkpt lat="42.481231" lon="1.717328">
        <ele>2443.6</ele>
        <time>2013-08-08T16:52:07Z</time>
      </trkpt>
      <trkpt lat="42.481204" lon="1.717381">
        <ele>2445.5</ele>
        <time>2013-08-08T16:52:18Z</time>
      </trkpt>
      <trkpt lat="42.481189" lon="1.717440">
        <ele>2447.3</ele>
        <time>2013-08-08T16:52:28Z</time>
      </trkpt>
      <trkpt lat="42.481190" lon="1.717442">
        <ele>2447.4</ele>
        <time>2013-08-08T16:52:43Z</time>
      </trkpt>
      <trkpt lat="42.481178" lon="1.717474">
        <ele>2448.4</ele>
        <time>2013-08-08T16:52:47Z</time>
      </trkpt>
      <trkpt lat="42.481173" lon="1.717503">
        <ele>2449.3</ele>
        <time>2013-08-08T16:53:00Z</time>
      </trkpt>
      <trkpt lat="42.481155" lon="1.717552">
        <ele>2450.4</ele>
        <time>2013-08-08T16:53:12Z</time>
      </trkpt>
      <trkpt lat="42.481130" lon="1.717594">
        <ele>2451.1</ele>
        <time>2013-08-08T16:53:24Z</time>
      </trkpt>
      <trkpt lat="42.481136" lon="1.717647">
        <ele>2452.9</ele>
        <time>2013-08-08T16:53:36Z</time>
      </trkpt>
      <trkpt lat="42.481138" lon="1.717659">
        <ele>2453.5</ele>
        <time>2013-08-08T16:53:38Z</time>
      </trkpt>
      <trkpt lat="42.481151" lon="1.717682">
        <ele>2454.8</ele>
        <time>2013-08-08T16:53:41Z</time>
      </trkpt>
      <trkpt lat="42.481238" lon="1.717685">
        <ele>2457.2</ele>
        <time>2013-08-08T16:53:52Z</time>
      </trkpt>
      <trkpt lat="42.481256" lon="1.717681">
        <ele>2457.6</ele>
        <time>2013-08-08T16:53:56Z</time>
      </trkpt>
      <trkpt lat="42.481279" lon="1.717689">
        <ele>2458.5</ele>
        <time>2013-08-08T16:53:59Z</time>
      </trkpt>
      <trkpt lat="42.481298" lon="1.717684">
        <ele>2458.7</ele>
        <time>2013-08-08T16:54:01Z</time>
      </trkpt>
      <trkpt lat="42.481366" lon="1.717692">
        <ele>2461.2</ele>
        <time>2013-08-08T16:54:12Z</time>
      </trkpt>
      <trkpt lat="42.481345" lon="1.717725">
        <ele>2461.9</ele>
        <time>2013-08-08T16:54:21Z</time>
      </trkpt>
      <trkpt lat="42.481334" lon="1.717743">
        <ele>2462.3</ele>
        <time>2013-08-08T16:54:27Z</time>
      </trkpt>
      <trkpt lat="42.481316" lon="1.717778">
        <ele>2463.5</ele>
        <time>2013-08-08T16:54:36Z</time>
      </trkpt>
      <trkpt lat="42.481312" lon="1.717801">
        <ele>2464.6</ele>
        <time>2013-08-08T16:54:46Z</time>
      </trkpt>
      <trkpt lat="42.481287" lon="1.717879">
        <ele>2467.2</ele>
        <time>2013-08-08T16:54:55Z</time>
      </trkpt>
      <trkpt lat="42.481259" lon="1.717969">
        <ele>2469.6</ele>
        <time>2013-08-08T16:55:02Z</time>
      </trkpt>
      <trkpt lat="42.481225" lon="1.718090">
        <ele>2472.1</ele>
        <time>2013-08-08T16:55:14Z</time>
      </trkpt>
      <trkpt lat="42.481186" lon="1.718119">
        <ele>2471.5</ele>
        <time>2013-08-08T16:55:25Z</time>
      </trkpt>
      <trkpt lat="42.481183" lon="1.718130">
        <ele>2471.9</ele>
        <time>2013-08-08T16:55:32Z</time>
      </trkpt>
      <trkpt lat="42.481183" lon="1.718130">
        <ele>2471.9</ele>
        <time>2013-08-08T16:55:40Z</time>
      </trkpt>
      <trkpt lat="42.481143" lon="1.718248">
        <ele>2477.0</ele>
        <time>2013-08-08T16:55:51Z</time>
      </trkpt>
      <trkpt lat="42.481109" lon="1.718359">
        <ele>2480.0</ele>
        <time>2013-08-08T16:56:01Z</time>
      </trkpt>
      <trkpt lat="42.481081" lon="1.718442">
        <ele>2480.7</ele>
        <time>2013-08-08T16:56:11Z</time>
      </trkpt>
      <trkpt lat="42.481062" lon="1.718504">
        <ele>2481.8</ele>
        <time>2013-08-08T16:56:24Z</time>
      </trkpt>
      <trkpt lat="42.481060" lon="1.718524">
        <ele>2482.4</ele>
        <time>2013-08-08T16:56:31Z</time>
      </trkpt>
      <trkpt lat="42.481056" lon="1.718563">
        <ele>2483.6</ele>
        <time>2013-08-08T16:56:46Z</time>
      </trkpt>
      <trkpt lat="42.481037" lon="1.718604">
        <ele>2484.9</ele>
        <time>2013-08-08T17:01:13Z</time>
      </trkpt>
      <trkpt lat="42.481037" lon="1.718604">
        <ele>2484.9</ele>
        <time>2013-08-08T17:01:22Z</time>
      </trkpt>
      <trkpt lat="42.481041" lon="1.718618">
        <ele>2485.5</ele>
        <time>2013-08-08T17:01:46Z</time>
      </trkpt>
      <trkpt lat="42.481019" lon="1.718629">
        <ele>2485.7</ele>
        <time>2013-08-08T17:02:03Z</time>
      </trkpt>
      <trkpt lat="42.480993" lon="1.718659">
        <ele>2486.5</ele>
        <time>2013-08-08T17:02:15Z</time>
      </trkpt>
      <trkpt lat="42.480993" lon="1.718659">
        <ele>2486.5</ele>
        <time>2013-08-08T17:02:31Z</time>
      </trkpt>
      <trkpt lat="42.480979" lon="1.718746">
        <ele>2489.3</ele>
        <time>2013-08-08T17:02:47Z</time>
      </trkpt>
      <trkpt lat="42.480968" lon="1.718792">
        <ele>2490.6</ele>
        <time>2013-08-08T17:02:53Z</time>
      </trkpt>
      <trkpt lat="42.480959" lon="1.718871">
        <ele>2492.9</ele>
        <time>2013-08-08T17:03:01Z</time>
      </trkpt>
      <trkpt lat="42.480955" lon="1.718952">
        <ele>2495.3</ele>
        <time>2013-08-08T17:03:11Z</time>
      </trkpt>
      <trkpt lat="42.480941" lon="1.719032">
        <ele>2497.7</ele>
        <time>2013-08-08T17:03:22Z</time>
      </trkpt>
      <trkpt lat="42.480937" lon="1.719067">
        <ele>2498.8</ele>
        <time>2013-08-08T17:03:27Z</time>
      </trkpt>
      <trkpt lat="42.480920" lon="1.719116">
        <ele>2500.7</ele>
        <time>2013-08-08T17:03:38Z</time>
      </trkpt>
      <trkpt lat="42.480912" lon="1.719167">
        <ele>2502.3</ele>
        <time>2013-08-08T17:03:50Z</time>
      </trkpt>
      <trkpt lat="42.480923" lon="1.719214">
        <ele>2503.0</ele>
        <time>2013-08-08T17:04:01Z</time>
      </trkpt>
      <trkpt lat="42.480921" lon="1.719252">
        <ele>2504.0</ele>
        <time>2013-08-08T17:04:07Z</time>
      </trkpt>
      <trkpt lat="42.480912" lon="1.719308">
        <ele>2505.7</ele>
        <time>2013-08-08T17:04:13Z</time>
      </trkpt>
      <trkpt lat="42.480911" lon="1.719315">
        <ele>2505.9</ele>
        <time>2013-08-08T17:04:15Z</time>
      </trkpt>
      <trkpt lat="42.480909" lon="1.719405">
        <ele>2508.6</ele>
        <time>2013-08-08T17:04:28Z</time>
      </trkpt>
      <trkpt lat="42.480912" lon="1.719460">
        <ele>2510.6</ele>
        <time>2013-08-08T17:04:39Z</time>
      </trkpt>
      <trkpt lat="42.480929" lon="1.719521">
        <ele>2512.3</ele>
        <time>2013-08-08T17:04:50Z</time>
      </trkpt>
      <trkpt lat="42.480946" lon="1.719606">
        <ele>2515.5</ele>
        <time>2013-08-08T17:05:00Z</time>
      </trkpt>
      <trkpt lat="42.480962" lon="1.719656">
        <ele>2517.6</ele>
        <time>2013-08-08T17:05:12Z</time>
      </trkpt>
      <trkpt lat="42.480977" lon="1.719699">
        <ele>2519.2</ele>
        <time>2013-08-08T17:05:22Z</time>
      </trkpt>
      <trkpt lat="42.480993" lon="1.719754">
        <ele>2521.6</ele>
        <time>2013-08-08T17:05:35Z</time>
      </trkpt>
      <trkpt lat="42.481014" lon="1.719804">
        <ele>2523.0</ele>
        <time>2013-08-08T17:05:40Z</time>
      </trkpt>
      <trkpt lat="42.481015" lon="1.719812">
        <ele>2523.3</ele>
        <time>2013-08-08T17:05:41Z</time>
      </trkpt>
      <trkpt lat="42.481024" lon="1.719848">
        <ele>2524.1</ele>
        <time>2013-08-08T17:05:52Z</time>
      </trkpt>
      <trkpt lat="42.481023" lon="1.719841">
        <ele>2524.0</ele>
        <time>2013-08-08T17:06:02Z</time>
      </trkpt>
      <trkpt lat="42.481028" lon="1.719879">
        <ele>2525.1</ele>
        <time>2013-08-08T17:06:13Z</time>
      </trkpt>
      <trkpt lat="42.481017" lon="1.719912">
        <ele>2527.1</ele>
        <time>2013-08-08T17:06:25Z</time>
      </trkpt>
      <trkpt lat="42.481017" lon="1.719912">
        <ele>2527.1</ele>
        <time>2013-08-08T17:06:26Z</time>
      </trkpt>
      <trkpt lat="42.481009" lon="1.719916">
        <ele>2527.6</ele>
        <time>2013-08-08T17:06:37Z</time>
      </trkpt>
      <trkpt lat="42.480967" lon="1.719934">
        <ele>2530.7</ele>
        <time>2013-08-08T17:06:51Z</time>
      </trkpt>
      <trkpt lat="42.480926" lon="1.719918">
        <ele>2532.5</ele>
        <time>2013-08-08T17:06:59Z</time>
      </trkpt>
      <trkpt lat="42.480913" lon="1.719918">
        <ele>2533.2</ele>
        <time>2013-08-08T17:07:04Z</time>
      </trkpt>
      <trkpt lat="42.480883" lon="1.719927">
        <ele>2535.4</ele>
        <time>2013-08-08T17:07:15Z</time>
      </trkpt>
      <trkpt lat="42.480814" lon="1.719917">
        <ele>2538.5</ele>
        <time>2013-08-08T17:07:29Z</time>
      </trkpt>
      <trkpt lat="42.480814" lon="1.719917">
        <ele>2538.5</ele>
        <time>2013-08-08T17:07:49Z</time>
      </trkpt>
      <trkpt lat="42.480798" lon="1.719924">
        <ele>2539.7</ele>
        <time>2013-08-08T17:08:03Z</time>
      </trkpt>
      <trkpt lat="42.480765" lon="1.719929">
        <ele>2542.0</ele>
        <time>2013-08-08T17:08:16Z</time>
      </trkpt>
      <trkpt lat="42.480743" lon="1.719947">
        <ele>2544.1</ele>
        <time>2013-08-08T17:08:29Z</time>
      </trkpt>
      <trkpt lat="42.480727" lon="1.719956">
        <ele>2545.4</ele>
        <time>2013-08-08T17:08:40Z</time>
      </trkpt>
      <trkpt lat="42.480727" lon="1.719956">
        <ele>2545.4</ele>
        <time>2013-08-08T17:08:45Z</time>
      </trkpt>
      <trkpt lat="42.480727" lon="1.719956">
        <ele>2545.4</ele>
        <time>2013-08-08T17:08:47Z</time>
      </trkpt>
      <trkpt lat="42.480653" lon="1.719973">
        <ele>2548.6</ele>
        <time>2013-08-08T17:08:59Z</time>
      </trkpt>
      <trkpt lat="42.480625" lon="1.719967">
        <ele>2548.9</ele>
        <time>2013-08-08T17:09:04Z</time>
      </trkpt>
      <trkpt lat="42.480509" lon="1.719968">
        <ele>2553.5</ele>
        <time>2013-08-08T17:09:15Z</time>
      </trkpt>
      <trkpt lat="42.480454" lon="1.719957">
        <ele>2555.1</ele>
        <time>2013-08-08T17:09:24Z</time>
      </trkpt>
      <trkpt lat="42.480378" lon="1.719933">
        <ele>2557.9</ele>
        <time>2013-08-08T17:09:36Z</time>
      </trkpt>
      <trkpt lat="42.480357" lon="1.719929">
        <ele>2558.7</ele>
        <time>2013-08-08T17:09:41Z</time>
      </trkpt>
      <trkpt lat="42.480300" lon="1.719910">
        <ele>2560.3</ele>
        <time>2013-08-08T17:09:51Z</time>
      </trkpt>
      <trkpt lat="42.480252" lon="1.719902">
        <ele>2561.8</ele>
        <time>2013-08-08T17:10:02Z</time>
      </trkpt>
      <trkpt lat="42.480179" lon="1.719899">
        <ele>2564.6</ele>
        <time>2013-08-08T17:10:14Z</time>
      </trkpt>
      <trkpt lat="42.480173" lon="1.719899">
        <ele>2564.9</ele>
        <time>2013-08-08T17:10:19Z</time>
      </trkpt>
      <trkpt lat="42.480166" lon="1.719902">
        <ele>2565.2</ele>
        <time>2013-08-08T17:10:24Z</time>
      </trkpt>
      <trkpt lat="42.480115" lon="1.719951">
        <ele>2568.5</ele>
        <time>2013-08-08T17:10:36Z</time>
      </trkpt>
      <trkpt lat="42.480104" lon="1.719984">
        <ele>2569.9</ele>
        <time>2013-08-08T17:10:48Z</time>
      </trkpt>
      <trkpt lat="42.480083" lon="1.720027">
        <ele>2572.1</ele>
        <time>2013-08-08T17:11:01Z</time>
      </trkpt>
      <trkpt lat="42.480083" lon="1.720027">
        <ele>2572.1</ele>
        <time>2013-08-08T17:11:06Z</time>
      </trkpt>
      <trkpt lat="42.480019" lon="1.720104">
        <ele>2575.1</ele>
        <time>2013-08-08T17:11:17Z</time>
      </trkpt>
      <trkpt lat="42.479985" lon="1.720136">
        <ele>2576.5</ele>
        <time>2013-08-08T17:11:22Z</time>
      </trkpt>
      <trkpt lat="42.479975" lon="1.720153">
        <ele>2577.4</ele>
        <time>2013-08-08T17:11:24Z</time>
      </trkpt>
      <trkpt lat="42.479929" lon="1.720226">
        <ele>2580.4</ele>
        <time>2013-08-08T17:11:36Z</time>
      </trkpt>
      <trkpt lat="42.479861" lon="1.720256">
        <ele>2581.9</ele>
        <time>2013-08-08T17:11:46Z</time>
      </trkpt>
      <trkpt lat="42.479855" lon="1.720254">
        <ele>2581.8</ele>
        <time>2013-08-08T17:11:47Z</time>
      </trkpt>
      <trkpt lat="42.479818" lon="1.720251">
        <ele>2581.9</ele>
        <time>2013-08-08T17:11:51Z</time>
      </trkpt>
      <trkpt lat="42.479789" lon="1.720307">
        <ele>2583.3</ele>
        <time>2013-08-08T17:11:58Z</time>
      </trkpt>
      <trkpt lat="42.479775" lon="1.720326">
        <ele>2583.6</ele>
        <time>2013-08-08T17:12:01Z</time>
      </trkpt>
      <trkpt lat="42.479753" lon="1.720358">
        <ele>2584.6</ele>
        <time>2013-08-08T17:12:06Z</time>
      </trkpt>
      <trkpt lat="42.479737" lon="1.720364">
        <ele>2585.0</ele>
        <time>2013-08-08T17:12:09Z</time>
      </trkpt>
      <trkpt lat="42.479681" lon="1.720419">
        <ele>2587.4</ele>
        <time>2013-08-08T17:12:19Z</time>
      </trkpt>
      <trkpt lat="42.479678" lon="1.720425">
        <ele>2587.5</ele>
        <time>2013-08-08T17:12:20Z</time>
      </trkpt>
      <trkpt lat="42.479646" lon="1.720462">
        <ele>2588.9</ele>
        <time>2013-08-08T17:12:25Z</time>
      </trkpt>
      <trkpt lat="42.479624" lon="1.720499">
        <ele>2589.9</ele>
        <time>2013-08-08T17:12:30Z</time>
      </trkpt>
      <trkpt lat="42.479606" lon="1.720633">
        <ele>2592.0</ele>
        <time>2013-08-08T17:12:42Z</time>
      </trkpt>
      <trkpt lat="42.479593" lon="1.720659">
        <ele>2592.6</ele>
        <time>2013-08-08T17:12:45Z</time>
      </trkpt>
      <trkpt lat="42.479583" lon="1.720789">
        <ele>2595.2</ele>
        <time>2013-08-08T17:12:57Z</time>
      </trkpt>
      <trkpt lat="42.479564" lon="1.720901">
        <ele>2597.1</ele>
        <time>2013-08-08T17:13:07Z</time>
      </trkpt>
      <trkpt lat="42.479572" lon="1.720969">
        <ele>2598.4</ele>
        <time>2013-08-08T17:13:13Z</time>
      </trkpt>
      <trkpt lat="42.479574" lon="1.721043">
        <ele>2599.8</ele>
        <time>2013-08-08T17:13:21Z</time>
      </trkpt>
      <trkpt lat="42.479577" lon="1.721094">
        <ele>2600.6</ele>
        <time>2013-08-08T17:13:25Z</time>
      </trkpt>
      <trkpt lat="42.479594" lon="1.721204">
        <ele>2602.8</ele>
        <time>2013-08-08T17:13:34Z</time>
      </trkpt>
      <trkpt lat="42.479583" lon="1.721243">
        <ele>2603.6</ele>
        <time>2013-08-08T17:13:38Z</time>
      </trkpt>
      <trkpt lat="42.479571" lon="1.721316">
        <ele>2604.8</ele>
        <time>2013-08-08T17:13:44Z</time>
      </trkpt>
      <trkpt lat="42.479600" lon="1.721367">
        <ele>2606.2</ele>
        <time>2013-08-08T17:13:50Z</time>
      </trkpt>
      <trkpt lat="42.479605" lon="1.721388">
        <ele>2606.6</ele>
        <time>2013-08-08T17:13:53Z</time>
      </trkpt>
      <trkpt lat="42.479628" lon="1.721430">
        <ele>2607.4</ele>
        <time>2013-08-08T17:13:59Z</time>
      </trkpt>
      <trkpt lat="42.479638" lon="1.721459">
        <ele>2607.8</ele>
        <time>2013-08-08T17:14:02Z</time>
      </trkpt>
      <trkpt lat="42.479647" lon="1.721496">
        <ele>2608.2</ele>
        <time>2013-08-08T17:14:05Z</time>
      </trkpt>
      <trkpt lat="42.479690" lon="1.721582">
        <ele>2609.2</ele>
        <time>2013-08-08T17:14:13Z</time>
      </trkpt>
      <trkpt lat="42.479692" lon="1.721688">
        <ele>2610.8</ele>
        <time>2013-08-08T17:14:22Z</time>
      </trkpt>
      <trkpt lat="42.479701" lon="1.721723">
        <ele>2611.3</ele>
        <time>2013-08-08T17:14:25Z</time>
      </trkpt>
      <trkpt lat="42.479712" lon="1.721770">
        <ele>2612.0</ele>
        <time>2013-08-08T17:14:29Z</time>
      </trkpt>
      <trkpt lat="42.479708" lon="1.721810">
        <ele>2612.6</ele>
        <time>2013-08-08T17:14:32Z</time>
      </trkpt>
      <trkpt lat="42.479700" lon="1.721864">
        <ele>2613.4</ele>
        <time>2013-08-08T17:14:36Z</time>
      </trkpt>
      <trkpt lat="42.479695" lon="1.721886">
        <ele>2613.7</ele>
        <time>2013-08-08T17:14:40Z</time>
      </trkpt>
      <trkpt lat="42.479711" lon="1.721926">
        <ele>2614.6</ele>
        <time>2013-08-08T17:14:44Z</time>
      </trkpt>
      <trkpt lat="42.479715" lon="1.721956">
        <ele>2615.1</ele>
        <time>2013-08-08T17:14:46Z</time>
      </trkpt>
      <trkpt lat="42.479726" lon="1.721974">
        <ele>2615.5</ele>
        <time>2013-08-08T17:14:48Z</time>
      </trkpt>
      <trkpt lat="42.479732" lon="1.721990">
        <ele>2615.7</ele>
        <time>2013-08-08T17:14:50Z</time>
      </trkpt>
      <trkpt lat="42.479742" lon="1.722025">
        <ele>2616.2</ele>
        <time>2013-08-08T17:14:53Z</time>
      </trkpt>
      <trkpt lat="42.479754" lon="1.722072">
        <ele>2616.9</ele>
        <time>2013-08-08T17:14:57Z</time>
      </trkpt>
      <trkpt lat="42.479802" lon="1.722195">
        <ele>2618.6</ele>
        <time>2013-08-08T17:15:08Z</time>
      </trkpt>
      <trkpt lat="42.479811" lon="1.722213">
        <ele>2618.9</ele>
        <time>2013-08-08T17:15:10Z</time>
      </trkpt>
      <trkpt lat="42.479831" lon="1.722256">
        <ele>2619.7</ele>
        <time>2013-08-08T17:15:15Z</time>
      </trkpt>
      <trkpt lat="42.479836" lon="1.722269">
        <ele>2619.9</ele>
        <time>2013-08-08T17:15:16Z</time>
      </trkpt>
      <trkpt lat="42.479854" lon="1.722362">
        <ele>2621.3</ele>
        <time>2013-08-08T17:15:24Z</time>
      </trkpt>
      <trkpt lat="42.479869" lon="1.722448">
        <ele>2622.5</ele>
        <time>2013-08-08T17:15:31Z</time>
      </trkpt>
      <trkpt lat="42.479901" lon="1.722568">
        <ele>2624.7</ele>
        <time>2013-08-08T17:15:42Z</time>
      </trkpt>
      <trkpt lat="42.479907" lon="1.722604">
        <ele>2625.4</ele>
        <time>2013-08-08T17:15:45Z</time>
      </trkpt>
      <trkpt lat="42.479906" lon="1.722636">
        <ele>2625.9</ele>
        <time>2013-08-08T17:15:48Z</time>
      </trkpt>
      <trkpt lat="42.479902" lon="1.722679">
        <ele>2626.5</ele>
        <time>2013-08-08T17:15:52Z</time>
      </trkpt>
      <trkpt lat="42.479887" lon="1.722742">
        <ele>2627.3</ele>
        <time>2013-08-08T17:15:58Z</time>
      </trkpt>
      <trkpt lat="42.479868" lon="1.722826">
        <ele>2628.4</ele>
        <time>2013-08-08T17:16:05Z</time>
      </trkpt>
      <trkpt lat="42.479882" lon="1.722968">
        <ele>2630.4</ele>
        <time>2013-08-08T17:16:16Z</time>
      </trkpt>
      <trkpt lat="42.479881" lon="1.722999">
        <ele>2630.9</ele>
        <time>2013-08-08T17:16:19Z</time>
      </trkpt>
      <trkpt lat="42.479874" lon="1.723114">
        <ele>2632.8</ele>
        <time>2013-08-08T17:16:29Z</time>
      </trkpt>
      <trkpt lat="42.479843" lon="1.723225">
        <ele>2634.8</ele>
        <time>2013-08-08T17:16:39Z</time>
      </trkpt>
      <trkpt lat="42.479839" lon="1.723330">
        <ele>2636.4</ele>
        <time>2013-08-08T17:16:48Z</time>
      </trkpt>
      <trkpt lat="42.479825" lon="1.723419">
        <ele>2637.8</ele>
        <time>2013-08-08T17:16:57Z</time>
      </trkpt>
      <trkpt lat="42.479827" lon="1.723445">
        <ele>2638.3</ele>
        <time>2013-08-08T17:17:00Z</time>
      </trkpt>
      <trkpt lat="42.479827" lon="1.723470">
        <ele>2638.8</ele>
        <time>2013-08-08T17:17:14Z</time>
      </trkpt>
      <trkpt lat="42.479827" lon="1.723480">
        <ele>2639.0</ele>
        <time>2013-08-08T17:17:22Z</time>
      </trkpt>
      <trkpt lat="42.479856" lon="1.723564">
        <ele>2640.7</ele>
        <time>2013-08-08T17:17:29Z</time>
      </trkpt>
      <trkpt lat="42.479878" lon="1.723645">
        <ele>2642.0</ele>
        <time>2013-08-08T17:17:36Z</time>
      </trkpt>
      <trkpt lat="42.479892" lon="1.723692">
        <ele>2642.9</ele>
        <time>2013-08-08T17:17:40Z</time>
      </trkpt>
      <trkpt lat="42.479907" lon="1.723777">
        <ele>2644.7</ele>
        <time>2013-08-08T17:17:47Z</time>
      </trkpt>
      <trkpt lat="42.479915" lon="1.723826">
        <ele>2645.8</ele>
        <time>2013-08-08T17:17:51Z</time>
      </trkpt>
      <trkpt lat="42.479910" lon="1.723901">
        <ele>2647.3</ele>
        <time>2013-08-08T17:17:58Z</time>
      </trkpt>
      <trkpt lat="42.479887" lon="1.723989">
        <ele>2648.5</ele>
        <time>2013-08-08T17:18:08Z</time>
      </trkpt>
      <trkpt lat="42.479900" lon="1.724091">
        <ele>2650.5</ele>
        <time>2013-08-08T17:18:17Z</time>
      </trkpt>
      <trkpt lat="42.479913" lon="1.724130">
        <ele>2651.3</ele>
        <time>2013-08-08T17:18:21Z</time>
      </trkpt>
      <trkpt lat="42.479932" lon="1.724159">
        <ele>2651.9</ele>
        <time>2013-08-08T17:18:24Z</time>
      </trkpt>
      <trkpt lat="42.479961" lon="1.724243">
        <ele>2653.5</ele>
        <time>2013-08-08T17:18:33Z</time>
      </trkpt>
      <trkpt lat="42.479978" lon="1.724284">
        <ele>2654.4</ele>
        <time>2013-08-08T17:18:37Z</time>
      </trkpt>
      <trkpt lat="42.479984" lon="1.724322">
        <ele>2655.1</ele>
        <time>2013-08-08T17:18:40Z</time>
      </trkpt>
      <trkpt lat="42.480017" lon="1.724400">
        <ele>2656.6</ele>
        <time>2013-08-08T17:18:47Z</time>
      </trkpt>
      <trkpt lat="42.480025" lon="1.724430">
        <ele>2657.1</ele>
        <time>2013-08-08T17:18:50Z</time>
      </trkpt>
      <trkpt lat="42.480052" lon="1.724550">
        <ele>2659.3</ele>
        <time>2013-08-08T17:19:01Z</time>
      </trkpt>
      <trkpt lat="42.480061" lon="1.724571">
        <ele>2659.6</ele>
        <time>2013-08-08T17:19:03Z</time>
      </trkpt>
      <trkpt lat="42.480078" lon="1.724596">
        <ele>2660.0</ele>
        <time>2013-08-08T17:19:06Z</time>
      </trkpt>
      <trkpt lat="42.480086" lon="1.724631">
        <ele>2660.6</ele>
        <time>2013-08-08T17:19:10Z</time>
      </trkpt>
      <trkpt lat="42.480109" lon="1.724763">
        <ele>2663.1</ele>
        <time>2013-08-08T17:19:21Z</time>
      </trkpt>
      <trkpt lat="42.480130" lon="1.724849">
        <ele>2664.5</ele>
        <time>2013-08-08T17:19:29Z</time>
      </trkpt>
      <trkpt lat="42.480135" lon="1.724868">
        <ele>2664.9</ele>
        <time>2013-08-08T17:19:32Z</time>
      </trkpt>
      <trkpt lat="42.480144" lon="1.724897">
        <ele>2665.6</ele>
        <time>2013-08-08T17:19:35Z</time>
      </trkpt>
      <trkpt lat="42.480156" lon="1.724923">
        <ele>2666.3</ele>
        <time>2013-08-08T17:19:38Z</time>
      </trkpt>
      <trkpt lat="42.480174" lon="1.724944">
        <ele>2666.9</ele>
        <time>2013-08-08T17:19:41Z</time>
      </trkpt>
      <trkpt lat="42.480235" lon="1.725055">
        <ele>2669.5</ele>
        <time>2013-08-08T17:19:52Z</time>
      </trkpt>
      <trkpt lat="42.480257" lon="1.725159">
        <ele>2671.7</ele>
        <time>2013-08-08T17:20:01Z</time>
      </trkpt>
      <trkpt lat="42.480280" lon="1.725230">
        <ele>2673.0</ele>
        <time>2013-08-08T17:20:08Z</time>
      </trkpt>
      <trkpt lat="42.480320" lon="1.725318">
        <ele>2674.0</ele>
        <time>2013-08-08T17:20:17Z</time>
      </trkpt>
      <trkpt lat="42.480347" lon="1.725407">
        <ele>2675.5</ele>
        <time>2013-08-08T17:20:25Z</time>
      </trkpt>
      <trkpt lat="42.480358" lon="1.725449">
        <ele>2676.5</ele>
        <time>2013-08-08T17:20:29Z</time>
      </trkpt>
      <trkpt lat="42.480371" lon="1.725462">
        <ele>2676.9</ele>
        <time>2013-08-08T17:20:31Z</time>
      </trkpt>
      <trkpt lat="42.480412" lon="1.725484">
        <ele>2677.8</ele>
        <time>2013-08-08T17:20:37Z</time>
      </trkpt>
      <trkpt lat="42.480456" lon="1.725527">
        <ele>2678.7</ele>
        <time>2013-08-08T17:20:43Z</time>
      </trkpt>
      <trkpt lat="42.480478" lon="1.725554">
        <ele>2679.2</ele>
        <time>2013-08-08T17:20:46Z</time>
      </trkpt>
      <trkpt lat="42.480539" lon="1.725678">
        <ele>2680.9</ele>
        <time>2013-08-08T17:20:58Z</time>
      </trkpt>
      <trkpt lat="42.480595" lon="1.725747">
        <ele>2682.0</ele>
        <time>2013-08-08T17:21:07Z</time>
      </trkpt>
      <trkpt lat="42.480668" lon="1.725819">
        <ele>2683.4</ele>
        <time>2013-08-08T17:21:17Z</time>
      </trkpt>
      <trkpt lat="42.480695" lon="1.725847">
        <ele>2684.0</ele>
        <time>2013-08-08T17:21:21Z</time>
      </trkpt>
      <trkpt lat="42.480715" lon="1.725858">
        <ele>2684.4</ele>
        <time>2013-08-08T17:21:24Z</time>
      </trkpt>
      <trkpt lat="42.480746" lon="1.725873">
        <ele>2684.9</ele>
        <time>2013-08-08T17:21:27Z</time>
      </trkpt>
      <trkpt lat="42.480810" lon="1.725993">
        <ele>2686.1</ele>
        <time>2013-08-08T17:21:38Z</time>
      </trkpt>
      <trkpt lat="42.480892" lon="1.726124">
        <ele>2687.7</ele>
        <time>2013-08-08T17:21:50Z</time>
      </trkpt>
      <trkpt lat="42.480953" lon="1.726227">
        <ele>2689.0</ele>
        <time>2013-08-08T17:22:01Z</time>
      </trkpt>
      <trkpt lat="42.480973" lon="1.726254">
        <ele>2689.3</ele>
        <time>2013-08-08T17:22:04Z</time>
      </trkpt>
      <trkpt lat="42.481063" lon="1.726344">
        <ele>2690.1</ele>
        <time>2013-08-08T17:22:16Z</time>
      </trkpt>
      <trkpt lat="42.481073" lon="1.726359">
        <ele>2690.2</ele>
        <time>2013-08-08T17:22:18Z</time>
      </trkpt>
      <trkpt lat="42.481109" lon="1.726460">
        <ele>2690.5</ele>
        <time>2013-08-08T17:22:33Z</time>
      </trkpt>
      <trkpt lat="42.481109" lon="1.726460">
        <ele>2690.5</ele>
        <time>2013-08-08T17:22:54Z</time>
      </trkpt>
      <trkpt lat="42.481142" lon="1.726510">
        <ele>2690.5</ele>
        <time>2013-08-08T17:23:06Z</time>
      </trkpt>
      <trkpt lat="42.481152" lon="1.726535">
        <ele>2690.4</ele>
        <time>2013-08-08T17:23:28Z</time>
      </trkpt>
      <trkpt lat="42.481218" lon="1.726623">
        <ele>2689.7</ele>
        <time>2013-08-08T17:23:42Z</time>
      </trkpt>
      <trkpt lat="42.481229" lon="1.726669">
        <ele>2689.2</ele>
        <time>2013-08-08T17:24:01Z</time>
      </trkpt>
      <trkpt lat="42.481281" lon="1.726780">
        <ele>2686.6</ele>
        <time>2013-08-08T17:24:16Z</time>
      </trkpt>
      <trkpt lat="42.481290" lon="1.726927">
        <ele>2682.2</ele>
        <time>2013-08-08T17:35:20Z</time>
      </trkpt>
      <trkpt lat="42.481331" lon="1.726926">
        <ele>2680.3</ele>
        <time>2013-08-08T17:35:26Z</time>
      </trkpt>
      <trkpt lat="42.481388" lon="1.726924">
        <ele>2677.4</ele>
        <time>2013-08-08T17:35:39Z</time>
      </trkpt>
      <trkpt lat="42.481390" lon="1.726926">
        <ele>2677.2</ele>
        <time>2013-08-08T17:35:43Z</time>
      </trkpt>
      <trkpt lat="42.481390" lon="1.726926">
        <ele>2677.2</ele>
        <time>2013-08-08T17:35:47Z</time>
      </trkpt>
      <trkpt lat="42.481408" lon="1.727026">
        <ele>2673.5</ele>
        <time>2013-08-08T17:36:00Z</time>
      </trkpt>
      <trkpt lat="42.481392" lon="1.727146">
        <ele>2669.1</ele>
        <time>2013-08-08T17:36:13Z</time>
      </trkpt>
      <trkpt lat="42.481396" lon="1.727161">
        <ele>2668.3</ele>
        <time>2013-08-08T17:36:20Z</time>
      </trkpt>
      <trkpt lat="42.481402" lon="1.727229">
        <ele>2665.7</ele>
        <time>2013-08-08T17:36:25Z</time>
      </trkpt>
      <trkpt lat="42.481403" lon="1.727289">
        <ele>2664.1</ele>
        <time>2013-08-08T17:36:30Z</time>
      </trkpt>
      <trkpt lat="42.481402" lon="1.727285">
        <ele>2664.2</ele>
        <time>2013-08-08T17:36:32Z</time>
      </trkpt>
      <trkpt lat="42.481434" lon="1.727341">
        <ele>2661.1</ele>
        <time>2013-08-08T17:36:44Z</time>
      </trkpt>
      <trkpt lat="42.481439" lon="1.727337">
        <ele>2660.9</ele>
        <time>2013-08-08T17:36:45Z</time>
      </trkpt>
      <trkpt lat="42.481479" lon="1.727300">
        <ele>2659.5</ele>
        <time>2013-08-08T17:36:58Z</time>
      </trkpt>
      <trkpt lat="42.481479" lon="1.727300">
        <ele>2659.5</ele>
        <time>2013-08-08T17:37:00Z</time>
      </trkpt>
      <trkpt lat="42.481504" lon="1.727291">
        <ele>2658.1</ele>
        <time>2013-08-08T17:37:11Z</time>
      </trkpt>
      <trkpt lat="42.481513" lon="1.727301">
        <ele>2657.1</ele>
        <time>2013-08-08T17:37:15Z</time>
      </trkpt>
      <trkpt lat="42.481502" lon="1.727313">
        <ele>2657.4</ele>
        <time>2013-08-08T17:37:27Z</time>
      </trkpt>
      <trkpt lat="42.481499" lon="1.727321">
        <ele>2657.3</ele>
        <time>2013-08-08T17:37:30Z</time>
      </trkpt>
      <trkpt lat="42.481497" lon="1.727319">
        <ele>2657.5</ele>
        <time>2013-08-08T17:37:35Z</time>
      </trkpt>
      <trkpt lat="42.481497" lon="1.727319">
        <ele>2657.5</ele>
        <time>2013-08-08T17:37:43Z</time>
      </trkpt>
      <trkpt lat="42.481537" lon="1.727283">
        <ele>2655.6</ele>
        <time>2013-08-08T17:37:56Z</time>
      </trkpt>
      <trkpt lat="42.481600" lon="1.727301">
        <ele>2649.9</ele>
        <time>2013-08-08T17:38:05Z</time>
      </trkpt>
      <trkpt lat="42.481638" lon="1.727304">
        <ele>2647.0</ele>
        <time>2013-08-08T17:38:10Z</time>
      </trkpt>
      <trkpt lat="42.481749" lon="1.727246">
        <ele>2641.8</ele>
        <time>2013-08-08T17:38:23Z</time>
      </trkpt>
      <trkpt lat="42.481777" lon="1.727279">
        <ele>2638.8</ele>
        <time>2013-08-08T17:38:35Z</time>
      </trkpt>
      <trkpt lat="42.481839" lon="1.727305">
        <ele>2634.3</ele>
        <time>2013-08-08T17:38:45Z</time>
      </trkpt>
      <trkpt lat="42.481870" lon="1.727367">
        <ele>2630.3</ele>
        <time>2013-08-08T17:38:53Z</time>
      </trkpt>
      <trkpt lat="42.481875" lon="1.727360">
        <ele>2630.4</ele>
        <time>2013-08-08T17:38:56Z</time>
      </trkpt>
      <trkpt lat="42.481894" lon="1.727421">
        <ele>2627.2</ele>
        <time>2013-08-08T17:39:07Z</time>
      </trkpt>
      <trkpt lat="42.481897" lon="1.727537">
        <ele>2622.9</ele>
        <time>2013-08-08T17:39:22Z</time>
      </trkpt>
      <trkpt lat="42.481891" lon="1.727557">
        <ele>2622.4</ele>
        <time>2013-08-08T17:39:27Z</time>
      </trkpt>
      <trkpt lat="42.481889" lon="1.727599">
        <ele>2621.0</ele>
        <time>2013-08-08T17:39:31Z</time>
      </trkpt>
      <trkpt lat="42.481873" lon="1.727706">
        <ele>2618.2</ele>
        <time>2013-08-08T17:39:41Z</time>
      </trkpt>
      <trkpt lat="42.481830" lon="1.727846">
        <ele>2615.6</ele>
        <time>2013-08-08T17:39:56Z</time>
      </trkpt>
      <trkpt lat="42.481832" lon="1.727905">
        <ele>2614.0</ele>
        <time>2013-08-08T17:40:08Z</time>
      </trkpt>
      <trkpt lat="42.481878" lon="1.727991">
        <ele>2609.2</ele>
        <time>2013-08-08T17:40:22Z</time>
      </trkpt>
      <trkpt lat="42.481909" lon="1.728005">
        <ele>2607.1</ele>
        <time>2013-08-08T17:40:30Z</time>
      </trkpt>
      <trkpt lat="42.481950" lon="1.728040">
        <ele>2604.0</ele>
        <time>2013-08-08T17:40:38Z</time>
      </trkpt>
      <trkpt lat="42.481966" lon="1.728059">
        <ele>2602.7</ele>
        <time>2013-08-08T17:40:42Z</time>
      </trkpt>
      <trkpt lat="42.481974" lon="1.728143">
        <ele>2600.3</ele>
        <time>2013-08-08T17:40:56Z</time>
      </trkpt>
      <trkpt lat="42.481997" lon="1.728231">
        <ele>2596.8</ele>
        <time>2013-08-08T17:41:08Z</time>
      </trkpt>
      <trkpt lat="42.482028" lon="1.728309">
        <ele>2593.5</ele>
        <time>2013-08-08T17:41:20Z</time>
      </trkpt>
      <trkpt lat="42.482047" lon="1.728419">
        <ele>2590.6</ele>
        <time>2013-08-08T17:41:32Z</time>
      </trkpt>
      <trkpt lat="42.482066" lon="1.728501">
        <ele>2588.0</ele>
        <time>2013-08-08T17:41:42Z</time>
      </trkpt>
      <trkpt lat="42.482075" lon="1.728541">
        <ele>2586.5</ele>
        <time>2013-08-08T17:41:49Z</time>
      </trkpt>
      <trkpt lat="42.482086" lon="1.728578">
        <ele>2585.3</ele>
        <time>2013-08-08T17:41:53Z</time>
      </trkpt>
      <trkpt lat="42.482109" lon="1.728670">
        <ele>2582.9</ele>
        <time>2013-08-08T17:42:01Z</time>
      </trkpt>
      <trkpt lat="42.482153" lon="1.728763">
        <ele>2580.7</ele>
        <time>2013-08-08T17:42:12Z</time>
      </trkpt>
      <trkpt lat="42.482160" lon="1.728845">
        <ele>2579.2</ele>
        <time>2013-08-08T17:42:20Z</time>
      </trkpt>
      <trkpt lat="42.482182" lon="1.728941">
        <ele>2577.6</ele>
        <time>2013-08-08T17:42:28Z</time>
      </trkpt>
      <trkpt lat="42.482214" lon="1.728991">
        <ele>2577.0</ele>
        <time>2013-08-08T17:42:40Z</time>
      </trkpt>
      <trkpt lat="42.482214" lon="1.728991">
        <ele>2577.0</ele>
        <time>2013-08-08T17:42:52Z</time>
      </trkpt>
      <trkpt lat="42.482185" lon="1.729099">
        <ele>2576.9</ele>
        <time>2013-08-08T17:43:01Z</time>
      </trkpt>
      <trkpt lat="42.482162" lon="1.729143">
        <ele>2577.1</ele>
        <time>2013-08-08T17:43:05Z</time>
      </trkpt>
      <trkpt lat="42.482123" lon="1.729183">
        <ele>2577.8</ele>
        <time>2013-08-08T17:43:11Z</time>
      </trkpt>
      <trkpt lat="42.482098" lon="1.729250">
        <ele>2577.7</ele>
        <time>2013-08-08T17:43:17Z</time>
      </trkpt>
      <trkpt lat="42.482099" lon="1.729314">
        <ele>2577.1</ele>
        <time>2013-08-08T17:43:22Z</time>
      </trkpt>
      <trkpt lat="42.482093" lon="1.729335">
        <ele>2577.0</ele>
        <time>2013-08-08T17:43:24Z</time>
      </trkpt>
      <trkpt lat="42.482080" lon="1.729408">
        <ele>2576.7</ele>
        <time>2013-08-08T17:43:31Z</time>
      </trkpt>
      <trkpt lat="42.482061" lon="1.729471">
        <ele>2576.5</ele>
        <time>2013-08-08T17:43:36Z</time>
      </trkpt>
      <trkpt lat="42.482018" lon="1.729539">
        <ele>2576.6</ele>
        <time>2013-08-08T17:43:42Z</time>
      </trkpt>
      <trkpt lat="42.481984" lon="1.729669">
        <ele>2576.6</ele>
        <time>2013-08-08T17:43:56Z</time>
      </trkpt>
      <trkpt lat="42.481951" lon="1.729723">
        <ele>2577.5</ele>
        <time>2013-08-08T17:44:02Z</time>
      </trkpt>
      <trkpt lat="42.481848" lon="1.729772">
        <ele>2579.8</ele>
        <time>2013-08-08T17:44:14Z</time>
      </trkpt>
      <trkpt lat="42.481808" lon="1.729829">
        <ele>2581.3</ele>
        <time>2013-08-08T17:44:25Z</time>
      </trkpt>
      <trkpt lat="42.481828" lon="1.729924">
        <ele>2580.8</ele>
        <time>2013-08-08T17:44:35Z</time>
      </trkpt>
      <trkpt lat="42.481815" lon="1.730011">
        <ele>2581.4</ele>
        <time>2013-08-08T17:44:46Z</time>
      </trkpt>
      <trkpt lat="42.481805" lon="1.730054">
        <ele>2581.8</ele>
        <time>2013-08-08T17:44:58Z</time>
      </trkpt>
      <trkpt lat="42.481801" lon="1.730105">
        <ele>2582.0</ele>
        <time>2013-08-08T17:45:09Z</time>
      </trkpt>
      <trkpt lat="42.481811" lon="1.730202">
        <ele>2581.5</ele>
        <time>2013-08-08T17:45:22Z</time>
      </trkpt>
      <trkpt lat="42.481812" lon="1.730235">
        <ele>2580.8</ele>
        <time>2013-08-08T17:45:35Z</time>
      </trkpt>
      <trkpt lat="42.481807" lon="1.730255">
        <ele>2580.4</ele>
        <time>2013-08-08T17:45:37Z</time>
      </trkpt>
      <trkpt lat="42.481795" lon="1.730301">
        <ele>2579.2</ele>
        <time>2013-08-08T17:45:47Z</time>
      </trkpt>
      <trkpt lat="42.481763" lon="1.730402">
        <ele>2576.4</ele>
        <time>2013-08-08T17:46:00Z</time>
      </trkpt>
      <trkpt lat="42.481787" lon="1.730464">
        <ele>2574.3</ele>
        <time>2013-08-08T17:46:13Z</time>
      </trkpt>
      <trkpt lat="42.481792" lon="1.730487">
        <ele>2573.9</ele>
        <time>2013-08-08T17:46:22Z</time>
      </trkpt>
      <trkpt lat="42.481764" lon="1.730608">
        <ele>2573.1</ele>
        <time>2013-08-08T17:46:35Z</time>
      </trkpt>
      <trkpt lat="42.481766" lon="1.730627">
        <ele>2572.9</ele>
        <time>2013-08-08T17:46:46Z</time>
      </trkpt>
      <trkpt lat="42.481763" lon="1.730627">
        <ele>2572.9</ele>
        <time>2013-08-08T17:47:08Z</time>
      </trkpt>
      <trkpt lat="42.481763" lon="1.730630">
        <ele>2572.8</ele>
        <time>2013-08-08T17:47:27Z</time>
      </trkpt>
      <trkpt lat="42.481769" lon="1.730672">
        <ele>2571.9</ele>
        <time>2013-08-08T17:47:40Z</time>
      </trkpt>
      <trkpt lat="42.481793" lon="1.730696">
        <ele>2571.0</ele>
        <time>2013-08-08T17:47:54Z</time>
      </trkpt>
      <trkpt lat="42.481793" lon="1.730696">
        <ele>2571.0</ele>
        <time>2013-08-08T17:48:15Z</time>
      </trkpt>
      <trkpt lat="42.481793" lon="1.730706">
        <ele>2570.9</ele>
        <time>2013-08-08T17:48:44Z</time>
      </trkpt>
      <trkpt lat="42.481786" lon="1.730714">
        <ele>2570.8</ele>
        <time>2013-08-08T17:48:48Z</time>
      </trkpt>
      <trkpt lat="42.481776" lon="1.730735">
        <ele>2570.5</ele>
        <time>2013-08-08T17:48:50Z</time>
      </trkpt>
      <trkpt lat="42.481730" lon="1.730836">
        <ele>2568.9</ele>
        <time>2013-08-08T17:48:58Z</time>
      </trkpt>
      <trkpt lat="42.481725" lon="1.730968">
        <ele>2565.8</ele>
        <time>2013-08-08T17:49:11Z</time>
      </trkpt>
      <trkpt lat="42.481716" lon="1.731006">
        <ele>2564.6</ele>
        <time>2013-08-08T17:49:16Z</time>
      </trkpt>
      <trkpt lat="42.481696" lon="1.731075">
        <ele>2561.9</ele>
        <time>2013-08-08T17:49:25Z</time>
      </trkpt>
      <trkpt lat="42.481684" lon="1.731127">
        <ele>2560.6</ele>
        <time>2013-08-08T17:49:30Z</time>
      </trkpt>
      <trkpt lat="42.481682" lon="1.731124">
        <ele>2560.7</ele>
        <time>2013-08-08T17:49:31Z</time>
      </trkpt>
      <trkpt lat="42.481682" lon="1.731124">
        <ele>2560.7</ele>
        <time>2013-08-08T17:49:32Z</time>
      </trkpt>
      <trkpt lat="42.481691" lon="1.731181">
        <ele>2559.0</ele>
        <time>2013-08-08T17:49:37Z</time>
      </trkpt>
      <trkpt lat="42.481702" lon="1.731252">
        <ele>2557.7</ele>
        <time>2013-08-08T17:49:44Z</time>
      </trkpt>
      <trkpt lat="42.481719" lon="1.731359">
        <ele>2556.9</ele>
        <time>2013-08-08T17:49:51Z</time>
      </trkpt>
      <trkpt lat="42.481720" lon="1.731507">
        <ele>2554.2</ele>
        <time>2013-08-08T17:50:04Z</time>
      </trkpt>
      <trkpt lat="42.481716" lon="1.731579">
        <ele>2552.8</ele>
        <time>2013-08-08T17:50:11Z</time>
      </trkpt>
      <trkpt lat="42.481695" lon="1.731621">
        <ele>2552.3</ele>
        <time>2013-08-08T17:50:16Z</time>
      </trkpt>
      <trkpt lat="42.481672" lon="1.731654">
        <ele>2552.1</ele>
        <time>2013-08-08T17:50:20Z</time>
      </trkpt>
      <trkpt lat="42.481658" lon="1.731747">
        <ele>2552.0</ele>
        <time>2013-08-08T17:50:35Z</time>
      </trkpt>
      <trkpt lat="42.481655" lon="1.731764">
        <ele>2552.0</ele>
        <time>2013-08-08T17:56:48Z</time>
      </trkpt>
      <trkpt lat="42.481641" lon="1.731770">
        <ele>2552.0</ele>
        <time>2013-08-08T17:57:00Z</time>
      </trkpt>
      <trkpt lat="42.481582" lon="1.731818">
        <ele>2552.0</ele>
        <time>2013-08-08T17:57:06Z</time>
      </trkpt>
      <trkpt lat="42.481538" lon="1.731877">
        <ele>2551.9</ele>
        <time>2013-08-08T17:57:11Z</time>
      </trkpt>
      <trkpt lat="42.481498" lon="1.731911">
        <ele>2552.3</ele>
        <time>2013-08-08T17:57:16Z</time>
      </trkpt>
      <trkpt lat="42.481445" lon="1.731899">
        <ele>2552.9</ele>
        <time>2013-08-08T17:57:21Z</time>
      </trkpt>
      <trkpt lat="42.481358" lon="1.731969">
        <ele>2552.9</ele>
        <time>2013-08-08T17:57:33Z</time>
      </trkpt>
      <trkpt lat="42.481343" lon="1.731983">
        <ele>2552.4</ele>
        <time>2013-08-08T17:57:35Z</time>
      </trkpt>
      <trkpt lat="42.481248" lon="1.732119">
        <ele>2550.0</ele>
        <time>2013-08-08T17:57:48Z</time>
      </trkpt>
      <trkpt lat="42.481154" lon="1.732267">
        <ele>2549.9</ele>
        <time>2013-08-08T17:58:01Z</time>
      </trkpt>
      <trkpt lat="42.481148" lon="1.732277">
        <ele>2549.9</ele>
        <time>2013-08-08T17:58:02Z</time>
      </trkpt>
      <trkpt lat="42.481079" lon="1.732365">
        <ele>2550.0</ele>
        <time>2013-08-08T17:58:10Z</time>
      </trkpt>
      <trkpt lat="42.481033" lon="1.732522">
        <ele>2550.0</ele>
        <time>2013-08-08T17:58:23Z</time>
      </trkpt>
      <trkpt lat="42.481004" lon="1.732724">
        <ele>2550.3</ele>
        <time>2013-08-08T17:58:36Z</time>
      </trkpt>
      <trkpt lat="42.480898" lon="1.732828">
        <ele>2551.7</ele>
        <time>2013-08-08T17:58:48Z</time>
      </trkpt>
      <trkpt lat="42.480868" lon="1.732852">
        <ele>2551.7</ele>
        <time>2013-08-08T17:58:51Z</time>
      </trkpt>
      <trkpt lat="42.480782" lon="1.733036">
        <ele>2551.5</ele>
        <time>2013-08-08T17:59:04Z</time>
      </trkpt>
      <trkpt lat="42.480765" lon="1.733124">
        <ele>2551.9</ele>
        <time>2013-08-08T17:59:09Z</time>
      </trkpt>
      <trkpt lat="42.480714" lon="1.733232">
        <ele>2552.9</ele>
        <time>2013-08-08T17:59:18Z</time>
      </trkpt>
      <trkpt lat="42.480679" lon="1.733261">
        <ele>2554.0</ele>
        <time>2013-08-08T17:59:22Z</time>
      </trkpt>
      <trkpt lat="42.480587" lon="1.733475">
        <ele>2554.1</ele>
        <time>2013-08-08T17:59:37Z</time>
      </trkpt>
      <trkpt lat="42.480518" lon="1.733627">
        <ele>2555.2</ele>
        <time>2013-08-08T17:59:49Z</time>
      </trkpt>
      <trkpt lat="42.480511" lon="1.733631">
        <ele>2555.2</ele>
        <time>2013-08-08T17:59:50Z</time>
      </trkpt>
      <trkpt lat="42.480439" lon="1.733658">
        <ele>2556.0</ele>
        <time>2013-08-08T17:59:57Z</time>
      </trkpt>
      <trkpt lat="42.480313" lon="1.733753">
        <ele>2555.9</ele>
        <time>2013-08-08T18:00:09Z</time>
      </trkpt>
      <trkpt lat="42.480298" lon="1.733803">
        <ele>2555.7</ele>
        <time>2013-08-08T18:00:14Z</time>
      </trkpt>
      <trkpt lat="42.480355" lon="1.733838">
        <ele>2556.6</ele>
        <time>2013-08-08T18:00:20Z</time>
      </trkpt>
      <trkpt lat="42.480420" lon="1.733876">
        <ele>2556.2</ele>
        <time>2013-08-08T18:00:31Z</time>
      </trkpt>
      <trkpt lat="42.480422" lon="1.733920">
        <ele>2555.4</ele>
        <time>2013-08-08T18:00:44Z</time>
      </trkpt>
      <trkpt lat="42.480415" lon="1.733991">
        <ele>2554.0</ele>
        <time>2013-08-08T18:00:49Z</time>
      </trkpt>
      <trkpt lat="42.480414" lon="1.734024">
        <ele>2553.3</ele>
        <time>2013-08-08T18:00:52Z</time>
      </trkpt>
      <trkpt lat="42.480395" lon="1.734122">
        <ele>2551.1</ele>
        <time>2013-08-08T18:01:02Z</time>
      </trkpt>
      <trkpt lat="42.480396" lon="1.734184">
        <ele>2550.4</ele>
        <time>2013-08-08T18:01:06Z</time>
      </trkpt>
      <trkpt lat="42.480386" lon="1.734284">
        <ele>2549.5</ele>
        <time>2013-08-08T18:01:19Z</time>
      </trkpt>
      <trkpt lat="42.480376" lon="1.734355">
        <ele>2549.2</ele>
        <time>2013-08-08T18:01:35Z</time>
      </trkpt>
      <trkpt lat="42.480359" lon="1.734396">
        <ele>2548.6</ele>
        <time>2013-08-08T18:01:45Z</time>
      </trkpt>
      <trkpt lat="42.480328" lon="1.734395">
        <ele>2547.6</ele>
        <time>2013-08-08T18:01:48Z</time>
      </trkpt>
      <trkpt lat="42.480235" lon="1.734397">
        <ele>2546.8</ele>
        <time>2013-08-08T18:02:01Z</time>
      </trkpt>
      <trkpt lat="42.480235" lon="1.734397">
        <ele>2546.8</ele>
        <time>2013-08-08T18:02:02Z</time>
      </trkpt>
      <trkpt lat="42.480275" lon="1.734423">
        <ele>2546.8</ele>
        <time>2013-08-08T18:02:07Z</time>
      </trkpt>
      <trkpt lat="42.480357" lon="1.734617">
        <ele>2547.6</ele>
        <time>2013-08-08T18:02:20Z</time>
      </trkpt>
      <trkpt lat="42.480402" lon="1.734812">
        <ele>2547.8</ele>
        <time>2013-08-08T18:02:32Z</time>
      </trkpt>
      <trkpt lat="42.480406" lon="1.734825">
        <ele>2547.8</ele>
        <time>2013-08-08T18:02:33Z</time>
      </trkpt>
      <trkpt lat="42.480479" lon="1.735047">
        <ele>2546.7</ele>
        <time>2013-08-08T18:02:46Z</time>
      </trkpt>
      <trkpt lat="42.480551" lon="1.735138">
        <ele>2546.6</ele>
        <time>2013-08-08T18:02:56Z</time>
      </trkpt>
      <trkpt lat="42.480668" lon="1.735287">
        <ele>2546.0</ele>
        <time>2013-08-08T18:03:08Z</time>
      </trkpt>
      <trkpt lat="42.480801" lon="1.735455">
        <ele>2543.1</ele>
        <time>2013-08-08T18:03:22Z</time>
      </trkpt>
      <trkpt lat="42.480903" lon="1.735688">
        <ele>2542.4</ele>
        <time>2013-08-08T18:03:36Z</time>
      </trkpt>
      <trkpt lat="42.480907" lon="1.735754">
        <ele>2541.8</ele>
        <time>2013-08-08T18:03:41Z</time>
      </trkpt>
      <trkpt lat="42.480939" lon="1.735841">
        <ele>2542.7</ele>
        <time>2013-08-08T18:03:46Z</time>
      </trkpt>
      <trkpt lat="42.480953" lon="1.735894">
        <ele>2542.7</ele>
        <time>2013-08-08T18:03:50Z</time>
      </trkpt>
      <trkpt lat="42.480974" lon="1.736031">
        <ele>2541.9</ele>
        <time>2013-08-08T18:04:00Z</time>
      </trkpt>
      <trkpt lat="42.480964" lon="1.736093">
        <ele>2541.8</ele>
        <time>2013-08-08T18:04:07Z</time>
      </trkpt>
      <trkpt lat="42.480920" lon="1.736147">
        <ele>2541.6</ele>
        <time>2013-08-08T18:04:11Z</time>
      </trkpt>
      <trkpt lat="42.480854" lon="1.736157">
        <ele>2541.4</ele>
        <time>2013-08-08T18:04:24Z</time>
      </trkpt>
      <trkpt lat="42.480820" lon="1.736166">
        <ele>2541.7</ele>
        <time>2013-08-08T18:04:36Z</time>
      </trkpt>
      <trkpt lat="42.480775" lon="1.736160">
        <ele>2542.1</ele>
        <time>2013-08-08T18:04:47Z</time>
      </trkpt>
      <trkpt lat="42.480748" lon="1.736165">
        <ele>2542.4</ele>
        <time>2013-08-08T18:04:58Z</time>
      </trkpt>
      <trkpt lat="42.480678" lon="1.736157">
        <ele>2542.1</ele>
        <time>2013-08-08T18:05:11Z</time>
      </trkpt>
      <trkpt lat="42.480630" lon="1.736185">
        <ele>2542.2</ele>
        <time>2013-08-08T18:05:30Z</time>
      </trkpt>
      <trkpt lat="42.480507" lon="1.736226">
        <ele>2541.4</ele>
        <time>2013-08-08T18:05:42Z</time>
      </trkpt>
      <trkpt lat="42.480469" lon="1.736249">
        <ele>2540.8</ele>
        <time>2013-08-08T18:05:45Z</time>
      </trkpt>
      <trkpt lat="42.480306" lon="1.736324">
        <ele>2539.0</ele>
        <time>2013-08-08T18:05:59Z</time>
      </trkpt>
      <trkpt lat="42.480237" lon="1.736394">
        <ele>2537.2</ele>
        <time>2013-08-08T18:06:09Z</time>
      </trkpt>
      <trkpt lat="42.480127" lon="1.736487">
        <ele>2535.3</ele>
        <time>2013-08-08T18:06:24Z</time>
      </trkpt>
      <trkpt lat="42.480126" lon="1.736487">
        <ele>2535.3</ele>
        <time>2013-08-08T18:06:43Z</time>
      </trkpt>
      <trkpt lat="42.480124" lon="1.736487">
        <ele>2535.2</ele>
        <time>2013-08-08T18:07:01Z</time>
      </trkpt>
      <trkpt lat="42.480124" lon="1.736487">
        <ele>2535.2</ele>
        <time>2013-08-08T18:07:18Z</time>
      </trkpt>
      <trkpt lat="42.480042" lon="1.736560">
        <ele>2533.5</ele>
        <time>2013-08-08T18:07:31Z</time>
      </trkpt>
      <trkpt lat="42.480001" lon="1.736656">
        <ele>2532.6</ele>
        <time>2013-08-08T18:07:46Z</time>
      </trkpt>
      <trkpt lat="42.479896" lon="1.736842">
        <ele>2528.0</ele>
        <time>2013-08-08T18:07:58Z</time>
      </trkpt>
      <trkpt lat="42.479851" lon="1.736913">
        <ele>2526.5</ele>
        <time>2013-08-08T18:08:10Z</time>
      </trkpt>
      <trkpt lat="42.479850" lon="1.736917">
        <ele>2526.5</ele>
        <time>2013-08-08T18:08:49Z</time>
      </trkpt>
      <trkpt lat="42.479805" lon="1.736973">
        <ele>2525.6</ele>
        <time>2013-08-08T18:08:53Z</time>
      </trkpt>
      <trkpt lat="42.479717" lon="1.737168">
        <ele>2525.2</ele>
        <time>2013-08-08T18:09:03Z</time>
      </trkpt>
      <trkpt lat="42.479641" lon="1.737265">
        <ele>2522.8</ele>
        <time>2013-08-08T18:09:12Z</time>
      </trkpt>
      <trkpt lat="42.479611" lon="1.737337">
        <ele>2522.1</ele>
        <time>2013-08-08T18:09:18Z</time>
      </trkpt>
      <trkpt lat="42.479585" lon="1.737424">
        <ele>2519.9</ele>
        <time>2013-08-08T18:09:25Z</time>
      </trkpt>
      <trkpt lat="42.479572" lon="1.737453">
        <ele>2518.8</ele>
        <time>2013-08-08T18:09:28Z</time>
      </trkpt>
      <trkpt lat="42.479554" lon="1.737474">
        <ele>2517.6</ele>
        <time>2013-08-08T18:09:30Z</time>
      </trkpt>
      <trkpt lat="42.479519" lon="1.737524">
        <ele>2515.7</ele>
        <time>2013-08-08T18:09:35Z</time>
      </trkpt>
      <trkpt lat="42.479492" lon="1.737638">
        <ele>2512.9</ele>
        <time>2013-08-08T18:09:44Z</time>
      </trkpt>
      <trkpt lat="42.479421" lon="1.737648">
        <ele>2510.7</ele>
        <time>2013-08-08T18:09:54Z</time>
      </trkpt>
      <trkpt lat="42.479298" lon="1.737651">
        <ele>2506.4</ele>
        <time>2013-08-08T18:10:08Z</time>
      </trkpt>
      <trkpt lat="42.479265" lon="1.737737">
        <ele>2504.4</ele>
        <time>2013-08-08T18:10:14Z</time>
      </trkpt>
      <trkpt lat="42.479235" lon="1.737803">
        <ele>2503.2</ele>
        <time>2013-08-08T18:10:19Z</time>
      </trkpt>
      <trkpt lat="42.479226" lon="1.737835">
        <ele>2503.0</ele>
        <time>2013-08-08T18:10:21Z</time>
      </trkpt>
      <trkpt lat="42.479232" lon="1.737936">
        <ele>2501.1</ele>
        <time>2013-08-08T18:10:27Z</time>
      </trkpt>
      <trkpt lat="42.479224" lon="1.737968">
        <ele>2500.4</ele>
        <time>2013-08-08T18:10:29Z</time>
      </trkpt>
      <trkpt lat="42.479254" lon="1.738146">
        <ele>2497.3</ele>
        <time>2013-08-08T18:10:41Z</time>
      </trkpt>
      <trkpt lat="42.479310" lon="1.738239">
        <ele>2495.2</ele>
        <time>2013-08-08T18:10:47Z</time>
      </trkpt>
      <trkpt lat="42.479316" lon="1.738275">
        <ele>2494.5</ele>
        <time>2013-08-08T18:10:49Z</time>
      </trkpt>
      <trkpt lat="42.479401" lon="1.738419">
        <ele>2490.6</ele>
        <time>2013-08-08T18:11:03Z</time>
      </trkpt>
      <trkpt lat="42.479478" lon="1.738468">
        <ele>2488.3</ele>
        <time>2013-08-08T18:11:11Z</time>
      </trkpt>
      <trkpt lat="42.479535" lon="1.738495">
        <ele>2486.2</ele>
        <time>2013-08-08T18:11:16Z</time>
      </trkpt>
      <trkpt lat="42.479562" lon="1.738514">
        <ele>2485.0</ele>
        <time>2013-08-08T18:11:19Z</time>
      </trkpt>
      <trkpt lat="42.479567" lon="1.738610">
        <ele>2482.7</ele>
        <time>2013-08-08T18:11:28Z</time>
      </trkpt>
      <trkpt lat="42.479567" lon="1.738693">
        <ele>2480.5</ele>
        <time>2013-08-08T18:11:34Z</time>
      </trkpt>
      <trkpt lat="42.479592" lon="1.738752">
        <ele>2478.8</ele>
        <time>2013-08-08T18:11:40Z</time>
      </trkpt>
      <trkpt lat="42.479606" lon="1.738770">
        <ele>2478.0</ele>
        <time>2013-08-08T18:11:42Z</time>
      </trkpt>
      <trkpt lat="42.479681" lon="1.738807">
        <ele>2475.8</ele>
        <time>2013-08-08T18:11:51Z</time>
      </trkpt>
      <trkpt lat="42.479723" lon="1.739014">
        <ele>2474.1</ele>
        <time>2013-08-08T18:12:03Z</time>
      </trkpt>
      <trkpt lat="42.479821" lon="1.739130">
        <ele>2472.5</ele>
        <time>2013-08-08T18:12:14Z</time>
      </trkpt>
      <trkpt lat="42.479964" lon="1.739222">
        <ele>2471.7</ele>
        <time>2013-08-08T18:12:26Z</time>
      </trkpt>
      <trkpt lat="42.480087" lon="1.739373">
        <ele>2470.0</ele>
        <time>2013-08-08T18:12:40Z</time>
      </trkpt>
      <trkpt lat="42.480165" lon="1.739560">
        <ele>2468.1</ele>
        <time>2013-08-08T18:12:53Z</time>
      </trkpt>
      <trkpt lat="42.480264" lon="1.739760">
        <ele>2466.1</ele>
        <time>2013-08-08T18:13:07Z</time>
      </trkpt>
      <trkpt lat="42.480277" lon="1.739789">
        <ele>2465.7</ele>
        <time>2013-08-08T18:13:09Z</time>
      </trkpt>
      <trkpt lat="42.480394" lon="1.739982">
        <ele>2462.7</ele>
        <time>2013-08-08T18:13:24Z</time>
      </trkpt>
      <trkpt lat="42.480438" lon="1.740107">
        <ele>2461.5</ele>
        <time>2013-08-08T18:13:31Z</time>
      </trkpt>
      <trkpt lat="42.480480" lon="1.740171">
        <ele>2460.9</ele>
        <time>2013-08-08T18:13:35Z</time>
      </trkpt>
      <trkpt lat="42.480531" lon="1.740241">
        <ele>2460.2</ele>
        <time>2013-08-08T18:13:48Z</time>
      </trkpt>
      <trkpt lat="42.480531" lon="1.740241">
        <ele>2460.2</ele>
        <time>2013-08-08T18:13:50Z</time>
      </trkpt>
      <trkpt lat="42.480518" lon="1.740262">
        <ele>2460.3</ele>
        <time>2013-08-08T18:14:02Z</time>
      </trkpt>
      <trkpt lat="42.480540" lon="1.740283">
        <ele>2460.0</ele>
        <time>2013-08-08T18:14:05Z</time>
      </trkpt>
      <trkpt lat="42.480601" lon="1.740298">
        <ele>2459.2</ele>
        <time>2013-08-08T18:14:10Z</time>
      </trkpt>
      <trkpt lat="42.480664" lon="1.740481">
        <ele>2458.2</ele>
        <time>2013-08-08T18:14:23Z</time>
      </trkpt>
      <trkpt lat="42.480677" lon="1.740606">
        <ele>2457.7</ele>
        <time>2013-08-08T18:14:31Z</time>
      </trkpt>
      <trkpt lat="42.480754" lon="1.740815">
        <ele>2456.8</ele>
        <time>2013-08-08T18:14:46Z</time>
      </trkpt>
      <trkpt lat="42.480769" lon="1.740868">
        <ele>2456.6</ele>
        <time>2013-08-08T18:14:49Z</time>
      </trkpt>
      <trkpt lat="42.480848" lon="1.740982">
        <ele>2455.7</ele>
        <time>2013-08-08T18:14:59Z</time>
      </trkpt>
      <trkpt lat="42.480908" lon="1.741006">
        <ele>2456.1</ele>
        <time>2013-08-08T18:15:03Z</time>
      </trkpt>
      <trkpt lat="42.480926" lon="1.741042">
        <ele>2456.3</ele>
        <time>2013-08-08T18:15:06Z</time>
      </trkpt>
      <trkpt lat="42.480967" lon="1.741241">
        <ele>2454.9</ele>
        <time>2013-08-08T18:15:19Z</time>
      </trkpt>
      <trkpt lat="42.480967" lon="1.741346">
        <ele>2454.2</ele>
        <time>2013-08-08T18:15:26Z</time>
      </trkpt>
      <trkpt lat="42.480964" lon="1.741409">
        <ele>2454.4</ele>
        <time>2013-08-08T18:15:30Z</time>
      </trkpt>
      <trkpt lat="42.480974" lon="1.741490">
        <ele>2453.6</ele>
        <time>2013-08-08T18:15:35Z</time>
      </trkpt>
      <trkpt lat="42.481042" lon="1.741641">
        <ele>2451.8</ele>
        <time>2013-08-08T18:15:49Z</time>
      </trkpt>
      <trkpt lat="42.481089" lon="1.741740">
        <ele>2450.5</ele>
        <time>2013-08-08T18:15:56Z</time>
      </trkpt>
      <trkpt lat="42.481111" lon="1.741936">
        <ele>2449.1</ele>
        <time>2013-08-08T18:16:09Z</time>
      </trkpt>
      <trkpt lat="42.481149" lon="1.742027">
        <ele>2447.4</ele>
        <time>2013-08-08T18:16:18Z</time>
      </trkpt>
      <trkpt lat="42.481169" lon="1.742060">
        <ele>2446.6</ele>
        <time>2013-08-08T18:16:21Z</time>
      </trkpt>
      <trkpt lat="42.481185" lon="1.742261">
        <ele>2443.4</ele>
        <time>2013-08-08T18:16:36Z</time>
      </trkpt>
      <trkpt lat="42.481181" lon="1.742347">
        <ele>2442.0</ele>
        <time>2013-08-08T18:16:44Z</time>
      </trkpt>
      <trkpt lat="42.481160" lon="1.742506">
        <ele>2439.1</ele>
        <time>2013-08-08T18:16:56Z</time>
      </trkpt>
      <trkpt lat="42.481148" lon="1.742641">
        <ele>2436.6</ele>
        <time>2013-08-08T18:17:07Z</time>
      </trkpt>
      <trkpt lat="42.481132" lon="1.742697">
        <ele>2435.8</ele>
        <time>2013-08-08T18:17:11Z</time>
      </trkpt>
      <trkpt lat="42.481115" lon="1.742744">
        <ele>2435.2</ele>
        <time>2013-08-08T18:17:14Z</time>
      </trkpt>
      <trkpt lat="42.481132" lon="1.742926">
        <ele>2432.9</ele>
        <time>2013-08-08T18:17:26Z</time>
      </trkpt>
      <trkpt lat="42.481129" lon="1.743081">
        <ele>2430.9</ele>
        <time>2013-08-08T18:17:36Z</time>
      </trkpt>
      <trkpt lat="42.481145" lon="1.743225">
        <ele>2427.8</ele>
        <time>2013-08-08T18:17:46Z</time>
      </trkpt>
      <trkpt lat="42.481156" lon="1.743300">
        <ele>2426.4</ele>
        <time>2013-08-08T18:17:51Z</time>
      </trkpt>
      <trkpt lat="42.481137" lon="1.743369">
        <ele>2425.6</ele>
        <time>2013-08-08T18:17:56Z</time>
      </trkpt>
      <trkpt lat="42.481135" lon="1.743475">
        <ele>2423.8</ele>
        <time>2013-08-08T18:18:05Z</time>
      </trkpt>
      <trkpt lat="42.481157" lon="1.743581">
        <ele>2420.5</ele>
        <time>2013-08-08T18:18:18Z</time>
      </trkpt>
      <trkpt lat="42.481140" lon="1.743611">
        <ele>2419.7</ele>
        <time>2013-08-08T18:18:22Z</time>
      </trkpt>
      <trkpt lat="42.481113" lon="1.743653">
        <ele>2418.7</ele>
        <time>2013-08-08T18:18:39Z</time>
      </trkpt>
      <trkpt lat="42.481113" lon="1.743653">
        <ele>2418.7</ele>
        <time>2013-08-08T18:18:45Z</time>
      </trkpt>
      <trkpt lat="42.481107" lon="1.743669">
        <ele>2418.3</ele>
        <time>2013-08-08T18:18:47Z</time>
      </trkpt>
      <trkpt lat="42.481064" lon="1.743780">
        <ele>2415.1</ele>
        <time>2013-08-08T18:18:58Z</time>
      </trkpt>
      <trkpt lat="42.481055" lon="1.743806">
        <ele>2414.3</ele>
        <time>2013-08-08T18:19:01Z</time>
      </trkpt>
      <trkpt lat="42.481042" lon="1.743845">
        <ele>2413.1</ele>
        <time>2013-08-08T18:19:05Z</time>
      </trkpt>
      <trkpt lat="42.481028" lon="1.743891">
        <ele>2411.6</ele>
        <time>2013-08-08T18:19:10Z</time>
      </trkpt>
      <trkpt lat="42.480994" lon="1.744024">
        <ele>2408.4</ele>
        <time>2013-08-08T18:19:23Z</time>
      </trkpt>
      <trkpt lat="42.480974" lon="1.744088">
        <ele>2407.5</ele>
        <time>2013-08-08T18:19:29Z</time>
      </trkpt>
      <trkpt lat="42.480956" lon="1.744168">
        <ele>2405.7</ele>
        <time>2013-08-08T18:19:37Z</time>
      </trkpt>
      <trkpt lat="42.480944" lon="1.744285">
        <ele>2402.2</ele>
        <time>2013-08-08T18:19:49Z</time>
      </trkpt>
      <trkpt lat="42.480938" lon="1.744326">
        <ele>2401.0</ele>
        <time>2013-08-08T18:19:53Z</time>
      </trkpt>
      <trkpt lat="42.480926" lon="1.744365">
        <ele>2400.0</ele>
        <time>2013-08-08T18:19:57Z</time>
      </trkpt>
      <trkpt lat="42.480917" lon="1.744388">
        <ele>2399.4</ele>
        <time>2013-08-08T18:19:59Z</time>
      </trkpt>
      <trkpt lat="42.480945" lon="1.744439">
        <ele>2397.1</ele>
        <time>2013-08-08T18:20:11Z</time>
      </trkpt>
      <trkpt lat="42.481011" lon="1.744470">
        <ele>2393.5</ele>
        <time>2013-08-08T18:20:23Z</time>
      </trkpt>
      <trkpt lat="42.481057" lon="1.744520">
        <ele>2391.6</ele>
        <time>2013-08-08T18:20:29Z</time>
      </trkpt>
      <trkpt lat="42.481106" lon="1.744618">
        <ele>2390.1</ele>
        <time>2013-08-08T18:20:41Z</time>
      </trkpt>
      <trkpt lat="42.481108" lon="1.744716">
        <ele>2387.6</ele>
        <time>2013-08-08T18:20:50Z</time>
      </trkpt>
      <trkpt lat="42.481104" lon="1.744915">
        <ele>2384.0</ele>
        <time>2013-08-08T18:21:05Z</time>
      </trkpt>
      <trkpt lat="42.481113" lon="1.744964">
        <ele>2383.1</ele>
        <time>2013-08-08T18:21:19Z</time>
      </trkpt>
      <trkpt lat="42.481113" lon="1.744979">
        <ele>2382.7</ele>
        <time>2013-08-08T18:21:21Z</time>
      </trkpt>
      <trkpt lat="42.481126" lon="1.745066">
        <ele>2380.5</ele>
        <time>2013-08-08T18:21:26Z</time>
      </trkpt>
      <trkpt lat="42.481120" lon="1.745184">
        <ele>2379.1</ele>
        <time>2013-08-08T18:21:32Z</time>
      </trkpt>
      <trkpt lat="42.481118" lon="1.745307">
        <ele>2378.0</ele>
        <time>2013-08-08T18:21:40Z</time>
      </trkpt>
      <trkpt lat="42.481087" lon="1.745457">
        <ele>2377.0</ele>
        <time>2013-08-08T18:21:50Z</time>
      </trkpt>
      <trkpt lat="42.481117" lon="1.745649">
        <ele>2377.3</ele>
        <time>2013-08-08T18:22:04Z</time>
      </trkpt>
      <trkpt lat="42.481054" lon="1.745684">
        <ele>2376.3</ele>
        <time>2013-08-09T07:02:20Z</time>
      </trkpt>
      <trkpt lat="42.480992" lon="1.745698">
        <ele>2375.1</ele>
        <time>2013-08-09T07:02:27Z</time>
      </trkpt>
      <trkpt lat="42.480926" lon="1.745717">
        <ele>2373.7</ele>
        <time>2013-08-09T07:02:38Z</time>
      </trkpt>
      <trkpt lat="42.480921" lon="1.745722">
        <ele>2373.6</ele>
        <time>2013-08-09T07:02:39Z</time>
      </trkpt>
      <trkpt lat="42.480831" lon="1.745726">
        <ele>2370.9</ele>
        <time>2013-08-09T07:02:54Z</time>
      </trkpt>
      <trkpt lat="42.480826" lon="1.745732">
        <ele>2370.7</ele>
        <time>2013-08-09T07:03:09Z</time>
      </trkpt>
      <trkpt lat="42.480782" lon="1.745763">
        <ele>2368.6</ele>
        <time>2013-08-09T07:03:23Z</time>
      </trkpt>
      <trkpt lat="42.480782" lon="1.745795">
        <ele>2368.1</ele>
        <time>2013-08-09T07:03:26Z</time>
      </trkpt>
      <trkpt lat="42.480763" lon="1.745812">
        <ele>2367.1</ele>
        <time>2013-08-09T07:03:28Z</time>
      </trkpt>
      <trkpt lat="42.480696" lon="1.745842">
        <ele>2364.8</ele>
        <time>2013-08-09T07:03:35Z</time>
      </trkpt>
      <trkpt lat="42.480675" lon="1.745863">
        <ele>2364.0</ele>
        <time>2013-08-09T07:03:39Z</time>
      </trkpt>
      <trkpt lat="42.480645" lon="1.745859">
        <ele>2363.7</ele>
        <time>2013-08-09T07:03:42Z</time>
      </trkpt>
      <trkpt lat="42.480499" lon="1.745910">
        <ele>2362.8</ele>
        <time>2013-08-09T07:03:55Z</time>
      </trkpt>
      <trkpt lat="42.480367" lon="1.745897">
        <ele>2360.6</ele>
        <time>2013-08-09T07:04:09Z</time>
      </trkpt>
      <trkpt lat="42.480265" lon="1.745881">
        <ele>2357.9</ele>
        <time>2013-08-09T07:04:19Z</time>
      </trkpt>
      <trkpt lat="42.480184" lon="1.745870">
        <ele>2356.0</ele>
        <time>2013-08-09T07:04:25Z</time>
      </trkpt>
      <trkpt lat="42.480166" lon="1.745871">
        <ele>2355.5</ele>
        <time>2013-08-09T07:04:27Z</time>
      </trkpt>
      <trkpt lat="42.480144" lon="1.745879">
        <ele>2354.8</ele>
        <time>2013-08-09T07:04:29Z</time>
      </trkpt>
      <trkpt lat="42.480086" lon="1.745886">
        <ele>2353.4</ele>
        <time>2013-08-09T07:04:34Z</time>
      </trkpt>
      <trkpt lat="42.480027" lon="1.745926">
        <ele>2351.7</ele>
        <time>2013-08-09T07:04:40Z</time>
      </trkpt>
      <trkpt lat="42.479976" lon="1.745942">
        <ele>2350.5</ele>
        <time>2013-08-09T07:04:46Z</time>
      </trkpt>
      <trkpt lat="42.479934" lon="1.745948">
        <ele>2349.4</ele>
        <time>2013-08-09T07:04:50Z</time>
      </trkpt>
      <trkpt lat="42.479894" lon="1.745978">
        <ele>2347.8</ele>
        <time>2013-08-09T07:04:56Z</time>
      </trkpt>
      <trkpt lat="42.479796" lon="1.746054">
        <ele>2343.8</ele>
        <time>2013-08-09T07:05:08Z</time>
      </trkpt>
      <trkpt lat="42.479762" lon="1.746088">
        <ele>2342.0</ele>
        <time>2013-08-09T07:05:12Z</time>
      </trkpt>
      <trkpt lat="42.479695" lon="1.746116">
        <ele>2340.4</ele>
        <time>2013-08-09T07:05:18Z</time>
      </trkpt>
      <trkpt lat="42.479604" lon="1.746112">
        <ele>2339.5</ele>
        <time>2013-08-09T07:05:32Z</time>
      </trkpt>
      <trkpt lat="42.479604" lon="1.746112">
        <ele>2339.5</ele>
        <time>2013-08-09T07:05:43Z</time>
      </trkpt>
      <trkpt lat="42.479597" lon="1.746099">
        <ele>2339.4</ele>
        <time>2013-08-09T07:05:59Z</time>
      </trkpt>
      <trkpt lat="42.479597" lon="1.746099">
        <ele>2339.4</ele>
        <time>2013-08-09T07:06:04Z</time>
      </trkpt>
      <trkpt lat="42.479519" lon="1.746153">
        <ele>2337.0</ele>
        <time>2013-08-09T07:06:13Z</time>
      </trkpt>
      <trkpt lat="42.479500" lon="1.746221">
        <ele>2335.3</ele>
        <time>2013-08-09T07:06:18Z</time>
      </trkpt>
      <trkpt lat="42.479436" lon="1.746329">
        <ele>2333.9</ele>
        <time>2013-08-09T07:06:28Z</time>
      </trkpt>
      <trkpt lat="42.479391" lon="1.746386">
        <ele>2333.5</ele>
        <time>2013-08-09T07:06:40Z</time>
      </trkpt>
      <trkpt lat="42.479374" lon="1.746405">
        <ele>2333.4</ele>
        <time>2013-08-09T07:06:45Z</time>
      </trkpt>
      <trkpt lat="42.479354" lon="1.746376">
        <ele>2333.2</ele>
        <time>2013-08-09T07:06:49Z</time>
      </trkpt>
      <trkpt lat="42.479320" lon="1.746309">
        <ele>2333.5</ele>
        <time>2013-08-09T07:06:56Z</time>
      </trkpt>
      <trkpt lat="42.479211" lon="1.746377">
        <ele>2336.9</ele>
        <time>2013-08-09T07:07:08Z</time>
      </trkpt>
      <trkpt lat="42.479095" lon="1.746455">
        <ele>2337.6</ele>
        <time>2013-08-09T07:07:19Z</time>
      </trkpt>
      <trkpt lat="42.479018" lon="1.746508">
        <ele>2338.5</ele>
        <time>2013-08-09T07:07:29Z</time>
      </trkpt>
      <trkpt lat="42.479011" lon="1.746506">
        <ele>2338.6</ele>
        <time>2013-08-09T07:07:30Z</time>
      </trkpt>
      <trkpt lat="42.478992" lon="1.746517">
        <ele>2338.9</ele>
        <time>2013-08-09T07:07:32Z</time>
      </trkpt>
      <trkpt lat="42.478965" lon="1.746538">
        <ele>2339.3</ele>
        <time>2013-08-09T07:07:35Z</time>
      </trkpt>
      <trkpt lat="42.478822" lon="1.746593">
        <ele>2340.6</ele>
        <time>2013-08-09T07:07:48Z</time>
      </trkpt>
      <trkpt lat="42.478690" lon="1.746614">
        <ele>2341.6</ele>
        <time>2013-08-09T07:07:59Z</time>
      </trkpt>
      <trkpt lat="42.478624" lon="1.746615">
        <ele>2342.0</ele>
        <time>2013-08-09T07:08:06Z</time>
      </trkpt>
      <trkpt lat="42.478490" lon="1.746483">
        <ele>2342.4</ele>
        <time>2013-08-09T07:08:19Z</time>
      </trkpt>
      <trkpt lat="42.478357" lon="1.746363">
        <ele>2341.5</ele>
        <time>2013-08-09T07:08:31Z</time>
      </trkpt>
      <trkpt lat="42.478345" lon="1.746346">
        <ele>2341.4</ele>
        <time>2013-08-09T07:08:33Z</time>
      </trkpt>
      <trkpt lat="42.478248" lon="1.746294">
        <ele>2341.4</ele>
        <time>2013-08-09T07:08:43Z</time>
      </trkpt>
      <trkpt lat="42.478201" lon="1.746240">
        <ele>2340.2</ele>
        <time>2013-08-09T07:08:48Z</time>
      </trkpt>
      <trkpt lat="42.478045" lon="1.746259">
        <ele>2338.4</ele>
        <time>2013-08-09T07:09:03Z</time>
      </trkpt>
      <trkpt lat="42.478001" lon="1.746236">
        <ele>2337.8</ele>
        <time>2013-08-09T07:09:07Z</time>
      </trkpt>
      <trkpt lat="42.477834" lon="1.746250">
        <ele>2335.8</ele>
        <time>2013-08-09T07:09:23Z</time>
      </trkpt>
      <trkpt lat="42.477830" lon="1.746242">
        <ele>2335.8</ele>
        <time>2013-08-09T07:09:26Z</time>
      </trkpt>
      <trkpt lat="42.477819" lon="1.746219">
        <ele>2335.8</ele>
        <time>2013-08-09T07:09:42Z</time>
      </trkpt>
      <trkpt lat="42.477815" lon="1.746212">
        <ele>2335.8</ele>
        <time>2013-08-09T07:10:06Z</time>
      </trkpt>
      <trkpt lat="42.477773" lon="1.746261">
        <ele>2334.6</ele>
        <time>2013-08-09T07:10:28Z</time>
      </trkpt>
      <trkpt lat="42.477753" lon="1.746252">
        <ele>2333.5</ele>
        <time>2013-08-09T07:10:34Z</time>
      </trkpt>
      <trkpt lat="42.477700" lon="1.746309">
        <ele>2330.3</ele>
        <time>2013-08-09T07:10:44Z</time>
      </trkpt>
      <trkpt lat="42.477693" lon="1.746338">
        <ele>2330.0</ele>
        <time>2013-08-09T07:10:57Z</time>
      </trkpt>
      <trkpt lat="42.477693" lon="1.746338">
        <ele>2330.0</ele>
        <time>2013-08-09T07:11:02Z</time>
      </trkpt>
      <trkpt lat="42.477661" lon="1.746408">
        <ele>2327.8</ele>
        <time>2013-08-09T07:11:15Z</time>
      </trkpt>
      <trkpt lat="42.477651" lon="1.746430">
        <ele>2327.3</ele>
        <time>2013-08-09T07:11:17Z</time>
      </trkpt>
      <trkpt lat="42.477592" lon="1.746541">
        <ele>2323.9</ele>
        <time>2013-08-09T07:11:28Z</time>
      </trkpt>
      <trkpt lat="42.477535" lon="1.746586">
        <ele>2321.0</ele>
        <time>2013-08-09T07:11:35Z</time>
      </trkpt>
      <trkpt lat="42.477508" lon="1.746617">
        <ele>2319.8</ele>
        <time>2013-08-09T07:11:39Z</time>
      </trkpt>
      <trkpt lat="42.477468" lon="1.746657">
        <ele>2317.9</ele>
        <time>2013-08-09T07:11:45Z</time>
      </trkpt>
      <trkpt lat="42.477385" lon="1.746750">
        <ele>2314.6</ele>
        <time>2013-08-09T07:11:57Z</time>
      </trkpt>
      <trkpt lat="42.477330" lon="1.746802">
        <ele>2312.5</ele>
        <time>2013-08-09T07:12:04Z</time>
      </trkpt>
      <trkpt lat="42.477262" lon="1.746885">
        <ele>2311.4</ele>
        <time>2013-08-09T07:12:14Z</time>
      </trkpt>
      <trkpt lat="42.477128" lon="1.746985">
        <ele>2309.1</ele>
        <time>2013-08-09T07:12:29Z</time>
      </trkpt>
      <trkpt lat="42.477031" lon="1.747047">
        <ele>2307.0</ele>
        <time>2013-08-09T07:12:41Z</time>
      </trkpt>
      <trkpt lat="42.476946" lon="1.747115">
        <ele>2305.8</ele>
        <time>2013-08-09T07:12:51Z</time>
      </trkpt>
      <trkpt lat="42.476853" lon="1.747185">
        <ele>2304.2</ele>
        <time>2013-08-09T07:13:01Z</time>
      </trkpt>
      <trkpt lat="42.476786" lon="1.747325">
        <ele>2303.0</ele>
        <time>2013-08-09T07:13:16Z</time>
      </trkpt>
      <trkpt lat="42.476748" lon="1.747351">
        <ele>2301.3</ele>
        <time>2013-08-09T07:13:24Z</time>
      </trkpt>
      <trkpt lat="42.476713" lon="1.747397">
        <ele>2300.9</ele>
        <time>2013-08-09T07:13:39Z</time>
      </trkpt>
      <trkpt lat="42.476647" lon="1.747446">
        <ele>2300.1</ele>
        <time>2013-08-09T07:13:51Z</time>
      </trkpt>
      <trkpt lat="42.476515" lon="1.747532">
        <ele>2298.3</ele>
        <time>2013-08-09T07:14:04Z</time>
      </trkpt>
      <trkpt lat="42.476395" lon="1.747628">
        <ele>2297.7</ele>
        <time>2013-08-09T07:14:17Z</time>
      </trkpt>
      <trkpt lat="42.476370" lon="1.747677">
        <ele>2299.1</ele>
        <time>2013-08-09T07:14:24Z</time>
      </trkpt>
      <trkpt lat="42.476296" lon="1.747731">
        <ele>2298.5</ele>
        <time>2013-08-09T07:14:36Z</time>
      </trkpt>
      <trkpt lat="42.476292" lon="1.747732">
        <ele>2298.4</ele>
        <time>2013-08-09T07:14:37Z</time>
      </trkpt>
      <trkpt lat="42.476238" lon="1.747768">
        <ele>2297.0</ele>
        <time>2013-08-09T07:14:44Z</time>
      </trkpt>
      <trkpt lat="42.476190" lon="1.747895">
        <ele>2299.7</ele>
        <time>2013-08-09T07:14:56Z</time>
      </trkpt>
      <trkpt lat="42.476176" lon="1.747923">
        <ele>2300.4</ele>
        <time>2013-08-09T07:14:58Z</time>
      </trkpt>
      <trkpt lat="42.476122" lon="1.747989">
        <ele>2300.4</ele>
        <time>2013-08-09T07:15:06Z</time>
      </trkpt>
      <trkpt lat="42.476099" lon="1.748008">
        <ele>2300.3</ele>
        <time>2013-08-09T07:15:13Z</time>
      </trkpt>
      <trkpt lat="42.476082" lon="1.748090">
        <ele>2304.2</ele>
        <time>2013-08-09T07:15:25Z</time>
      </trkpt>
      <trkpt lat="42.476070" lon="1.748090">
        <ele>2303.2</ele>
        <time>2013-08-09T07:15:31Z</time>
      </trkpt>
      <trkpt lat="42.475997" lon="1.748185">
        <ele>2303.9</ele>
        <time>2013-08-09T07:15:43Z</time>
      </trkpt>
      <trkpt lat="42.475987" lon="1.748196">
        <ele>2303.7</ele>
        <time>2013-08-09T07:16:03Z</time>
      </trkpt>
      <trkpt lat="42.475950" lon="1.748277">
        <ele>2303.1</ele>
        <time>2013-08-09T07:16:15Z</time>
      </trkpt>
      <trkpt lat="42.475927" lon="1.748303">
        <ele>2302.2</ele>
        <time>2013-08-09T07:21:17Z</time>
      </trkpt>
      <trkpt lat="42.475896" lon="1.748333">
        <ele>2300.8</ele>
        <time>2013-08-09T07:21:31Z</time>
      </trkpt>
      <trkpt lat="42.475865" lon="1.748356">
        <ele>2299.3</ele>
        <time>2013-08-09T07:21:35Z</time>
      </trkpt>
      <trkpt lat="42.475847" lon="1.748385">
        <ele>2298.5</ele>
        <time>2013-08-09T07:21:40Z</time>
      </trkpt>
      <trkpt lat="42.475771" lon="1.748476">
        <ele>2295.3</ele>
        <time>2013-08-09T07:21:52Z</time>
      </trkpt>
      <trkpt lat="42.475740" lon="1.748497">
        <ele>2294.1</ele>
        <time>2013-08-09T07:21:55Z</time>
      </trkpt>
      <trkpt lat="42.475692" lon="1.748547">
        <ele>2292.6</ele>
        <time>2013-08-09T07:22:00Z</time>
      </trkpt>
      <trkpt lat="42.475665" lon="1.748575">
        <ele>2291.8</ele>
        <time>2013-08-09T07:22:04Z</time>
      </trkpt>
      <trkpt lat="42.475660" lon="1.748588">
        <ele>2291.6</ele>
        <time>2013-08-09T07:22:05Z</time>
      </trkpt>
      <trkpt lat="42.475631" lon="1.748663">
        <ele>2290.4</ele>
        <time>2013-08-09T07:22:10Z</time>
      </trkpt>
      <trkpt lat="42.475561" lon="1.748766">
        <ele>2287.8</ele>
        <time>2013-08-09T07:22:21Z</time>
      </trkpt>
      <trkpt lat="42.475534" lon="1.748833">
        <ele>2286.8</ele>
        <time>2013-08-09T07:22:26Z</time>
      </trkpt>
      <trkpt lat="42.475470" lon="1.748913">
        <ele>2284.8</ele>
        <time>2013-08-09T07:22:35Z</time>
      </trkpt>
      <trkpt lat="42.475349" lon="1.749040">
        <ele>2282.5</ele>
        <time>2013-08-09T07:22:47Z</time>
      </trkpt>
      <trkpt lat="42.475265" lon="1.749240">
        <ele>2280.2</ele>
        <time>2013-08-09T07:23:01Z</time>
      </trkpt>
      <trkpt lat="42.475216" lon="1.749458">
        <ele>2279.6</ele>
        <time>2013-08-09T07:23:14Z</time>
      </trkpt>
      <trkpt lat="42.475217" lon="1.749473">
        <ele>2279.7</ele>
        <time>2013-08-09T07:23:15Z</time>
      </trkpt>
      <trkpt lat="42.475257" lon="1.749616">
        <ele>2281.2</ele>
        <time>2013-08-09T07:23:27Z</time>
      </trkpt>
      <trkpt lat="42.475294" lon="1.749752">
        <ele>2281.1</ele>
        <time>2013-08-09T07:23:38Z</time>
      </trkpt>
      <trkpt lat="42.475316" lon="1.749897">
        <ele>2279.3</ele>
        <time>2013-08-09T07:23:49Z</time>
      </trkpt>
      <trkpt lat="42.475283" lon="1.750049">
        <ele>2276.1</ele>
        <time>2013-08-09T07:24:02Z</time>
      </trkpt>
      <trkpt lat="42.475283" lon="1.750061">
        <ele>2276.0</ele>
        <time>2013-08-09T07:24:03Z</time>
      </trkpt>
      <trkpt lat="42.475278" lon="1.750150">
        <ele>2275.8</ele>
        <time>2013-08-09T07:24:10Z</time>
      </trkpt>
      <trkpt lat="42.475252" lon="1.750202">
        <ele>2275.1</ele>
        <time>2013-08-09T07:24:14Z</time>
      </trkpt>
      <trkpt lat="42.475227" lon="1.750359">
        <ele>2274.2</ele>
        <time>2013-08-09T07:24:26Z</time>
      </trkpt>
      <trkpt lat="42.475234" lon="1.750381">
        <ele>2274.3</ele>
        <time>2013-08-09T07:24:28Z</time>
      </trkpt>
      <trkpt lat="42.475220" lon="1.750455">
        <ele>2273.3</ele>
        <time>2013-08-09T07:24:34Z</time>
      </trkpt>
      <trkpt lat="42.475228" lon="1.750584">
        <ele>2273.4</ele>
        <time>2013-08-09T07:24:42Z</time>
      </trkpt>
      <trkpt lat="42.475225" lon="1.750634">
        <ele>2273.1</ele>
        <time>2013-08-09T07:24:46Z</time>
      </trkpt>
      <trkpt lat="42.475213" lon="1.750664">
        <ele>2272.3</ele>
        <time>2013-08-09T07:24:48Z</time>
      </trkpt>
      <trkpt lat="42.475224" lon="1.750723">
        <ele>2272.5</ele>
        <time>2013-08-09T07:24:52Z</time>
      </trkpt>
      <trkpt lat="42.475264" lon="1.750825">
        <ele>2274.0</ele>
        <time>2013-08-09T07:25:05Z</time>
      </trkpt>
      <trkpt lat="42.475256" lon="1.750961">
        <ele>2271.6</ele>
        <time>2013-08-09T07:25:17Z</time>
      </trkpt>
      <trkpt lat="42.475233" lon="1.751046">
        <ele>2269.6</ele>
        <time>2013-08-09T07:25:26Z</time>
      </trkpt>
      <trkpt lat="42.475237" lon="1.751111">
        <ele>2268.0</ele>
        <time>2013-08-09T07:25:40Z</time>
      </trkpt>
      <trkpt lat="42.475233" lon="1.751160">
        <ele>2265.7</ele>
        <time>2013-08-09T07:25:53Z</time>
      </trkpt>
      <trkpt lat="42.475230" lon="1.751195">
        <ele>2263.6</ele>
        <time>2013-08-09T07:26:08Z</time>
      </trkpt>
      <trkpt lat="42.475207" lon="1.751246">
        <ele>2260.3</ele>
        <time>2013-08-09T07:26:23Z</time>
      </trkpt>
      <trkpt lat="42.475203" lon="1.751316">
        <ele>2258.3</ele>
        <time>2013-08-09T07:26:35Z</time>
      </trkpt>
      <trkpt lat="42.475190" lon="1.751343">
        <ele>2257.0</ele>
        <time>2013-08-09T07:26:46Z</time>
      </trkpt>
      <trkpt lat="42.475164" lon="1.751414">
        <ele>2253.5</ele>
        <time>2013-08-09T07:26:59Z</time>
      </trkpt>
      <trkpt lat="42.475165" lon="1.751444">
        <ele>2253.2</ele>
        <time>2013-08-09T07:27:14Z</time>
      </trkpt>
      <trkpt lat="42.475142" lon="1.751558">
        <ele>2252.1</ele>
        <time>2013-08-09T07:27:29Z</time>
      </trkpt>
      <trkpt lat="42.475124" lon="1.751706">
        <ele>2249.7</ele>
        <time>2013-08-09T07:27:45Z</time>
      </trkpt>
      <trkpt lat="42.475124" lon="1.751785">
        <ele>2249.5</ele>
        <time>2013-08-09T07:27:57Z</time>
      </trkpt>
      <trkpt lat="42.475106" lon="1.751868">
        <ele>2248.0</ele>
        <time>2013-08-09T07:28:02Z</time>
      </trkpt>
      <trkpt lat="42.475116" lon="1.752010">
        <ele>2246.8</ele>
        <time>2013-08-09T07:28:13Z</time>
      </trkpt>
      <trkpt lat="42.475118" lon="1.752032">
        <ele>2247.1</ele>
        <time>2013-08-09T07:28:15Z</time>
      </trkpt>
      <trkpt lat="42.475109" lon="1.752165">
        <ele>2247.1</ele>
        <time>2013-08-09T07:28:28Z</time>
      </trkpt>
      <trkpt lat="42.475086" lon="1.752282">
        <ele>2246.8</ele>
        <time>2013-08-09T07:28:39Z</time>
      </trkpt>
      <trkpt lat="42.475050" lon="1.752445">
        <ele>2246.9</ele>
        <time>2013-08-09T07:28:51Z</time>
      </trkpt>
      <trkpt lat="42.475048" lon="1.752517">
        <ele>2248.3</ele>
        <time>2013-08-09T07:28:57Z</time>
      </trkpt>
      <trkpt lat="42.474995" lon="1.752675">
        <ele>2248.1</ele>
        <time>2013-08-09T07:29:11Z</time>
      </trkpt>
      <trkpt lat="42.474962" lon="1.752820">
        <ele>2246.3</ele>
        <time>2013-08-09T07:29:24Z</time>
      </trkpt>
      <trkpt lat="42.474954" lon="1.752844">
        <ele>2246.0</ele>
        <time>2013-08-09T07:29:26Z</time>
      </trkpt>
      <trkpt lat="42.474946" lon="1.752904">
        <ele>2246.8</ele>
        <time>2013-08-09T07:29:39Z</time>
      </trkpt>
      <trkpt lat="42.474916" lon="1.752990">
        <ele>2246.4</ele>
        <time>2013-08-09T07:29:46Z</time>
      </trkpt>
      <trkpt lat="42.474881" lon="1.753154">
        <ele>2247.2</ele>
        <time>2013-08-09T07:29:59Z</time>
      </trkpt>
      <trkpt lat="42.474872" lon="1.753176">
        <ele>2246.6</ele>
        <time>2013-08-09T07:30:02Z</time>
      </trkpt>
      <trkpt lat="42.474817" lon="1.753200">
        <ele>2244.0</ele>
        <time>2013-08-09T07:30:08Z</time>
      </trkpt>
      <trkpt lat="42.474775" lon="1.753288">
        <ele>2245.0</ele>
        <time>2013-08-09T07:30:15Z</time>
      </trkpt>
      <trkpt lat="42.474727" lon="1.753360">
        <ele>2244.5</ele>
        <time>2013-08-09T07:30:22Z</time>
      </trkpt>
      <trkpt lat="42.474686" lon="1.753415">
        <ele>2244.4</ele>
        <time>2013-08-09T07:30:27Z</time>
      </trkpt>
      <trkpt lat="42.474625" lon="1.753577">
        <ele>2244.7</ele>
        <time>2013-08-09T07:30:39Z</time>
      </trkpt>
      <trkpt lat="42.474514" lon="1.753723">
        <ele>2239.8</ele>
        <time>2013-08-09T07:30:53Z</time>
      </trkpt>
      <trkpt lat="42.474502" lon="1.753768">
        <ele>2239.4</ele>
        <time>2013-08-09T07:30:56Z</time>
      </trkpt>
      <trkpt lat="42.474471" lon="1.753808">
        <ele>2237.3</ele>
        <time>2013-08-09T07:31:00Z</time>
      </trkpt>
      <trkpt lat="42.474456" lon="1.753852">
        <ele>2236.8</ele>
        <time>2013-08-09T07:31:03Z</time>
      </trkpt>
      <trkpt lat="42.474411" lon="1.753936">
        <ele>2235.4</ele>
        <time>2013-08-09T07:31:09Z</time>
      </trkpt>
      <trkpt lat="42.474367" lon="1.754070">
        <ele>2234.9</ele>
        <time>2013-08-09T07:31:22Z</time>
      </trkpt>
      <trkpt lat="42.474319" lon="1.754146">
        <ele>2233.7</ele>
        <time>2013-08-09T07:31:31Z</time>
      </trkpt>
      <trkpt lat="42.474289" lon="1.754196">
        <ele>2232.7</ele>
        <time>2013-08-09T07:31:35Z</time>
      </trkpt>
      <trkpt lat="42.474204" lon="1.754290">
        <ele>2228.5</ele>
        <time>2013-08-09T07:31:46Z</time>
      </trkpt>
      <trkpt lat="42.474184" lon="1.754334">
        <ele>2227.7</ele>
        <time>2013-08-09T07:31:51Z</time>
      </trkpt>
      <trkpt lat="42.474141" lon="1.754455">
        <ele>2226.3</ele>
        <time>2013-08-09T07:32:02Z</time>
      </trkpt>
      <trkpt lat="42.474075" lon="1.754550">
        <ele>2221.6</ele>
        <time>2013-08-09T07:32:15Z</time>
      </trkpt>
      <trkpt lat="42.474071" lon="1.754558">
        <ele>2221.3</ele>
        <time>2013-08-09T07:32:16Z</time>
      </trkpt>
      <trkpt lat="42.474037" lon="1.754710">
        <ele>2220.2</ele>
        <time>2013-08-09T07:32:30Z</time>
      </trkpt>
      <trkpt lat="42.473992" lon="1.754829">
        <ele>2218.0</ele>
        <time>2013-08-09T07:32:41Z</time>
      </trkpt>
      <trkpt lat="42.473978" lon="1.754931">
        <ele>2216.7</ele>
        <time>2013-08-09T07:32:51Z</time>
      </trkpt>
      <trkpt lat="42.473962" lon="1.754952">
        <ele>2215.5</ele>
        <time>2013-08-09T07:32:54Z</time>
      </trkpt>
      <trkpt lat="42.473940" lon="1.755048">
        <ele>2214.8</ele>
        <time>2013-08-09T07:33:04Z</time>
      </trkpt>
      <trkpt lat="42.473899" lon="1.755135">
        <ele>2214.3</ele>
        <time>2013-08-09T07:33:15Z</time>
      </trkpt>
      <trkpt lat="42.473882" lon="1.755208">
        <ele>2214.9</ele>
        <time>2013-08-09T07:33:24Z</time>
      </trkpt>
      <trkpt lat="42.473820" lon="1.755288">
        <ele>2209.9</ele>
        <time>2013-08-09T07:33:36Z</time>
      </trkpt>
      <trkpt lat="42.473793" lon="1.755350">
        <ele>2208.2</ele>
        <time>2013-08-09T07:33:45Z</time>
      </trkpt>
      <trkpt lat="42.473754" lon="1.755402">
        <ele>2206.7</ele>
        <time>2013-08-09T07:33:53Z</time>
      </trkpt>
      <trkpt lat="42.473745" lon="1.755430">
        <ele>2207.0</ele>
        <time>2013-08-09T07:33:56Z</time>
      </trkpt>
      <trkpt lat="42.473724" lon="1.755505">
        <ele>2206.1</ele>
        <time>2013-08-09T07:34:04Z</time>
      </trkpt>
      <trkpt lat="42.473709" lon="1.755611">
        <ele>2206.5</ele>
        <time>2013-08-09T07:34:16Z</time>
      </trkpt>
      <trkpt lat="42.473642" lon="1.755703">
        <ele>2205.7</ele>
        <time>2013-08-09T07:34:29Z</time>
      </trkpt>
      <trkpt lat="42.473603" lon="1.755741">
        <ele>2204.2</ele>
        <time>2013-08-09T07:34:36Z</time>
      </trkpt>
      <trkpt lat="42.473609" lon="1.755861">
        <ele>2205.9</ele>
        <time>2013-08-09T07:40:34Z</time>
      </trkpt>
      <trkpt lat="42.473610" lon="1.755902">
        <ele>2206.6</ele>
        <time>2013-08-09T07:40:47Z</time>
      </trkpt>
      <trkpt lat="42.473591" lon="1.756000">
        <ele>2205.8</ele>
        <time>2013-08-09T07:40:59Z</time>
      </trkpt>
      <trkpt lat="42.473569" lon="1.756079">
        <ele>2204.6</ele>
        <time>2013-08-09T07:41:13Z</time>
      </trkpt>
      <trkpt lat="42.473548" lon="1.756164">
        <ele>2205.3</ele>
        <time>2013-08-09T07:41:24Z</time>
      </trkpt>
      <trkpt lat="42.473526" lon="1.756259">
        <ele>2206.5</ele>
        <time>2013-08-09T07:41:37Z</time>
      </trkpt>
      <trkpt lat="42.473521" lon="1.756277">
        <ele>2206.7</ele>
        <time>2013-08-09T07:41:49Z</time>
      </trkpt>
      <trkpt lat="42.473517" lon="1.756316">
        <ele>2207.7</ele>
        <time>2013-08-09T07:41:56Z</time>
      </trkpt>
      <trkpt lat="42.473495" lon="1.756437">
        <ele>2208.9</ele>
        <time>2013-08-09T07:42:03Z</time>
      </trkpt>
      <trkpt lat="42.473485" lon="1.756549">
        <ele>2211.7</ele>
        <time>2013-08-09T07:42:15Z</time>
      </trkpt>
      <trkpt lat="42.473492" lon="1.756700">
        <ele>2216.3</ele>
        <time>2013-08-09T07:42:27Z</time>
      </trkpt>
      <trkpt lat="42.473452" lon="1.756754">
        <ele>2214.5</ele>
        <time>2013-08-09T07:42:34Z</time>
      </trkpt>
      <trkpt lat="42.473444" lon="1.756848">
        <ele>2217.3</ele>
        <time>2013-08-09T07:42:45Z</time>
      </trkpt>
      <trkpt lat="42.473409" lon="1.756920">
        <ele>2217.0</ele>
        <time>2013-08-09T07:42:57Z</time>
      </trkpt>
      <trkpt lat="42.473395" lon="1.756984">
        <ele>2218.5</ele>
        <time>2013-08-09T07:43:02Z</time>
      </trkpt>
      <trkpt lat="42.473343" lon="1.757081">
        <ele>2219.1</ele>
        <time>2013-08-09T07:43:16Z</time>
      </trkpt>
      <trkpt lat="42.473332" lon="1.757097">
        <ele>2218.6</ele>
        <time>2013-08-09T07:43:18Z</time>
      </trkpt>
      <trkpt lat="42.473286" lon="1.757188">
        <ele>2218.7</ele>
        <time>2013-08-09T07:43:31Z</time>
      </trkpt>
      <trkpt lat="42.473279" lon="1.757206">
        <ele>2219.2</ele>
        <time>2013-08-09T07:43:33Z</time>
      </trkpt>
      <trkpt lat="42.473259" lon="1.757302">
        <ele>2222.1</ele>
        <time>2013-08-09T07:43:45Z</time>
      </trkpt>
      <trkpt lat="42.473237" lon="1.757343">
        <ele>2222.2</ele>
        <time>2013-08-09T07:43:56Z</time>
      </trkpt>
      <trkpt lat="42.473176" lon="1.757385">
        <ele>2219.5</ele>
        <time>2013-08-09T07:44:08Z</time>
      </trkpt>
      <trkpt lat="42.473147" lon="1.757380">
        <ele>2217.3</ele>
        <time>2013-08-09T07:44:12Z</time>
      </trkpt>
      <trkpt lat="42.473084" lon="1.757419">
        <ele>2217.9</ele>
        <time>2013-08-09T07:44:24Z</time>
      </trkpt>
      <trkpt lat="42.473084" lon="1.757419">
        <ele>2217.9</ele>
        <time>2013-08-09T07:44:25Z</time>
      </trkpt>
      <trkpt lat="42.473023" lon="1.757481">
        <ele>2220.4</ele>
        <time>2013-08-09T07:44:35Z</time>
      </trkpt>
      <trkpt lat="42.473018" lon="1.757529">
        <ele>2222.6</ele>
        <time>2013-08-09T07:44:38Z</time>
      </trkpt>
      <trkpt lat="42.473017" lon="1.757571">
        <ele>2224.5</ele>
        <time>2013-08-09T07:44:41Z</time>
      </trkpt>
      <trkpt lat="42.472983" lon="1.757669">
        <ele>2224.7</ele>
        <time>2013-08-09T07:44:52Z</time>
      </trkpt>
      <trkpt lat="42.472947" lon="1.757724">
        <ele>2225.5</ele>
        <time>2013-08-09T07:45:02Z</time>
      </trkpt>
      <trkpt lat="42.472939" lon="1.757730">
        <ele>2225.2</ele>
        <time>2013-08-09T07:45:03Z</time>
      </trkpt>
      <trkpt lat="42.472936" lon="1.757805">
        <ele>2226.6</ele>
        <time>2013-08-09T07:45:10Z</time>
      </trkpt>
      <trkpt lat="42.472935" lon="1.757839">
        <ele>2227.3</ele>
        <time>2013-08-09T07:45:13Z</time>
      </trkpt>
      <trkpt lat="42.472930" lon="1.757863">
        <ele>2227.6</ele>
        <time>2013-08-09T07:45:15Z</time>
      </trkpt>
      <trkpt lat="42.472899" lon="1.757957">
        <ele>2229.0</ele>
        <time>2013-08-09T07:45:27Z</time>
      </trkpt>
      <trkpt lat="42.472898" lon="1.757980">
        <ele>2229.7</ele>
        <time>2013-08-09T07:45:31Z</time>
      </trkpt>
      <trkpt lat="42.472876" lon="1.758009">
        <ele>2229.3</ele>
        <time>2013-08-09T07:45:36Z</time>
      </trkpt>
      <trkpt lat="42.472872" lon="1.758054">
        <ele>2230.7</ele>
        <time>2013-08-09T07:45:40Z</time>
      </trkpt>
      <trkpt lat="42.472869" lon="1.758163">
        <ele>2232.7</ele>
        <time>2013-08-09T07:45:54Z</time>
      </trkpt>
      <trkpt lat="42.472874" lon="1.758172">
        <ele>2233.3</ele>
        <time>2013-08-09T07:46:06Z</time>
      </trkpt>
      <trkpt lat="42.472871" lon="1.758209">
        <ele>2234.2</ele>
        <time>2013-08-09T07:46:16Z</time>
      </trkpt>
      <trkpt lat="42.472867" lon="1.758234">
        <ele>2234.8</ele>
        <time>2013-08-09T07:46:22Z</time>
      </trkpt>
      <trkpt lat="42.472846" lon="1.758343">
        <ele>2238.9</ele>
        <time>2013-08-09T07:46:34Z</time>
      </trkpt>
      <trkpt lat="42.472818" lon="1.758437">
        <ele>2240.0</ele>
        <time>2013-08-09T07:46:45Z</time>
      </trkpt>
      <trkpt lat="42.472798" lon="1.758474">
        <ele>2239.5</ele>
        <time>2013-08-09T07:46:51Z</time>
      </trkpt>
      <trkpt lat="42.472707" lon="1.758577">
        <ele>2239.8</ele>
        <time>2013-08-09T07:47:02Z</time>
      </trkpt>
      <trkpt lat="42.472688" lon="1.758641">
        <ele>2240.3</ele>
        <time>2013-08-09T07:47:13Z</time>
      </trkpt>
      <trkpt lat="42.472678" lon="1.758745">
        <ele>2241.1</ele>
        <time>2013-08-09T07:47:30Z</time>
      </trkpt>
      <trkpt lat="42.472704" lon="1.758837">
        <ele>2243.4</ele>
        <time>2013-08-09T07:47:41Z</time>
      </trkpt>
      <trkpt lat="42.472694" lon="1.758982">
        <ele>2242.9</ele>
        <time>2013-08-09T07:47:55Z</time>
      </trkpt>
      <trkpt lat="42.472674" lon="1.759033">
        <ele>2243.5</ele>
        <time>2013-08-09T07:48:00Z</time>
      </trkpt>
      <trkpt lat="42.472709" lon="1.759129">
        <ele>2246.2</ele>
        <time>2013-08-09T07:48:11Z</time>
      </trkpt>
      <trkpt lat="42.472732" lon="1.759237">
        <ele>2247.3</ele>
        <time>2013-08-09T07:48:22Z</time>
      </trkpt>
      <trkpt lat="42.472735" lon="1.759319">
        <ele>2248.3</ele>
        <time>2013-08-09T07:48:30Z</time>
      </trkpt>
      <trkpt lat="42.472723" lon="1.759420">
        <ele>2249.7</ele>
        <time>2013-08-09T07:48:42Z</time>
      </trkpt>
      <trkpt lat="42.472740" lon="1.759483">
        <ele>2252.3</ele>
        <time>2013-08-09T07:48:54Z</time>
      </trkpt>
      <trkpt lat="42.472716" lon="1.759537">
        <ele>2252.2</ele>
        <time>2013-08-09T07:49:02Z</time>
      </trkpt>
      <trkpt lat="42.472711" lon="1.759694">
        <ele>2253.8</ele>
        <time>2013-08-09T07:49:15Z</time>
      </trkpt>
      <trkpt lat="42.472701" lon="1.759715">
        <ele>2253.9</ele>
        <time>2013-08-09T07:49:18Z</time>
      </trkpt>
      <trkpt lat="42.472647" lon="1.759828">
        <ele>2255.0</ele>
        <time>2013-08-09T07:49:31Z</time>
      </trkpt>
      <trkpt lat="42.472641" lon="1.759837">
        <ele>2254.8</ele>
        <time>2013-08-09T07:49:32Z</time>
      </trkpt>
      <trkpt lat="42.472634" lon="1.759878">
        <ele>2254.7</ele>
        <time>2013-08-09T07:49:35Z</time>
      </trkpt>
      <trkpt lat="42.472621" lon="1.759920">
        <ele>2253.9</ele>
        <time>2013-08-09T07:49:39Z</time>
      </trkpt>
      <trkpt lat="42.472596" lon="1.760091">
        <ele>2251.6</ele>
        <time>2013-08-09T07:49:53Z</time>
      </trkpt>
      <trkpt lat="42.472555" lon="1.760202">
        <ele>2251.5</ele>
        <time>2013-08-09T07:50:05Z</time>
      </trkpt>
      <trkpt lat="42.472548" lon="1.760224">
        <ele>2251.4</ele>
        <time>2013-08-09T07:50:07Z</time>
      </trkpt>
      <trkpt lat="42.472536" lon="1.760282">
        <ele>2251.6</ele>
        <time>2013-08-09T07:50:12Z</time>
      </trkpt>
      <trkpt lat="42.472502" lon="1.760336">
        <ele>2250.8</ele>
        <time>2013-08-09T07:50:18Z</time>
      </trkpt>
      <trkpt lat="42.472473" lon="1.760394">
        <ele>2251.1</ele>
        <time>2013-08-09T07:50:24Z</time>
      </trkpt>
      <trkpt lat="42.472454" lon="1.760414">
        <ele>2251.0</ele>
        <time>2013-08-09T07:50:27Z</time>
      </trkpt>
      <trkpt lat="42.472401" lon="1.760523">
        <ele>2253.2</ele>
        <time>2013-08-09T07:50:40Z</time>
      </trkpt>
      <trkpt lat="42.472362" lon="1.760578">
        <ele>2254.2</ele>
        <time>2013-08-09T07:50:47Z</time>
      </trkpt>
      <trkpt lat="42.472272" lon="1.760681">
        <ele>2254.4</ele>
        <time>2013-08-09T07:51:00Z</time>
      </trkpt>
      <trkpt lat="42.472263" lon="1.760749">
        <ele>2256.0</ele>
        <time>2013-08-09T07:51:14Z</time>
      </trkpt>
      <trkpt lat="42.472219" lon="1.760802">
        <ele>2256.3</ele>
        <time>2013-08-09T07:51:26Z</time>
      </trkpt>
      <trkpt lat="42.472162" lon="1.760874">
        <ele>2256.7</ele>
        <time>2013-08-09T07:51:37Z</time>
      </trkpt>
      <trkpt lat="42.472067" lon="1.760960">
        <ele>2253.7</ele>
        <time>2013-08-09T07:51:47Z</time>
      </trkpt>
      <trkpt lat="42.472023" lon="1.761015">
        <ele>2253.2</ele>
        <time>2013-08-09T07:51:52Z</time>
      </trkpt>
      <trkpt lat="42.472004" lon="1.761053">
        <ele>2253.3</ele>
        <time>2013-08-09T07:51:55Z</time>
      </trkpt>
      <trkpt lat="42.471931" lon="1.761187">
        <ele>2253.6</ele>
        <time>2013-08-09T07:52:09Z</time>
      </trkpt>
      <trkpt lat="42.471902" lon="1.761265">
        <ele>2254.2</ele>
        <time>2013-08-09T07:52:17Z</time>
      </trkpt>
      <trkpt lat="42.471804" lon="1.761390">
        <ele>2252.9</ele>
        <time>2013-08-09T07:52:29Z</time>
      </trkpt>
      <trkpt lat="42.471725" lon="1.761427">
        <ele>2253.7</ele>
        <time>2013-08-09T07:52:40Z</time>
      </trkpt>
      <trkpt lat="42.471699" lon="1.761427">
        <ele>2253.5</ele>
        <time>2013-08-09T07:52:55Z</time>
      </trkpt>
      <trkpt lat="42.471703" lon="1.761433">
        <ele>2253.7</ele>
        <time>2013-08-09T07:53:23Z</time>
      </trkpt>
      <trkpt lat="42.471685" lon="1.761451">
        <ele>2253.6</ele>
        <time>2013-08-09T07:53:33Z</time>
      </trkpt>
      <trkpt lat="42.471670" lon="1.761473">
        <ele>2253.5</ele>
        <time>2013-08-09T07:53:35Z</time>
      </trkpt>
      <trkpt lat="42.471641" lon="1.761537">
        <ele>2253.3</ele>
        <time>2013-08-09T07:53:42Z</time>
      </trkpt>
      <trkpt lat="42.471582" lon="1.761662">
        <ele>2252.9</ele>
        <time>2013-08-09T07:53:53Z</time>
      </trkpt>
      <trkpt lat="42.471577" lon="1.761687">
        <ele>2253.0</ele>
        <time>2013-08-09T07:53:55Z</time>
      </trkpt>
      <trkpt lat="42.471513" lon="1.761876">
        <ele>2252.5</ele>
        <time>2013-08-09T07:54:09Z</time>
      </trkpt>
      <trkpt lat="42.471479" lon="1.762015">
        <ele>2253.0</ele>
        <time>2013-08-09T07:54:19Z</time>
      </trkpt>
      <trkpt lat="42.471406" lon="1.762147">
        <ele>2253.7</ele>
        <time>2013-08-09T07:54:30Z</time>
      </trkpt>
      <trkpt lat="42.471398" lon="1.762167">
        <ele>2253.9</ele>
        <time>2013-08-09T07:54:32Z</time>
      </trkpt>
      <trkpt lat="42.471379" lon="1.762194">
        <ele>2254.3</ele>
        <time>2013-08-09T07:54:35Z</time>
      </trkpt>
      <trkpt lat="42.471364" lon="1.762252">
        <ele>2255.3</ele>
        <time>2013-08-09T07:54:47Z</time>
      </trkpt>
      <trkpt lat="42.471340" lon="1.762319">
        <ele>2256.8</ele>
        <time>2013-08-09T07:58:28Z</time>
      </trkpt>
      <trkpt lat="42.471288" lon="1.762341">
        <ele>2257.0</ele>
        <time>2013-08-09T07:58:39Z</time>
      </trkpt>
      <trkpt lat="42.471237" lon="1.762356">
        <ele>2257.3</ele>
        <time>2013-08-09T07:58:47Z</time>
      </trkpt>
      <trkpt lat="42.471207" lon="1.762377">
        <ele>2257.6</ele>
        <time>2013-08-09T07:58:51Z</time>
      </trkpt>
      <trkpt lat="42.471171" lon="1.762370">
        <ele>2257.2</ele>
        <time>2013-08-09T07:58:55Z</time>
      </trkpt>
      <trkpt lat="42.471093" lon="1.762392">
        <ele>2256.7</ele>
        <time>2013-08-09T07:59:02Z</time>
      </trkpt>
      <trkpt lat="42.471064" lon="1.762419">
        <ele>2257.4</ele>
        <time>2013-08-09T07:59:05Z</time>
      </trkpt>
      <trkpt lat="42.471027" lon="1.762401">
        <ele>2256.7</ele>
        <time>2013-08-09T07:59:10Z</time>
      </trkpt>
      <trkpt lat="42.470993" lon="1.762389">
        <ele>2256.4</ele>
        <time>2013-08-09T07:59:14Z</time>
      </trkpt>
      <trkpt lat="42.470922" lon="1.762369">
        <ele>2257.3</ele>
        <time>2013-08-09T07:59:23Z</time>
      </trkpt>
      <trkpt lat="42.470876" lon="1.762341">
        <ele>2256.8</ele>
        <time>2013-08-09T07:59:28Z</time>
      </trkpt>
      <trkpt lat="42.470825" lon="1.762334">
        <ele>2256.8</ele>
        <time>2013-08-09T07:59:33Z</time>
      </trkpt>
      <trkpt lat="42.470736" lon="1.762340">
        <ele>2257.8</ele>
        <time>2013-08-09T07:59:45Z</time>
      </trkpt>
      <trkpt lat="42.470683" lon="1.762369">
        <ele>2260.4</ele>
        <time>2013-08-09T07:59:58Z</time>
      </trkpt>
      <trkpt lat="42.470602" lon="1.762383">
        <ele>2263.3</ele>
        <time>2013-08-09T08:00:13Z</time>
      </trkpt>
      <trkpt lat="42.470533" lon="1.762421">
        <ele>2266.5</ele>
        <time>2013-08-09T08:00:24Z</time>
      </trkpt>
      <trkpt lat="42.470523" lon="1.762433">
        <ele>2267.2</ele>
        <time>2013-08-09T08:00:31Z</time>
      </trkpt>
      <trkpt lat="42.470513" lon="1.762465">
        <ele>2268.7</ele>
        <time>2013-08-09T08:00:44Z</time>
      </trkpt>
      <trkpt lat="42.470474" lon="1.762495">
        <ele>2270.9</ele>
        <time>2013-08-09T08:00:53Z</time>
      </trkpt>
      <trkpt lat="42.470442" lon="1.762498">
        <ele>2271.9</ele>
        <time>2013-08-09T08:00:58Z</time>
      </trkpt>
      <trkpt lat="42.470374" lon="1.762510">
        <ele>2273.8</ele>
        <time>2013-08-09T08:01:09Z</time>
      </trkpt>
      <trkpt lat="42.470307" lon="1.762518">
        <ele>2275.4</ele>
        <time>2013-08-09T08:01:20Z</time>
      </trkpt>
      <trkpt lat="42.470300" lon="1.762502">
        <ele>2274.7</ele>
        <time>2013-08-09T08:01:22Z</time>
      </trkpt>
      <trkpt lat="42.470276" lon="1.762479">
        <ele>2273.9</ele>
        <time>2013-08-09T08:01:24Z</time>
      </trkpt>
      <trkpt lat="42.470169" lon="1.762460">
        <ele>2274.8</ele>
        <time>2013-08-09T08:01:36Z</time>
      </trkpt>
      <trkpt lat="42.470145" lon="1.762452">
        <ele>2274.9</ele>
        <time>2013-08-09T08:01:39Z</time>
      </trkpt>
      <trkpt lat="42.470094" lon="1.762435">
        <ele>2274.8</ele>
        <time>2013-08-09T08:01:45Z</time>
      </trkpt>
      <trkpt lat="42.470048" lon="1.762425">
        <ele>2274.9</ele>
        <time>2013-08-09T08:01:51Z</time>
      </trkpt>
      <trkpt lat="42.470018" lon="1.762436">
        <ele>2276.0</ele>
        <time>2013-08-09T08:01:57Z</time>
      </trkpt>
      <trkpt lat="42.469915" lon="1.762404">
        <ele>2275.7</ele>
        <time>2013-08-09T08:02:09Z</time>
      </trkpt>
      <trkpt lat="42.469823" lon="1.762364">
        <ele>2274.3</ele>
        <time>2013-08-09T08:02:16Z</time>
      </trkpt>
      <trkpt lat="42.469807" lon="1.762368">
        <ele>2274.7</ele>
        <time>2013-08-09T08:02:18Z</time>
      </trkpt>
      <trkpt lat="42.469717" lon="1.762369">
        <ele>2276.4</ele>
        <time>2013-08-09T08:02:28Z</time>
      </trkpt>
      <trkpt lat="42.469663" lon="1.762370">
        <ele>2277.6</ele>
        <time>2013-08-09T08:02:33Z</time>
      </trkpt>
      <trkpt lat="42.469611" lon="1.762359">
        <ele>2277.4</ele>
        <time>2013-08-09T08:02:40Z</time>
      </trkpt>
      <trkpt lat="42.469540" lon="1.762387">
        <ele>2276.8</ele>
        <time>2013-08-09T08:02:49Z</time>
      </trkpt>
      <trkpt lat="42.469526" lon="1.762396">
        <ele>2276.5</ele>
        <time>2013-08-09T08:02:51Z</time>
      </trkpt>
      <trkpt lat="42.469501" lon="1.762401">
        <ele>2275.6</ele>
        <time>2013-08-09T08:02:54Z</time>
      </trkpt>
      <trkpt lat="42.469470" lon="1.762395">
        <ele>2273.9</ele>
        <time>2013-08-09T08:02:57Z</time>
      </trkpt>
      <trkpt lat="42.469379" lon="1.762489">
        <ele>2276.5</ele>
        <time>2013-08-09T08:03:10Z</time>
      </trkpt>
      <trkpt lat="42.469298" lon="1.762542">
        <ele>2276.5</ele>
        <time>2013-08-09T08:03:21Z</time>
      </trkpt>
      <trkpt lat="42.469212" lon="1.762603">
        <ele>2275.8</ele>
        <time>2013-08-09T08:03:33Z</time>
      </trkpt>
      <trkpt lat="42.469193" lon="1.762612">
        <ele>2275.4</ele>
        <time>2013-08-09T08:03:35Z</time>
      </trkpt>
      <trkpt lat="42.469114" lon="1.762713">
        <ele>2277.5</ele>
        <time>2013-08-09T08:03:48Z</time>
      </trkpt>
      <trkpt lat="42.469014" lon="1.762756">
        <ele>2276.6</ele>
        <time>2013-08-09T08:03:59Z</time>
      </trkpt>
      <trkpt lat="42.469005" lon="1.762759">
        <ele>2276.5</ele>
        <time>2013-08-09T08:04:00Z</time>
      </trkpt>
      <trkpt lat="42.468934" lon="1.762806">
        <ele>2276.7</ele>
        <time>2013-08-09T08:04:11Z</time>
      </trkpt>
      <trkpt lat="42.468861" lon="1.762870">
        <ele>2274.1</ele>
        <time>2013-08-09T08:04:22Z</time>
      </trkpt>
      <trkpt lat="42.468766" lon="1.762974">
        <ele>2271.7</ele>
        <time>2013-08-09T08:04:37Z</time>
      </trkpt>
      <trkpt lat="42.468723" lon="1.762999">
        <ele>2269.8</ele>
        <time>2013-08-09T08:04:45Z</time>
      </trkpt>
      <trkpt lat="42.468694" lon="1.763054">
        <ele>2269.9</ele>
        <time>2013-08-09T08:04:50Z</time>
      </trkpt>
      <trkpt lat="42.468635" lon="1.763192">
        <ele>2270.8</ele>
        <time>2013-08-09T08:05:03Z</time>
      </trkpt>
      <trkpt lat="42.468589" lon="1.763257">
        <ele>2270.2</ele>
        <time>2013-08-09T08:05:12Z</time>
      </trkpt>
      <trkpt lat="42.468580" lon="1.763270">
        <ele>2270.0</ele>
        <time>2013-08-09T08:05:14Z</time>
      </trkpt>
      <trkpt lat="42.468505" lon="1.763402">
        <ele>2268.8</ele>
        <time>2013-08-09T08:05:26Z</time>
      </trkpt>
      <trkpt lat="42.468503" lon="1.763415">
        <ele>2269.1</ele>
        <time>2013-08-09T08:05:27Z</time>
      </trkpt>
      <trkpt lat="42.468478" lon="1.763467">
        <ele>2269.0</ele>
        <time>2013-08-09T08:05:33Z</time>
      </trkpt>
      <trkpt lat="42.468462" lon="1.763497">
        <ele>2268.9</ele>
        <time>2013-08-09T08:05:36Z</time>
      </trkpt>
      <trkpt lat="42.468416" lon="1.763537">
        <ele>2267.2</ele>
        <time>2013-08-09T08:05:45Z</time>
      </trkpt>
      <trkpt lat="42.468319" lon="1.763605">
        <ele>2262.7</ele>
        <time>2013-08-09T08:05:58Z</time>
      </trkpt>
      <trkpt lat="42.468270" lon="1.763689">
        <ele>2261.6</ele>
        <time>2013-08-09T08:06:04Z</time>
      </trkpt>
      <trkpt lat="42.468188" lon="1.763823">
        <ele>2259.5</ele>
        <time>2013-08-09T08:06:17Z</time>
      </trkpt>
      <trkpt lat="42.468182" lon="1.763831">
        <ele>2259.4</ele>
        <time>2013-08-09T08:06:18Z</time>
      </trkpt>
      <trkpt lat="42.468102" lon="1.763878">
        <ele>2257.9</ele>
        <time>2013-08-09T08:06:27Z</time>
      </trkpt>
      <trkpt lat="42.468075" lon="1.763917">
        <ele>2259.2</ele>
        <time>2013-08-09T08:06:35Z</time>
      </trkpt>
      <trkpt lat="42.467984" lon="1.763957">
        <ele>2258.4</ele>
        <time>2013-08-09T08:06:47Z</time>
      </trkpt>
      <trkpt lat="42.467974" lon="1.763959">
        <ele>2258.2</ele>
        <time>2013-08-09T08:06:48Z</time>
      </trkpt>
      <trkpt lat="42.467947" lon="1.763977">
        <ele>2258.5</ele>
        <time>2013-08-09T08:06:51Z</time>
      </trkpt>
      <trkpt lat="42.467914" lon="1.764014">
        <ele>2260.0</ele>
        <time>2013-08-09T08:07:01Z</time>
      </trkpt>
      <trkpt lat="42.467898" lon="1.764026">
        <ele>2260.6</ele>
        <time>2013-08-09T08:07:06Z</time>
      </trkpt>
      <trkpt lat="42.467835" lon="1.764054">
        <ele>2261.4</ele>
        <time>2013-08-09T08:07:16Z</time>
      </trkpt>
      <trkpt lat="42.467757" lon="1.764047">
        <ele>2259.5</ele>
        <time>2013-08-09T08:07:22Z</time>
      </trkpt>
      <trkpt lat="42.467684" lon="1.764084">
        <ele>2260.7</ele>
        <time>2013-08-09T08:07:28Z</time>
      </trkpt>
      <trkpt lat="42.467634" lon="1.764155">
        <ele>2263.1</ele>
        <time>2013-08-09T08:07:41Z</time>
      </trkpt>
      <trkpt lat="42.467637" lon="1.764152">
        <ele>2263.0</ele>
        <time>2013-08-09T08:07:54Z</time>
      </trkpt>
      <trkpt lat="42.467636" lon="1.764155">
        <ele>2263.2</ele>
        <time>2013-08-09T08:08:15Z</time>
      </trkpt>
      <trkpt lat="42.467638" lon="1.764154">
        <ele>2263.1</ele>
        <time>2013-08-09T08:08:42Z</time>
      </trkpt>
      <trkpt lat="42.467601" lon="1.764162">
        <ele>2263.1</ele>
        <time>2013-08-09T08:08:52Z</time>
      </trkpt>
      <trkpt lat="42.467590" lon="1.764168">
        <ele>2263.3</ele>
        <time>2013-08-09T08:08:53Z</time>
      </trkpt>
      <trkpt lat="42.467471" lon="1.764238">
        <ele>2265.5</ele>
        <time>2013-08-09T08:09:05Z</time>
      </trkpt>
      <trkpt lat="42.467397" lon="1.764291">
        <ele>2267.2</ele>
        <time>2013-08-09T08:09:16Z</time>
      </trkpt>
      <trkpt lat="42.467286" lon="1.764330">
        <ele>2266.7</ele>
        <time>2013-08-09T08:09:29Z</time>
      </trkpt>
      <trkpt lat="42.467253" lon="1.764351">
        <ele>2266.8</ele>
        <time>2013-08-09T08:09:33Z</time>
      </trkpt>
      <trkpt lat="42.467120" lon="1.764412">
        <ele>2265.2</ele>
        <time>2013-08-09T08:09:47Z</time>
      </trkpt>
      <trkpt lat="42.467047" lon="1.764527">
        <ele>2267.5</ele>
        <time>2013-08-09T08:09:58Z</time>
      </trkpt>
      <trkpt lat="42.466939" lon="1.764627">
        <ele>2267.8</ele>
        <time>2013-08-09T08:10:10Z</time>
      </trkpt>
      <trkpt lat="42.466848" lon="1.764705">
        <ele>2267.9</ele>
        <time>2013-08-09T08:10:20Z</time>
      </trkpt>
      <trkpt lat="42.466785" lon="1.764769">
        <ele>2268.4</ele>
        <time>2013-08-09T08:10:31Z</time>
      </trkpt>
      <trkpt lat="42.466692" lon="1.764872">
        <ele>2269.1</ele>
        <time>2013-08-09T08:10:43Z</time>
      </trkpt>
      <trkpt lat="42.466596" lon="1.764958">
        <ele>2268.6</ele>
        <time>2013-08-09T08:10:55Z</time>
      </trkpt>
      <trkpt lat="42.466498" lon="1.765082">
        <ele>2268.0</ele>
        <time>2013-08-09T08:11:08Z</time>
      </trkpt>
      <trkpt lat="42.466425" lon="1.765207">
        <ele>2268.0</ele>
        <time>2013-08-09T08:11:20Z</time>
      </trkpt>
      <trkpt lat="42.466391" lon="1.765333">
        <ele>2268.6</ele>
        <time>2013-08-09T08:11:33Z</time>
      </trkpt>
      <trkpt lat="42.466385" lon="1.765355">
        <ele>2268.5</ele>
        <time>2013-08-09T08:11:35Z</time>
      </trkpt>
      <trkpt lat="42.466382" lon="1.765498">
        <ele>2271.2</ele>
        <time>2013-08-09T08:11:48Z</time>
      </trkpt>
      <trkpt lat="42.466385" lon="1.765593">
        <ele>2272.0</ele>
        <time>2013-08-09T08:12:00Z</time>
      </trkpt>
      <trkpt lat="42.466362" lon="1.765694">
        <ele>2272.7</ele>
        <time>2013-08-09T08:12:09Z</time>
      </trkpt>
      <trkpt lat="42.466345" lon="1.765806">
        <ele>2273.8</ele>
        <time>2013-08-09T08:12:18Z</time>
      </trkpt>
      <trkpt lat="42.466343" lon="1.765932">
        <ele>2275.6</ele>
        <time>2013-08-09T08:12:31Z</time>
      </trkpt>
      <trkpt lat="42.466329" lon="1.765987">
        <ele>2275.9</ele>
        <time>2013-08-09T08:12:38Z</time>
      </trkpt>
      <trkpt lat="42.466302" lon="1.766057">
        <ele>2275.9</ele>
        <time>2013-08-09T08:12:46Z</time>
      </trkpt>
      <trkpt lat="42.466282" lon="1.766169">
        <ele>2276.9</ele>
        <time>2013-08-09T08:12:58Z</time>
      </trkpt>
      <trkpt lat="42.466262" lon="1.766297">
        <ele>2278.1</ele>
        <time>2013-08-09T08:13:09Z</time>
      </trkpt>
      <trkpt lat="42.466247" lon="1.766352">
        <ele>2278.0</ele>
        <time>2013-08-09T08:13:12Z</time>
      </trkpt>
      <trkpt lat="42.466228" lon="1.766500">
        <ele>2279.4</ele>
        <time>2013-08-09T08:13:24Z</time>
      </trkpt>
      <trkpt lat="42.466203" lon="1.766662">
        <ele>2280.4</ele>
        <time>2013-08-09T08:13:36Z</time>
      </trkpt>
      <trkpt lat="42.466152" lon="1.766805">
        <ele>2278.7</ele>
        <time>2013-08-09T08:13:48Z</time>
      </trkpt>
      <trkpt lat="42.466139" lon="1.766911">
        <ele>2277.8</ele>
        <time>2013-08-09T08:13:57Z</time>
      </trkpt>
      <trkpt lat="42.466111" lon="1.767009">
        <ele>2278.1</ele>
        <time>2013-08-09T08:14:11Z</time>
      </trkpt>
      <trkpt lat="42.466085" lon="1.767043">
        <ele>2278.1</ele>
        <time>2013-08-09T08:14:35Z</time>
      </trkpt>
      <trkpt lat="42.466049" lon="1.767078">
        <ele>2277.9</ele>
        <time>2013-08-09T08:14:39Z</time>
      </trkpt>
      <trkpt lat="42.465973" lon="1.767143">
        <ele>2279.0</ele>
        <time>2013-08-09T08:14:48Z</time>
      </trkpt>
      <trkpt lat="42.465942" lon="1.767183">
        <ele>2280.2</ele>
        <time>2013-08-09T08:14:54Z</time>
      </trkpt>
      <trkpt lat="42.465914" lon="1.767218">
        <ele>2280.9</ele>
        <time>2013-08-09T08:14:58Z</time>
      </trkpt>
      <trkpt lat="42.465903" lon="1.767246">
        <ele>2281.7</ele>
        <time>2013-08-09T08:15:01Z</time>
      </trkpt>
      <trkpt lat="42.465877" lon="1.767278">
        <ele>2282.0</ele>
        <time>2013-08-09T08:15:05Z</time>
      </trkpt>
      <trkpt lat="42.465811" lon="1.767342">
        <ele>2282.3</ele>
        <time>2013-08-09T08:15:14Z</time>
      </trkpt>
      <trkpt lat="42.465794" lon="1.767349">
        <ele>2282.0</ele>
        <time>2013-08-09T08:15:16Z</time>
      </trkpt>
      <trkpt lat="42.465700" lon="1.767431">
        <ele>2283.0</ele>
        <time>2013-08-09T08:15:28Z</time>
      </trkpt>
      <trkpt lat="42.465692" lon="1.767440">
        <ele>2283.1</ele>
        <time>2013-08-09T08:15:30Z</time>
      </trkpt>
      <trkpt lat="42.465670" lon="1.767459">
        <ele>2283.4</ele>
        <time>2013-08-09T08:15:34Z</time>
      </trkpt>
      <trkpt lat="42.465633" lon="1.767483">
        <ele>2283.3</ele>
        <time>2013-08-09T08:15:38Z</time>
      </trkpt>
      <trkpt lat="42.465605" lon="1.767509">
        <ele>2283.7</ele>
        <time>2013-08-09T08:15:41Z</time>
      </trkpt>
      <trkpt lat="42.465512" lon="1.767577">
        <ele>2284.6</ele>
        <time>2013-08-09T08:15:53Z</time>
      </trkpt>
      <trkpt lat="42.465422" lon="1.767616">
        <ele>2284.4</ele>
        <time>2013-08-09T08:16:04Z</time>
      </trkpt>
      <trkpt lat="42.465375" lon="1.767644">
        <ele>2284.9</ele>
        <time>2013-08-09T08:16:08Z</time>
      </trkpt>
      <trkpt lat="42.465344" lon="1.767670">
        <ele>2285.4</ele>
        <time>2013-08-09T08:16:11Z</time>
      </trkpt>
      <trkpt lat="42.465268" lon="1.767730">
        <ele>2286.5</ele>
        <time>2013-08-09T08:16:19Z</time>
      </trkpt>
      <trkpt lat="42.465235" lon="1.767785">
        <ele>2288.2</ele>
        <time>2013-08-09T08:16:26Z</time>
      </trkpt>
      <trkpt lat="42.465198" lon="1.767811">
        <ele>2288.5</ele>
        <time>2013-08-09T08:16:31Z</time>
      </trkpt>
      <trkpt lat="42.465035" lon="1.767843">
        <ele>2286.6</ele>
        <time>2013-08-09T08:16:45Z</time>
      </trkpt>
      <trkpt lat="42.465023" lon="1.767845">
        <ele>2286.4</ele>
        <time>2013-08-09T08:16:46Z</time>
      </trkpt>
      <trkpt lat="42.464918" lon="1.767918">
        <ele>2286.2</ele>
        <time>2013-08-09T08:16:56Z</time>
      </trkpt>
      <trkpt lat="42.464854" lon="1.767991">
        <ele>2287.1</ele>
        <time>2013-08-09T08:17:02Z</time>
      </trkpt>
      <trkpt lat="42.464741" lon="1.768092">
        <ele>2287.4</ele>
        <time>2013-08-09T08:17:14Z</time>
      </trkpt>
      <trkpt lat="42.464733" lon="1.768106">
        <ele>2287.6</ele>
        <time>2013-08-09T08:17:16Z</time>
      </trkpt>
      <trkpt lat="42.464700" lon="1.768181">
        <ele>2289.0</ele>
        <time>2013-08-09T08:17:23Z</time>
      </trkpt>
      <trkpt lat="42.464577" lon="1.768334">
        <ele>2289.7</ele>
        <time>2013-08-09T08:17:38Z</time>
      </trkpt>
      <trkpt lat="42.464523" lon="1.768426">
        <ele>2290.1</ele>
        <time>2013-08-09T08:17:47Z</time>
      </trkpt>
      <trkpt lat="42.464415" lon="1.768552">
        <ele>2289.3</ele>
        <time>2013-08-09T08:18:00Z</time>
      </trkpt>
      <trkpt lat="42.464323" lon="1.768706">
        <ele>2289.8</ele>
        <time>2013-08-09T08:18:13Z</time>
      </trkpt>
      <trkpt lat="42.464303" lon="1.768796">
        <ele>2291.1</ele>
        <time>2013-08-09T08:18:21Z</time>
      </trkpt>
      <trkpt lat="42.464272" lon="1.768930">
        <ele>2292.4</ele>
        <time>2013-08-09T08:18:33Z</time>
      </trkpt>
      <trkpt lat="42.464246" lon="1.769026">
        <ele>2293.2</ele>
        <time>2013-08-09T08:18:46Z</time>
      </trkpt>
      <trkpt lat="42.464196" lon="1.769213">
        <ele>2294.1</ele>
        <time>2013-08-09T08:18:59Z</time>
      </trkpt>
      <trkpt lat="42.464175" lon="1.769257">
        <ele>2294.2</ele>
        <time>2013-08-09T08:19:03Z</time>
      </trkpt>
      <trkpt lat="42.464135" lon="1.769310">
        <ele>2293.8</ele>
        <time>2013-08-09T08:19:09Z</time>
      </trkpt>
      <trkpt lat="42.464120" lon="1.769378">
        <ele>2294.5</ele>
        <time>2013-08-09T08:19:14Z</time>
      </trkpt>
      <trkpt lat="42.464045" lon="1.769563">
        <ele>2295.3</ele>
        <time>2013-08-09T08:19:24Z</time>
      </trkpt>
      <trkpt lat="42.464030" lon="1.769616">
        <ele>2295.7</ele>
        <time>2013-08-09T08:19:27Z</time>
      </trkpt>
      <trkpt lat="42.464021" lon="1.769710">
        <ele>2296.6</ele>
        <time>2013-08-09T08:19:34Z</time>
      </trkpt>
      <trkpt lat="42.463953" lon="1.769918">
        <ele>2296.7</ele>
        <time>2013-08-09T08:19:49Z</time>
      </trkpt>
      <trkpt lat="42.463954" lon="1.769956">
        <ele>2296.8</ele>
        <time>2013-08-09T08:20:03Z</time>
      </trkpt>
      <trkpt lat="42.463959" lon="1.769965">
        <ele>2296.9</ele>
        <time>2013-08-09T08:21:40Z</time>
      </trkpt>
      <trkpt lat="42.463957" lon="1.769995">
        <ele>2297.0</ele>
        <time>2013-08-09T08:21:44Z</time>
      </trkpt>
      <trkpt lat="42.463951" lon="1.770027">
        <ele>2296.9</ele>
        <time>2013-08-09T08:21:46Z</time>
      </trkpt>
      <trkpt lat="42.463947" lon="1.770077">
        <ele>2296.9</ele>
        <time>2013-08-09T08:21:49Z</time>
      </trkpt>
      <trkpt lat="42.463948" lon="1.770132">
        <ele>2297.1</ele>
        <time>2013-08-09T08:21:52Z</time>
      </trkpt>
      <trkpt lat="42.464037" lon="1.770271">
        <ele>2296.6</ele>
        <time>2013-08-09T08:22:04Z</time>
      </trkpt>
      <trkpt lat="42.464141" lon="1.770416">
        <ele>2295.7</ele>
        <time>2013-08-09T08:22:18Z</time>
      </trkpt>
      <trkpt lat="42.464147" lon="1.770424">
        <ele>2295.7</ele>
        <time>2013-08-09T08:22:19Z</time>
      </trkpt>
      <trkpt lat="42.464213" lon="1.770499">
        <ele>2296.0</ele>
        <time>2013-08-09T08:22:27Z</time>
      </trkpt>
      <trkpt lat="42.464267" lon="1.770582">
        <ele>2295.8</ele>
        <time>2013-08-09T08:22:34Z</time>
      </trkpt>
      <trkpt lat="42.464292" lon="1.770625">
        <ele>2295.4</ele>
        <time>2013-08-09T08:22:38Z</time>
      </trkpt>
      <trkpt lat="42.464317" lon="1.770682">
        <ele>2294.9</ele>
        <time>2013-08-09T08:22:49Z</time>
      </trkpt>
      <trkpt lat="42.464317" lon="1.770682">
        <ele>2294.9</ele>
        <time>2013-08-09T08:23:08Z</time>
      </trkpt>
      <trkpt lat="42.464337" lon="1.770705">
        <ele>2295.0</ele>
        <time>2013-08-09T08:23:11Z</time>
      </trkpt>
      <trkpt lat="42.464461" lon="1.770848">
        <ele>2296.0</ele>
        <time>2013-08-09T08:23:24Z</time>
      </trkpt>
      <trkpt lat="42.464495" lon="1.770913">
        <ele>2296.0</ele>
        <time>2013-08-09T08:23:29Z</time>
      </trkpt>
      <trkpt lat="42.464542" lon="1.770979">
        <ele>2296.3</ele>
        <time>2013-08-09T08:23:35Z</time>
      </trkpt>
      <trkpt lat="42.464613" lon="1.771113">
        <ele>2296.7</ele>
        <time>2013-08-09T08:23:49Z</time>
      </trkpt>
      <trkpt lat="42.464628" lon="1.771205">
        <ele>2295.3</ele>
        <time>2013-08-09T08:23:53Z</time>
      </trkpt>
      <trkpt lat="42.464643" lon="1.771260">
        <ele>2294.5</ele>
        <time>2013-08-09T08:23:56Z</time>
      </trkpt>
      <trkpt lat="42.464684" lon="1.771391">
        <ele>2292.7</ele>
        <time>2013-08-09T08:24:09Z</time>
      </trkpt>
      <trkpt lat="42.464704" lon="1.771415">
        <ele>2292.7</ele>
        <time>2013-08-09T08:24:11Z</time>
      </trkpt>
      <trkpt lat="42.464787" lon="1.771568">
        <ele>2292.1</ele>
        <time>2013-08-09T08:24:23Z</time>
      </trkpt>
      <trkpt lat="42.464811" lon="1.771662">
        <ele>2290.7</ele>
        <time>2013-08-09T08:24:30Z</time>
      </trkpt>
      <trkpt lat="42.464883" lon="1.771822">
        <ele>2290.4</ele>
        <time>2013-08-09T08:24:41Z</time>
      </trkpt>
      <trkpt lat="42.464916" lon="1.771946">
        <ele>2288.8</ele>
        <time>2013-08-09T08:24:48Z</time>
      </trkpt>
      <trkpt lat="42.464963" lon="1.772109">
        <ele>2287.5</ele>
        <time>2013-08-09T08:25:02Z</time>
      </trkpt>
      <trkpt lat="42.464998" lon="1.772172">
        <ele>2287.8</ele>
        <time>2013-08-09T08:25:13Z</time>
      </trkpt>
      <trkpt lat="42.465010" lon="1.772220">
        <ele>2287.3</ele>
        <time>2013-08-09T08:25:25Z</time>
      </trkpt>
      <trkpt lat="42.465031" lon="1.772223">
        <ele>2288.1</ele>
        <time>2013-08-09T08:25:33Z</time>
      </trkpt>
      <trkpt lat="42.465045" lon="1.772334">
        <ele>2285.8</ele>
        <time>2013-08-09T08:25:43Z</time>
      </trkpt>
      <trkpt lat="42.465058" lon="1.772483">
        <ele>2281.9</ele>
        <time>2013-08-09T08:25:55Z</time>
      </trkpt>
      <trkpt lat="42.465068" lon="1.772531">
        <ele>2280.5</ele>
        <time>2013-08-09T08:25:59Z</time>
      </trkpt>
      <trkpt lat="42.465090" lon="1.772633">
        <ele>2277.6</ele>
        <time>2013-08-09T08:26:10Z</time>
      </trkpt>
      <trkpt lat="42.465101" lon="1.772772">
        <ele>2273.3</ele>
        <time>2013-08-09T08:26:24Z</time>
      </trkpt>
      <trkpt lat="42.465062" lon="1.772808">
        <ele>2270.8</ele>
        <time>2013-08-09T08:26:34Z</time>
      </trkpt>
      <trkpt lat="42.465062" lon="1.772889">
        <ele>2268.8</ele>
        <time>2013-08-09T08:26:40Z</time>
      </trkpt>
      <trkpt lat="42.465072" lon="1.772974">
        <ele>2267.3</ele>
        <time>2013-08-09T08:26:47Z</time>
      </trkpt>
      <trkpt lat="42.465070" lon="1.773096">
        <ele>2263.6</ele>
        <time>2013-08-09T08:26:58Z</time>
      </trkpt>
      <trkpt lat="42.465103" lon="1.773206">
        <ele>2261.6</ele>
        <time>2013-08-09T08:27:07Z</time>
      </trkpt>
      <trkpt lat="42.465108" lon="1.773233">
        <ele>2261.0</ele>
        <time>2013-08-09T08:27:09Z</time>
      </trkpt>
      <trkpt lat="42.465123" lon="1.773418">
        <ele>2259.0</ele>
        <time>2013-08-09T08:27:22Z</time>
      </trkpt>
      <trkpt lat="42.465127" lon="1.773557">
        <ele>2257.4</ele>
        <time>2013-08-09T08:27:33Z</time>
      </trkpt>
      <trkpt lat="42.465137" lon="1.773600">
        <ele>2257.6</ele>
        <time>2013-08-09T08:27:36Z</time>
      </trkpt>
      <trkpt lat="42.465150" lon="1.773640">
        <ele>2257.7</ele>
        <time>2013-08-09T08:27:39Z</time>
      </trkpt>
      <trkpt lat="42.465149" lon="1.773804">
        <ele>2253.5</ele>
        <time>2013-08-09T08:27:52Z</time>
      </trkpt>
      <trkpt lat="42.465147" lon="1.773820">
        <ele>2253.0</ele>
        <time>2013-08-09T08:27:54Z</time>
      </trkpt>
      <trkpt lat="42.465144" lon="1.773927">
        <ele>2250.8</ele>
        <time>2013-08-09T08:28:03Z</time>
      </trkpt>
      <trkpt lat="42.465189" lon="1.774003">
        <ele>2250.6</ele>
        <time>2013-08-09T08:28:09Z</time>
      </trkpt>
      <trkpt lat="42.465197" lon="1.774026">
        <ele>2250.5</ele>
        <time>2013-08-09T08:28:11Z</time>
      </trkpt>
      <trkpt lat="42.465202" lon="1.774052">
        <ele>2250.1</ele>
        <time>2013-08-09T08:28:13Z</time>
      </trkpt>
      <trkpt lat="42.465208" lon="1.774131">
        <ele>2248.3</ele>
        <time>2013-08-09T08:28:18Z</time>
      </trkpt>
      <trkpt lat="42.465250" lon="1.774325">
        <ele>2246.1</ele>
        <time>2013-08-09T08:28:32Z</time>
      </trkpt>
      <trkpt lat="42.465277" lon="1.774447">
        <ele>2242.6</ele>
        <time>2013-08-09T08:28:40Z</time>
      </trkpt>
      <trkpt lat="42.465336" lon="1.774522">
        <ele>2242.6</ele>
        <time>2013-08-09T08:28:47Z</time>
      </trkpt>
      <trkpt lat="42.465361" lon="1.774593">
        <ele>2241.8</ele>
        <time>2013-08-09T08:28:54Z</time>
      </trkpt>
      <trkpt lat="42.465379" lon="1.774674">
        <ele>2240.1</ele>
        <time>2013-08-09T08:29:02Z</time>
      </trkpt>
      <trkpt lat="42.465400" lon="1.774768">
        <ele>2238.5</ele>
        <time>2013-08-09T08:29:08Z</time>
      </trkpt>
      <trkpt lat="42.465456" lon="1.774961">
        <ele>2234.9</ele>
        <time>2013-08-09T08:29:22Z</time>
      </trkpt>
      <trkpt lat="42.465479" lon="1.774999">
        <ele>2234.4</ele>
        <time>2013-08-09T08:29:25Z</time>
      </trkpt>
      <trkpt lat="42.465494" lon="1.775026">
        <ele>2233.9</ele>
        <time>2013-08-09T08:29:27Z</time>
      </trkpt>
      <trkpt lat="42.465503" lon="1.775035">
        <ele>2233.9</ele>
        <time>2013-08-09T08:29:28Z</time>
      </trkpt>
      <trkpt lat="42.465549" lon="1.775054">
        <ele>2234.5</ele>
        <time>2013-08-09T08:29:34Z</time>
      </trkpt>
      <trkpt lat="42.465631" lon="1.775120">
        <ele>2234.7</ele>
        <time>2013-08-09T08:29:45Z</time>
      </trkpt>
      <trkpt lat="42.465678" lon="1.775197">
        <ele>2233.3</ele>
        <time>2013-08-09T08:29:55Z</time>
      </trkpt>
      <trkpt lat="42.465681" lon="1.775207">
        <ele>2233.0</ele>
        <time>2013-08-09T08:29:56Z</time>
      </trkpt>
      <trkpt lat="42.465705" lon="1.775233">
        <ele>2233.0</ele>
        <time>2013-08-09T08:30:00Z</time>
      </trkpt>
      <trkpt lat="42.465729" lon="1.775280">
        <ele>2232.1</ele>
        <time>2013-08-09T08:30:04Z</time>
      </trkpt>
      <trkpt lat="42.465797" lon="1.775315">
        <ele>2230.4</ele>
        <time>2013-08-09T08:30:17Z</time>
      </trkpt>
      <trkpt lat="42.465797" lon="1.775315">
        <ele>2230.4</ele>
        <time>2013-08-09T08:30:28Z</time>
      </trkpt>
      <trkpt lat="42.465795" lon="1.775408">
        <ele>2228.2</ele>
        <time>2013-08-09T08:30:38Z</time>
      </trkpt>
      <trkpt lat="42.465827" lon="1.775613">
        <ele>2232.2</ele>
        <time>2013-08-09T08:30:51Z</time>
      </trkpt>
      <trkpt lat="42.465847" lon="1.775731">
        <ele>2231.9</ele>
        <time>2013-08-09T08:31:02Z</time>
      </trkpt>
      <trkpt lat="42.465847" lon="1.775731">
        <ele>2231.9</ele>
        <time>2013-08-09T08:31:04Z</time>
      </trkpt>
      <trkpt lat="42.465857" lon="1.775773">
        <ele>2232.1</ele>
        <time>2013-08-09T08:31:11Z</time>
      </trkpt>
      <trkpt lat="42.465835" lon="1.775966">
        <ele>2229.1</ele>
        <time>2013-08-09T08:31:25Z</time>
      </trkpt>
      <trkpt lat="42.465840" lon="1.776102">
        <ele>2228.2</ele>
        <time>2013-08-09T08:31:37Z</time>
      </trkpt>
      <trkpt lat="42.465855" lon="1.776177">
        <ele>2227.9</ele>
        <time>2013-08-09T08:31:46Z</time>
      </trkpt>
      <trkpt lat="42.465806" lon="1.776363">
        <ele>2225.5</ele>
        <time>2013-08-09T08:31:59Z</time>
      </trkpt>
      <trkpt lat="42.465778" lon="1.776424">
        <ele>2224.7</ele>
        <time>2013-08-09T08:32:05Z</time>
      </trkpt>
      <trkpt lat="42.465744" lon="1.776540">
        <ele>2223.9</ele>
        <time>2013-08-09T08:32:18Z</time>
      </trkpt>
      <trkpt lat="42.465698" lon="1.776598">
        <ele>2222.2</ele>
        <time>2013-08-09T08:32:24Z</time>
      </trkpt>
      <trkpt lat="42.465666" lon="1.776705">
        <ele>2220.4</ele>
        <time>2013-08-09T08:32:33Z</time>
      </trkpt>
      <trkpt lat="42.465589" lon="1.776878">
        <ele>2218.3</ele>
        <time>2013-08-09T08:32:47Z</time>
      </trkpt>
      <trkpt lat="42.465564" lon="1.777043">
        <ele>2217.6</ele>
        <time>2013-08-09T08:33:00Z</time>
      </trkpt>
      <trkpt lat="42.465554" lon="1.777109">
        <ele>2216.1</ele>
        <time>2013-08-09T08:33:07Z</time>
      </trkpt>
      <trkpt lat="42.465539" lon="1.777184">
        <ele>2214.3</ele>
        <time>2013-08-09T08:33:17Z</time>
      </trkpt>
      <trkpt lat="42.465538" lon="1.777194">
        <ele>2214.3</ele>
        <time>2013-08-09T08:33:18Z</time>
      </trkpt>
      <trkpt lat="42.465545" lon="1.777221">
        <ele>2214.3</ele>
        <time>2013-08-09T08:33:29Z</time>
      </trkpt>
      <trkpt lat="42.465551" lon="1.777310">
        <ele>2214.2</ele>
        <time>2013-08-09T08:33:41Z</time>
      </trkpt>
      <trkpt lat="42.465511" lon="1.777404">
        <ele>2212.1</ele>
        <time>2013-08-09T08:33:55Z</time>
      </trkpt>
      <trkpt lat="42.465485" lon="1.777430">
        <ele>2211.5</ele>
        <time>2013-08-09T08:33:59Z</time>
      </trkpt>
      <trkpt lat="42.465466" lon="1.777457">
        <ele>2211.2</ele>
        <time>2013-08-09T08:34:01Z</time>
      </trkpt>
      <trkpt lat="42.465417" lon="1.777507">
        <ele>2210.4</ele>
        <time>2013-08-09T08:34:06Z</time>
      </trkpt>
      <trkpt lat="42.465382" lon="1.777552">
        <ele>2210.3</ele>
        <time>2013-08-09T08:34:09Z</time>
      </trkpt>
      <trkpt lat="42.465312" lon="1.777648">
        <ele>2208.7</ele>
        <time>2013-08-09T08:34:16Z</time>
      </trkpt>
      <trkpt lat="42.465276" lon="1.777691">
        <ele>2207.9</ele>
        <time>2013-08-09T08:34:21Z</time>
      </trkpt>
      <trkpt lat="42.465253" lon="1.777704">
        <ele>2207.3</ele>
        <time>2013-08-09T08:34:23Z</time>
      </trkpt>
      <trkpt lat="42.465222" lon="1.777769">
        <ele>2205.7</ele>
        <time>2013-08-09T08:34:29Z</time>
      </trkpt>
      <trkpt lat="42.465203" lon="1.777875">
        <ele>2204.2</ele>
        <time>2013-08-09T08:34:35Z</time>
      </trkpt>
      <trkpt lat="42.465186" lon="1.777960">
        <ele>2204.4</ele>
        <time>2013-08-09T08:34:41Z</time>
      </trkpt>
      <trkpt lat="42.465128" lon="1.778117">
        <ele>2204.3</ele>
        <time>2013-08-09T08:34:53Z</time>
      </trkpt>
      <trkpt lat="42.465101" lon="1.778205">
        <ele>2203.8</ele>
        <time>2013-08-09T08:35:00Z</time>
      </trkpt>
      <trkpt lat="42.465099" lon="1.778236">
        <ele>2203.8</ele>
        <time>2013-08-09T08:35:02Z</time>
      </trkpt>
      <trkpt lat="42.465057" lon="1.778300">
        <ele>2203.2</ele>
        <time>2013-08-09T08:35:07Z</time>
      </trkpt>
      <trkpt lat="42.464995" lon="1.778501">
        <ele>2201.9</ele>
        <time>2013-08-09T08:35:21Z</time>
      </trkpt>
      <trkpt lat="42.464996" lon="1.778515">
        <ele>2201.8</ele>
        <time>2013-08-09T08:35:22Z</time>
      </trkpt>
      <trkpt lat="42.465006" lon="1.778566">
        <ele>2201.7</ele>
        <time>2013-08-09T08:35:26Z</time>
      </trkpt>
      <trkpt lat="42.465002" lon="1.778613">
        <ele>2201.2</ele>
        <time>2013-08-09T08:35:29Z</time>
      </trkpt>
      <trkpt lat="42.464987" lon="1.778840">
        <ele>2198.3</ele>
        <time>2013-08-09T08:35:43Z</time>
      </trkpt>
      <trkpt lat="42.464961" lon="1.778904">
        <ele>2197.1</ele>
        <time>2013-08-09T08:35:49Z</time>
      </trkpt>
      <trkpt lat="42.464867" lon="1.779084">
        <ele>2193.9</ele>
        <time>2013-08-09T08:36:03Z</time>
      </trkpt>
      <trkpt lat="42.464837" lon="1.779152">
        <ele>2192.8</ele>
        <time>2013-08-09T08:36:16Z</time>
      </trkpt>
      <trkpt lat="42.464829" lon="1.779206">
        <ele>2192.2</ele>
        <time>2013-08-09T08:36:34Z</time>
      </trkpt>
      <trkpt lat="42.464817" lon="1.779232">
        <ele>2191.8</ele>
        <time>2013-08-09T08:36:36Z</time>
      </trkpt>
      <trkpt lat="42.464769" lon="1.779418">
        <ele>2188.8</ele>
        <time>2013-08-09T08:36:46Z</time>
      </trkpt>
      <trkpt lat="42.464698" lon="1.779523">
        <ele>2186.4</ele>
        <time>2013-08-09T08:36:56Z</time>
      </trkpt>
      <trkpt lat="42.464672" lon="1.779598">
        <ele>2185.1</ele>
        <time>2013-08-09T08:37:01Z</time>
      </trkpt>
      <trkpt lat="42.464636" lon="1.779811">
        <ele>2181.4</ele>
        <time>2013-08-09T08:37:15Z</time>
      </trkpt>
      <trkpt lat="42.464601" lon="1.779987">
        <ele>2177.6</ele>
        <time>2013-08-09T08:37:27Z</time>
      </trkpt>
      <trkpt lat="42.464586" lon="1.780148">
        <ele>2174.5</ele>
        <time>2013-08-09T08:37:38Z</time>
      </trkpt>
      <trkpt lat="42.464577" lon="1.780185">
        <ele>2173.7</ele>
        <time>2013-08-09T08:37:42Z</time>
      </trkpt>
      <trkpt lat="42.464569" lon="1.780270">
        <ele>2172.2</ele>
        <time>2013-08-09T08:37:47Z</time>
      </trkpt>
      <trkpt lat="42.464559" lon="1.780454">
        <ele>2169.4</ele>
        <time>2013-08-09T08:37:59Z</time>
      </trkpt>
      <trkpt lat="42.464539" lon="1.780649">
        <ele>2165.3</ele>
        <time>2013-08-09T08:38:15Z</time>
      </trkpt>
      <trkpt lat="42.464536" lon="1.780647">
        <ele>2165.3</ele>
        <time>2013-08-09T08:38:20Z</time>
      </trkpt>
      <trkpt lat="42.464539" lon="1.780662">
        <ele>2165.0</ele>
        <time>2013-08-09T08:38:29Z</time>
      </trkpt>
      <trkpt lat="42.464530" lon="1.780771">
        <ele>2162.6</ele>
        <time>2013-08-09T08:38:38Z</time>
      </trkpt>
      <trkpt lat="42.464469" lon="1.780980">
        <ele>2158.8</ele>
        <time>2013-08-09T08:38:51Z</time>
      </trkpt>
      <trkpt lat="42.464442" lon="1.781182">
        <ele>2156.4</ele>
        <time>2013-08-09T08:39:04Z</time>
      </trkpt>
      <trkpt lat="42.464414" lon="1.781312">
        <ele>2154.7</ele>
        <time>2013-08-09T08:39:11Z</time>
      </trkpt>
      <trkpt lat="42.464353" lon="1.781540">
        <ele>2151.8</ele>
        <time>2013-08-09T08:39:26Z</time>
      </trkpt>
      <trkpt lat="42.464311" lon="1.781779">
        <ele>2149.5</ele>
        <time>2013-08-09T08:39:41Z</time>
      </trkpt>
      <trkpt lat="42.464305" lon="1.781828">
        <ele>2149.0</ele>
        <time>2013-08-09T08:39:45Z</time>
      </trkpt>
      <trkpt lat="42.464327" lon="1.781906">
        <ele>2147.7</ele>
        <time>2013-08-09T08:39:50Z</time>
      </trkpt>
      <trkpt lat="42.464300" lon="1.781962">
        <ele>2146.5</ele>
        <time>2013-08-09T08:39:54Z</time>
      </trkpt>
      <trkpt lat="42.464254" lon="1.782014">
        <ele>2144.7</ele>
        <time>2013-08-09T08:40:01Z</time>
      </trkpt>
      <trkpt lat="42.464267" lon="1.782086">
        <ele>2143.3</ele>
        <time>2013-08-09T08:40:08Z</time>
      </trkpt>
      <trkpt lat="42.464266" lon="1.782106">
        <ele>2142.7</ele>
        <time>2013-08-09T08:40:13Z</time>
      </trkpt>
      <trkpt lat="42.464259" lon="1.782148">
        <ele>2141.3</ele>
        <time>2013-08-09T08:40:18Z</time>
      </trkpt>
      <trkpt lat="42.464219" lon="1.782218">
        <ele>2139.6</ele>
        <time>2013-08-09T08:40:29Z</time>
      </trkpt>
      <trkpt lat="42.464213" lon="1.782264">
        <ele>2139.1</ele>
        <time>2013-08-09T08:40:33Z</time>
      </trkpt>
      <trkpt lat="42.464213" lon="1.782352">
        <ele>2138.0</ele>
        <time>2013-08-09T08:40:40Z</time>
      </trkpt>
      <trkpt lat="42.464181" lon="1.782615">
        <ele>2134.7</ele>
        <time>2013-08-09T08:40:56Z</time>
      </trkpt>
      <trkpt lat="42.464171" lon="1.782797">
        <ele>2133.4</ele>
        <time>2013-08-09T08:41:05Z</time>
      </trkpt>
      <trkpt lat="42.464158" lon="1.782851">
        <ele>2133.0</ele>
        <time>2013-08-09T08:41:09Z</time>
      </trkpt>
      <trkpt lat="42.464116" lon="1.783026">
        <ele>2132.5</ele>
        <time>2013-08-09T08:41:20Z</time>
      </trkpt>
      <trkpt lat="42.464182" lon="1.783209">
        <ele>2129.3</ele>
        <time>2013-08-09T08:41:33Z</time>
      </trkpt>
      <trkpt lat="42.464208" lon="1.783352">
        <ele>2128.7</ele>
        <time>2013-08-09T08:41:42Z</time>
      </trkpt>
      <trkpt lat="42.464257" lon="1.783574">
        <ele>2127.8</ele>
        <time>2013-08-09T08:41:56Z</time>
      </trkpt>
      <trkpt lat="42.464313" lon="1.783766">
        <ele>2127.3</ele>
        <time>2013-08-09T08:42:08Z</time>
      </trkpt>
      <trkpt lat="42.464446" lon="1.783949">
        <ele>2127.1</ele>
        <time>2013-08-09T08:42:23Z</time>
      </trkpt>
      <trkpt lat="42.464406" lon="1.784049">
        <ele>2127.5</ele>
        <time>2013-08-09T08:42:32Z</time>
      </trkpt>
      <trkpt lat="42.464334" lon="1.784081">
        <ele>2127.8</ele>
        <time>2013-08-09T08:42:38Z</time>
      </trkpt>
      <trkpt lat="42.464254" lon="1.784185">
        <ele>2128.1</ele>
        <time>2013-08-09T08:42:49Z</time>
      </trkpt>
      <trkpt lat="42.464222" lon="1.784281">
        <ele>2126.4</ele>
        <time>2013-08-09T08:42:58Z</time>
      </trkpt>
      <trkpt lat="42.464217" lon="1.784499">
        <ele>2125.0</ele>
        <time>2013-08-09T08:43:12Z</time>
      </trkpt>
      <trkpt lat="42.464242" lon="1.784659">
        <ele>2125.0</ele>
        <time>2013-08-09T08:43:24Z</time>
      </trkpt>
      <trkpt lat="42.464172" lon="1.784796">
        <ele>2125.2</ele>
        <time>2013-08-09T08:43:38Z</time>
      </trkpt>
      <trkpt lat="42.464174" lon="1.784833">
        <ele>2125.2</ele>
        <time>2013-08-09T08:43:41Z</time>
      </trkpt>
      <trkpt lat="42.464172" lon="1.784870">
        <ele>2125.0</ele>
        <time>2013-08-09T08:43:44Z</time>
      </trkpt>
      <trkpt lat="42.464133" lon="1.784904">
        <ele>2124.8</ele>
        <time>2013-08-09T08:43:49Z</time>
      </trkpt>
      <trkpt lat="42.464043" lon="1.784978">
        <ele>2124.6</ele>
        <time>2013-08-09T08:44:00Z</time>
      </trkpt>
      <trkpt lat="42.464024" lon="1.785094">
        <ele>2124.6</ele>
        <time>2013-08-09T08:44:11Z</time>
      </trkpt>
      <trkpt lat="42.464011" lon="1.785163">
        <ele>2124.6</ele>
        <time>2013-08-09T08:44:16Z</time>
      </trkpt>
      <trkpt lat="42.464029" lon="1.785327">
        <ele>2125.4</ele>
        <time>2013-08-09T08:44:28Z</time>
      </trkpt>
      <trkpt lat="42.464035" lon="1.785360">
        <ele>2125.6</ele>
        <time>2013-08-09T08:44:30Z</time>
      </trkpt>
      <trkpt lat="42.464088" lon="1.785552">
        <ele>2125.1</ele>
        <time>2013-08-09T08:44:43Z</time>
      </trkpt>
      <trkpt lat="42.464129" lon="1.785729">
        <ele>2124.8</ele>
        <time>2013-08-09T08:44:56Z</time>
      </trkpt>
      <trkpt lat="42.464190" lon="1.785898">
        <ele>2125.2</ele>
        <time>2013-08-09T08:45:09Z</time>
      </trkpt>
      <trkpt lat="42.464207" lon="1.785931">
        <ele>2125.6</ele>
        <time>2013-08-09T08:45:22Z</time>
      </trkpt>
      <trkpt lat="42.464251" lon="1.786037">
        <ele>2126.4</ele>
        <time>2013-08-09T08:45:34Z</time>
      </trkpt>
      <trkpt lat="42.464273" lon="1.786073">
        <ele>2126.5</ele>
        <time>2013-08-09T08:45:48Z</time>
      </trkpt>
      <trkpt lat="42.464271" lon="1.786226">
        <ele>2124.6</ele>
        <time>2013-08-09T09:33:17Z</time>
      </trkpt>
      <trkpt lat="42.464165" lon="1.786195">
        <ele>2123.4</ele>
        <time>2013-08-09T09:33:29Z</time>
      </trkpt>
      <trkpt lat="42.464128" lon="1.786209">
        <ele>2123.3</ele>
        <time>2013-08-09T09:33:33Z</time>
      </trkpt>
      <trkpt lat="42.464051" lon="1.786412">
        <ele>2123.0</ele>
        <time>2013-08-09T09:33:47Z</time>
      </trkpt>
      <trkpt lat="42.464022" lon="1.786495">
        <ele>2122.9</ele>
        <time>2013-08-09T09:33:59Z</time>
      </trkpt>
      <trkpt lat="42.464036" lon="1.786522">
        <ele>2122.7</ele>
        <time>2013-08-09T09:34:16Z</time>
      </trkpt>
      <trkpt lat="42.464036" lon="1.786522">
        <ele>2122.7</ele>
        <time>2013-08-09T09:34:21Z</time>
      </trkpt>
      <trkpt lat="42.464061" lon="1.786584">
        <ele>2122.6</ele>
        <time>2013-08-09T09:34:28Z</time>
      </trkpt>
      <trkpt lat="42.464149" lon="1.786695">
        <ele>2123.7</ele>
        <time>2013-08-09T09:34:41Z</time>
      </trkpt>
      <trkpt lat="42.464197" lon="1.786781">
        <ele>2124.2</ele>
        <time>2013-08-09T09:34:52Z</time>
      </trkpt>
      <trkpt lat="42.464189" lon="1.786908">
        <ele>2125.1</ele>
        <time>2013-08-09T09:35:01Z</time>
      </trkpt>
      <trkpt lat="42.464209" lon="1.786980">
        <ele>2125.2</ele>
        <time>2013-08-09T09:35:07Z</time>
      </trkpt>
      <trkpt lat="42.464223" lon="1.787108">
        <ele>2125.4</ele>
        <time>2013-08-09T09:35:17Z</time>
      </trkpt>
      <trkpt lat="42.464214" lon="1.787259">
        <ele>2127.1</ele>
        <time>2013-08-09T09:35:30Z</time>
      </trkpt>
      <trkpt lat="42.464198" lon="1.787333">
        <ele>2128.9</ele>
        <time>2013-08-09T09:35:41Z</time>
      </trkpt>
      <trkpt lat="42.464195" lon="1.787413">
        <ele>2130.0</ele>
        <time>2013-08-09T09:35:53Z</time>
      </trkpt>
      <trkpt lat="42.464204" lon="1.787482">
        <ele>2130.7</ele>
        <time>2013-08-09T09:36:06Z</time>
      </trkpt>
      <trkpt lat="42.464209" lon="1.787592">
        <ele>2132.0</ele>
        <time>2013-08-09T09:36:18Z</time>
      </trkpt>
      <trkpt lat="42.464206" lon="1.787730">
        <ele>2133.5</ele>
        <time>2013-08-09T09:36:29Z</time>
      </trkpt>
      <trkpt lat="42.464149" lon="1.787915">
        <ele>2135.3</ele>
        <time>2013-08-09T09:36:42Z</time>
      </trkpt>
      <trkpt lat="42.464117" lon="1.788044">
        <ele>2136.7</ele>
        <time>2013-08-09T09:36:53Z</time>
      </trkpt>
      <trkpt lat="42.464086" lon="1.788117">
        <ele>2138.1</ele>
        <time>2013-08-09T09:37:04Z</time>
      </trkpt>
      <trkpt lat="42.464030" lon="1.788190">
        <ele>2139.4</ele>
        <time>2013-08-09T09:37:12Z</time>
      </trkpt>
      <trkpt lat="42.463987" lon="1.788226">
        <ele>2139.5</ele>
        <time>2013-08-09T09:37:17Z</time>
      </trkpt>
      <trkpt lat="42.463859" lon="1.788248">
        <ele>2139.5</ele>
        <time>2013-08-09T09:37:29Z</time>
      </trkpt>
      <trkpt lat="42.463727" lon="1.788285">
        <ele>2139.2</ele>
        <time>2013-08-09T09:37:41Z</time>
      </trkpt>
      <trkpt lat="42.463595" lon="1.788287">
        <ele>2137.6</ele>
        <time>2013-08-09T09:37:53Z</time>
      </trkpt>
      <trkpt lat="42.463541" lon="1.788281">
        <ele>2137.2</ele>
        <time>2013-08-09T09:38:05Z</time>
      </trkpt>
      <trkpt lat="42.463529" lon="1.788298">
        <ele>2137.1</ele>
        <time>2013-08-09T09:38:16Z</time>
      </trkpt>
      <trkpt lat="42.463529" lon="1.788298">
        <ele>2137.1</ele>
        <time>2013-08-09T09:38:28Z</time>
      </trkpt>
      <trkpt lat="42.463536" lon="1.788337">
        <ele>2137.5</ele>
        <time>2013-08-09T09:38:41Z</time>
      </trkpt>
      <trkpt lat="42.463539" lon="1.788367">
        <ele>2137.8</ele>
        <time>2013-08-09T09:38:43Z</time>
      </trkpt>
      <trkpt lat="42.463527" lon="1.788584">
        <ele>2141.2</ele>
        <time>2013-08-09T09:38:54Z</time>
      </trkpt>
      <trkpt lat="42.463529" lon="1.788616">
        <ele>2141.8</ele>
        <time>2013-08-09T09:38:56Z</time>
      </trkpt>
      <trkpt lat="42.463552" lon="1.788723">
        <ele>2144.3</ele>
        <time>2013-08-09T09:39:02Z</time>
      </trkpt>
      <trkpt lat="42.463579" lon="1.788901">
        <ele>2145.7</ele>
        <time>2013-08-09T09:39:13Z</time>
      </trkpt>
      <trkpt lat="42.463529" lon="1.789069">
        <ele>2147.2</ele>
        <time>2013-08-09T09:39:24Z</time>
      </trkpt>
      <trkpt lat="42.463526" lon="1.789091">
        <ele>2147.5</ele>
        <time>2013-08-09T09:39:26Z</time>
      </trkpt>
      <trkpt lat="42.463539" lon="1.789145">
        <ele>2148.8</ele>
        <time>2013-08-09T09:39:32Z</time>
      </trkpt>
      <trkpt lat="42.463563" lon="1.789270">
        <ele>2148.4</ele>
        <time>2013-08-09T09:39:45Z</time>
      </trkpt>
      <trkpt lat="42.463558" lon="1.789385">
        <ele>2150.0</ele>
        <time>2013-08-09T09:39:57Z</time>
      </trkpt>
      <trkpt lat="42.463556" lon="1.789533">
        <ele>2151.7</ele>
        <time>2013-08-09T09:40:11Z</time>
      </trkpt>
      <trkpt lat="42.463556" lon="1.789621">
        <ele>2152.7</ele>
        <time>2013-08-09T09:40:23Z</time>
      </trkpt>
      <trkpt lat="42.463563" lon="1.789704">
        <ele>2154.2</ele>
        <time>2013-08-09T09:40:37Z</time>
      </trkpt>
      <trkpt lat="42.463587" lon="1.789760">
        <ele>2154.9</ele>
        <time>2013-08-09T09:40:48Z</time>
      </trkpt>
      <trkpt lat="42.463623" lon="1.789845">
        <ele>2156.0</ele>
        <time>2013-08-09T09:40:58Z</time>
      </trkpt>
      <trkpt lat="42.463642" lon="1.790043">
        <ele>2160.3</ele>
        <time>2013-08-09T09:41:09Z</time>
      </trkpt>
      <trkpt lat="42.463667" lon="1.790093">
        <ele>2161.7</ele>
        <time>2013-08-09T09:41:22Z</time>
      </trkpt>
      <trkpt lat="42.463667" lon="1.790125">
        <ele>2162.7</ele>
        <time>2013-08-09T09:41:34Z</time>
      </trkpt>
      <trkpt lat="42.463666" lon="1.790172">
        <ele>2164.2</ele>
        <time>2013-08-09T09:41:50Z</time>
      </trkpt>
      <trkpt lat="42.463688" lon="1.790262">
        <ele>2167.2</ele>
        <time>2013-08-09T09:42:04Z</time>
      </trkpt>
      <trkpt lat="42.463740" lon="1.790344">
        <ele>2169.0</ele>
        <time>2013-08-09T09:42:16Z</time>
      </trkpt>
      <trkpt lat="42.463781" lon="1.790451">
        <ele>2171.7</ele>
        <time>2013-08-09T09:42:27Z</time>
      </trkpt>
      <trkpt lat="42.463781" lon="1.790511">
        <ele>2173.0</ele>
        <time>2013-08-09T09:42:39Z</time>
      </trkpt>
      <trkpt lat="42.463788" lon="1.790604">
        <ele>2175.6</ele>
        <time>2013-08-09T09:42:50Z</time>
      </trkpt>
      <trkpt lat="42.463758" lon="1.790628">
        <ele>2177.7</ele>
        <time>2013-08-09T09:43:04Z</time>
      </trkpt>
      <trkpt lat="42.463713" lon="1.790594">
        <ele>2178.2</ele>
        <time>2013-08-09T09:43:16Z</time>
      </trkpt>
      <trkpt lat="42.463615" lon="1.790534">
        <ele>2180.4</ele>
        <time>2013-08-09T09:43:29Z</time>
      </trkpt>
      <trkpt lat="42.463546" lon="1.790531">
        <ele>2182.2</ele>
        <time>2013-08-09T09:43:41Z</time>
      </trkpt>
      <trkpt lat="42.463486" lon="1.790524">
        <ele>2183.5</ele>
        <time>2013-08-09T09:43:54Z</time>
      </trkpt>
      <trkpt lat="42.463392" lon="1.790526">
        <ele>2186.0</ele>
        <time>2013-08-09T09:44:08Z</time>
      </trkpt>
      <trkpt lat="42.463262" lon="1.790518">
        <ele>2188.3</ele>
        <time>2013-08-09T09:44:25Z</time>
      </trkpt>
      <trkpt lat="42.463204" lon="1.790527">
        <ele>2189.5</ele>
        <time>2013-08-09T09:44:32Z</time>
      </trkpt>
      <trkpt lat="42.463111" lon="1.790586">
        <ele>2192.3</ele>
        <time>2013-08-09T09:44:44Z</time>
      </trkpt>
      <trkpt lat="42.463020" lon="1.790650">
        <ele>2193.0</ele>
        <time>2013-08-09T09:44:55Z</time>
      </trkpt>
      <trkpt lat="42.462959" lon="1.790684">
        <ele>2193.4</ele>
        <time>2013-08-09T09:45:02Z</time>
      </trkpt>
      <trkpt lat="42.462849" lon="1.790798">
        <ele>2194.8</ele>
        <time>2013-08-09T09:45:14Z</time>
      </trkpt>
      <trkpt lat="42.462760" lon="1.790929">
        <ele>2195.7</ele>
        <time>2013-08-09T09:45:27Z</time>
      </trkpt>
      <trkpt lat="42.462734" lon="1.790946">
        <ele>2195.5</ele>
        <time>2013-08-09T09:45:30Z</time>
      </trkpt>
      <trkpt lat="42.462644" lon="1.791055">
        <ele>2194.3</ele>
        <time>2013-08-09T09:45:42Z</time>
      </trkpt>
      <trkpt lat="42.462616" lon="1.791078">
        <ele>2193.9</ele>
        <time>2013-08-09T09:45:45Z</time>
      </trkpt>
      <trkpt lat="42.462525" lon="1.791155">
        <ele>2193.5</ele>
        <time>2013-08-09T09:45:54Z</time>
      </trkpt>
      <trkpt lat="42.462410" lon="1.791214">
        <ele>2193.8</ele>
        <time>2013-08-09T09:46:06Z</time>
      </trkpt>
      <trkpt lat="42.462332" lon="1.791272">
        <ele>2193.7</ele>
        <time>2013-08-09T09:46:15Z</time>
      </trkpt>
      <trkpt lat="42.462297" lon="1.791300">
        <ele>2193.5</ele>
        <time>2013-08-09T09:46:19Z</time>
      </trkpt>
      <trkpt lat="42.462244" lon="1.791355">
        <ele>2193.2</ele>
        <time>2013-08-09T09:46:27Z</time>
      </trkpt>
      <trkpt lat="42.462211" lon="1.791381">
        <ele>2193.1</ele>
        <time>2013-08-09T09:46:30Z</time>
      </trkpt>
      <trkpt lat="42.462176" lon="1.791393">
        <ele>2193.1</ele>
        <time>2013-08-09T09:46:33Z</time>
      </trkpt>
      <trkpt lat="42.462050" lon="1.791520">
        <ele>2193.0</ele>
        <time>2013-08-09T09:46:46Z</time>
      </trkpt>
      <trkpt lat="42.462047" lon="1.791523">
        <ele>2193.1</ele>
        <time>2013-08-09T09:47:14Z</time>
      </trkpt>
      <trkpt lat="42.462046" lon="1.791523">
        <ele>2193.1</ele>
        <time>2013-08-09T09:47:35Z</time>
      </trkpt>
      <trkpt lat="42.462021" lon="1.791538">
        <ele>2193.7</ele>
        <time>2013-08-09T09:47:39Z</time>
      </trkpt>
      <trkpt lat="42.461917" lon="1.791657">
        <ele>2193.7</ele>
        <time>2013-08-09T09:47:53Z</time>
      </trkpt>
      <trkpt lat="42.461861" lon="1.791767">
        <ele>2192.2</ele>
        <time>2013-08-09T09:47:59Z</time>
      </trkpt>
      <trkpt lat="42.461822" lon="1.791913">
        <ele>2192.8</ele>
        <time>2013-08-09T09:48:11Z</time>
      </trkpt>
      <trkpt lat="42.461807" lon="1.791932">
        <ele>2192.8</ele>
        <time>2013-08-09T09:48:17Z</time>
      </trkpt>
      <trkpt lat="42.461780" lon="1.791970">
        <ele>2192.7</ele>
        <time>2013-08-09T09:48:20Z</time>
      </trkpt>
      <trkpt lat="42.461657" lon="1.792038">
        <ele>2191.8</ele>
        <time>2013-08-09T09:48:33Z</time>
      </trkpt>
      <trkpt lat="42.461573" lon="1.792089">
        <ele>2191.3</ele>
        <time>2013-08-09T09:48:45Z</time>
      </trkpt>
      <trkpt lat="42.461564" lon="1.792099">
        <ele>2191.3</ele>
        <time>2013-08-09T09:48:46Z</time>
      </trkpt>
      <trkpt lat="42.461505" lon="1.792197">
        <ele>2190.9</ele>
        <time>2013-08-09T09:48:56Z</time>
      </trkpt>
      <trkpt lat="42.461489" lon="1.792258">
        <ele>2191.0</ele>
        <time>2013-08-09T09:49:00Z</time>
      </trkpt>
      <trkpt lat="42.461458" lon="1.792363">
        <ele>2192.0</ele>
        <time>2013-08-09T09:49:08Z</time>
      </trkpt>
      <trkpt lat="42.461432" lon="1.792521">
        <ele>2193.6</ele>
        <time>2013-08-09T09:49:21Z</time>
      </trkpt>
      <trkpt lat="42.461383" lon="1.792596">
        <ele>2193.2</ele>
        <time>2013-08-09T09:49:29Z</time>
      </trkpt>
      <trkpt lat="42.461286" lon="1.792716">
        <ele>2191.7</ele>
        <time>2013-08-09T09:49:44Z</time>
      </trkpt>
      <trkpt lat="42.461187" lon="1.792873">
        <ele>2191.3</ele>
        <time>2013-08-09T09:49:59Z</time>
      </trkpt>
      <trkpt lat="42.461099" lon="1.793002">
        <ele>2191.5</ele>
        <time>2013-08-09T09:50:13Z</time>
      </trkpt>
      <trkpt lat="42.461082" lon="1.793083">
        <ele>2191.3</ele>
        <time>2013-08-09T09:50:26Z</time>
      </trkpt>
      <trkpt lat="42.461081" lon="1.793104">
        <ele>2191.3</ele>
        <time>2013-08-09T09:50:36Z</time>
      </trkpt>
      <trkpt lat="42.461074" lon="1.793267">
        <ele>2190.4</ele>
        <time>2013-08-09T09:50:48Z</time>
      </trkpt>
      <trkpt lat="42.461049" lon="1.793391">
        <ele>2187.6</ele>
        <time>2013-08-09T09:50:58Z</time>
      </trkpt>
      <trkpt lat="42.461016" lon="1.793493">
        <ele>2184.7</ele>
        <time>2013-08-09T09:51:07Z</time>
      </trkpt>
      <trkpt lat="42.461017" lon="1.793582">
        <ele>2184.0</ele>
        <time>2013-08-09T09:51:15Z</time>
      </trkpt>
      <trkpt lat="42.460975" lon="1.793645">
        <ele>2183.2</ele>
        <time>2013-08-09T09:51:21Z</time>
      </trkpt>
      <trkpt lat="42.460932" lon="1.793755">
        <ele>2185.0</ele>
        <time>2013-08-09T09:51:31Z</time>
      </trkpt>
      <trkpt lat="42.460866" lon="1.793923">
        <ele>2187.9</ele>
        <time>2013-08-09T09:51:45Z</time>
      </trkpt>
      <trkpt lat="42.460812" lon="1.794055">
        <ele>2189.1</ele>
        <time>2013-08-09T09:51:57Z</time>
      </trkpt>
      <trkpt lat="42.460781" lon="1.794183">
        <ele>2190.0</ele>
        <time>2013-08-09T09:52:09Z</time>
      </trkpt>
      <trkpt lat="42.460762" lon="1.794309">
        <ele>2191.0</ele>
        <time>2013-08-09T09:52:21Z</time>
      </trkpt>
      <trkpt lat="42.460738" lon="1.794371">
        <ele>2191.1</ele>
        <time>2013-08-09T09:52:34Z</time>
      </trkpt>
      <trkpt lat="42.460722" lon="1.794417">
        <ele>2191.2</ele>
        <time>2013-08-09T09:52:47Z</time>
      </trkpt>
      <trkpt lat="42.460644" lon="1.794582">
        <ele>2190.9</ele>
        <time>2013-08-09T09:52:58Z</time>
      </trkpt>
      <trkpt lat="42.460603" lon="1.794651">
        <ele>2190.4</ele>
        <time>2013-08-09T09:53:03Z</time>
      </trkpt>
      <trkpt lat="42.460564" lon="1.794792">
        <ele>2189.0</ele>
        <time>2013-08-09T09:53:17Z</time>
      </trkpt>
      <trkpt lat="42.460494" lon="1.794921">
        <ele>2187.6</ele>
        <time>2013-08-09T09:53:30Z</time>
      </trkpt>
      <trkpt lat="42.460424" lon="1.795026">
        <ele>2186.5</ele>
        <time>2013-08-09T09:53:41Z</time>
      </trkpt>
      <trkpt lat="42.460408" lon="1.795054">
        <ele>2186.1</ele>
        <time>2013-08-09T09:53:43Z</time>
      </trkpt>
      <trkpt lat="42.460369" lon="1.795179">
        <ele>2184.6</ele>
        <time>2013-08-09T09:53:52Z</time>
      </trkpt>
      <trkpt lat="42.460326" lon="1.795343">
        <ele>2184.0</ele>
        <time>2013-08-09T09:54:04Z</time>
      </trkpt>
      <trkpt lat="42.460290" lon="1.795503">
        <ele>2182.9</ele>
        <time>2013-08-09T09:54:15Z</time>
      </trkpt>
      <trkpt lat="42.460222" lon="1.795662">
        <ele>2182.9</ele>
        <time>2013-08-09T09:54:28Z</time>
      </trkpt>
      <trkpt lat="42.460102" lon="1.795733">
        <ele>2182.2</ele>
        <time>2013-08-09T09:54:40Z</time>
      </trkpt>
      <trkpt lat="42.459973" lon="1.795798">
        <ele>2181.9</ele>
        <time>2013-08-09T09:54:53Z</time>
      </trkpt>
      <trkpt lat="42.459943" lon="1.795832">
        <ele>2181.7</ele>
        <time>2013-08-09T09:54:57Z</time>
      </trkpt>
      <trkpt lat="42.459890" lon="1.795877">
        <ele>2181.3</ele>
        <time>2013-08-09T09:55:04Z</time>
      </trkpt>
      <trkpt lat="42.459796" lon="1.796039">
        <ele>2182.0</ele>
        <time>2013-08-09T09:55:18Z</time>
      </trkpt>
      <trkpt lat="42.459769" lon="1.796199">
        <ele>2182.1</ele>
        <time>2013-08-09T09:55:29Z</time>
      </trkpt>
      <trkpt lat="42.459754" lon="1.796344">
        <ele>2183.7</ele>
        <time>2013-08-09T09:55:40Z</time>
      </trkpt>
      <trkpt lat="42.459762" lon="1.796388">
        <ele>2184.4</ele>
        <time>2013-08-09T09:55:52Z</time>
      </trkpt>
      <trkpt lat="42.459754" lon="1.796397">
        <ele>2184.3</ele>
        <time>2013-08-09T09:56:03Z</time>
      </trkpt>
      <trkpt lat="42.459754" lon="1.796397">
        <ele>2184.3</ele>
        <time>2013-08-09T09:56:27Z</time>
      </trkpt>
      <trkpt lat="42.459753" lon="1.796397">
        <ele>2184.3</ele>
        <time>2013-08-09T09:56:44Z</time>
      </trkpt>
      <trkpt lat="42.459703" lon="1.796461">
        <ele>2184.0</ele>
        <time>2013-08-09T09:56:52Z</time>
      </trkpt>
      <trkpt lat="42.459687" lon="1.796574">
        <ele>2184.5</ele>
        <time>2013-08-09T09:57:03Z</time>
      </trkpt>
      <trkpt lat="42.459643" lon="1.796677">
        <ele>2184.7</ele>
        <time>2013-08-09T09:57:23Z</time>
      </trkpt>
      <trkpt lat="42.459584" lon="1.796803">
        <ele>2184.7</ele>
        <time>2013-08-09T09:57:35Z</time>
      </trkpt>
      <trkpt lat="42.459517" lon="1.796883">
        <ele>2182.2</ele>
        <time>2013-08-09T09:57:43Z</time>
      </trkpt>
      <trkpt lat="42.459498" lon="1.796907">
        <ele>2181.3</ele>
        <time>2013-08-09T09:57:45Z</time>
      </trkpt>
      <trkpt lat="42.459484" lon="1.796940">
        <ele>2180.7</ele>
        <time>2013-08-09T09:57:47Z</time>
      </trkpt>
      <trkpt lat="42.459469" lon="1.796982">
        <ele>2180.0</ele>
        <time>2013-08-09T09:58:02Z</time>
      </trkpt>
      <trkpt lat="42.459468" lon="1.796984">
        <ele>2180.0</ele>
        <time>2013-08-09T09:58:33Z</time>
      </trkpt>
      <trkpt lat="42.459460" lon="1.797021">
        <ele>2179.7</ele>
        <time>2013-08-09T09:58:35Z</time>
      </trkpt>
      <trkpt lat="42.459439" lon="1.797183">
        <ele>2179.0</ele>
        <time>2013-08-09T09:58:45Z</time>
      </trkpt>
      <trkpt lat="42.459446" lon="1.797260">
        <ele>2179.5</ele>
        <time>2013-08-09T09:58:49Z</time>
      </trkpt>
      <trkpt lat="42.459466" lon="1.797535">
        <ele>2177.7</ele>
        <time>2013-08-09T09:59:03Z</time>
      </trkpt>
      <trkpt lat="42.459442" lon="1.797710">
        <ele>2178.3</ele>
        <time>2013-08-09T09:59:14Z</time>
      </trkpt>
      <trkpt lat="42.459389" lon="1.797921">
        <ele>2177.2</ele>
        <time>2013-08-09T09:59:27Z</time>
      </trkpt>
      <trkpt lat="42.459360" lon="1.798053">
        <ele>2178.0</ele>
        <time>2013-08-09T09:59:35Z</time>
      </trkpt>
      <trkpt lat="42.459352" lon="1.798205">
        <ele>2177.3</ele>
        <time>2013-08-09T09:59:45Z</time>
      </trkpt>
      <trkpt lat="42.459380" lon="1.798330">
        <ele>2178.0</ele>
        <time>2013-08-09T09:59:52Z</time>
      </trkpt>
      <trkpt lat="42.459370" lon="1.798441">
        <ele>2178.8</ele>
        <time>2013-08-09T09:59:58Z</time>
      </trkpt>
      <trkpt lat="42.459283" lon="1.798665">
        <ele>2178.9</ele>
        <time>2013-08-09T10:00:14Z</time>
      </trkpt>
      <trkpt lat="42.459203" lon="1.798857">
        <ele>2179.5</ele>
        <time>2013-08-09T10:00:27Z</time>
      </trkpt>
      <trkpt lat="42.459186" lon="1.799036">
        <ele>2180.2</ele>
        <time>2013-08-09T10:00:41Z</time>
      </trkpt>
      <trkpt lat="42.459219" lon="1.799258">
        <ele>2182.8</ele>
        <time>2013-08-09T10:00:55Z</time>
      </trkpt>
      <trkpt lat="42.459219" lon="1.799291">
        <ele>2183.1</ele>
        <time>2013-08-09T10:00:57Z</time>
      </trkpt>
      <trkpt lat="42.459175" lon="1.799438">
        <ele>2183.9</ele>
        <time>2013-08-09T10:01:08Z</time>
      </trkpt>
      <trkpt lat="42.459078" lon="1.799625">
        <ele>2184.0</ele>
        <time>2013-08-09T10:01:22Z</time>
      </trkpt>
      <trkpt lat="42.459017" lon="1.799719">
        <ele>2184.1</ele>
        <time>2013-08-09T10:01:30Z</time>
      </trkpt>
      <trkpt lat="42.458959" lon="1.799779">
        <ele>2184.5</ele>
        <time>2013-08-09T10:01:36Z</time>
      </trkpt>
      <trkpt lat="42.458820" lon="1.799830">
        <ele>2185.7</ele>
        <time>2013-08-09T10:01:51Z</time>
      </trkpt>
      <trkpt lat="42.458774" lon="1.799884">
        <ele>2184.2</ele>
        <time>2013-08-09T10:02:02Z</time>
      </trkpt>
      <trkpt lat="42.458744" lon="1.799964">
        <ele>2182.0</ele>
        <time>2013-08-09T10:02:13Z</time>
      </trkpt>
      <trkpt lat="42.458732" lon="1.800016">
        <ele>2181.1</ele>
        <time>2013-08-09T10:02:27Z</time>
      </trkpt>
      <trkpt lat="42.458723" lon="1.800016">
        <ele>2180.7</ele>
        <time>2013-08-09T10:02:38Z</time>
      </trkpt>
      <trkpt lat="42.458646" lon="1.800077">
        <ele>2179.0</ele>
        <time>2013-08-09T10:02:47Z</time>
      </trkpt>
      <trkpt lat="42.458630" lon="1.800119">
        <ele>2179.3</ele>
        <time>2013-08-09T10:02:50Z</time>
      </trkpt>
      <trkpt lat="42.458619" lon="1.800240">
        <ele>2180.5</ele>
        <time>2013-08-09T10:03:00Z</time>
      </trkpt>
      <trkpt lat="42.458588" lon="1.800364">
        <ele>2182.1</ele>
        <time>2013-08-09T10:03:12Z</time>
      </trkpt>
      <trkpt lat="42.458560" lon="1.800479">
        <ele>2183.5</ele>
        <time>2013-08-09T10:03:25Z</time>
      </trkpt>
      <trkpt lat="42.458545" lon="1.800505">
        <ele>2183.7</ele>
        <time>2013-08-09T10:03:41Z</time>
      </trkpt>
      <trkpt lat="42.458547" lon="1.800489">
        <ele>2183.5</ele>
        <time>2013-08-09T10:03:50Z</time>
      </trkpt>
      <trkpt lat="42.458570" lon="1.800396">
        <ele>2182.3</ele>
        <time>2013-08-09T10:03:59Z</time>
      </trkpt>
      <trkpt lat="42.458650" lon="1.800315">
        <ele>2182.1</ele>
        <time>2013-08-09T10:04:07Z</time>
      </trkpt>
      <trkpt lat="42.458725" lon="1.800302">
        <ele>2182.9</ele>
        <time>2013-08-09T10:04:18Z</time>
      </trkpt>
      <trkpt lat="42.458725" lon="1.800302">
        <ele>2182.9</ele>
        <time>2013-08-09T10:04:19Z</time>
      </trkpt>
      <trkpt lat="42.458789" lon="1.800346">
        <ele>2184.2</ele>
        <time>2013-08-09T10:04:30Z</time>
      </trkpt>
      <trkpt lat="42.458820" lon="1.800364">
        <ele>2184.7</ele>
        <time>2013-08-09T10:04:34Z</time>
      </trkpt>
      <trkpt lat="42.458879" lon="1.800434">
        <ele>2186.1</ele>
        <time>2013-08-09T10:04:43Z</time>
      </trkpt>
      <trkpt lat="42.458919" lon="1.800568">
        <ele>2188.1</ele>
        <time>2013-08-09T10:04:55Z</time>
      </trkpt>
      <trkpt lat="42.458925" lon="1.800607">
        <ele>2188.5</ele>
        <time>2013-08-09T10:04:59Z</time>
      </trkpt>
      <trkpt lat="42.458955" lon="1.800728">
        <ele>2189.9</ele>
        <time>2013-08-09T10:05:09Z</time>
      </trkpt>
      <trkpt lat="42.458971" lon="1.800795">
        <ele>2190.4</ele>
        <time>2013-08-09T10:05:15Z</time>
      </trkpt>
      <trkpt lat="42.458981" lon="1.800829">
        <ele>2190.7</ele>
        <time>2013-08-09T10:05:18Z</time>
      </trkpt>
      <trkpt lat="42.459000" lon="1.800928">
        <ele>2191.6</ele>
        <time>2013-08-09T10:05:27Z</time>
      </trkpt>
      <trkpt lat="42.459011" lon="1.800949">
        <ele>2191.8</ele>
        <time>2013-08-09T10:05:29Z</time>
      </trkpt>
      <trkpt lat="42.459036" lon="1.801051">
        <ele>2192.6</ele>
        <time>2013-08-09T10:05:39Z</time>
      </trkpt>
      <trkpt lat="42.459065" lon="1.801061">
        <ele>2192.7</ele>
        <time>2013-08-09T10:05:42Z</time>
      </trkpt>
      <trkpt lat="42.459083" lon="1.801069">
        <ele>2192.8</ele>
        <time>2013-08-09T10:05:44Z</time>
      </trkpt>
      <trkpt lat="42.459157" lon="1.801120">
        <ele>2193.4</ele>
        <time>2013-08-09T10:05:53Z</time>
      </trkpt>
      <trkpt lat="42.459279" lon="1.801217">
        <ele>2194.3</ele>
        <time>2013-08-09T10:06:07Z</time>
      </trkpt>
      <trkpt lat="42.459287" lon="1.801223">
        <ele>2194.4</ele>
        <time>2013-08-09T10:06:08Z</time>
      </trkpt>
      <trkpt lat="42.459358" lon="1.801248">
        <ele>2195.2</ele>
        <time>2013-08-09T10:06:16Z</time>
      </trkpt>
      <trkpt lat="42.459405" lon="1.801277">
        <ele>2196.0</ele>
        <time>2013-08-09T10:06:23Z</time>
      </trkpt>
      <trkpt lat="42.459451" lon="1.801283">
        <ele>2197.0</ele>
        <time>2013-08-09T10:06:30Z</time>
      </trkpt>
      <trkpt lat="42.459436" lon="1.801469">
        <ele>2196.4</ele>
        <time>2013-08-09T10:06:43Z</time>
      </trkpt>
      <trkpt lat="42.459456" lon="1.801550">
        <ele>2196.8</ele>
        <time>2013-08-09T10:06:49Z</time>
      </trkpt>
      <trkpt lat="42.459511" lon="1.801743">
        <ele>2197.3</ele>
        <time>2013-08-09T10:07:03Z</time>
      </trkpt>
      <trkpt lat="42.459581" lon="1.801920">
        <ele>2198.3</ele>
        <time>2013-08-09T10:07:17Z</time>
      </trkpt>
      <trkpt lat="42.459579" lon="1.801918">
        <ele>2198.3</ele>
        <time>2013-08-09T10:07:27Z</time>
      </trkpt>
      <trkpt lat="42.459583" lon="1.801967">
        <ele>2198.5</ele>
        <time>2013-08-09T10:07:31Z</time>
      </trkpt>
      <trkpt lat="42.459612" lon="1.802083">
        <ele>2199.1</ele>
        <time>2013-08-09T10:07:39Z</time>
      </trkpt>
      <trkpt lat="42.459653" lon="1.802212">
        <ele>2199.7</ele>
        <time>2013-08-09T10:07:49Z</time>
      </trkpt>
      <trkpt lat="42.459664" lon="1.802266">
        <ele>2200.0</ele>
        <time>2013-08-09T10:07:53Z</time>
      </trkpt>
      <trkpt lat="42.459682" lon="1.802304">
        <ele>2200.1</ele>
        <time>2013-08-09T10:07:56Z</time>
      </trkpt>
      <trkpt lat="42.459700" lon="1.802350">
        <ele>2200.3</ele>
        <time>2013-08-09T10:08:00Z</time>
      </trkpt>
      <trkpt lat="42.459793" lon="1.802492">
        <ele>2201.3</ele>
        <time>2013-08-09T10:08:13Z</time>
      </trkpt>
      <trkpt lat="42.459818" lon="1.802537">
        <ele>2201.5</ele>
        <time>2013-08-09T10:08:17Z</time>
      </trkpt>
      <trkpt lat="42.459909" lon="1.802684">
        <ele>2202.3</ele>
        <time>2013-08-09T10:08:30Z</time>
      </trkpt>
      <trkpt lat="42.459967" lon="1.802796">
        <ele>2202.8</ele>
        <time>2013-08-09T10:08:39Z</time>
      </trkpt>
      <trkpt lat="42.459991" lon="1.802841">
        <ele>2203.0</ele>
        <time>2013-08-09T10:08:43Z</time>
      </trkpt>
      <trkpt lat="42.460011" lon="1.802890">
        <ele>2203.1</ele>
        <time>2013-08-09T10:08:47Z</time>
      </trkpt>
      <trkpt lat="42.460096" lon="1.803042">
        <ele>2203.8</ele>
        <time>2013-08-09T10:09:00Z</time>
      </trkpt>
      <trkpt lat="42.460118" lon="1.803099">
        <ele>2203.9</ele>
        <time>2013-08-09T10:09:04Z</time>
      </trkpt>
      <trkpt lat="42.460172" lon="1.803275">
        <ele>2204.4</ele>
        <time>2013-08-09T10:09:17Z</time>
      </trkpt>
      <trkpt lat="42.460185" lon="1.803336">
        <ele>2204.5</ele>
        <time>2013-08-09T10:09:21Z</time>
      </trkpt>
      <trkpt lat="42.460209" lon="1.803529">
        <ele>2205.2</ele>
        <time>2013-08-09T10:09:33Z</time>
      </trkpt>
      <trkpt lat="42.460234" lon="1.803703">
        <ele>2205.9</ele>
        <time>2013-08-09T10:09:44Z</time>
      </trkpt>
      <trkpt lat="42.460232" lon="1.803800">
        <ele>2206.3</ele>
        <time>2013-08-09T10:09:51Z</time>
      </trkpt>
      <trkpt lat="42.460244" lon="1.803986">
        <ele>2207.0</ele>
        <time>2013-08-09T10:10:04Z</time>
      </trkpt>
      <trkpt lat="42.460243" lon="1.804137">
        <ele>2207.8</ele>
        <time>2013-08-09T10:10:15Z</time>
      </trkpt>
      <trkpt lat="42.460245" lon="1.804151">
        <ele>2207.8</ele>
        <time>2013-08-09T10:10:16Z</time>
      </trkpt>
      <trkpt lat="42.460335" lon="1.804331">
        <ele>2208.2</ele>
        <time>2013-08-09T10:10:30Z</time>
      </trkpt>
      <trkpt lat="42.460435" lon="1.804510">
        <ele>2208.5</ele>
        <time>2013-08-09T10:10:43Z</time>
      </trkpt>
      <trkpt lat="42.460538" lon="1.804725">
        <ele>2209.0</ele>
        <time>2013-08-09T10:10:58Z</time>
      </trkpt>
      <trkpt lat="42.460618" lon="1.804926">
        <ele>2209.1</ele>
        <time>2013-08-09T10:11:11Z</time>
      </trkpt>
      <trkpt lat="42.460684" lon="1.805148">
        <ele>2209.4</ele>
        <time>2013-08-09T10:11:26Z</time>
      </trkpt>
      <trkpt lat="42.460760" lon="1.805367">
        <ele>2209.5</ele>
        <time>2013-08-09T10:11:40Z</time>
      </trkpt>
      <trkpt lat="42.460823" lon="1.805568">
        <ele>2209.5</ele>
        <time>2013-08-09T10:11:51Z</time>
      </trkpt>
      <trkpt lat="42.460879" lon="1.805745">
        <ele>2209.4</ele>
        <time>2013-08-09T10:12:04Z</time>
      </trkpt>
      <trkpt lat="42.460915" lon="1.805886">
        <ele>2209.4</ele>
        <time>2013-08-09T10:12:11Z</time>
      </trkpt>
      <trkpt lat="42.460947" lon="1.806021">
        <ele>2209.3</ele>
        <time>2013-08-09T10:12:21Z</time>
      </trkpt>
      <trkpt lat="42.460972" lon="1.806153">
        <ele>2209.0</ele>
        <time>2013-08-09T10:12:35Z</time>
      </trkpt>
      <trkpt lat="42.460972" lon="1.806153">
        <ele>2209.0</ele>
        <time>2013-08-09T10:13:02Z</time>
      </trkpt>
      <trkpt lat="42.460999" lon="1.806268">
        <ele>2209.1</ele>
        <time>2013-08-09T10:13:28Z</time>
      </trkpt>
      <trkpt lat="42.461032" lon="1.806439">
        <ele>2208.8</ele>
        <time>2013-08-09T10:13:41Z</time>
      </trkpt>
      <trkpt lat="42.461035" lon="1.806458">
        <ele>2208.9</ele>
        <time>2013-08-09T10:13:42Z</time>
      </trkpt>
      <trkpt lat="42.461093" lon="1.806807">
        <ele>2208.6</ele>
        <time>2013-08-09T10:13:58Z</time>
      </trkpt>
      <trkpt lat="42.461112" lon="1.806903">
        <ele>2208.2</ele>
        <time>2013-08-09T10:14:04Z</time>
      </trkpt>
      <trkpt lat="42.461132" lon="1.807014">
        <ele>2208.1</ele>
        <time>2013-08-09T10:14:09Z</time>
      </trkpt>
      <trkpt lat="42.461203" lon="1.807354">
        <ele>2207.2</ele>
        <time>2013-08-09T10:14:28Z</time>
      </trkpt>
      <trkpt lat="42.461265" lon="1.807666">
        <ele>2206.3</ele>
        <time>2013-08-09T10:14:44Z</time>
      </trkpt>
      <trkpt lat="42.461296" lon="1.807854">
        <ele>2205.9</ele>
        <time>2013-08-09T10:14:57Z</time>
      </trkpt>
      <trkpt lat="42.461333" lon="1.807990">
        <ele>2205.5</ele>
        <time>2013-08-09T10:15:05Z</time>
      </trkpt>
      <trkpt lat="42.461392" lon="1.808191">
        <ele>2204.6</ele>
        <time>2013-08-09T10:15:16Z</time>
      </trkpt>
      <trkpt lat="42.461460" lon="1.808391">
        <ele>2204.2</ele>
        <time>2013-08-09T10:15:29Z</time>
      </trkpt>
      <trkpt lat="42.461494" lon="1.808465">
        <ele>2203.8</ele>
        <time>2013-08-09T10:15:33Z</time>
      </trkpt>
      <trkpt lat="42.461514" lon="1.808527">
        <ele>2203.6</ele>
        <time>2013-08-09T10:15:37Z</time>
      </trkpt>
      <trkpt lat="42.461556" lon="1.808625">
        <ele>2203.3</ele>
        <time>2013-08-09T10:15:43Z</time>
      </trkpt>
      <trkpt lat="42.461641" lon="1.808870">
        <ele>2202.4</ele>
        <time>2013-08-09T10:15:57Z</time>
      </trkpt>
      <trkpt lat="42.461686" lon="1.808981">
        <ele>2202.0</ele>
        <time>2013-08-09T10:16:04Z</time>
      </trkpt>
      <trkpt lat="42.461788" lon="1.809222">
        <ele>2200.9</ele>
        <time>2013-08-09T10:16:20Z</time>
      </trkpt>
      <trkpt lat="42.461873" lon="1.809432">
        <ele>2199.9</ele>
        <time>2013-08-09T10:16:35Z</time>
      </trkpt>
      <trkpt lat="42.461944" lon="1.809560">
        <ele>2199.2</ele>
        <time>2013-08-09T10:16:43Z</time>
      </trkpt>
      <trkpt lat="42.462011" lon="1.809741">
        <ele>2198.6</ele>
        <time>2013-08-09T10:16:55Z</time>
      </trkpt>
      <trkpt lat="42.462093" lon="1.809928">
        <ele>2197.9</ele>
        <time>2013-08-09T10:17:08Z</time>
      </trkpt>
      <trkpt lat="42.462178" lon="1.810168">
        <ele>2197.0</ele>
        <time>2013-08-09T10:17:23Z</time>
      </trkpt>
      <trkpt lat="42.462272" lon="1.810393">
        <ele>2195.8</ele>
        <time>2013-08-09T10:17:38Z</time>
      </trkpt>
      <trkpt lat="42.462350" lon="1.810584">
        <ele>2194.9</ele>
        <time>2013-08-09T10:17:50Z</time>
      </trkpt>
      <trkpt lat="42.462424" lon="1.810795">
        <ele>2193.6</ele>
        <time>2013-08-09T10:18:04Z</time>
      </trkpt>
      <trkpt lat="42.462495" lon="1.811008">
        <ele>2192.3</ele>
        <time>2013-08-09T10:18:16Z</time>
      </trkpt>
      <trkpt lat="42.462561" lon="1.811215">
        <ele>2191.1</ele>
        <time>2013-08-09T10:18:30Z</time>
      </trkpt>
      <trkpt lat="42.462587" lon="1.811286">
        <ele>2190.8</ele>
        <time>2013-08-09T10:18:34Z</time>
      </trkpt>
      <trkpt lat="42.462642" lon="1.811501">
        <ele>2189.3</ele>
        <time>2013-08-09T10:18:48Z</time>
      </trkpt>
      <trkpt lat="42.462702" lon="1.811784">
        <ele>2187.3</ele>
        <time>2013-08-09T10:19:04Z</time>
      </trkpt>
      <trkpt lat="42.462777" lon="1.812108">
        <ele>2184.9</ele>
        <time>2013-08-09T10:19:25Z</time>
      </trkpt>
      <trkpt lat="42.462832" lon="1.812347">
        <ele>2182.8</ele>
        <time>2013-08-09T10:19:39Z</time>
      </trkpt>
      <trkpt lat="42.462862" lon="1.812443">
        <ele>2181.8</ele>
        <time>2013-08-09T10:19:50Z</time>
      </trkpt>
      <trkpt lat="42.462887" lon="1.812654">
        <ele>2180.0</ele>
        <time>2013-08-09T10:20:02Z</time>
      </trkpt>
      <trkpt lat="42.462925" lon="1.812808">
        <ele>2178.7</ele>
        <time>2013-08-09T10:20:14Z</time>
      </trkpt>
      <trkpt lat="42.462930" lon="1.812822">
        <ele>2178.6</ele>
        <time>2013-08-09T10:20:36Z</time>
      </trkpt>
      <trkpt lat="42.462936" lon="1.812819">
        <ele>2178.6</ele>
        <time>2013-08-09T10:20:51Z</time>
      </trkpt>
      <trkpt lat="42.462949" lon="1.812853">
        <ele>2178.2</ele>
        <time>2013-08-09T10:21:13Z</time>
      </trkpt>
      <trkpt lat="42.462953" lon="1.812964">
        <ele>2177.3</ele>
        <time>2013-08-09T10:21:21Z</time>
      </trkpt>
      <trkpt lat="42.462734" lon="1.813664">
        <ele>2173.6</ele>
        <time>1970-01-01T00:00:00Z</time>
      </trkpt>
      <trkpt lat="42.462551" lon="1.814299">
        <ele>2170.3</ele>
        <time>1970-01-01T00:00:00Z</time>
      </trkpt>
      <trkpt lat="42.462086" lon="1.814865">
        <ele>2168.2</ele>
        <time>1970-01-01T00:00:00Z</time>
      </trkpt>
      <trkpt lat="42.461576" lon="1.815465">
        <ele>2165.8</ele>
        <time>1970-01-01T00:00:00Z</time>
      </trkpt>
      <trkpt lat="42.461206" lon="1.815945">
        <ele>2164.0</ele>
        <time>1970-01-01T00:00:00Z</time>
      </trkpt>
      <trkpt lat="42.460971" lon="1.816429">
        <ele>2163.1</ele>
        <time>2013-08-09T10:46:29Z</time>
      </trkpt>
      <trkpt lat="42.460972" lon="1.816428">
        <ele>2163.1</ele>
        <time>2013-08-09T10:47:08Z</time>
      </trkpt>
      <trkpt lat="42.460954" lon="1.816460">
        <ele>2163.0</ele>
        <time>2013-08-09T10:47:33Z</time>
      </trkpt>
      <trkpt lat="42.460955" lon="1.816463">
        <ele>2163.0</ele>
        <time>2013-08-09T10:47:59Z</time>
      </trkpt>
      <trkpt lat="42.460907" lon="1.816560">
        <ele>2162.9</ele>
        <time>2013-08-09T10:48:11Z</time>
      </trkpt>
      <trkpt lat="42.460812" lon="1.816758">
        <ele>2162.8</ele>
        <time>2013-08-09T10:48:25Z</time>
      </trkpt>
      <trkpt lat="42.460762" lon="1.816943">
        <ele>2162.9</ele>
        <time>2013-08-09T10:48:37Z</time>
      </trkpt>
      <trkpt lat="42.460740" lon="1.817045">
        <ele>2163.0</ele>
        <time>2013-08-09T10:48:43Z</time>
      </trkpt>
      <trkpt lat="42.460696" lon="1.817301">
        <ele>2163.3</ele>
        <time>2013-08-09T10:48:59Z</time>
      </trkpt>
      <trkpt lat="42.460668" lon="1.817513">
        <ele>2163.6</ele>
        <time>2013-08-09T10:49:11Z</time>
      </trkpt>
      <trkpt lat="42.460627" lon="1.817727">
        <ele>2164.2</ele>
        <time>2013-08-09T10:49:24Z</time>
      </trkpt>
      <trkpt lat="42.460584" lon="1.817955">
        <ele>2164.7</ele>
        <time>2013-08-09T10:49:37Z</time>
      </trkpt>
      <trkpt lat="42.460537" lon="1.818176">
        <ele>2165.5</ele>
        <time>2013-08-09T10:49:51Z</time>
      </trkpt>
      <trkpt lat="42.460485" lon="1.818386">
        <ele>2166.8</ele>
        <time>2013-08-09T10:50:05Z</time>
      </trkpt>
      <trkpt lat="42.460428" lon="1.818582">
        <ele>2167.6</ele>
        <time>2013-08-09T10:50:18Z</time>
      </trkpt>
      <trkpt lat="42.460337" lon="1.818776">
        <ele>2168.7</ele>
        <time>2013-08-09T10:50:31Z</time>
      </trkpt>
      <trkpt lat="42.460237" lon="1.818968">
        <ele>2169.7</ele>
        <time>2013-08-09T10:50:45Z</time>
      </trkpt>
      <trkpt lat="42.460161" lon="1.819203">
        <ele>2170.3</ele>
        <time>2013-08-09T10:51:00Z</time>
      </trkpt>
      <trkpt lat="42.460110" lon="1.819446">
        <ele>2170.7</ele>
        <time>2013-08-09T10:51:14Z</time>
      </trkpt>
      <trkpt lat="42.460062" lon="1.819680">
        <ele>2171.3</ele>
        <time>2013-08-09T10:51:28Z</time>
      </trkpt>
      <trkpt lat="42.460030" lon="1.819939">
        <ele>2172.2</ele>
        <time>2013-08-09T10:51:43Z</time>
      </trkpt>
      <trkpt lat="42.460018" lon="1.820193">
        <ele>2173.0</ele>
        <time>2013-08-09T10:51:58Z</time>
      </trkpt>
      <trkpt lat="42.460009" lon="1.820336">
        <ele>2173.2</ele>
        <time>2013-08-09T10:52:06Z</time>
      </trkpt>
      <trkpt lat="42.460006" lon="1.820585">
        <ele>2173.9</ele>
        <time>2013-08-09T10:52:20Z</time>
      </trkpt>
      <trkpt lat="42.460024" lon="1.820839">
        <ele>2175.1</ele>
        <time>2013-08-09T10:52:36Z</time>
      </trkpt>
      <trkpt lat="42.460012" lon="1.821075">
        <ele>2175.1</ele>
        <time>2013-08-09T10:52:49Z</time>
      </trkpt>
      <trkpt lat="42.459992" lon="1.821265">
        <ele>2174.5</ele>
        <time>2013-08-09T10:53:01Z</time>
      </trkpt>
      <trkpt lat="42.459971" lon="1.821483">
        <ele>2173.1</ele>
        <time>2013-08-09T10:53:14Z</time>
      </trkpt>
      <trkpt lat="42.459950" lon="1.821723">
        <ele>2171.4</ele>
        <time>2013-08-09T10:53:27Z</time>
      </trkpt>
      <trkpt lat="42.459922" lon="1.821875">
        <ele>2170.0</ele>
        <time>2013-08-09T10:53:39Z</time>
      </trkpt>
      <trkpt lat="42.459895" lon="1.822208">
        <ele>2167.2</ele>
        <time>2013-08-09T10:53:54Z</time>
      </trkpt>
      <trkpt lat="42.459847" lon="1.822420">
        <ele>2165.1</ele>
        <time>2013-08-09T10:54:07Z</time>
      </trkpt>
      <trkpt lat="42.459800" lon="1.822720">
        <ele>2161.6</ele>
        <time>2013-08-09T10:54:21Z</time>
      </trkpt>
      <trkpt lat="42.459769" lon="1.823026">
        <ele>2158.9</ele>
        <time>2013-08-09T10:54:38Z</time>
      </trkpt>
      <trkpt lat="42.459758" lon="1.823239">
        <ele>2158.0</ele>
        <time>2013-08-09T10:54:51Z</time>
      </trkpt>
      <trkpt lat="42.459755" lon="1.823507">
        <ele>2156.6</ele>
        <time>2013-08-09T10:55:06Z</time>
      </trkpt>
      <trkpt lat="42.459768" lon="1.823756">
        <ele>2155.4</ele>
        <time>2013-08-09T10:55:20Z</time>
      </trkpt>
      <trkpt lat="42.459836" lon="1.824013">
        <ele>2154.9</ele>
        <time>2013-08-09T10:55:36Z</time>
      </trkpt>
      <trkpt lat="42.459885" lon="1.824136">
        <ele>2154.4</ele>
        <time>2013-08-09T10:55:45Z</time>
      </trkpt>
      <trkpt lat="42.459940" lon="1.824346">
        <ele>2152.6</ele>
        <time>2013-08-09T10:55:59Z</time>
      </trkpt>
      <trkpt lat="42.459988" lon="1.824530">
        <ele>2151.1</ele>
        <time>2013-08-09T10:56:12Z</time>
      </trkpt>
      <trkpt lat="42.460036" lon="1.824747">
        <ele>2149.1</ele>
        <time>2013-08-09T10:56:25Z</time>
      </trkpt>
      <trkpt lat="42.460087" lon="1.824951">
        <ele>2147.2</ele>
        <time>2013-08-09T10:56:38Z</time>
      </trkpt>
      <trkpt lat="42.460131" lon="1.825171">
        <ele>2145.2</ele>
        <time>2013-08-09T10:56:52Z</time>
      </trkpt>
      <trkpt lat="42.460169" lon="1.825380">
        <ele>2142.7</ele>
        <time>2013-08-09T10:57:04Z</time>
      </trkpt>
      <trkpt lat="42.460194" lon="1.825595">
        <ele>2140.2</ele>
        <time>2013-08-09T10:57:18Z</time>
      </trkpt>
      <trkpt lat="42.460236" lon="1.825810">
        <ele>2137.9</ele>
        <time>2013-08-09T10:57:32Z</time>
      </trkpt>
      <trkpt lat="42.460244" lon="1.825921">
        <ele>2136.9</ele>
        <time>2013-08-09T10:57:38Z</time>
      </trkpt>
      <trkpt lat="42.460276" lon="1.826117">
        <ele>2134.8</ele>
        <time>2013-08-09T10:57:52Z</time>
      </trkpt>
      <trkpt lat="42.460281" lon="1.826207">
        <ele>2133.8</ele>
        <time>2013-08-09T10:57:56Z</time>
      </trkpt>
      <trkpt lat="42.460308" lon="1.826434">
        <ele>2131.3</ele>
        <time>2013-08-09T10:58:10Z</time>
      </trkpt>
      <trkpt lat="42.460344" lon="1.826688">
        <ele>2128.7</ele>
        <time>2013-08-09T10:58:24Z</time>
      </trkpt>
      <trkpt lat="42.460367" lon="1.826878">
        <ele>2126.8</ele>
        <time>2013-08-09T10:58:36Z</time>
      </trkpt>
      <trkpt lat="42.460302" lon="1.827092">
        <ele>2123.8</ele>
        <time>2013-08-09T10:58:50Z</time>
      </trkpt>
      <trkpt lat="42.460263" lon="1.827186">
        <ele>2121.9</ele>
        <time>2013-08-09T10:58:58Z</time>
      </trkpt>
      <trkpt lat="42.460246" lon="1.827232">
        <ele>2121.0</ele>
        <time>2013-08-09T10:59:02Z</time>
      </trkpt>
      <trkpt lat="42.460231" lon="1.827304">
        <ele>2120.0</ele>
        <time>2013-08-09T10:59:07Z</time>
      </trkpt>
      <trkpt lat="42.460139" lon="1.827574">
        <ele>2115.7</ele>
        <time>2013-08-09T10:59:25Z</time>
      </trkpt>
      <trkpt lat="42.460089" lon="1.827831">
        <ele>2112.4</ele>
        <time>2013-08-09T10:59:40Z</time>
      </trkpt>
      <trkpt lat="42.460057" lon="1.828030">
        <ele>2110.1</ele>
        <time>2013-08-09T10:59:53Z</time>
      </trkpt>
      <trkpt lat="42.460056" lon="1.828101">
        <ele>2109.6</ele>
        <time>2013-08-09T10:59:57Z</time>
      </trkpt>
      <trkpt lat="42.460025" lon="1.828325">
        <ele>2107.3</ele>
        <time>2013-08-09T11:00:11Z</time>
      </trkpt>
      <trkpt lat="42.460010" lon="1.828408">
        <ele>2106.5</ele>
        <time>2013-08-09T11:00:17Z</time>
      </trkpt>
      <trkpt lat="42.460002" lon="1.828464">
        <ele>2106.0</ele>
        <time>2013-08-09T11:00:21Z</time>
      </trkpt>
      <trkpt lat="42.459961" lon="1.828696">
        <ele>2104.0</ele>
        <time>2013-08-09T11:00:36Z</time>
      </trkpt>
      <trkpt lat="42.459898" lon="1.828874">
        <ele>2102.3</ele>
        <time>2013-08-09T11:00:48Z</time>
      </trkpt>
      <trkpt lat="42.459864" lon="1.829067">
        <ele>2100.3</ele>
        <time>2013-08-09T11:01:01Z</time>
      </trkpt>
      <trkpt lat="42.459794" lon="1.829199">
        <ele>2098.5</ele>
        <time>2013-08-09T11:01:13Z</time>
      </trkpt>
      <trkpt lat="42.459744" lon="1.829337">
        <ele>2096.6</ele>
        <time>2013-08-09T11:01:26Z</time>
      </trkpt>
      <trkpt lat="42.459709" lon="1.829438">
        <ele>2095.3</ele>
        <time>2013-08-09T11:01:39Z</time>
      </trkpt>
      <trkpt lat="42.459648" lon="1.829614">
        <ele>2092.4</ele>
        <time>2013-08-09T11:01:53Z</time>
      </trkpt>
      <trkpt lat="42.459628" lon="1.829658">
        <ele>2091.3</ele>
        <time>2013-08-09T11:01:57Z</time>
      </trkpt>
      <trkpt lat="42.459608" lon="1.829851">
        <ele>2088.5</ele>
        <time>2013-08-09T11:02:11Z</time>
      </trkpt>
      <trkpt lat="42.459528" lon="1.829990">
        <ele>2085.8</ele>
        <time>2013-08-09T11:02:25Z</time>
      </trkpt>
      <trkpt lat="42.459484" lon="1.830192">
        <ele>2081.3</ele>
        <time>2013-08-09T11:02:38Z</time>
      </trkpt>
      <trkpt lat="42.459462" lon="1.830251">
        <ele>2080.1</ele>
        <time>2013-08-09T11:02:42Z</time>
      </trkpt>
      <trkpt lat="42.459361" lon="1.830434">
        <ele>2078.1</ele>
        <time>2013-08-09T11:02:58Z</time>
      </trkpt>
      <trkpt lat="42.459296" lon="1.830587">
        <ele>2075.8</ele>
        <time>2013-08-09T11:03:12Z</time>
      </trkpt>
      <trkpt lat="42.459292" lon="1.830595">
        <ele>2075.6</ele>
        <time>2013-08-09T11:03:13Z</time>
      </trkpt>
      <trkpt lat="42.459200" lon="1.830781">
        <ele>2072.7</ele>
        <time>2013-08-09T11:03:27Z</time>
      </trkpt>
      <trkpt lat="42.459125" lon="1.830854">
        <ele>2071.0</ele>
        <time>2013-08-09T11:03:35Z</time>
      </trkpt>
      <trkpt lat="42.459068" lon="1.830911">
        <ele>2069.2</ele>
        <time>2013-08-09T11:03:44Z</time>
      </trkpt>
      <trkpt lat="42.458994" lon="1.830981">
        <ele>2066.7</ele>
        <time>2013-08-09T11:03:53Z</time>
      </trkpt>
      <trkpt lat="42.458970" lon="1.831027">
        <ele>2065.5</ele>
        <time>2013-08-09T11:03:57Z</time>
      </trkpt>
      <trkpt lat="42.458905" lon="1.831119">
        <ele>2063.2</ele>
        <time>2013-08-09T11:04:10Z</time>
      </trkpt>
      <trkpt lat="42.458838" lon="1.831246">
        <ele>2060.2</ele>
        <time>2013-08-09T11:04:24Z</time>
      </trkpt>
      <trkpt lat="42.458840" lon="1.831243">
        <ele>2060.3</ele>
        <time>2013-08-09T11:04:49Z</time>
      </trkpt>
      <trkpt lat="42.458840" lon="1.831243">
        <ele>2060.3</ele>
        <time>2013-08-09T11:05:14Z</time>
      </trkpt>
      <trkpt lat="42.458832" lon="1.831246">
        <ele>2060.0</ele>
        <time>2013-08-09T11:05:39Z</time>
      </trkpt>
      <trkpt lat="42.458793" lon="1.831265">
        <ele>2058.9</ele>
        <time>2013-08-09T11:05:43Z</time>
      </trkpt>
      <trkpt lat="42.458744" lon="1.831308">
        <ele>2057.5</ele>
        <time>2013-08-09T11:05:48Z</time>
      </trkpt>
      <trkpt lat="42.458718" lon="1.831358">
        <ele>2056.7</ele>
        <time>2013-08-09T11:05:52Z</time>
      </trkpt>
      <trkpt lat="42.458678" lon="1.831383">
        <ele>2056.0</ele>
        <time>2013-08-09T11:05:57Z</time>
      </trkpt>
      <trkpt lat="42.458565" lon="1.831528">
        <ele>2053.0</ele>
        <time>2013-08-09T11:06:11Z</time>
      </trkpt>
      <trkpt lat="42.458487" lon="1.831620">
        <ele>2051.0</ele>
        <time>2013-08-09T11:06:19Z</time>
      </trkpt>
      <trkpt lat="42.458430" lon="1.831679">
        <ele>2049.3</ele>
        <time>2013-08-09T11:06:24Z</time>
      </trkpt>
      <trkpt lat="42.458334" lon="1.831808">
        <ele>2047.3</ele>
        <time>2013-08-09T11:06:36Z</time>
      </trkpt>
      <trkpt lat="42.458257" lon="1.831963">
        <ele>2045.9</ele>
        <time>2013-08-09T11:06:47Z</time>
      </trkpt>
      <trkpt lat="42.458249" lon="1.831998">
        <ele>2045.7</ele>
        <time>2013-08-09T11:06:49Z</time>
      </trkpt>
      <trkpt lat="42.458227" lon="1.832064">
        <ele>2045.1</ele>
        <time>2013-08-09T11:06:53Z</time>
      </trkpt>
      <trkpt lat="42.458155" lon="1.832312">
        <ele>2041.6</ele>
        <time>2013-08-09T11:07:09Z</time>
      </trkpt>
      <trkpt lat="42.458115" lon="1.832420">
        <ele>2039.3</ele>
        <time>2013-08-09T11:07:17Z</time>
      </trkpt>
      <trkpt lat="42.458113" lon="1.832473">
        <ele>2038.4</ele>
        <time>2013-08-09T11:07:21Z</time>
      </trkpt>
      <trkpt lat="42.458099" lon="1.832590">
        <ele>2036.8</ele>
        <time>2013-08-09T11:07:27Z</time>
      </trkpt>
      <trkpt lat="42.458047" lon="1.832779">
        <ele>2034.0</ele>
        <time>2013-08-09T11:07:40Z</time>
      </trkpt>
      <trkpt lat="42.457970" lon="1.832967">
        <ele>2031.7</ele>
        <time>2013-08-09T11:07:53Z</time>
      </trkpt>
      <trkpt lat="42.457908" lon="1.833073">
        <ele>2030.0</ele>
        <time>2013-08-09T11:08:02Z</time>
      </trkpt>
      <trkpt lat="42.457893" lon="1.833112">
        <ele>2029.5</ele>
        <time>2013-08-09T11:08:16Z</time>
      </trkpt>
      <trkpt lat="42.457894" lon="1.833118">
        <ele>2029.5</ele>
        <time>2013-08-09T11:08:54Z</time>
      </trkpt>
      <trkpt lat="42.457849" lon="1.833164">
        <ele>2028.5</ele>
        <time>2013-08-09T11:09:21Z</time>
      </trkpt>
      <trkpt lat="42.457756" lon="1.833324">
        <ele>2025.9</ele>
        <time>2013-08-09T11:09:35Z</time>
      </trkpt>
      <trkpt lat="42.457732" lon="1.833356">
        <ele>2025.4</ele>
        <time>2013-08-09T11:09:38Z</time>
      </trkpt>
      <trkpt lat="42.457648" lon="1.833511">
        <ele>2023.2</ele>
        <time>2013-08-09T11:09:52Z</time>
      </trkpt>
      <trkpt lat="42.457572" lon="1.833659">
        <ele>2021.3</ele>
        <time>2013-08-09T11:10:04Z</time>
      </trkpt>
      <trkpt lat="42.457527" lon="1.833813">
        <ele>2019.6</ele>
        <time>2013-08-09T11:10:15Z</time>
      </trkpt>
      <trkpt lat="42.457523" lon="1.833899">
        <ele>2018.6</ele>
        <time>2013-08-09T11:10:20Z</time>
      </trkpt>
      <trkpt lat="42.457481" lon="1.834093">
        <ele>2015.9</ele>
        <time>2013-08-09T11:10:34Z</time>
      </trkpt>
      <trkpt lat="42.457393" lon="1.834279">
        <ele>2013.2</ele>
        <time>2013-08-09T11:10:48Z</time>
      </trkpt>
      <trkpt lat="42.457315" lon="1.834437">
        <ele>2010.9</ele>
        <time>2013-08-09T11:11:00Z</time>
      </trkpt>
      <trkpt lat="42.457293" lon="1.834529">
        <ele>2009.9</ele>
        <time>2013-08-09T11:11:05Z</time>
      </trkpt>
      <trkpt lat="42.457246" lon="1.834647">
        <ele>2008.4</ele>
        <time>2013-08-09T11:11:14Z</time>
      </trkpt>
      <trkpt lat="42.457154" lon="1.834884">
        <ele>2005.9</ele>
        <time>2013-08-09T11:11:30Z</time>
      </trkpt>
      <trkpt lat="42.457078" lon="1.835082">
        <ele>2003.9</ele>
        <time>2013-08-09T11:11:44Z</time>
      </trkpt>
      <trkpt lat="42.457026" lon="1.835221">
        <ele>2002.3</ele>
        <time>2013-08-09T11:12:00Z</time>
      </trkpt>
      <trkpt lat="42.457028" lon="1.835262">
        <ele>2001.6</ele>
        <time>2013-08-09T11:12:18Z</time>
      </trkpt>
      <trkpt lat="42.456947" lon="1.835509">
        <ele>1998.1</ele>
        <time>2013-08-09T11:12:35Z</time>
      </trkpt>
      <trkpt lat="42.456855" lon="1.835752">
        <ele>1994.9</ele>
        <time>2013-08-09T11:12:50Z</time>
      </trkpt>
      <trkpt lat="42.456789" lon="1.835949">
        <ele>1991.4</ele>
        <time>2013-08-09T11:13:03Z</time>
      </trkpt>
      <trkpt lat="42.456732" lon="1.836064">
        <ele>1989.7</ele>
        <time>2013-08-09T11:13:11Z</time>
      </trkpt>
      <trkpt lat="42.456671" lon="1.836175">
        <ele>1988.6</ele>
        <time>2013-08-09T11:13:20Z</time>
      </trkpt>
      <trkpt lat="42.456628" lon="1.836405">
        <ele>1986.7</ele>
        <time>2013-08-09T11:13:35Z</time>
      </trkpt>
      <trkpt lat="42.456597" lon="1.836524">
        <ele>1985.7</ele>
        <time>2013-08-09T11:13:42Z</time>
      </trkpt>
      <trkpt lat="42.456523" lon="1.836728">
        <ele>1983.9</ele>
        <time>2013-08-09T11:13:56Z</time>
      </trkpt>
      <trkpt lat="42.456478" lon="1.836882">
        <ele>1979.9</ele>
        <time>2013-08-09T11:14:10Z</time>
      </trkpt>
      <trkpt lat="42.456457" lon="1.836946">
        <ele>1978.2</ele>
        <time>2013-08-09T11:14:16Z</time>
      </trkpt>
      <trkpt lat="42.456451" lon="1.836951">
        <ele>1978.1</ele>
        <time>2013-08-09T11:14:17Z</time>
      </trkpt>
      <trkpt lat="42.456435" lon="1.836960">
        <ele>1977.7</ele>
        <time>2013-08-09T11:14:19Z</time>
      </trkpt>
      <trkpt lat="42.456427" lon="1.836966">
        <ele>1977.6</ele>
        <time>2013-08-09T11:14:20Z</time>
      </trkpt>
      <trkpt lat="42.456393" lon="1.837134">
        <ele>1974.2</ele>
        <time>2013-08-09T11:14:34Z</time>
      </trkpt>
      <trkpt lat="42.456383" lon="1.837310">
        <ele>1970.6</ele>
        <time>2013-08-09T11:14:47Z</time>
      </trkpt>
      <trkpt lat="42.456361" lon="1.837382">
        <ele>1969.4</ele>
        <time>2013-08-09T11:14:51Z</time>
      </trkpt>
      <trkpt lat="42.456363" lon="1.837537">
        <ele>1966.8</ele>
        <time>2013-08-09T11:15:03Z</time>
      </trkpt>
      <trkpt lat="42.456365" lon="1.837539">
        <ele>1966.8</ele>
        <time>2013-08-09T11:15:10Z</time>
      </trkpt>
      <trkpt lat="42.456375" lon="1.837660">
        <ele>1964.5</ele>
        <time>2013-08-09T11:15:28Z</time>
      </trkpt>
      <trkpt lat="42.456309" lon="1.837850">
        <ele>1962.1</ele>
        <time>2013-08-09T11:15:40Z</time>
      </trkpt>
      <trkpt lat="42.456297" lon="1.837910">
        <ele>1961.0</ele>
        <time>2013-08-09T11:15:45Z</time>
      </trkpt>
      <trkpt lat="42.456311" lon="1.837977">
        <ele>1959.6</ele>
        <time>2013-08-09T11:15:49Z</time>
      </trkpt>
      <trkpt lat="42.456304" lon="1.838047">
        <ele>1958.5</ele>
        <time>2013-08-09T11:15:53Z</time>
      </trkpt>
      <trkpt lat="42.456268" lon="1.838197">
        <ele>1955.9</ele>
        <time>2013-08-09T11:16:06Z</time>
      </trkpt>
      <trkpt lat="42.456258" lon="1.838258">
        <ele>1954.9</ele>
        <time>2013-08-09T11:16:30Z</time>
      </trkpt>
      <trkpt lat="42.456213" lon="1.838416">
        <ele>1952.1</ele>
        <time>2013-08-09T11:16:45Z</time>
      </trkpt>
      <trkpt lat="42.456161" lon="1.838596">
        <ele>1949.2</ele>
        <time>2013-08-09T11:16:56Z</time>
      </trkpt>
      <trkpt lat="42.456037" lon="1.838803">
        <ele>1946.2</ele>
        <time>2013-08-09T11:17:12Z</time>
      </trkpt>
      <trkpt lat="42.455917" lon="1.838981">
        <ele>1944.1</ele>
        <time>2013-08-09T11:17:26Z</time>
      </trkpt>
      <trkpt lat="42.455858" lon="1.839095">
        <ele>1942.7</ele>
        <time>2013-08-09T11:17:33Z</time>
      </trkpt>
      <trkpt lat="42.455799" lon="1.839349">
        <ele>1939.9</ele>
        <time>2013-08-09T11:17:49Z</time>
      </trkpt>
      <trkpt lat="42.455763" lon="1.839607">
        <ele>1937.2</ele>
        <time>2013-08-09T11:18:05Z</time>
      </trkpt>
      <trkpt lat="42.455724" lon="1.839811">
        <ele>1935.1</ele>
        <time>2013-08-09T11:18:19Z</time>
      </trkpt>
      <trkpt lat="42.455738" lon="1.839894">
        <ele>1934.3</ele>
        <time>2013-08-09T11:18:26Z</time>
      </trkpt>
      <trkpt lat="42.455761" lon="1.839968">
        <ele>1933.5</ele>
        <time>2013-08-09T11:18:30Z</time>
      </trkpt>
      <trkpt lat="42.455854" lon="1.840182">
        <ele>1931.2</ele>
        <time>2013-08-09T11:18:44Z</time>
      </trkpt>
      <trkpt lat="42.455916" lon="1.840341">
        <ele>1929.8</ele>
        <time>2013-08-09T11:18:54Z</time>
      </trkpt>
      <trkpt lat="42.455920" lon="1.840516">
        <ele>1928.0</ele>
        <time>2013-08-09T11:19:02Z</time>
      </trkpt>
      <trkpt lat="42.455935" lon="1.840640">
        <ele>1926.8</ele>
        <time>2013-08-09T11:19:11Z</time>
      </trkpt>
      <trkpt lat="42.455946" lon="1.840751">
        <ele>1925.7</ele>
        <time>2013-08-09T11:19:16Z</time>
      </trkpt>
      <trkpt lat="42.455981" lon="1.841008">
        <ele>1923.6</ele>
        <time>2013-08-09T11:19:31Z</time>
      </trkpt>
      <trkpt lat="42.456002" lon="1.841234">
        <ele>1921.7</ele>
        <time>2013-08-09T11:19:45Z</time>
      </trkpt>
      <trkpt lat="42.455980" lon="1.841337">
        <ele>1920.9</ele>
        <time>2013-08-09T11:19:51Z</time>
      </trkpt>
      <trkpt lat="42.455947" lon="1.841468">
        <ele>1920.0</ele>
        <time>2013-08-09T11:19:58Z</time>
      </trkpt>
      <trkpt lat="42.455912" lon="1.841671">
        <ele>1918.6</ele>
        <time>2013-08-09T11:20:11Z</time>
      </trkpt>
      <trkpt lat="42.455816" lon="1.841944">
        <ele>1916.4</ele>
        <time>2013-08-09T11:20:27Z</time>
      </trkpt>
      <trkpt lat="42.455743" lon="1.842151">
        <ele>1915.4</ele>
        <time>2013-08-09T11:20:41Z</time>
      </trkpt>
      <trkpt lat="42.455660" lon="1.842367">
        <ele>1914.2</ele>
        <time>2013-08-09T11:20:55Z</time>
      </trkpt>
      <trkpt lat="42.455594" lon="1.842582">
        <ele>1912.7</ele>
        <time>2013-08-09T11:21:09Z</time>
      </trkpt>
      <trkpt lat="42.455534" lon="1.842785">
        <ele>1912.0</ele>
        <time>2013-08-09T11:21:22Z</time>
      </trkpt>
      <trkpt lat="42.455442" lon="1.842955">
        <ele>1911.7</ele>
        <time>2013-08-09T11:21:35Z</time>
      </trkpt>
      <trkpt lat="42.455379" lon="1.843024">
        <ele>1911.1</ele>
        <time>2013-08-09T11:21:42Z</time>
      </trkpt>
      <trkpt lat="42.455322" lon="1.843077">
        <ele>1911.1</ele>
        <time>2013-08-09T11:21:55Z</time>
      </trkpt>
      <trkpt lat="42.455292" lon="1.843115">
        <ele>1911.1</ele>
        <time>2013-08-09T11:22:00Z</time>
      </trkpt>
      <trkpt lat="42.455223" lon="1.843320">
        <ele>1911.7</ele>
        <time>2013-08-09T11:22:15Z</time>
      </trkpt>
      <trkpt lat="42.455156" lon="1.843506">
        <ele>1912.0</ele>
        <time>2013-08-09T11:22:29Z</time>
      </trkpt>
      <trkpt lat="42.455096" lon="1.843692">
        <ele>1912.1</ele>
        <time>2013-08-09T11:22:41Z</time>
      </trkpt>
      <trkpt lat="42.455051" lon="1.843930">
        <ele>1912.0</ele>
        <time>2013-08-09T11:22:56Z</time>
      </trkpt>
      <trkpt lat="42.455020" lon="1.844142">
        <ele>1912.3</ele>
        <time>2013-08-09T11:23:10Z</time>
      </trkpt>
      <trkpt lat="42.455010" lon="1.844356">
        <ele>1911.6</ele>
        <time>2013-08-09T11:23:24Z</time>
      </trkpt>
      <trkpt lat="42.454954" lon="1.844522">
        <ele>1910.7</ele>
        <time>2013-08-09T11:23:36Z</time>
      </trkpt>
      <trkpt lat="42.454938" lon="1.844555">
        <ele>1910.6</ele>
        <time>2013-08-09T11:23:38Z</time>
      </trkpt>
      <trkpt lat="42.454922" lon="1.844597">
        <ele>1910.4</ele>
        <time>2013-08-09T11:23:41Z</time>
      </trkpt>
      <trkpt lat="42.454872" lon="1.844724">
        <ele>1909.9</ele>
        <time>2013-08-09T11:23:49Z</time>
      </trkpt>
      <trkpt lat="42.454774" lon="1.844963">
        <ele>1909.2</ele>
        <time>2013-08-09T11:24:04Z</time>
      </trkpt>
      <trkpt lat="42.454683" lon="1.845166">
        <ele>1908.5</ele>
        <time>2013-08-09T11:24:17Z</time>
      </trkpt>
      <trkpt lat="42.454570" lon="1.845371">
        <ele>1907.7</ele>
        <time>2013-08-09T11:24:32Z</time>
      </trkpt>
      <trkpt lat="42.454494" lon="1.845585">
        <ele>1907.0</ele>
        <time>2013-08-09T11:24:47Z</time>
      </trkpt>
      <trkpt lat="42.454444" lon="1.845682">
        <ele>1906.5</ele>
        <time>2013-08-09T11:24:56Z</time>
      </trkpt>
      <trkpt lat="42.454371" lon="1.845860">
        <ele>1905.3</ele>
        <time>2013-08-09T11:25:11Z</time>
      </trkpt>
      <trkpt lat="42.454283" lon="1.846041">
        <ele>1904.1</ele>
        <time>2013-08-09T11:25:26Z</time>
      </trkpt>
      <trkpt lat="42.454163" lon="1.846262">
        <ele>1902.2</ele>
        <time>2013-08-09T11:25:41Z</time>
      </trkpt>
      <trkpt lat="42.454031" lon="1.846369">
        <ele>1900.6</ele>
        <time>2013-08-09T11:25:54Z</time>
      </trkpt>
      <trkpt lat="42.453920" lon="1.846486">
        <ele>1898.8</ele>
        <time>2013-08-09T11:26:05Z</time>
      </trkpt>
      <trkpt lat="42.453747" lon="1.846633">
        <ele>1896.2</ele>
        <time>2013-08-09T11:26:18Z</time>
      </trkpt>
      <trkpt lat="42.453623" lon="1.846666">
        <ele>1894.9</ele>
        <time>2013-08-09T11:26:29Z</time>
      </trkpt>
      <trkpt lat="42.453625" lon="1.846671">
        <ele>1894.9</ele>
        <time>2013-08-09T11:26:50Z</time>
      </trkpt>
      <trkpt lat="42.453609" lon="1.846681">
        <ele>1894.8</ele>
        <time>2013-08-09T11:27:15Z</time>
      </trkpt>
      <trkpt lat="42.453599" lon="1.846709">
        <ele>1894.5</ele>
        <time>2013-08-09T11:27:17Z</time>
      </trkpt>
      <trkpt lat="42.453551" lon="1.846772">
        <ele>1893.8</ele>
        <time>2013-08-09T11:27:30Z</time>
      </trkpt>
      <trkpt lat="42.453551" lon="1.846772">
        <ele>1893.8</ele>
        <time>2013-08-09T11:27:57Z</time>
      </trkpt>
      <trkpt lat="42.453498" lon="1.846799">
        <ele>1893.4</ele>
        <time>2013-08-09T11:28:15Z</time>
      </trkpt>
      <trkpt lat="42.453432" lon="1.846848">
        <ele>1892.8</ele>
        <time>2013-08-09T11:28:22Z</time>
      </trkpt>
      <trkpt lat="42.453349" lon="1.846938">
        <ele>1891.8</ele>
        <time>2013-08-09T11:28:34Z</time>
      </trkpt>
      <trkpt lat="42.453318" lon="1.846974">
        <ele>1891.5</ele>
        <time>2013-08-09T11:28:50Z</time>
      </trkpt>
      <trkpt lat="42.453325" lon="1.846965">
        <ele>1891.6</ele>
        <time>2013-08-09T11:28:54Z</time>
      </trkpt>
      <trkpt lat="42.453390" lon="1.846910">
        <ele>1892.3</ele>
        <time>2013-08-09T11:29:02Z</time>
      </trkpt>
      <trkpt lat="42.453409" lon="1.846918">
        <ele>1892.4</ele>
        <time>2013-08-09T11:29:04Z</time>
      </trkpt>
      <trkpt lat="42.453459" lon="1.847011">
        <ele>1892.4</ele>
        <time>2013-08-09T11:29:13Z</time>
      </trkpt>
      <trkpt lat="42.453449" lon="1.847229">
        <ele>1891.0</ele>
        <time>2013-08-09T11:29:27Z</time>
      </trkpt>
      <trkpt lat="42.453458" lon="1.847402">
        <ele>1890.4</ele>
        <time>2013-08-09T11:29:35Z</time>
      </trkpt>
      <trkpt lat="42.453510" lon="1.847616">
        <ele>1889.9</ele>
        <time>2013-08-09T11:29:49Z</time>
      </trkpt>
      <trkpt lat="42.453532" lon="1.847717">
        <ele>1889.7</ele>
        <time>2013-08-09T11:29:54Z</time>
      </trkpt>
      <trkpt lat="42.453448" lon="1.847910">
        <ele>1888.2</ele>
        <time>2013-08-09T11:30:09Z</time>
      </trkpt>
      <trkpt lat="42.453356" lon="1.848042">
        <ele>1887.8</ele>
        <time>2013-08-09T11:30:21Z</time>
      </trkpt>
      <trkpt lat="42.453352" lon="1.848076">
        <ele>1887.7</ele>
        <time>2013-08-09T11:30:32Z</time>
      </trkpt>
      <trkpt lat="42.453332" lon="1.848138">
        <ele>1887.6</ele>
        <time>2013-08-09T11:30:37Z</time>
      </trkpt>
      <trkpt lat="42.453299" lon="1.848278">
        <ele>1887.6</ele>
        <time>2013-08-09T11:30:45Z</time>
      </trkpt>
      <trkpt lat="42.453266" lon="1.848458">
        <ele>1887.4</ele>
        <time>2013-08-09T11:30:56Z</time>
      </trkpt>
      <trkpt lat="42.453244" lon="1.848560">
        <ele>1887.0</ele>
        <time>2013-08-09T11:31:02Z</time>
      </trkpt>
      <trkpt lat="42.453177" lon="1.848727">
        <ele>1887.0</ele>
        <time>2013-08-09T11:31:14Z</time>
      </trkpt>
      <trkpt lat="42.453171" lon="1.848740">
        <ele>1887.0</ele>
        <time>2013-08-09T11:31:15Z</time>
      </trkpt>
      <trkpt lat="42.453134" lon="1.848792">
        <ele>1886.9</ele>
        <time>2013-08-09T11:31:19Z</time>
      </trkpt>
      <trkpt lat="42.453102" lon="1.848838">
        <ele>1886.8</ele>
        <time>2013-08-09T11:31:23Z</time>
      </trkpt>
      <trkpt lat="42.452993" lon="1.849016">
        <ele>1885.8</ele>
        <time>2013-08-09T11:31:37Z</time>
      </trkpt>
      <trkpt lat="42.452940" lon="1.849096">
        <ele>1885.5</ele>
        <time>2013-08-09T11:31:45Z</time>
      </trkpt>
      <trkpt lat="42.452783" lon="1.849210">
        <ele>1884.3</ele>
        <time>2013-08-09T11:31:59Z</time>
      </trkpt>
      <trkpt lat="42.452647" lon="1.849362">
        <ele>1883.2</ele>
        <time>2013-08-09T11:32:13Z</time>
      </trkpt>
      <trkpt lat="42.452562" lon="1.849480">
        <ele>1882.3</ele>
        <time>2013-08-09T11:32:23Z</time>
      </trkpt>
      <trkpt lat="42.452476" lon="1.849612">
        <ele>1881.2</ele>
        <time>2013-08-09T11:32:35Z</time>
      </trkpt>
      <trkpt lat="42.452418" lon="1.849737">
        <ele>1880.0</ele>
        <time>2013-08-09T11:32:44Z</time>
      </trkpt>
      <trkpt lat="42.452335" lon="1.849920">
        <ele>1877.7</ele>
        <time>2013-08-09T11:32:58Z</time>
      </trkpt>
      <trkpt lat="42.452247" lon="1.850131">
        <ele>1874.7</ele>
        <time>2013-08-09T11:33:13Z</time>
      </trkpt>
      <trkpt lat="42.452136" lon="1.850298">
        <ele>1872.5</ele>
        <time>2013-08-09T11:33:27Z</time>
      </trkpt>
      <trkpt lat="42.452038" lon="1.850425">
        <ele>1871.7</ele>
        <time>2013-08-09T11:33:40Z</time>
      </trkpt>
      <trkpt lat="42.452036" lon="1.850439">
        <ele>1871.5</ele>
        <time>2013-08-09T11:33:44Z</time>
      </trkpt>
      <trkpt lat="42.452066" lon="1.850472">
        <ele>1870.8</ele>
        <time>2013-08-09T11:33:48Z</time>
      </trkpt>
      <trkpt lat="42.452010" lon="1.850629">
        <ele>1868.7</ele>
        <time>2013-08-09T11:34:02Z</time>
      </trkpt>
      <trkpt lat="42.451974" lon="1.850708">
        <ele>1866.8</ele>
        <time>2013-08-09T11:34:15Z</time>
      </trkpt>
      <trkpt lat="42.451964" lon="1.850714">
        <ele>1866.7</ele>
        <time>2013-08-09T11:34:16Z</time>
      </trkpt>
      <trkpt lat="42.451936" lon="1.850747">
        <ele>1866.3</ele>
        <time>2013-08-09T11:34:20Z</time>
      </trkpt>
      <trkpt lat="42.451890" lon="1.850847">
        <ele>1865.3</ele>
        <time>2013-08-09T11:34:29Z</time>
      </trkpt>
      <trkpt lat="42.451875" lon="1.850859">
        <ele>1865.1</ele>
        <time>2013-08-09T11:34:31Z</time>
      </trkpt>
      <trkpt lat="42.451845" lon="1.850902">
        <ele>1864.4</ele>
        <time>2013-08-09T11:34:44Z</time>
      </trkpt>
      <trkpt lat="42.451837" lon="1.850910">
        <ele>1864.1</ele>
        <time>2013-08-09T11:34:47Z</time>
      </trkpt>
      <trkpt lat="42.451815" lon="1.850919">
        <ele>1863.3</ele>
        <time>2013-08-09T11:34:49Z</time>
      </trkpt>
      <trkpt lat="42.451791" lon="1.850921">
        <ele>1862.5</ele>
        <time>2013-08-09T11:34:51Z</time>
      </trkpt>
      <trkpt lat="42.451760" lon="1.850948">
        <ele>1861.2</ele>
        <time>2013-08-09T11:35:04Z</time>
      </trkpt>
      <trkpt lat="42.451760" lon="1.850948">
        <ele>1861.2</ele>
        <time>2013-08-09T11:35:25Z</time>
      </trkpt>
      <trkpt lat="42.451761" lon="1.850946">
        <ele>1861.3</ele>
        <time>2013-08-09T11:35:52Z</time>
      </trkpt>
      <trkpt lat="42.451753" lon="1.850986">
        <ele>1860.3</ele>
        <time>2013-08-09T11:35:58Z</time>
      </trkpt>
      <trkpt lat="42.451717" lon="1.851142">
        <ele>1856.2</ele>
        <time>2013-08-09T11:36:13Z</time>
      </trkpt>
      <trkpt lat="42.451700" lon="1.851187">
        <ele>1854.8</ele>
        <time>2013-08-09T11:36:18Z</time>
      </trkpt>
      <trkpt lat="42.451682" lon="1.851249">
        <ele>1853.1</ele>
        <time>2013-08-09T11:36:23Z</time>
      </trkpt>
      <trkpt lat="42.451647" lon="1.851309">
        <ele>1850.8</ele>
        <time>2013-08-09T11:36:30Z</time>
      </trkpt>
      <trkpt lat="42.451608" lon="1.851504">
        <ele>1845.9</ele>
        <time>2013-08-09T11:36:46Z</time>
      </trkpt>
      <trkpt lat="42.451565" lon="1.851594">
        <ele>1843.2</ele>
        <time>2013-08-09T11:36:55Z</time>
      </trkpt>
      <trkpt lat="42.451550" lon="1.851645">
        <ele>1841.6</ele>
        <time>2013-08-09T11:36:59Z</time>
      </trkpt>
      <trkpt lat="42.451501" lon="1.851726">
        <ele>1838.9</ele>
        <time>2013-08-09T11:37:09Z</time>
      </trkpt>
      <trkpt lat="42.451457" lon="1.851882">
        <ele>1835.0</ele>
        <time>2013-08-09T11:37:24Z</time>
      </trkpt>
      <trkpt lat="42.451405" lon="1.851963">
        <ele>1832.4</ele>
        <time>2013-08-09T11:37:34Z</time>
      </trkpt>
      <trkpt lat="42.451357" lon="1.851996">
        <ele>1830.9</ele>
        <time>2013-08-09T11:37:40Z</time>
      </trkpt>
      <trkpt lat="42.451306" lon="1.852120">
        <ele>1827.7</ele>
        <time>2013-08-09T11:37:52Z</time>
      </trkpt>
      <trkpt lat="42.451295" lon="1.852171">
        <ele>1826.5</ele>
        <time>2013-08-09T11:37:57Z</time>
      </trkpt>
      <trkpt lat="42.451290" lon="1.852184">
        <ele>1826.1</ele>
        <time>2013-08-09T11:38:03Z</time>
      </trkpt>
      <trkpt lat="42.451205" lon="1.852241">
        <ele>1823.2</ele>
        <time>2013-08-09T11:38:18Z</time>
      </trkpt>
      <trkpt lat="42.451211" lon="1.852262">
        <ele>1822.8</ele>
        <time>2013-08-09T11:38:20Z</time>
      </trkpt>
      <trkpt lat="42.451177" lon="1.852392">
        <ele>1818.9</ele>
        <time>2013-08-09T11:38:34Z</time>
      </trkpt>
      <trkpt lat="42.451154" lon="1.852434">
        <ele>1817.7</ele>
        <time>2013-08-09T11:38:39Z</time>
      </trkpt>
      <trkpt lat="42.451107" lon="1.852515">
        <ele>1815.1</ele>
        <time>2013-08-09T11:38:49Z</time>
      </trkpt>
      <trkpt lat="42.451076" lon="1.852664">
        <ele>1811.9</ele>
        <time>2013-08-09T11:39:01Z</time>
      </trkpt>
      <trkpt lat="42.451080" lon="1.852755">
        <ele>1810.4</ele>
        <time>2013-08-09T11:39:18Z</time>
      </trkpt>
      <trkpt lat="42.451082" lon="1.852941">
        <ele>1807.0</ele>
        <time>2013-08-09T11:39:32Z</time>
      </trkpt>
      <trkpt lat="42.451042" lon="1.853074">
        <ele>1804.4</ele>
        <time>2013-08-09T11:39:40Z</time>
      </trkpt>
      <trkpt lat="42.451028" lon="1.853101">
        <ele>1804.0</ele>
        <time>2013-08-09T11:39:42Z</time>
      </trkpt>
      <trkpt lat="42.450931" lon="1.853284">
        <ele>1801.0</ele>
        <time>2013-08-09T11:39:57Z</time>
      </trkpt>
      <trkpt lat="42.450885" lon="1.853574">
        <ele>1797.3</ele>
        <time>2013-08-09T11:40:15Z</time>
      </trkpt>
      <trkpt lat="42.450894" lon="1.853792">
        <ele>1794.2</ele>
        <time>2013-08-09T11:40:27Z</time>
      </trkpt>
      <trkpt lat="42.450891" lon="1.853987">
        <ele>1791.6</ele>
        <time>2013-08-09T11:40:40Z</time>
      </trkpt>
      <trkpt lat="42.450868" lon="1.854244">
        <ele>1787.1</ele>
        <time>2013-08-09T11:40:58Z</time>
      </trkpt>
      <trkpt lat="42.450809" lon="1.854401">
        <ele>1784.3</ele>
        <time>2013-08-09T11:41:11Z</time>
      </trkpt>
      <trkpt lat="42.450784" lon="1.854506">
        <ele>1782.8</ele>
        <time>2013-08-09T11:41:18Z</time>
      </trkpt>
      <trkpt lat="42.450780" lon="1.854538">
        <ele>1782.3</ele>
        <time>2013-08-09T11:41:21Z</time>
      </trkpt>
      <trkpt lat="42.450770" lon="1.854653">
        <ele>1780.6</ele>
        <time>2013-08-09T11:41:28Z</time>
      </trkpt>
      <trkpt lat="42.450725" lon="1.854823">
        <ele>1777.4</ele>
        <time>2013-08-09T11:41:41Z</time>
      </trkpt>
      <trkpt lat="42.450698" lon="1.854990">
        <ele>1774.3</ele>
        <time>2013-08-09T11:41:54Z</time>
      </trkpt>
      <trkpt lat="42.450658" lon="1.855219">
        <ele>1772.3</ele>
        <time>2013-08-09T11:42:08Z</time>
      </trkpt>
      <trkpt lat="42.450651" lon="1.855269">
        <ele>1771.8</ele>
        <time>2013-08-09T11:42:11Z</time>
      </trkpt>
      <trkpt lat="42.450596" lon="1.855473">
        <ele>1768.5</ele>
        <time>2013-08-09T11:42:26Z</time>
      </trkpt>
      <trkpt lat="42.450502" lon="1.855682">
        <ele>1765.0</ele>
        <time>2013-08-09T11:42:42Z</time>
      </trkpt>
      <trkpt lat="42.450453" lon="1.855775">
        <ele>1763.3</ele>
        <time>2013-08-09T11:42:54Z</time>
      </trkpt>
      <trkpt lat="42.450453" lon="1.855777">
        <ele>1763.3</ele>
        <time>2013-08-09T11:43:15Z</time>
      </trkpt>
      <trkpt lat="42.450445" lon="1.855815">
        <ele>1762.8</ele>
        <time>2013-08-09T11:43:32Z</time>
      </trkpt>
      <trkpt lat="42.450407" lon="1.856030">
        <ele>1761.3</ele>
        <time>2013-08-09T11:43:47Z</time>
      </trkpt>
      <trkpt lat="42.450390" lon="1.856171">
        <ele>1760.2</ele>
        <time>2013-08-09T11:43:58Z</time>
      </trkpt>
      <trkpt lat="42.450386" lon="1.856222">
        <ele>1760.0</ele>
        <time>2013-08-09T11:44:02Z</time>
      </trkpt>
      <trkpt lat="42.450354" lon="1.856407">
        <ele>1759.0</ele>
        <time>2013-08-09T11:44:15Z</time>
      </trkpt>
      <trkpt lat="42.450345" lon="1.856430">
        <ele>1758.8</ele>
        <time>2013-08-09T11:44:17Z</time>
      </trkpt>
      <trkpt lat="42.450298" lon="1.856641">
        <ele>1758.4</ele>
        <time>2013-08-09T11:44:31Z</time>
      </trkpt>
      <trkpt lat="42.450258" lon="1.856810">
        <ele>1758.6</ele>
        <time>2013-08-09T11:44:43Z</time>
      </trkpt>
      <trkpt lat="42.450205" lon="1.856974">
        <ele>1758.2</ele>
        <time>2013-08-09T11:44:55Z</time>
      </trkpt>
      <trkpt lat="42.450199" lon="1.856984">
        <ele>1758.2</ele>
        <time>2013-08-09T11:44:56Z</time>
      </trkpt>
      <trkpt lat="42.450138" lon="1.857138">
        <ele>1757.7</ele>
        <time>2013-08-09T11:45:07Z</time>
      </trkpt>
      <trkpt lat="42.450063" lon="1.857349">
        <ele>1756.6</ele>
        <time>2013-08-09T11:45:22Z</time>
      </trkpt>
      <trkpt lat="42.450054" lon="1.857443">
        <ele>1756.2</ele>
        <time>2013-08-09T11:45:28Z</time>
      </trkpt>
      <trkpt lat="42.450049" lon="1.857526">
        <ele>1755.9</ele>
        <time>2013-08-09T11:45:33Z</time>
      </trkpt>
      <trkpt lat="42.450040" lon="1.857724">
        <ele>1755.3</ele>
        <time>2013-08-09T11:45:46Z</time>
      </trkpt>
      <trkpt lat="42.450012" lon="1.857893">
        <ele>1754.1</ele>
        <time>2013-08-09T11:45:57Z</time>
      </trkpt>
      <trkpt lat="42.450031" lon="1.858013">
        <ele>1752.7</ele>
        <time>2013-08-09T11:46:05Z</time>
      </trkpt>
      <trkpt lat="42.450031" lon="1.858043">
        <ele>1752.5</ele>
        <time>2013-08-09T11:46:07Z</time>
      </trkpt>
      <trkpt lat="42.450209" lon="1.858583">
        <ele>1745.3</ele>
        <time>1970-01-01T00:00:00Z</time>
      </trkpt>
      <trkpt lat="42.450335" lon="1.859243">
        <ele>1740.7</ele>
        <time>1970-01-01T00:00:00Z</time>
      </trkpt>
      <trkpt lat="42.450215" lon="1.859886">
        <ele>1731.8</ele>
        <time>1970-01-01T00:00:00Z</time>
      </trkpt>
      <trkpt lat="42.450077" lon="1.860332">
        <ele>1726.4</ele>
        <time>1970-01-01T00:00:00Z</time>
      </trkpt>
      <trkpt lat="42.449980" lon="1.860572">
        <ele>1724.3</ele>
        <time>2013-08-09T11:50:33Z</time>
      </trkpt>
      <trkpt lat="42.449980" lon="1.860572">
        <ele>1724.3</ele>
        <time>2013-08-09T11:51:00Z</time>
      </trkpt>
      <trkpt lat="42.449980" lon="1.860572">
        <ele>1724.3</ele>
        <time>2013-08-09T11:51:02Z</time>
      </trkpt>
      <trkpt lat="42.449969" lon="1.860620">
        <ele>1723.7</ele>
        <time>2013-08-09T11:51:08Z</time>
      </trkpt>
      <trkpt lat="42.449911" lon="1.860695">
        <ele>1721.6</ele>
        <time>2013-08-09T11:51:18Z</time>
      </trkpt>
      <trkpt lat="42.449885" lon="1.860771">
        <ele>1719.7</ele>
        <time>2013-08-09T11:51:29Z</time>
      </trkpt>
      <trkpt lat="42.449878" lon="1.860836">
        <ele>1718.3</ele>
        <time>2013-08-09T11:51:33Z</time>
      </trkpt>
      <trkpt lat="42.449840" lon="1.860929">
        <ele>1716.0</ele>
        <time>2013-08-09T11:51:44Z</time>
      </trkpt>
      <trkpt lat="42.449820" lon="1.861014">
        <ele>1714.0</ele>
        <time>2013-08-09T11:51:51Z</time>
      </trkpt>
      <trkpt lat="42.449838" lon="1.861105">
        <ele>1712.4</ele>
        <time>2013-08-09T11:52:03Z</time>
      </trkpt>
      <trkpt lat="42.449849" lon="1.861129">
        <ele>1711.9</ele>
        <time>2013-08-09T11:52:13Z</time>
      </trkpt>
      <trkpt lat="42.449849" lon="1.861129">
        <ele>1711.9</ele>
        <time>2013-08-09T11:52:36Z</time>
      </trkpt>
      <trkpt lat="42.449853" lon="1.861145">
        <ele>1711.5</ele>
        <time>2013-08-09T11:52:57Z</time>
      </trkpt>
      <trkpt lat="42.449934" lon="1.861299">
        <ele>1707.1</ele>
        <time>2013-08-09T11:53:11Z</time>
      </trkpt>
      <trkpt lat="42.449965" lon="1.861362">
        <ele>1705.6</ele>
        <time>2013-08-09T11:53:16Z</time>
      </trkpt>
      <trkpt lat="42.450029" lon="1.861446">
        <ele>1702.4</ele>
        <time>2013-08-09T11:53:25Z</time>
      </trkpt>
      <trkpt lat="42.450061" lon="1.861448">
        <ele>1701.6</ele>
        <time>2013-08-09T11:53:30Z</time>
      </trkpt>
      <trkpt lat="42.450080" lon="1.861467">
        <ele>1701.0</ele>
        <time>2013-08-09T11:53:33Z</time>
      </trkpt>
      <trkpt lat="42.450113" lon="1.861522">
        <ele>1699.2</ele>
        <time>2013-08-09T11:53:38Z</time>
      </trkpt>
      <trkpt lat="42.450094" lon="1.861655">
        <ele>1695.3</ele>
        <time>2013-08-09T11:53:50Z</time>
      </trkpt>
      <trkpt lat="42.450182" lon="1.861743">
        <ele>1691.9</ele>
        <time>2013-08-09T11:54:01Z</time>
      </trkpt>
      <trkpt lat="42.450208" lon="1.861814">
        <ele>1689.7</ele>
        <time>2013-08-09T11:54:07Z</time>
      </trkpt>
      <trkpt lat="42.450199" lon="1.861874">
        <ele>1688.2</ele>
        <time>2013-08-09T11:54:13Z</time>
      </trkpt>
      <trkpt lat="42.450171" lon="1.861962">
        <ele>1685.8</ele>
        <time>2013-08-09T11:54:22Z</time>
      </trkpt>
      <trkpt lat="42.450167" lon="1.862092">
        <ele>1682.7</ele>
        <time>2013-08-09T11:54:31Z</time>
      </trkpt>
      <trkpt lat="42.450185" lon="1.862169">
        <ele>1680.7</ele>
        <time>2013-08-09T11:54:38Z</time>
      </trkpt>
      <trkpt lat="42.450185" lon="1.862176">
        <ele>1680.6</ele>
        <time>2013-08-09T11:54:39Z</time>
      </trkpt>
      <trkpt lat="42.450174" lon="1.862209">
        <ele>1679.8</ele>
        <time>2013-08-09T11:54:43Z</time>
      </trkpt>
      <trkpt lat="42.450184" lon="1.862258">
        <ele>1678.3</ele>
        <time>2013-08-09T11:54:48Z</time>
      </trkpt>
      <trkpt lat="42.450173" lon="1.862324">
        <ele>1676.8</ele>
        <time>2013-08-09T11:55:05Z</time>
      </trkpt>
      <trkpt lat="42.450173" lon="1.862324">
        <ele>1676.8</ele>
        <time>2013-08-09T11:55:29Z</time>
      </trkpt>
      <trkpt lat="42.450179" lon="1.862373">
        <ele>1675.6</ele>
        <time>2013-08-09T11:55:53Z</time>
      </trkpt>
      <trkpt lat="42.450189" lon="1.862456">
        <ele>1673.2</ele>
        <time>2013-08-09T11:56:06Z</time>
      </trkpt>
      <trkpt lat="42.450232" lon="1.862564">
        <ele>1669.1</ele>
        <time>2013-08-09T11:56:18Z</time>
      </trkpt>
      <trkpt lat="42.450264" lon="1.862637">
        <ele>1666.2</ele>
        <time>2013-08-09T11:56:26Z</time>
      </trkpt>
      <trkpt lat="42.450271" lon="1.862673">
        <ele>1665.0</ele>
        <time>2013-08-09T11:56:30Z</time>
      </trkpt>
      <trkpt lat="42.450269" lon="1.862699">
        <ele>1664.3</ele>
        <time>2013-08-09T11:56:33Z</time>
      </trkpt>
      <trkpt lat="42.450253" lon="1.862777">
        <ele>1662.3</ele>
        <time>2013-08-09T11:56:43Z</time>
      </trkpt>
      <trkpt lat="42.450167" lon="1.862823">
        <ele>1659.8</ele>
        <time>2013-08-09T11:56:57Z</time>
      </trkpt>
      <trkpt lat="42.450144" lon="1.862851">
        <ele>1658.7</ele>
        <time>2013-08-09T11:57:00Z</time>
      </trkpt>
      <trkpt lat="42.450133" lon="1.862880">
        <ele>1657.8</ele>
        <time>2013-08-09T11:57:03Z</time>
      </trkpt>
      <trkpt lat="42.450108" lon="1.862983">
        <ele>1655.0</ele>
        <time>2013-08-09T11:57:12Z</time>
      </trkpt>
      <trkpt lat="42.450099" lon="1.863023">
        <ele>1653.7</ele>
        <time>2013-08-09T11:57:16Z</time>
      </trkpt>
      <trkpt lat="42.450083" lon="1.863159">
        <ele>1649.6</ele>
        <time>2013-08-09T11:57:31Z</time>
      </trkpt>
      <trkpt lat="42.450081" lon="1.863205">
        <ele>1648.2</ele>
        <time>2013-08-09T11:57:35Z</time>
      </trkpt>
      <trkpt lat="42.450061" lon="1.863361">
        <ele>1644.9</ele>
        <time>2013-08-09T11:57:47Z</time>
      </trkpt>
      <trkpt lat="42.450038" lon="1.863490">
        <ele>1642.0</ele>
        <time>2013-08-09T11:57:59Z</time>
      </trkpt>
      <trkpt lat="42.450045" lon="1.863630">
        <ele>1638.7</ele>
        <time>2013-08-09T11:58:12Z</time>
      </trkpt>
      <trkpt lat="42.450046" lon="1.863757">
        <ele>1636.2</ele>
        <time>2013-08-09T11:58:24Z</time>
      </trkpt>
      <trkpt lat="42.450050" lon="1.863767">
        <ele>1635.9</ele>
        <time>2013-08-09T11:58:25Z</time>
      </trkpt>
      <trkpt lat="42.450044" lon="1.863964">
        <ele>1632.3</ele>
        <time>2013-08-09T11:58:41Z</time>
      </trkpt>
      <trkpt lat="42.450043" lon="1.863977">
        <ele>1632.0</ele>
        <time>2013-08-09T11:58:43Z</time>
      </trkpt>
      <trkpt lat="42.450029" lon="1.864053">
        <ele>1630.3</ele>
        <time>2013-08-09T11:59:00Z</time>
      </trkpt>
      <trkpt lat="42.450029" lon="1.864053">
        <ele>1630.3</ele>
        <time>2013-08-09T11:59:25Z</time>
      </trkpt>
      <trkpt lat="42.450032" lon="1.864055">
        <ele>1630.2</ele>
        <time>2013-08-09T12:00:03Z</time>
      </trkpt>
      <trkpt lat="42.450028" lon="1.864116">
        <ele>1628.6</ele>
        <time>2013-08-09T12:00:14Z</time>
      </trkpt>
      <trkpt lat="42.450081" lon="1.864263">
        <ele>1623.7</ele>
        <time>2013-08-09T12:00:29Z</time>
      </trkpt>
      <trkpt lat="42.450088" lon="1.864386">
        <ele>1620.5</ele>
        <time>2013-08-09T12:00:42Z</time>
      </trkpt>
      <trkpt lat="42.450088" lon="1.864433">
        <ele>1619.5</ele>
        <time>2013-08-09T12:00:46Z</time>
      </trkpt>
      <trkpt lat="42.450089" lon="1.864623">
        <ele>1615.7</ele>
        <time>2013-08-09T12:01:00Z</time>
      </trkpt>
      <trkpt lat="42.450116" lon="1.864774">
        <ele>1612.5</ele>
        <time>2013-08-09T12:01:13Z</time>
      </trkpt>
      <trkpt lat="42.450194" lon="1.864889">
        <ele>1609.0</ele>
        <time>2013-08-09T12:01:25Z</time>
      </trkpt>
      <trkpt lat="42.450212" lon="1.864897">
        <ele>1608.5</ele>
        <time>2013-08-09T12:01:27Z</time>
      </trkpt>
      <trkpt lat="42.450226" lon="1.864951">
        <ele>1607.3</ele>
        <time>2013-08-09T12:01:32Z</time>
      </trkpt>
      <trkpt lat="42.450248" lon="1.865018">
        <ele>1606.0</ele>
        <time>2013-08-09T12:01:37Z</time>
      </trkpt>
      <trkpt lat="42.450267" lon="1.865127">
        <ele>1603.9</ele>
        <time>2013-08-09T12:01:47Z</time>
      </trkpt>
      <trkpt lat="42.450258" lon="1.865160">
        <ele>1603.5</ele>
        <time>2013-08-09T12:01:50Z</time>
      </trkpt>
      <trkpt lat="42.450251" lon="1.865323">
        <ele>1601.2</ele>
        <time>2013-08-09T12:02:02Z</time>
      </trkpt>
      <trkpt lat="42.450232" lon="1.865527">
        <ele>1599.1</ele>
        <time>2013-08-09T12:02:17Z</time>
      </trkpt>
      <trkpt lat="42.450231" lon="1.865537">
        <ele>1599.0</ele>
        <time>2013-08-09T12:02:18Z</time>
      </trkpt>
      <trkpt lat="42.450226" lon="1.865756">
        <ele>1596.0</ele>
        <time>2013-08-09T12:02:32Z</time>
      </trkpt>
      <trkpt lat="42.450220" lon="1.865832">
        <ele>1595.3</ele>
        <time>2013-08-09T12:02:38Z</time>
      </trkpt>
      <trkpt lat="42.450211" lon="1.865856">
        <ele>1594.9</ele>
        <time>2013-08-09T12:02:40Z</time>
      </trkpt>
      <trkpt lat="42.450164" lon="1.865964">
        <ele>1593.5</ele>
        <time>2013-08-09T12:02:49Z</time>
      </trkpt>
      <trkpt lat="42.450136" lon="1.866006">
        <ele>1593.1</ele>
        <time>2013-08-09T12:02:53Z</time>
      </trkpt>
      <trkpt lat="42.450075" lon="1.866144">
        <ele>1590.5</ele>
        <time>2013-08-09T12:03:08Z</time>
      </trkpt>
      <trkpt lat="42.450042" lon="1.866273">
        <ele>1588.0</ele>
        <time>2013-08-09T12:03:20Z</time>
      </trkpt>
      <trkpt lat="42.450033" lon="1.866366">
        <ele>1586.2</ele>
        <time>2013-08-09T12:03:28Z</time>
      </trkpt>
      <trkpt lat="42.449997" lon="1.866532">
        <ele>1581.3</ele>
        <time>2013-08-09T12:03:43Z</time>
      </trkpt>
      <trkpt lat="42.449995" lon="1.866574">
        <ele>1580.5</ele>
        <time>2013-08-09T12:03:47Z</time>
      </trkpt>
      <trkpt lat="42.449966" lon="1.866644">
        <ele>1579.5</ele>
        <time>2013-08-09T12:03:54Z</time>
      </trkpt>
      <trkpt lat="42.449980" lon="1.866767">
        <ele>1576.6</ele>
        <time>2013-08-09T12:04:04Z</time>
      </trkpt>
      <trkpt lat="42.449997" lon="1.866805">
        <ele>1575.7</ele>
        <time>2013-08-09T12:04:08Z</time>
      </trkpt>
      <trkpt lat="42.450002" lon="1.866810">
        <ele>1575.6</ele>
        <time>2013-08-09T12:04:10Z</time>
      </trkpt>
      <trkpt lat="42.450002" lon="1.866810">
        <ele>1575.6</ele>
        <time>2013-08-09T12:04:11Z</time>
      </trkpt>
      <trkpt lat="42.450013" lon="1.866945">
        <ele>1572.2</ele>
        <time>2013-08-09T12:04:24Z</time>
      </trkpt>
      <trkpt lat="42.450018" lon="1.867036">
        <ele>1570.5</ele>
        <time>2013-08-09T12:04:31Z</time>
      </trkpt>
      <trkpt lat="42.450031" lon="1.867165">
        <ele>1567.5</ele>
        <time>2013-08-09T12:04:44Z</time>
      </trkpt>
      <trkpt lat="42.450046" lon="1.867289">
        <ele>1565.3</ele>
        <time>2013-08-09T12:04:57Z</time>
      </trkpt>
      <trkpt lat="42.450046" lon="1.867307">
        <ele>1564.9</ele>
        <time>2013-08-09T12:04:59Z</time>
      </trkpt>
      <trkpt lat="42.450046" lon="1.867351">
        <ele>1563.9</ele>
        <time>2013-08-09T12:05:03Z</time>
      </trkpt>
      <trkpt lat="42.450057" lon="1.867383">
        <ele>1563.0</ele>
        <time>2013-08-09T12:05:20Z</time>
      </trkpt>
      <trkpt lat="42.450049" lon="1.867430">
        <ele>1561.8</ele>
        <time>2013-08-09T12:05:36Z</time>
      </trkpt>
      <trkpt lat="42.450059" lon="1.867476">
        <ele>1560.2</ele>
        <time>2013-08-09T12:05:47Z</time>
      </trkpt>
      <trkpt lat="42.450078" lon="1.867555">
        <ele>1557.4</ele>
        <time>2013-08-09T12:06:00Z</time>
      </trkpt>
      <trkpt lat="42.450090" lon="1.867597">
        <ele>1556.3</ele>
        <time>2013-08-09T12:06:04Z</time>
      </trkpt>
      <trkpt lat="42.450095" lon="1.867622">
        <ele>1555.7</ele>
        <time>2013-08-09T12:06:06Z</time>
      </trkpt>
      <trkpt lat="42.450124" lon="1.867736">
        <ele>1553.3</ele>
        <time>2013-08-09T12:06:15Z</time>
      </trkpt>
      <trkpt lat="42.450146" lon="1.867879">
        <ele>1550.2</ele>
        <time>2013-08-09T12:06:28Z</time>
      </trkpt>
      <trkpt lat="42.450153" lon="1.868013">
        <ele>1546.9</ele>
        <time>2013-08-09T12:06:41Z</time>
      </trkpt>
      <trkpt lat="42.450153" lon="1.868020">
        <ele>1546.8</ele>
        <time>2013-08-09T12:06:42Z</time>
      </trkpt>
      <trkpt lat="42.450152" lon="1.868090">
        <ele>1545.3</ele>
        <time>2013-08-09T12:06:47Z</time>
      </trkpt>
      <trkpt lat="42.450172" lon="1.868238">
        <ele>1542.3</ele>
        <time>2013-08-09T12:06:59Z</time>
      </trkpt>
      <trkpt lat="42.450185" lon="1.868357">
        <ele>1540.4</ele>
        <time>2013-08-09T12:07:07Z</time>
      </trkpt>
      <trkpt lat="42.450200" lon="1.868439">
        <ele>1539.3</ele>
        <time>2013-08-09T12:07:14Z</time>
      </trkpt>
      <trkpt lat="42.450217" lon="1.868460">
        <ele>1538.9</ele>
        <time>2013-08-09T12:07:16Z</time>
      </trkpt>
      <trkpt lat="42.450249" lon="1.868615">
        <ele>1535.1</ele>
        <time>2013-08-09T12:07:28Z</time>
      </trkpt>
      <trkpt lat="42.450283" lon="1.868739">
        <ele>1532.4</ele>
        <time>2013-08-09T12:07:38Z</time>
      </trkpt>
      <trkpt lat="42.450280" lon="1.868793">
        <ele>1531.5</ele>
        <time>2013-08-09T12:07:42Z</time>
      </trkpt>
      <trkpt lat="42.450268" lon="1.868975">
        <ele>1528.2</ele>
        <time>2013-08-09T12:07:55Z</time>
      </trkpt>
      <trkpt lat="42.450249" lon="1.869175">
        <ele>1524.9</ele>
        <time>2013-08-09T12:08:09Z</time>
      </trkpt>
      <trkpt lat="42.450246" lon="1.869218">
        <ele>1524.1</ele>
        <time>2013-08-09T12:08:12Z</time>
      </trkpt>
      <trkpt lat="42.450230" lon="1.869411">
        <ele>1520.8</ele>
        <time>2013-08-09T12:08:25Z</time>
      </trkpt>
      <trkpt lat="42.450245" lon="1.869610">
        <ele>1517.6</ele>
        <time>2013-08-09T12:08:38Z</time>
      </trkpt>
      <trkpt lat="42.450269" lon="1.869790">
        <ele>1514.6</ele>
        <time>2013-08-09T12:08:51Z</time>
      </trkpt>
      <trkpt lat="42.450302" lon="1.869930">
        <ele>1512.4</ele>
        <time>2013-08-09T12:09:04Z</time>
      </trkpt>
      <trkpt lat="42.450300" lon="1.869934">
        <ele>1512.3</ele>
        <time>2013-08-09T12:09:08Z</time>
      </trkpt>
      <trkpt lat="42.450313" lon="1.870065">
        <ele>1509.9</ele>
        <time>2013-08-09T12:09:20Z</time>
      </trkpt>
      <trkpt lat="42.450321" lon="1.870113">
        <ele>1509.0</ele>
        <time>2013-08-09T12:09:23Z</time>
      </trkpt>
      <trkpt lat="42.450363" lon="1.870259">
        <ele>1506.3</ele>
        <time>2013-08-09T12:09:36Z</time>
      </trkpt>
      <trkpt lat="42.450382" lon="1.870409">
        <ele>1503.5</ele>
        <time>2013-08-09T12:09:47Z</time>
      </trkpt>
      <trkpt lat="42.450387" lon="1.870428">
        <ele>1503.1</ele>
        <time>2013-08-09T12:09:49Z</time>
      </trkpt>
      <trkpt lat="42.450349" lon="1.870574">
        <ele>1500.0</ele>
        <time>2013-08-09T12:10:01Z</time>
      </trkpt>
      <trkpt lat="42.450351" lon="1.870624">
        <ele>1499.0</ele>
        <time>2013-08-09T12:10:05Z</time>
      </trkpt>
      <trkpt lat="42.450342" lon="1.870796">
        <ele>1495.4</ele>
        <time>2013-08-09T12:10:19Z</time>
      </trkpt>
      <trkpt lat="42.450335" lon="1.870998">
        <ele>1491.3</ele>
        <time>2013-08-09T12:10:34Z</time>
      </trkpt>
      <trkpt lat="42.450327" lon="1.871168">
        <ele>1488.3</ele>
        <time>2013-08-09T12:10:46Z</time>
      </trkpt>
      <trkpt lat="42.450326" lon="1.871216">
        <ele>1487.5</ele>
        <time>2013-08-09T12:10:50Z</time>
      </trkpt>
      <trkpt lat="42.450326" lon="1.871277">
        <ele>1486.7</ele>
        <time>2013-08-09T12:10:54Z</time>
      </trkpt>
      <trkpt lat="42.450324" lon="1.871443">
        <ele>1484.4</ele>
        <time>2013-08-09T12:11:05Z</time>
      </trkpt>
      <trkpt lat="42.450330" lon="1.871519">
        <ele>1483.2</ele>
        <time>2013-08-09T12:11:18Z</time>
      </trkpt>
      <trkpt lat="42.450330" lon="1.871519">
        <ele>1483.2</ele>
        <time>2013-08-09T12:11:26Z</time>
      </trkpt>
      <trkpt lat="42.450341" lon="1.871594">
        <ele>1482.6</ele>
        <time>2013-08-09T12:11:32Z</time>
      </trkpt>
      <trkpt lat="42.450344" lon="1.871669">
        <ele>1482.0</ele>
        <time>2013-08-09T12:11:37Z</time>
      </trkpt>
      <trkpt lat="42.450343" lon="1.871713">
        <ele>1481.4</ele>
        <time>2013-08-09T12:11:45Z</time>
      </trkpt>
      <trkpt lat="42.450315" lon="1.871887">
        <ele>1478.8</ele>
        <time>2013-08-09T12:11:58Z</time>
      </trkpt>
      <trkpt lat="42.450307" lon="1.871908">
        <ele>1478.4</ele>
        <time>2013-08-09T12:12:00Z</time>
      </trkpt>
      <trkpt lat="42.450258" lon="1.871967">
        <ele>1476.7</ele>
        <time>2013-08-09T12:12:07Z</time>
      </trkpt>
      <trkpt lat="42.450243" lon="1.872004">
        <ele>1476.1</ele>
        <time>2013-08-09T12:12:10Z</time>
      </trkpt>
      <trkpt lat="42.450213" lon="1.872120">
        <ele>1473.6</ele>
        <time>2013-08-09T12:12:19Z</time>
      </trkpt>
      <trkpt lat="42.450211" lon="1.872195">
        <ele>1471.9</ele>
        <time>2013-08-09T12:12:27Z</time>
      </trkpt>
      <trkpt lat="42.450212" lon="1.872216">
        <ele>1471.4</ele>
        <time>2013-08-09T12:12:29Z</time>
      </trkpt>
      <trkpt lat="42.450215" lon="1.872281">
        <ele>1469.8</ele>
        <time>2013-08-09T12:12:35Z</time>
      </trkpt>
      <trkpt lat="42.450219" lon="1.872393">
        <ele>1467.5</ele>
        <time>2013-08-09T12:12:46Z</time>
      </trkpt>
      <trkpt lat="42.450222" lon="1.872441">
        <ele>1466.4</ele>
        <time>2013-08-09T12:12:51Z</time>
      </trkpt>
      <trkpt lat="42.450237" lon="1.872521">
        <ele>1464.8</ele>
        <time>2013-08-09T12:12:57Z</time>
      </trkpt>
      <trkpt lat="42.450243" lon="1.872621">
        <ele>1463.7</ele>
        <time>2013-08-09T12:13:05Z</time>
      </trkpt>
      <trkpt lat="42.450283" lon="1.872780">
        <ele>1460.8</ele>
        <time>2013-08-09T12:13:18Z</time>
      </trkpt>
      <trkpt lat="42.450300" lon="1.872915">
        <ele>1457.1</ele>
        <time>2013-08-09T12:13:31Z</time>
      </trkpt>
      <trkpt lat="42.450351" lon="1.873040">
        <ele>1454.1</ele>
        <time>2013-08-09T12:13:44Z</time>
      </trkpt>
      <trkpt lat="42.450360" lon="1.873099">
        <ele>1452.9</ele>
        <time>2013-08-09T12:13:50Z</time>
      </trkpt>
      <trkpt lat="42.450368" lon="1.873267">
        <ele>1450.0</ele>
        <time>2013-08-09T12:14:01Z</time>
      </trkpt>
      <trkpt lat="42.450367" lon="1.873353">
        <ele>1448.4</ele>
        <time>2013-08-09T12:14:08Z</time>
      </trkpt>
      <trkpt lat="42.450395" lon="1.873469">
        <ele>1446.4</ele>
        <time>2013-08-09T12:14:17Z</time>
      </trkpt>
      <trkpt lat="42.450428" lon="1.873602">
        <ele>1444.4</ele>
        <time>2013-08-09T12:14:27Z</time>
      </trkpt>
      <trkpt lat="42.450460" lon="1.873756">
        <ele>1441.8</ele>
        <time>2013-08-09T12:14:36Z</time>
      </trkpt>
      <trkpt lat="42.450550" lon="1.873964">
        <ele>1438.9</ele>
        <time>2013-08-09T12:14:51Z</time>
      </trkpt>
      <trkpt lat="42.450585" lon="1.874022">
        <ele>1438.3</ele>
        <time>2013-08-09T12:14:55Z</time>
      </trkpt>
      <trkpt lat="42.450574" lon="1.874248">
        <ele>1434.5</ele>
        <time>2013-08-09T12:15:10Z</time>
      </trkpt>
      <trkpt lat="42.450552" lon="1.874333">
        <ele>1433.0</ele>
        <time>2013-08-09T12:15:18Z</time>
      </trkpt>
      <trkpt lat="42.450531" lon="1.874548">
        <ele>1430.1</ele>
        <time>2013-08-09T12:15:31Z</time>
      </trkpt>
      <trkpt lat="42.450529" lon="1.874567">
        <ele>1429.8</ele>
        <time>2013-08-09T12:15:33Z</time>
      </trkpt>
      <trkpt lat="42.450514" lon="1.874632">
        <ele>1428.8</ele>
        <time>2013-08-09T12:15:37Z</time>
      </trkpt>
      <trkpt lat="42.450453" lon="1.874859">
        <ele>1426.1</ele>
        <time>2013-08-09T12:15:53Z</time>
      </trkpt>
      <trkpt lat="42.450448" lon="1.874871">
        <ele>1426.0</ele>
        <time>2013-08-09T12:15:54Z</time>
      </trkpt>
      <trkpt lat="42.450306" lon="1.875143">
        <ele>1422.7</ele>
        <time>2013-08-09T12:16:11Z</time>
      </trkpt>
      <trkpt lat="42.450281" lon="1.875219">
        <ele>1422.4</ele>
        <time>2013-08-09T12:16:23Z</time>
      </trkpt>
      <trkpt lat="42.450259" lon="1.875271">
        <ele>1421.8</ele>
        <time>2013-08-09T12:16:41Z</time>
      </trkpt>
      <trkpt lat="42.450170" lon="1.875465">
        <ele>1420.3</ele>
        <time>2013-08-09T12:16:55Z</time>
      </trkpt>
      <trkpt lat="42.450077" lon="1.875658">
        <ele>1419.2</ele>
        <time>2013-08-09T12:17:08Z</time>
      </trkpt>
      <trkpt lat="42.450063" lon="1.875690">
        <ele>1419.0</ele>
        <time>2013-08-09T12:17:11Z</time>
      </trkpt>
      <trkpt lat="42.449973" lon="1.875891">
        <ele>1418.3</ele>
        <time>2013-08-09T12:17:25Z</time>
      </trkpt>
      <trkpt lat="42.449882" lon="1.876079">
        <ele>1417.5</ele>
        <time>2013-08-09T12:17:38Z</time>
      </trkpt>
      <trkpt lat="42.449843" lon="1.876180">
        <ele>1416.9</ele>
        <time>2013-08-09T12:17:45Z</time>
      </trkpt>
      <trkpt lat="42.449803" lon="1.876260">
        <ele>1416.4</ele>
        <time>2013-08-09T12:17:51Z</time>
      </trkpt>
      <trkpt lat="42.449771" lon="1.876348">
        <ele>1416.0</ele>
        <time>2013-08-09T12:17:56Z</time>
      </trkpt>
      <trkpt lat="42.449660" lon="1.876515">
        <ele>1413.8</ele>
        <time>2013-08-09T12:18:10Z</time>
      </trkpt>
      <trkpt lat="42.449587" lon="1.876715">
        <ele>1411.5</ele>
        <time>2013-08-09T12:18:25Z</time>
      </trkpt>
      <trkpt lat="42.449552" lon="1.876805">
        <ele>1410.1</ele>
        <time>2013-08-09T12:18:33Z</time>
      </trkpt>
      <trkpt lat="42.449520" lon="1.876868">
        <ele>1408.5</ele>
        <time>2013-08-09T12:18:40Z</time>
      </trkpt>
      <trkpt lat="42.449508" lon="1.876999">
        <ele>1407.3</ele>
        <time>2013-08-09T12:18:49Z</time>
      </trkpt>
      <trkpt lat="42.449565" lon="1.877131">
        <ele>1406.0</ele>
        <time>2013-08-09T12:18:57Z</time>
      </trkpt>
      <trkpt lat="42.449626" lon="1.877296">
        <ele>1404.3</ele>
        <time>2013-08-09T12:19:10Z</time>
      </trkpt>
      <trkpt lat="42.449672" lon="1.877444">
        <ele>1402.4</ele>
        <time>2013-08-09T12:19:21Z</time>
      </trkpt>
      <trkpt lat="42.449701" lon="1.877559">
        <ele>1401.5</ele>
        <time>2013-08-09T12:19:31Z</time>
      </trkpt>
      <trkpt lat="42.449777" lon="1.877672">
        <ele>1400.6</ele>
        <time>2013-08-09T12:19:45Z</time>
      </trkpt>
      <trkpt lat="42.449871" lon="1.877784">
        <ele>1399.2</ele>
        <time>2013-08-09T12:19:58Z</time>
      </trkpt>
      <trkpt lat="42.449768" lon="1.878220">
        <ele>1393.3</ele>
        <time>2013-08-09T14:59:50Z</time>
      </trkpt>
      <trkpt lat="42.449741" lon="1.878241">
        <ele>1392.9</ele>
        <time>2013-08-09T14:59:53Z</time>
      </trkpt>
      <trkpt lat="42.449636" lon="1.878355">
        <ele>1392.5</ele>
        <time>2013-08-09T15:00:03Z</time>
      </trkpt>
      <trkpt lat="42.449597" lon="1.878379">
        <ele>1392.3</ele>
        <time>2013-08-09T15:00:07Z</time>
      </trkpt>
      <trkpt lat="42.449421" lon="1.878413">
        <ele>1391.2</ele>
        <time>2013-08-09T15:00:23Z</time>
      </trkpt>
      <trkpt lat="42.449410" lon="1.878436">
        <ele>1390.5</ele>
        <time>2013-08-09T15:00:34Z</time>
      </trkpt>
      <trkpt lat="42.449423" lon="1.878531">
        <ele>1390.6</ele>
        <time>2013-08-09T15:00:41Z</time>
      </trkpt>
      <trkpt lat="42.449405" lon="1.878665">
        <ele>1387.7</ele>
        <time>2013-08-09T15:00:49Z</time>
      </trkpt>
      <trkpt lat="42.449414" lon="1.878747">
        <ele>1387.5</ele>
        <time>2013-08-09T15:00:55Z</time>
      </trkpt>
      <trkpt lat="42.449412" lon="1.878837">
        <ele>1387.0</ele>
        <time>2013-08-09T15:01:00Z</time>
      </trkpt>
      <trkpt lat="42.449384" lon="1.878998">
        <ele>1384.5</ele>
        <time>2013-08-09T15:01:11Z</time>
      </trkpt>
      <trkpt lat="42.449353" lon="1.879125">
        <ele>1382.9</ele>
        <time>2013-08-09T15:01:21Z</time>
      </trkpt>
      <trkpt lat="42.449451" lon="1.879251">
        <ele>1380.9</ele>
        <time>2013-08-09T15:01:34Z</time>
      </trkpt>
      <trkpt lat="42.449485" lon="1.879317">
        <ele>1380.3</ele>
        <time>2013-08-09T15:01:41Z</time>
      </trkpt>
      <trkpt lat="42.449444" lon="1.879490">
        <ele>1379.0</ele>
        <time>2013-08-09T15:01:53Z</time>
      </trkpt>
      <trkpt lat="42.449368" lon="1.879716">
        <ele>1375.6</ele>
        <time>2013-08-09T15:02:07Z</time>
      </trkpt>
      <trkpt lat="42.449301" lon="1.879892">
        <ele>1373.7</ele>
        <time>2013-08-09T15:02:22Z</time>
      </trkpt>
      <trkpt lat="42.449287" lon="1.879928">
        <ele>1373.4</ele>
        <time>2013-08-09T15:02:25Z</time>
      </trkpt>
      <trkpt lat="42.449141" lon="1.880057">
        <ele>1371.3</ele>
        <time>2013-08-09T15:02:41Z</time>
      </trkpt>
      <trkpt lat="42.449045" lon="1.880134">
        <ele>1370.2</ele>
        <time>2013-08-09T15:02:53Z</time>
      </trkpt>
      <trkpt lat="42.448937" lon="1.880300">
        <ele>1368.1</ele>
        <time>2013-08-09T15:03:04Z</time>
      </trkpt>
      <trkpt lat="42.448909" lon="1.880268">
        <ele>1368.2</ele>
        <time>2013-08-09T15:03:18Z</time>
      </trkpt>
      <trkpt lat="42.448912" lon="1.880282">
        <ele>1368.1</ele>
        <time>2013-08-09T15:03:47Z</time>
      </trkpt>
      <trkpt lat="42.448912" lon="1.880282">
        <ele>1368.1</ele>
        <time>2013-08-09T15:04:03Z</time>
      </trkpt>
      <trkpt lat="42.448916" lon="1.880284">
        <ele>1368.1</ele>
        <time>2013-08-09T15:04:29Z</time>
      </trkpt>
      <trkpt lat="42.448873" lon="1.880331">
        <ele>1367.7</ele>
        <time>2013-08-09T15:04:47Z</time>
      </trkpt>
      <trkpt lat="42.448765" lon="1.880544">
        <ele>1364.9</ele>
        <time>2013-08-09T15:05:03Z</time>
      </trkpt>
      <trkpt lat="42.448754" lon="1.880561">
        <ele>1364.6</ele>
        <time>2013-08-09T15:05:20Z</time>
      </trkpt>
      <trkpt lat="42.448754" lon="1.880558">
        <ele>1364.7</ele>
        <time>2013-08-09T15:05:52Z</time>
      </trkpt>
      <trkpt lat="42.448751" lon="1.880559">
        <ele>1364.6</ele>
        <time>2013-08-09T15:06:27Z</time>
      </trkpt>
      <trkpt lat="42.448657" lon="1.880657">
        <ele>1363.5</ele>
        <time>2013-08-09T15:06:35Z</time>
      </trkpt>
      <trkpt lat="42.448476" lon="1.880730">
        <ele>1361.7</ele>
        <time>2013-08-09T15:06:50Z</time>
      </trkpt>
      <trkpt lat="42.448274" lon="1.880765">
        <ele>1360.1</ele>
        <time>2013-08-09T15:07:07Z</time>
      </trkpt>
      <trkpt lat="42.448096" lon="1.880810">
        <ele>1358.5</ele>
        <time>2013-08-09T15:07:22Z</time>
      </trkpt>
      <trkpt lat="42.448015" lon="1.880813">
        <ele>1358.4</ele>
        <time>2013-08-09T15:07:32Z</time>
      </trkpt>
      <trkpt lat="42.447844" lon="1.880775">
        <ele>1357.2</ele>
        <time>2013-08-09T15:07:45Z</time>
      </trkpt>
      <trkpt lat="42.447673" lon="1.880776">
        <ele>1355.1</ele>
        <time>2013-08-09T15:08:00Z</time>
      </trkpt>
      <trkpt lat="42.447480" lon="1.880866">
        <ele>1352.1</ele>
        <time>2013-08-09T15:08:16Z</time>
      </trkpt>
      <trkpt lat="42.447365" lon="1.880912">
        <ele>1350.6</ele>
        <time>2013-08-09T15:08:28Z</time>
      </trkpt>
      <trkpt lat="42.447343" lon="1.880920">
        <ele>1350.3</ele>
        <time>2013-08-09T15:08:31Z</time>
      </trkpt>
      <trkpt lat="42.447316" lon="1.880935">
        <ele>1350.0</ele>
        <time>2013-08-09T15:08:34Z</time>
      </trkpt>
      <trkpt lat="42.447175" lon="1.881048">
        <ele>1348.2</ele>
        <time>2013-08-09T15:08:50Z</time>
      </trkpt>
      <trkpt lat="42.447199" lon="1.880977">
        <ele>1348.8</ele>
        <time>2013-08-09T15:09:01Z</time>
      </trkpt>
      <trkpt lat="42.447188" lon="1.880969">
        <ele>1348.8</ele>
        <time>2013-08-09T15:10:13Z</time>
      </trkpt>
      <trkpt lat="42.447090" lon="1.881232">
        <ele>1346.4</ele>
        <time>2013-08-09T15:10:30Z</time>
      </trkpt>
      <trkpt lat="42.447059" lon="1.881365">
        <ele>1344.1</ele>
        <time>2013-08-09T15:10:43Z</time>
      </trkpt>
      <trkpt lat="42.446974" lon="1.881601">
        <ele>1342.3</ele>
        <time>2013-08-09T15:10:58Z</time>
      </trkpt>
      <trkpt lat="42.446841" lon="1.881833">
        <ele>1342.2</ele>
        <time>2013-08-09T15:11:12Z</time>
      </trkpt>
      <trkpt lat="42.446688" lon="1.881954">
        <ele>1341.7</ele>
        <time>2013-08-09T15:11:27Z</time>
      </trkpt>
      <trkpt lat="42.446482" lon="1.882170">
        <ele>1341.0</ele>
        <time>2013-08-09T15:11:48Z</time>
      </trkpt>
      <trkpt lat="42.446236" lon="1.882449">
        <ele>1340.8</ele>
        <time>2013-08-09T15:12:11Z</time>
      </trkpt>
      <trkpt lat="42.446039" lon="1.882706">
        <ele>1341.7</ele>
        <time>2013-08-09T15:12:28Z</time>
      </trkpt>
      <trkpt lat="42.445846" lon="1.882861">
        <ele>1341.6</ele>
        <time>2013-08-09T15:12:46Z</time>
      </trkpt>
      <trkpt lat="42.445593" lon="1.883071">
        <ele>1342.2</ele>
        <time>2013-08-09T15:13:06Z</time>
      </trkpt>
      <trkpt lat="42.445536" lon="1.883167">
        <ele>1343.4</ele>
        <time>2013-08-09T15:13:21Z</time>
      </trkpt>
      <trkpt lat="42.445536" lon="1.883167">
        <ele>1343.4</ele>
        <time>2013-08-09T15:13:48Z</time>
      </trkpt>
      <trkpt lat="42.445450" lon="1.883259">
        <ele>1343.9</ele>
        <time>2013-08-09T15:14:02Z</time>
      </trkpt>
      <trkpt lat="42.445351" lon="1.883344">
        <ele>1344.1</ele>
        <time>2013-08-09T15:14:11Z</time>
      </trkpt>
      <trkpt lat="42.445291" lon="1.883420">
        <ele>1344.6</ele>
        <time>2013-08-09T15:14:17Z</time>
      </trkpt>
      <trkpt lat="42.445168" lon="1.883610">
        <ele>1344.7</ele>
        <time>2013-08-09T15:14:32Z</time>
      </trkpt>
      <trkpt lat="42.445060" lon="1.883888">
        <ele>1344.1</ele>
        <time>2013-08-09T15:14:47Z</time>
      </trkpt>
      <trkpt lat="42.445008" lon="1.884158">
        <ele>1341.4</ele>
        <time>2013-08-09T15:15:04Z</time>
      </trkpt>
      <trkpt lat="42.445007" lon="1.884162">
        <ele>1341.3</ele>
        <time>2013-08-09T15:15:28Z</time>
      </trkpt>
      <trkpt lat="42.445014" lon="1.884178">
        <ele>1341.3</ele>
        <time>2013-08-09T15:15:55Z</time>
      </trkpt>
      <trkpt lat="42.445063" lon="1.884506">
        <ele>1337.6</ele>
        <time>2013-08-09T15:16:11Z</time>
      </trkpt>
      <trkpt lat="42.445150" lon="1.884724">
        <ele>1335.6</ele>
        <time>2013-08-09T15:16:27Z</time>
      </trkpt>
      <trkpt lat="42.445301" lon="1.885033">
        <ele>1333.4</ele>
        <time>2013-08-09T15:16:45Z</time>
      </trkpt>
      <trkpt lat="42.445350" lon="1.885136">
        <ele>1332.5</ele>
        <time>2013-08-09T15:16:54Z</time>
      </trkpt>
      <trkpt lat="42.445491" lon="1.885410">
        <ele>1329.7</ele>
        <time>2013-08-09T15:17:11Z</time>
      </trkpt>
      <trkpt lat="42.445642" lon="1.885639">
        <ele>1327.0</ele>
        <time>2013-08-09T15:17:26Z</time>
      </trkpt>
      <trkpt lat="42.445770" lon="1.885816">
        <ele>1324.8</ele>
        <time>2013-08-09T15:17:42Z</time>
      </trkpt>
      <trkpt lat="42.445919" lon="1.886065">
        <ele>1323.5</ele>
        <time>2013-08-09T15:17:57Z</time>
      </trkpt>
      <trkpt lat="42.446029" lon="1.886247">
        <ele>1321.0</ele>
        <time>2013-08-09T15:18:12Z</time>
      </trkpt>
      <trkpt lat="42.446174" lon="1.886441">
        <ele>1319.4</ele>
        <time>2013-08-09T15:18:27Z</time>
      </trkpt>
      <trkpt lat="42.446191" lon="1.886453">
        <ele>1319.4</ele>
        <time>2013-08-09T15:18:29Z</time>
      </trkpt>
      <trkpt lat="42.446307" lon="1.886618">
        <ele>1317.5</ele>
        <time>2013-08-09T15:18:44Z</time>
      </trkpt>
      <trkpt lat="42.446456" lon="1.886799">
        <ele>1315.5</ele>
        <time>2013-08-09T15:19:00Z</time>
      </trkpt>
      <trkpt lat="42.446596" lon="1.886969">
        <ele>1314.0</ele>
        <time>2013-08-09T15:19:15Z</time>
      </trkpt>
      <trkpt lat="42.446737" lon="1.887118">
        <ele>1311.9</ele>
        <time>2013-08-09T15:19:30Z</time>
      </trkpt>
      <trkpt lat="42.446898" lon="1.887285">
        <ele>1310.5</ele>
        <time>2013-08-09T15:19:45Z</time>
      </trkpt>
      <trkpt lat="42.446916" lon="1.887310">
        <ele>1310.2</ele>
        <time>2013-08-09T15:19:47Z</time>
      </trkpt>
      <trkpt lat="42.447042" lon="1.887447">
        <ele>1308.2</ele>
        <time>2013-08-09T15:20:02Z</time>
      </trkpt>
      <trkpt lat="42.447202" lon="1.887562">
        <ele>1306.9</ele>
        <time>2013-08-09T15:20:17Z</time>
      </trkpt>
      <trkpt lat="42.447367" lon="1.887654">
        <ele>1305.4</ele>
        <time>2013-08-09T15:20:31Z</time>
      </trkpt>
      <trkpt lat="42.447404" lon="1.887733">
        <ele>1304.5</ele>
        <time>2013-08-09T15:23:05Z</time>
      </trkpt>
      <trkpt lat="42.447214" lon="1.887838">
        <ele>1300.5</ele>
        <time>2013-08-09T15:23:22Z</time>
      </trkpt>
      <trkpt lat="42.447116" lon="1.887852">
        <ele>1299.9</ele>
        <time>2013-08-09T15:23:29Z</time>
      </trkpt>
      <trkpt lat="42.446936" lon="1.887921">
        <ele>1296.4</ele>
        <time>2013-08-09T15:23:45Z</time>
      </trkpt>
      <trkpt lat="42.446773" lon="1.888005">
        <ele>1293.9</ele>
        <time>2013-08-09T15:24:01Z</time>
      </trkpt>
      <trkpt lat="42.446769" lon="1.888005">
        <ele>1293.9</ele>
        <time>2013-08-09T15:24:18Z</time>
      </trkpt>
      <trkpt lat="42.446765" lon="1.888006">
        <ele>1293.9</ele>
        <time>2013-08-09T15:24:49Z</time>
      </trkpt>
      <trkpt lat="42.446764" lon="1.888005">
        <ele>1293.9</ele>
        <time>2013-08-09T15:25:31Z</time>
      </trkpt>
      <trkpt lat="42.446764" lon="1.888005">
        <ele>1293.9</ele>
        <time>2013-08-09T15:25:51Z</time>
      </trkpt>
      <trkpt lat="42.446728" lon="1.888017">
        <ele>1293.0</ele>
        <time>2013-08-09T15:26:07Z</time>
      </trkpt>
      <trkpt lat="42.446556" lon="1.888030">
        <ele>1292.1</ele>
        <time>2013-08-09T15:26:19Z</time>
      </trkpt>
      <trkpt lat="42.446371" lon="1.888010">
        <ele>1290.9</ele>
        <time>2013-08-09T15:26:33Z</time>
      </trkpt>
      <trkpt lat="42.446200" lon="1.888057">
        <ele>1288.2</ele>
        <time>2013-08-09T15:26:47Z</time>
      </trkpt>
      <trkpt lat="42.445989" lon="1.888077">
        <ele>1286.2</ele>
        <time>2013-08-09T15:27:04Z</time>
      </trkpt>
      <trkpt lat="42.445726" lon="1.888080">
        <ele>1283.8</ele>
        <time>2013-08-09T15:27:24Z</time>
      </trkpt>
      <trkpt lat="42.445552" lon="1.888107">
        <ele>1281.7</ele>
        <time>2013-08-09T15:27:38Z</time>
      </trkpt>
      <trkpt lat="42.445432" lon="1.888313">
        <ele>1278.2</ele>
        <time>2013-08-09T15:27:54Z</time>
      </trkpt>
      <trkpt lat="42.445411" lon="1.888384">
        <ele>1277.2</ele>
        <time>2013-08-09T15:27:59Z</time>
      </trkpt>
      <trkpt lat="42.445387" lon="1.888486">
        <ele>1276.0</ele>
        <time>2013-08-09T15:28:04Z</time>
      </trkpt>
      <trkpt lat="42.445290" lon="1.888757">
        <ele>1273.5</ele>
        <time>2013-08-09T15:28:20Z</time>
      </trkpt>
      <trkpt lat="42.445253" lon="1.888994">
        <ele>1271.7</ele>
        <time>2013-08-09T15:28:34Z</time>
      </trkpt>
      <trkpt lat="42.445227" lon="1.889231">
        <ele>1270.4</ele>
        <time>2013-08-09T15:28:48Z</time>
      </trkpt>
      <trkpt lat="42.445187" lon="1.889526">
        <ele>1268.5</ele>
        <time>2013-08-09T15:29:03Z</time>
      </trkpt>
      <trkpt lat="42.445128" lon="1.889779">
        <ele>1267.4</ele>
        <time>2013-08-09T15:29:19Z</time>
      </trkpt>
      <trkpt lat="42.445070" lon="1.890181">
        <ele>1265.7</ele>
        <time>2013-08-09T15:29:39Z</time>
      </trkpt>
      <trkpt lat="42.445040" lon="1.890582">
        <ele>1264.5</ele>
        <time>2013-08-09T15:29:57Z</time>
      </trkpt>
      <trkpt lat="42.445046" lon="1.890807">
        <ele>1264.1</ele>
        <time>2013-08-09T15:30:12Z</time>
      </trkpt>
      <trkpt lat="42.445048" lon="1.891000">
        <ele>1264.0</ele>
        <time>2013-08-09T15:30:26Z</time>
      </trkpt>
      <trkpt lat="42.445089" lon="1.891290">
        <ele>1264.0</ele>
        <time>2013-08-09T15:30:40Z</time>
      </trkpt>
      <trkpt lat="42.445093" lon="1.891321">
        <ele>1263.9</ele>
        <time>2013-08-09T15:30:43Z</time>
      </trkpt>
      <trkpt lat="42.445117" lon="1.891455">
        <ele>1263.4</ele>
        <time>2013-08-09T15:30:51Z</time>
      </trkpt>
      <trkpt lat="42.445122" lon="1.891698">
        <ele>1263.4</ele>
        <time>2013-08-09T15:31:08Z</time>
      </trkpt>
      <trkpt lat="42.445144" lon="1.891982">
        <ele>1263.3</ele>
        <time>2013-08-09T15:31:23Z</time>
      </trkpt>
      <trkpt lat="42.445157" lon="1.892256">
        <ele>1262.6</ele>
        <time>2013-08-09T15:31:39Z</time>
      </trkpt>
      <trkpt lat="42.445179" lon="1.892578">
        <ele>1262.4</ele>
        <time>2013-08-09T15:31:58Z</time>
      </trkpt>
      <trkpt lat="42.445214" lon="1.892927">
        <ele>1261.7</ele>
        <time>2013-08-09T15:32:14Z</time>
      </trkpt>
      <trkpt lat="42.445252" lon="1.893257">
        <ele>1260.8</ele>
        <time>2013-08-09T15:32:30Z</time>
      </trkpt>
      <trkpt lat="42.445277" lon="1.893650">
        <ele>1259.3</ele>
        <time>2013-08-09T15:32:48Z</time>
      </trkpt>
      <trkpt lat="42.445272" lon="1.893749">
        <ele>1258.8</ele>
        <time>2013-08-09T15:32:57Z</time>
      </trkpt>
      <trkpt lat="42.445313" lon="1.894081">
        <ele>1257.4</ele>
        <time>2013-08-09T15:33:14Z</time>
      </trkpt>
      <trkpt lat="42.445330" lon="1.894302">
        <ele>1256.3</ele>
        <time>2013-08-09T15:33:30Z</time>
      </trkpt>
      <trkpt lat="42.445374" lon="1.894603">
        <ele>1254.8</ele>
        <time>2013-08-09T15:33:46Z</time>
      </trkpt>
      <trkpt lat="42.445388" lon="1.894840">
        <ele>1253.3</ele>
        <time>2013-08-09T15:34:02Z</time>
      </trkpt>
      <trkpt lat="42.445390" lon="1.894898">
        <ele>1253.1</ele>
        <time>2013-08-09T15:34:05Z</time>
      </trkpt>
      <trkpt lat="42.445401" lon="1.894972">
        <ele>1252.9</ele>
        <time>2013-08-09T15:34:09Z</time>
      </trkpt>
      <trkpt lat="42.445422" lon="1.895220">
        <ele>1251.6</ele>
        <time>2013-08-09T15:34:25Z</time>
      </trkpt>
      <trkpt lat="42.445444" lon="1.895608">
        <ele>1249.4</ele>
        <time>2013-08-09T15:34:45Z</time>
      </trkpt>
      <trkpt lat="42.445430" lon="1.895913">
        <ele>1247.3</ele>
        <time>2013-08-09T15:35:04Z</time>
      </trkpt>
      <trkpt lat="42.445376" lon="1.896170">
        <ele>1245.6</ele>
        <time>2013-08-09T15:35:20Z</time>
      </trkpt>
      <trkpt lat="42.445287" lon="1.896477">
        <ele>1243.7</ele>
        <time>2013-08-09T15:35:38Z</time>
      </trkpt>
      <trkpt lat="42.445168" lon="1.896733">
        <ele>1242.2</ele>
        <time>2013-08-09T15:35:56Z</time>
      </trkpt>
      <trkpt lat="42.445061" lon="1.897002">
        <ele>1240.8</ele>
        <time>2013-08-09T15:36:12Z</time>
      </trkpt>
      <trkpt lat="42.444998" lon="1.897116">
        <ele>1239.3</ele>
        <time>2013-08-09T15:36:19Z</time>
      </trkpt>
      <trkpt lat="42.444930" lon="1.897249">
        <ele>1238.1</ele>
        <time>2013-08-09T15:36:31Z</time>
      </trkpt>
      <trkpt lat="42.444773" lon="1.897661">
        <ele>1234.7</ele>
        <time>2013-08-09T15:36:54Z</time>
      </trkpt>
      <trkpt lat="42.444637" lon="1.898007">
        <ele>1232.3</ele>
        <time>2013-08-09T15:37:14Z</time>
      </trkpt>
      <trkpt lat="42.444560" lon="1.898255">
        <ele>1230.1</ele>
        <time>2013-08-09T15:37:28Z</time>
      </trkpt>
      <trkpt lat="42.444464" lon="1.898455">
        <ele>1228.8</ele>
        <time>2013-08-09T15:37:43Z</time>
      </trkpt>
      <trkpt lat="42.444441" lon="1.898516">
        <ele>1228.6</ele>
        <time>2013-08-09T15:37:55Z</time>
      </trkpt>
      <trkpt lat="42.444414" lon="1.898579">
        <ele>1228.4</ele>
        <time>2013-08-09T15:38:07Z</time>
      </trkpt>
      <trkpt lat="42.444313" lon="1.898776">
        <ele>1226.5</ele>
        <time>2013-08-09T15:38:22Z</time>
      </trkpt>
      <trkpt lat="42.444297" lon="1.898812">
        <ele>1226.2</ele>
        <time>2013-08-09T15:38:25Z</time>
      </trkpt>
      <trkpt lat="42.444260" lon="1.898888">
        <ele>1225.7</ele>
        <time>2013-08-09T15:38:30Z</time>
      </trkpt>
      <trkpt lat="42.444234" lon="1.898955">
        <ele>1225.4</ele>
        <time>2013-08-09T15:38:34Z</time>
      </trkpt>
      <trkpt lat="42.444138" lon="1.899181">
        <ele>1224.0</ele>
        <time>2013-08-09T15:38:50Z</time>
      </trkpt>
      <trkpt lat="42.444130" lon="1.899205">
        <ele>1223.9</ele>
        <time>2013-08-09T15:38:52Z</time>
      </trkpt>
      <trkpt lat="42.444117" lon="1.899234">
        <ele>1223.7</ele>
        <time>2013-08-09T15:38:54Z</time>
      </trkpt>
      <trkpt lat="42.444012" lon="1.899506">
        <ele>1222.3</ele>
        <time>2013-08-09T15:39:10Z</time>
      </trkpt>
      <trkpt lat="42.443895" lon="1.899755">
        <ele>1220.6</ele>
        <time>2013-08-09T15:39:28Z</time>
      </trkpt>
      <trkpt lat="42.443800" lon="1.899996">
        <ele>1218.6</ele>
        <time>2013-08-09T15:39:44Z</time>
      </trkpt>
      <trkpt lat="42.443788" lon="1.900059">
        <ele>1218.0</ele>
        <time>2013-08-09T15:39:47Z</time>
      </trkpt>
      <trkpt lat="42.443837" lon="1.900339">
        <ele>1216.2</ele>
        <time>2013-08-09T15:40:02Z</time>
      </trkpt>
      <trkpt lat="42.443959" lon="1.900586">
        <ele>1214.6</ele>
        <time>2013-08-09T15:40:18Z</time>
      </trkpt>
      <trkpt lat="42.444046" lon="1.900766">
        <ele>1213.5</ele>
        <time>2013-08-09T15:40:33Z</time>
      </trkpt>
      <trkpt lat="42.444127" lon="1.900969">
        <ele>1212.8</ele>
        <time>2013-08-09T15:40:48Z</time>
      </trkpt>
      <trkpt lat="42.444171" lon="1.901126">
        <ele>1212.6</ele>
        <time>2013-08-09T15:41:00Z</time>
      </trkpt>
      <trkpt lat="42.444196" lon="1.901186">
        <ele>1212.6</ele>
        <time>2013-08-09T15:41:03Z</time>
      </trkpt>
      <trkpt lat="42.444279" lon="1.901363">
        <ele>1212.3</ele>
        <time>2013-08-09T15:41:14Z</time>
      </trkpt>
      <trkpt lat="42.444309" lon="1.901437">
        <ele>1212.3</ele>
        <time>2013-08-09T15:41:19Z</time>
      </trkpt>
      <trkpt lat="42.444370" lon="1.901641">
        <ele>1212.1</ele>
        <time>2013-08-09T15:41:34Z</time>
      </trkpt>
      <trkpt lat="42.444370" lon="1.901641">
        <ele>1212.1</ele>
        <time>2013-08-09T15:41:53Z</time>
      </trkpt>
      <trkpt lat="42.444480" lon="1.901871">
        <ele>1211.6</ele>
        <time>2013-08-09T15:42:06Z</time>
      </trkpt>
      <trkpt lat="42.444520" lon="1.901985">
        <ele>1212.3</ele>
        <time>2013-08-09T15:42:13Z</time>
      </trkpt>
      <trkpt lat="42.444529" lon="1.902197">
        <ele>1211.4</ele>
        <time>2013-08-09T15:42:26Z</time>
      </trkpt>
      <trkpt lat="42.444530" lon="1.902265">
        <ele>1211.3</ele>
        <time>2013-08-09T15:42:31Z</time>
      </trkpt>
      <trkpt lat="42.444571" lon="1.902398">
        <ele>1212.2</ele>
        <time>2013-08-09T15:42:40Z</time>
      </trkpt>
      <trkpt lat="42.444613" lon="1.902558">
        <ele>1213.1</ele>
        <time>2013-08-09T15:42:50Z</time>
      </trkpt>
      <trkpt lat="42.444635" lon="1.902683">
        <ele>1213.1</ele>
        <time>2013-08-09T15:42:58Z</time>
      </trkpt>
      <trkpt lat="42.444717" lon="1.902890">
        <ele>1214.2</ele>
        <time>2013-08-09T15:43:12Z</time>
      </trkpt>
      <trkpt lat="42.444821" lon="1.903020">
        <ele>1215.1</ele>
        <time>2013-08-09T15:43:25Z</time>
      </trkpt>
      <trkpt lat="42.444826" lon="1.903089">
        <ele>1215.6</ele>
        <time>2013-08-09T15:43:35Z</time>
      </trkpt>
      <trkpt lat="42.444827" lon="1.903118">
        <ele>1215.8</ele>
        <time>2013-08-09T15:43:41Z</time>
      </trkpt>
      <trkpt lat="42.444772" lon="1.903230">
        <ele>1215.4</ele>
        <time>2013-08-09T15:43:50Z</time>
      </trkpt>
      <trkpt lat="42.444740" lon="1.903356">
        <ele>1213.6</ele>
        <time>2013-08-09T15:43:58Z</time>
      </trkpt>
      <trkpt lat="42.444732" lon="1.903468">
        <ele>1213.5</ele>
        <time>2013-08-09T15:44:15Z</time>
      </trkpt>
      <trkpt lat="42.444709" lon="1.903513">
        <ele>1212.7</ele>
        <time>2013-08-09T15:46:39Z</time>
      </trkpt>
      <trkpt lat="42.444673" lon="1.903565">
        <ele>1211.4</ele>
        <time>2013-08-09T15:46:54Z</time>
      </trkpt>
      <trkpt lat="42.444673" lon="1.903565">
        <ele>1211.4</ele>
        <time>2013-08-09T15:47:18Z</time>
      </trkpt>
      <trkpt lat="42.444618" lon="1.903725">
        <ele>1210.3</ele>
        <time>2013-08-09T15:47:30Z</time>
      </trkpt>
      <trkpt lat="42.444564" lon="1.903862">
        <ele>1208.3</ele>
        <time>2013-08-09T15:47:38Z</time>
      </trkpt>
      <trkpt lat="42.444502" lon="1.904075">
        <ele>1206.9</ele>
        <time>2013-08-09T15:47:52Z</time>
      </trkpt>
      <trkpt lat="42.444426" lon="1.904271">
        <ele>1204.7</ele>
        <time>2013-08-09T15:48:06Z</time>
      </trkpt>
      <trkpt lat="42.444270" lon="1.904449">
        <ele>1202.9</ele>
        <time>2013-08-09T15:48:22Z</time>
      </trkpt>
      <trkpt lat="42.444144" lon="1.904608">
        <ele>1201.5</ele>
        <time>2013-08-09T15:48:36Z</time>
      </trkpt>
      <trkpt lat="42.443995" lon="1.904774">
        <ele>1200.4</ele>
        <time>2013-08-09T15:48:51Z</time>
      </trkpt>
      <trkpt lat="42.443878" lon="1.904970">
        <ele>1199.4</ele>
        <time>2013-08-09T15:49:07Z</time>
      </trkpt>
      <trkpt lat="42.443724" lon="1.905153">
        <ele>1198.4</ele>
        <time>2013-08-09T15:49:23Z</time>
      </trkpt>
      <trkpt lat="42.443614" lon="1.905264">
        <ele>1198.2</ele>
        <time>2013-08-09T15:49:34Z</time>
      </trkpt>
      <trkpt lat="42.443430" lon="1.905487">
        <ele>1197.1</ele>
        <time>2013-08-09T15:49:52Z</time>
      </trkpt>
      <trkpt lat="42.443249" lon="1.905709">
        <ele>1196.5</ele>
        <time>2013-08-09T15:50:11Z</time>
      </trkpt>
      <trkpt lat="42.443175" lon="1.905847">
        <ele>1196.1</ele>
        <time>2013-08-09T15:50:21Z</time>
      </trkpt>
      <trkpt lat="42.443131" lon="1.905978">
        <ele>1195.6</ele>
        <time>2013-08-09T15:50:36Z</time>
      </trkpt>
      <trkpt lat="42.443058" lon="1.906115">
        <ele>1195.1</ele>
        <time>2013-08-09T15:50:50Z</time>
      </trkpt>
      <trkpt lat="42.443055" lon="1.906130">
        <ele>1195.1</ele>
        <time>2013-08-09T15:52:59Z</time>
      </trkpt>
      <trkpt lat="42.442981" lon="1.906289">
        <ele>1194.7</ele>
        <time>2013-08-09T15:53:12Z</time>
      </trkpt>
      <trkpt lat="42.442894" lon="1.906466">
        <ele>1194.2</ele>
        <time>2013-08-09T15:53:25Z</time>
      </trkpt>
      <trkpt lat="42.442855" lon="1.906518">
        <ele>1194.0</ele>
        <time>2013-08-09T15:53:31Z</time>
      </trkpt>
      <trkpt lat="42.442839" lon="1.906548">
        <ele>1194.0</ele>
        <time>2013-08-09T15:53:33Z</time>
      </trkpt>
      <trkpt lat="42.442739" lon="1.906778">
        <ele>1193.3</ele>
        <time>2013-08-09T15:53:49Z</time>
      </trkpt>
      <trkpt lat="42.442625" lon="1.906970">
        <ele>1192.6</ele>
        <time>2013-08-09T15:54:04Z</time>
      </trkpt>
      <trkpt lat="42.442534" lon="1.907178">
        <ele>1191.7</ele>
        <time>2013-08-09T15:54:18Z</time>
      </trkpt>
      <trkpt lat="42.442406" lon="1.907439">
        <ele>1190.5</ele>
        <time>2013-08-09T15:54:34Z</time>
      </trkpt>
      <trkpt lat="42.442259" lon="1.907732">
        <ele>1189.4</ele>
        <time>2013-08-09T15:54:53Z</time>
      </trkpt>
      <trkpt lat="42.442121" lon="1.908018">
        <ele>1188.4</ele>
        <time>2013-08-09T15:55:11Z</time>
      </trkpt>
      <trkpt lat="42.441970" lon="1.908351">
        <ele>1187.6</ele>
        <time>2013-08-09T15:55:30Z</time>
      </trkpt>
      <trkpt lat="42.441807" lon="1.908670">
        <ele>1187.2</ele>
        <time>2013-08-09T15:55:50Z</time>
      </trkpt>
      <trkpt lat="42.441667" lon="1.908918">
        <ele>1186.2</ele>
        <time>2013-08-09T15:56:08Z</time>
      </trkpt>
      <trkpt lat="42.441535" lon="1.909242">
        <ele>1185.5</ele>
        <time>2013-08-09T15:56:25Z</time>
      </trkpt>
      <trkpt lat="42.441374" lon="1.909494">
        <ele>1184.1</ele>
        <time>2013-08-09T15:56:43Z</time>
      </trkpt>
      <trkpt lat="42.441216" lon="1.909765">
        <ele>1183.2</ele>
        <time>2013-08-09T15:56:58Z</time>
      </trkpt>
      <trkpt lat="42.441047" lon="1.909988">
        <ele>1182.5</ele>
        <time>2013-08-09T15:57:15Z</time>
      </trkpt>
      <trkpt lat="42.440873" lon="1.910228">
        <ele>1181.3</ele>
        <time>2013-08-09T15:57:32Z</time>
      </trkpt>
      <trkpt lat="42.440714" lon="1.910437">
        <ele>1180.0</ele>
        <time>2013-08-09T15:57:48Z</time>
      </trkpt>
      <trkpt lat="42.440517" lon="1.910698">
        <ele>1178.5</ele>
        <time>2013-08-09T15:58:07Z</time>
      </trkpt>
      <trkpt lat="42.440346" lon="1.910941">
        <ele>1176.3</ele>
        <time>2013-08-09T15:58:24Z</time>
      </trkpt>
      <trkpt lat="42.440172" lon="1.911175">
        <ele>1174.4</ele>
        <time>2013-08-09T15:58:43Z</time>
      </trkpt>
      <trkpt lat="42.439962" lon="1.911456">
        <ele>1172.6</ele>
        <time>2013-08-09T15:59:05Z</time>
      </trkpt>
      <trkpt lat="42.439759" lon="1.911765">
        <ele>1170.9</ele>
        <time>2013-08-09T15:59:22Z</time>
      </trkpt>
      <trkpt lat="42.439541" lon="1.912071">
        <ele>1169.7</ele>
        <time>2013-08-09T15:59:43Z</time>
      </trkpt>
      <trkpt lat="42.439351" lon="1.912334">
        <ele>1169.1</ele>
        <time>2013-08-09T16:00:01Z</time>
      </trkpt>
      <trkpt lat="42.439161" lon="1.912588">
        <ele>1169.1</ele>
        <time>2013-08-09T16:00:19Z</time>
      </trkpt>
      <trkpt lat="42.438990" lon="1.912812">
        <ele>1168.6</ele>
        <time>2013-08-09T16:00:36Z</time>
      </trkpt>
      <trkpt lat="42.438755" lon="1.913142">
        <ele>1168.0</ele>
        <time>2013-08-09T16:00:57Z</time>
      </trkpt>
      <trkpt lat="42.438529" lon="1.913356">
        <ele>1167.6</ele>
        <time>2013-08-09T16:01:16Z</time>
      </trkpt>
      <trkpt lat="42.438324" lon="1.913526">
        <ele>1166.9</ele>
        <time>2013-08-09T16:01:35Z</time>
      </trkpt>
      <trkpt lat="42.438117" lon="1.913705">
        <ele>1166.1</ele>
        <time>2013-08-09T16:01:51Z</time>
      </trkpt>
      <trkpt lat="42.437875" lon="1.913902">
        <ele>1165.4</ele>
        <time>2013-08-09T16:02:09Z</time>
      </trkpt>
      <trkpt lat="42.437660" lon="1.914110">
        <ele>1164.9</ele>
        <time>2013-08-09T16:02:26Z</time>
      </trkpt>
      <trkpt lat="42.437417" lon="1.914300">
        <ele>1164.3</ele>
        <time>2013-08-09T16:02:45Z</time>
      </trkpt>
      <trkpt lat="42.437191" lon="1.914484">
        <ele>1164.2</ele>
        <time>2013-08-09T16:03:03Z</time>
      </trkpt>
      <trkpt lat="42.436937" lon="1.914677">
        <ele>1164.1</ele>
        <time>2013-08-09T16:03:22Z</time>
      </trkpt>
      <trkpt lat="42.436685" lon="1.914841">
        <ele>1163.2</ele>
        <time>2013-08-09T16:03:42Z</time>
      </trkpt>
      <trkpt lat="42.436444" lon="1.914966">
        <ele>1162.7</ele>
        <time>2013-08-09T16:04:00Z</time>
      </trkpt>
      <trkpt lat="42.436220" lon="1.915133">
        <ele>1162.0</ele>
        <time>2013-08-09T16:04:16Z</time>
      </trkpt>
      <trkpt lat="42.435940" lon="1.915250">
        <ele>1160.6</ele>
        <time>2013-08-09T16:04:34Z</time>
      </trkpt>
      <trkpt lat="42.435838" lon="1.915293">
        <ele>1160.1</ele>
        <time>2013-08-09T16:04:41Z</time>
      </trkpt>
      <trkpt lat="42.435617" lon="1.915382">
        <ele>1158.2</ele>
        <time>2013-08-09T16:04:57Z</time>
      </trkpt>
      <trkpt lat="42.435375" lon="1.915480">
        <ele>1157.4</ele>
        <time>2013-08-09T16:05:13Z</time>
      </trkpt>
      <trkpt lat="42.435147" lon="1.915558">
        <ele>1156.9</ele>
        <time>2013-08-09T16:05:29Z</time>
      </trkpt>
      <trkpt lat="42.434944" lon="1.915661">
        <ele>1156.1</ele>
        <time>2013-08-09T16:05:43Z</time>
      </trkpt>
      <trkpt lat="42.434716" lon="1.915811">
        <ele>1154.9</ele>
        <time>2013-08-09T16:05:59Z</time>
      </trkpt>
      <trkpt lat="42.434535" lon="1.915923">
        <ele>1154.1</ele>
        <time>2013-08-09T16:06:16Z</time>
      </trkpt>
      <trkpt lat="42.434324" lon="1.916073">
        <ele>1153.5</ele>
        <time>2013-08-09T16:06:33Z</time>
      </trkpt>
      <trkpt lat="42.434244" lon="1.916124">
        <ele>1153.2</ele>
        <time>2013-08-09T16:06:43Z</time>
      </trkpt>
      <trkpt lat="42.434121" lon="1.916349">
        <ele>1152.0</ele>
        <time>2013-08-09T16:07:01Z</time>
      </trkpt>
      <trkpt lat="42.433956" lon="1.916568">
        <ele>1150.7</ele>
        <time>2013-08-09T16:07:18Z</time>
      </trkpt>
      <trkpt lat="42.433888" lon="1.916606">
        <ele>1150.2</ele>
        <time>2013-08-09T16:07:25Z</time>
      </trkpt>
      <trkpt lat="42.433641" lon="1.916652">
        <ele>1148.7</ele>
        <time>2013-08-09T16:07:42Z</time>
      </trkpt>
      <trkpt lat="42.433493" lon="1.916732">
        <ele>1148.2</ele>
        <time>2013-08-09T16:07:53Z</time>
      </trkpt>
      <trkpt lat="42.433288" lon="1.916806">
        <ele>1147.6</ele>
        <time>2013-08-09T16:08:07Z</time>
      </trkpt>
      <trkpt lat="42.433158" lon="1.916894">
        <ele>1147.2</ele>
        <time>2013-08-09T16:08:21Z</time>
      </trkpt>
      <trkpt lat="42.432886" lon="1.917049">
        <ele>1146.8</ele>
        <time>2013-08-09T16:08:41Z</time>
      </trkpt>
      <trkpt lat="42.432753" lon="1.917091">
        <ele>1147.5</ele>
        <time>2013-08-09T16:08:53Z</time>
      </trkpt>
      <trkpt lat="42.432691" lon="1.917128">
        <ele>1148.5</ele>
        <time>2013-08-09T16:09:06Z</time>
      </trkpt>
      <trkpt lat="42.432691" lon="1.917128">
        <ele>1148.5</ele>
        <time>2013-08-09T16:09:17Z</time>
      </trkpt>
      <trkpt lat="42.432704" lon="1.917179">
        <ele>1148.3</ele>
        <time>2013-08-09T16:09:29Z</time>
      </trkpt>
      <trkpt lat="42.432728" lon="1.917268">
        <ele>1146.9</ele>
        <time>2013-08-09T16:09:39Z</time>
      </trkpt>
      <trkpt lat="42.432734" lon="1.917316">
        <ele>1145.7</ele>
        <time>2013-08-09T16:09:46Z</time>
      </trkpt>
      <trkpt lat="42.432778" lon="1.917520">
        <ele>1143.3</ele>
        <time>2013-08-09T16:09:57Z</time>
      </trkpt>
      <trkpt lat="42.432847" lon="1.917767">
        <ele>1146.3</ele>
        <time>2013-08-09T16:10:11Z</time>
      </trkpt>
      <trkpt lat="42.432904" lon="1.917966">
        <ele>1148.4</ele>
        <time>2013-08-09T16:10:25Z</time>
      </trkpt>
      <trkpt lat="42.432940" lon="1.918203">
        <ele>1148.2</ele>
        <time>2013-08-09T16:10:38Z</time>
      </trkpt>
      <trkpt lat="42.432945" lon="1.918239">
        <ele>1148.1</ele>
        <time>2013-08-09T16:10:41Z</time>
      </trkpt>
      <trkpt lat="42.432954" lon="1.918275">
        <ele>1148.0</ele>
        <time>2013-08-09T16:10:43Z</time>
      </trkpt>
      <trkpt lat="42.432967" lon="1.918509">
        <ele>1150.1</ele>
        <time>2013-08-09T16:10:57Z</time>
      </trkpt>
      <trkpt lat="42.432960" lon="1.918548">
        <ele>1150.1</ele>
        <time>2013-08-09T16:11:00Z</time>
      </trkpt>
      <trkpt lat="42.432953" lon="1.918605">
        <ele>1150.0</ele>
        <time>2013-08-09T16:11:03Z</time>
      </trkpt>
      <trkpt lat="42.432852" lon="1.918773">
        <ele>1150.4</ele>
        <time>2013-08-09T16:11:17Z</time>
      </trkpt>
      <trkpt lat="42.432803" lon="1.918851">
        <ele>1150.9</ele>
        <time>2013-08-09T16:11:24Z</time>
      </trkpt>
      <trkpt lat="42.432779" lon="1.918885">
        <ele>1151.3</ele>
        <time>2013-08-09T16:11:27Z</time>
      </trkpt>
      <trkpt lat="42.432711" lon="1.918895">
        <ele>1151.6</ele>
        <time>2013-08-09T16:11:34Z</time>
      </trkpt>
      <trkpt lat="42.432608" lon="1.918988">
        <ele>1152.6</ele>
        <time>2013-08-09T16:11:45Z</time>
      </trkpt>
      <trkpt lat="42.432482" lon="1.919146">
        <ele>1153.6</ele>
        <time>2013-08-09T16:11:59Z</time>
      </trkpt>
      <trkpt lat="42.432416" lon="1.919259">
        <ele>1154.0</ele>
        <time>2013-08-09T16:12:09Z</time>
      </trkpt>
      <trkpt lat="42.432483" lon="1.919518">
        <ele>1154.5</ele>
        <time>2013-08-09T16:12:24Z</time>
      </trkpt>
      <trkpt lat="42.432485" lon="1.919527">
        <ele>1154.6</ele>
        <time>2013-08-09T16:12:25Z</time>
      </trkpt>
      <trkpt lat="42.432508" lon="1.919568">
        <ele>1154.7</ele>
        <time>2013-08-09T16:12:30Z</time>
      </trkpt>
      <trkpt lat="42.432532" lon="1.919616">
        <ele>1154.6</ele>
        <time>2013-08-09T16:24:47Z</time>
      </trkpt>
      <trkpt lat="42.432545" lon="1.919673">
        <ele>1154.6</ele>
        <time>2013-08-09T16:24:58Z</time>
      </trkpt>
      <trkpt lat="42.432548" lon="1.919689">
        <ele>1154.6</ele>
        <time>2013-08-09T16:25:02Z</time>
      </trkpt>
      <trkpt lat="42.432606" lon="1.919957">
        <ele>1147.6</ele>
        <time>2013-08-09T16:25:17Z</time>
      </trkpt>
      <trkpt lat="42.432644" lon="1.920148">
        <ele>1154.6</ele>
        <time>2013-08-09T16:25:29Z</time>
      </trkpt>
      <trkpt lat="42.432682" lon="1.920348">
        <ele>1154.5</ele>
        <time>2013-08-09T16:25:41Z</time>
      </trkpt>
      <trkpt lat="42.432725" lon="1.920595">
        <ele>1154.4</ele>
        <time>2013-08-09T16:25:57Z</time>
      </trkpt>
      <trkpt lat="42.432757" lon="1.920779">
        <ele>1154.5</ele>
        <time>2013-08-09T16:26:11Z</time>
      </trkpt>
      <trkpt lat="42.432772" lon="1.920917">
        <ele>1154.3</ele>
        <time>2013-08-09T16:26:20Z</time>
      </trkpt>
      <trkpt lat="42.432783" lon="1.920988">
        <ele>1154.3</ele>
        <time>2013-08-09T16:26:24Z</time>
      </trkpt>
      <trkpt lat="42.432816" lon="1.921211">
        <ele>1154.4</ele>
        <time>2013-08-09T16:26:37Z</time>
      </trkpt>
      <trkpt lat="42.432817" lon="1.921225">
        <ele>1154.3</ele>
        <time>2013-08-09T16:26:38Z</time>
      </trkpt>
      <trkpt lat="42.432823" lon="1.921259">
        <ele>1154.3</ele>
        <time>2013-08-09T16:26:40Z</time>
      </trkpt>
      <trkpt lat="42.432866" lon="1.921421">
        <ele>1154.2</ele>
        <time>2013-08-09T16:26:53Z</time>
      </trkpt>
      <trkpt lat="42.432866" lon="1.921421">
        <ele>1154.2</ele>
        <time>2013-08-09T16:27:03Z</time>
      </trkpt>
      <trkpt lat="42.432832" lon="1.921463">
        <ele>1154.2</ele>
        <time>2013-08-09T16:27:07Z</time>
      </trkpt>
      <trkpt lat="42.432718" lon="1.921541">
        <ele>1153.9</ele>
        <time>2013-08-09T16:27:19Z</time>
      </trkpt>
      <trkpt lat="42.432687" lon="1.921573">
        <ele>1153.8</ele>
        <time>2013-08-09T16:27:22Z</time>
      </trkpt>
      <trkpt lat="42.432510" lon="1.921697">
        <ele>1153.7</ele>
        <time>2013-08-09T16:27:38Z</time>
      </trkpt>
      <trkpt lat="42.432348" lon="1.921861">
        <ele>1153.6</ele>
        <time>2013-08-09T16:27:54Z</time>
      </trkpt>
      <trkpt lat="42.432201" lon="1.922014">
        <ele>1153.3</ele>
        <time>2013-08-09T16:28:10Z</time>
      </trkpt>
      <trkpt lat="42.431991" lon="1.922233">
        <ele>1153.1</ele>
        <time>2013-08-09T16:28:27Z</time>
      </trkpt>
      <trkpt lat="42.431965" lon="1.922257">
        <ele>1153.2</ele>
        <time>2013-08-09T16:28:29Z</time>
      </trkpt>
      <trkpt lat="42.431778" lon="1.922502">
        <ele>1152.8</ele>
        <time>2013-08-09T16:28:46Z</time>
      </trkpt>
      <trkpt lat="42.431727" lon="1.922554">
        <ele>1152.8</ele>
        <time>2013-08-09T16:28:52Z</time>
      </trkpt>
      <trkpt lat="42.431591" lon="1.922647">
        <ele>1152.3</ele>
        <time>2013-08-09T16:29:06Z</time>
      </trkpt>
      <trkpt lat="42.431571" lon="1.922663">
        <ele>1152.3</ele>
        <time>2013-08-09T16:29:09Z</time>
      </trkpt>
      <trkpt lat="42.431412" lon="1.922773">
        <ele>1151.6</ele>
        <time>2013-08-09T16:29:24Z</time>
      </trkpt>
      <trkpt lat="42.431276" lon="1.922872">
        <ele>1151.2</ele>
        <time>2013-08-09T16:29:38Z</time>
      </trkpt>
      <trkpt lat="42.431121" lon="1.923036">
        <ele>1150.9</ele>
        <time>2013-08-09T16:29:54Z</time>
      </trkpt>
      <trkpt lat="42.430987" lon="1.923200">
        <ele>1150.4</ele>
        <time>2013-08-09T16:30:09Z</time>
      </trkpt>
      <trkpt lat="42.430853" lon="1.923315">
        <ele>1150.1</ele>
        <time>2013-08-09T16:30:22Z</time>
      </trkpt>
      <trkpt lat="42.430681" lon="1.923478">
        <ele>1149.5</ele>
        <time>2013-08-09T16:30:36Z</time>
      </trkpt>
      <trkpt lat="42.430495" lon="1.923632">
        <ele>1148.9</ele>
        <time>2013-08-09T16:30:51Z</time>
      </trkpt>
      <trkpt lat="42.430417" lon="1.923693">
        <ele>1148.7</ele>
        <time>2013-08-09T16:31:00Z</time>
      </trkpt>
      <trkpt lat="42.430247" lon="1.923955">
        <ele>1147.9</ele>
        <time>2013-08-09T16:31:17Z</time>
      </trkpt>
      <trkpt lat="42.430103" lon="1.924118">
        <ele>1147.6</ele>
        <time>2013-08-09T16:31:33Z</time>
      </trkpt>
      <trkpt lat="42.429942" lon="1.924332">
        <ele>1147.5</ele>
        <time>2013-08-09T16:31:48Z</time>
      </trkpt>
      <trkpt lat="42.429769" lon="1.924414">
        <ele>1147.9</ele>
        <time>2013-08-09T16:32:04Z</time>
      </trkpt>
      <trkpt lat="42.429750" lon="1.924434">
        <ele>1147.9</ele>
        <time>2013-08-09T16:32:06Z</time>
      </trkpt>
      <trkpt lat="42.429725" lon="1.924477">
        <ele>1147.9</ele>
        <time>2013-08-09T16:32:11Z</time>
      </trkpt>
      <trkpt lat="42.429692" lon="1.924537">
        <ele>1147.9</ele>
        <time>2013-08-09T16:32:15Z</time>
      </trkpt>
      <trkpt lat="42.429664" lon="1.924573">
        <ele>1147.9</ele>
        <time>2013-08-09T16:32:20Z</time>
      </trkpt>
      <trkpt lat="42.429576" lon="1.924658">
        <ele>1147.8</ele>
        <time>2013-08-09T16:32:33Z</time>
      </trkpt>
      <trkpt lat="42.429550" lon="1.924707">
        <ele>1147.9</ele>
        <time>2013-08-09T16:32:52Z</time>
      </trkpt>
      <trkpt lat="42.429516" lon="1.924764">
        <ele>1147.8</ele>
        <time>2013-08-09T16:33:12Z</time>
      </trkpt>
    </trkseg>
  </trk>
</gpx>
